<?xml version="1.0" encoding="UTF-8" standalone="no" ?>
<gpx xmlns="http://www.topografix.com/GPX/1/1" xmlns:xsi="http://www.w3.org/2001/XMLSchema-instance" xsi:schemaLocation="http://www.topografix.com/GPX/1/1 http://www.topografix.com/GPX/1/1/gpx.xsd" version="1.1" creator="VisuGPX - https://www.visugpx.com">
  <metadata>
    <name>CAHUZAC sur VERE</name>
    <desc><![CDATA[Parcours du PR : \"Vignobles et Châteaux\"]]></desc>
  </metadata>
  <trk>
    <name><![CDATA[CAHUZAC sur VERE_1]]></name>
    <trkseg>
      <trkpt lat="43.9832" lon="1.9111">
        <ele>236.2</ele>
        <time>2014-10-18T09:14:26Z</time>
      </trkpt>
      <trkpt lat="43.9832" lon="1.9111">
        <ele>236.2</ele>
        <time>2014-10-18T09:14:31Z</time>
      </trkpt>
      <trkpt lat="43.9832" lon="1.9111">
        <ele>236.2</ele>
        <time>2014-10-18T09:14:36Z</time>
      </trkpt>
      <trkpt lat="43.9832" lon="1.9111">
        <ele>236.2</ele>
        <time>2014-10-18T09:14:41Z</time>
      </trkpt>
      <trkpt lat="43.9832" lon="1.9111">
        <ele>236.2</ele>
        <time>2014-10-18T09:14:46Z</time>
      </trkpt>
      <trkpt lat="43.9832" lon="1.9111">
        <ele>236.2</ele>
        <time>2014-10-18T09:14:51Z</time>
      </trkpt>
      <trkpt lat="43.9832" lon="1.9111">
        <ele>236.2</ele>
        <time>2014-10-18T09:14:56Z</time>
      </trkpt>
      <trkpt lat="43.9832" lon="1.9111">
        <ele>236.2</ele>
        <time>2014-10-18T09:15:01Z</time>
      </trkpt>
      <trkpt lat="43.9832" lon="1.91111">
        <ele>236.2</ele>
        <time>2014-10-18T09:15:06Z</time>
      </trkpt>
      <trkpt lat="43.98319" lon="1.91111">
        <ele>236.2</ele>
        <time>2014-10-18T09:15:11Z</time>
      </trkpt>
      <trkpt lat="43.98319" lon="1.91111">
        <ele>236.2</ele>
        <time>2014-10-18T09:15:16Z</time>
      </trkpt>
      <trkpt lat="43.98319" lon="1.91111">
        <ele>236.2</ele>
        <time>2014-10-18T09:15:21Z</time>
      </trkpt>
      <trkpt lat="43.98319" lon="1.91111">
        <ele>236.2</ele>
        <time>2014-10-18T09:15:26Z</time>
      </trkpt>
      <trkpt lat="43.98319" lon="1.91111">
        <ele>236.2</ele>
        <time>2014-10-18T09:15:31Z</time>
      </trkpt>
      <trkpt lat="43.98319" lon="1.91111">
        <ele>236.2</ele>
        <time>2014-10-18T09:15:36Z</time>
      </trkpt>
      <trkpt lat="43.98319" lon="1.91111">
        <ele>236.2</ele>
        <time>2014-10-18T09:15:41Z</time>
      </trkpt>
      <trkpt lat="43.98319" lon="1.9111">
        <ele>236.2</ele>
        <time>2014-10-18T09:15:46Z</time>
      </trkpt>
      <trkpt lat="43.98319" lon="1.9111">
        <ele>236.2</ele>
        <time>2014-10-18T09:15:51Z</time>
      </trkpt>
      <trkpt lat="43.98319" lon="1.9111">
        <ele>236.2</ele>
        <time>2014-10-18T09:15:56Z</time>
      </trkpt>
      <trkpt lat="43.98319" lon="1.9111">
        <ele>236.2</ele>
        <time>2014-10-18T09:16:01Z</time>
      </trkpt>
      <trkpt lat="43.98319" lon="1.9111">
        <ele>236.2</ele>
        <time>2014-10-18T09:16:06Z</time>
      </trkpt>
      <trkpt lat="43.98319" lon="1.9111">
        <ele>236.2</ele>
        <time>2014-10-18T09:16:11Z</time>
      </trkpt>
      <trkpt lat="43.98319" lon="1.9111">
        <ele>236.2</ele>
        <time>2014-10-18T09:16:16Z</time>
      </trkpt>
      <trkpt lat="43.98319" lon="1.91106">
        <ele>227.15686</ele>
        <time>2014-10-18T09:16:21Z</time>
      </trkpt>
      <trkpt lat="43.98318" lon="1.91105">
        <ele>227.15686</ele>
        <time>2014-10-18T09:16:26Z</time>
      </trkpt>
      <trkpt lat="43.98318" lon="1.91105">
        <ele>227.15686</ele>
        <time>2014-10-18T09:16:31Z</time>
      </trkpt>
      <trkpt lat="43.98318" lon="1.91105">
        <ele>227.15686</ele>
        <time>2014-10-18T09:16:36Z</time>
      </trkpt>
      <trkpt lat="43.98318" lon="1.91105">
        <ele>227.15686</ele>
        <time>2014-10-18T09:16:41Z</time>
      </trkpt>
      <trkpt lat="43.98318" lon="1.91105">
        <ele>227.15686</ele>
        <time>2014-10-18T09:16:46Z</time>
      </trkpt>
      <trkpt lat="43.98318" lon="1.91105">
        <ele>227.15686</ele>
        <time>2014-10-18T09:16:51Z</time>
      </trkpt>
      <trkpt lat="43.98318" lon="1.91104">
        <ele>227.15686</ele>
        <time>2014-10-18T09:16:56Z</time>
      </trkpt>
      <trkpt lat="43.98316" lon="1.91104">
        <ele>227.15686</ele>
        <time>2014-10-18T09:17:01Z</time>
      </trkpt>
      <trkpt lat="43.98315" lon="1.91101">
        <ele>227.15686</ele>
        <time>2014-10-18T09:17:06Z</time>
      </trkpt>
      <trkpt lat="43.98315" lon="1.91101">
        <ele>227.15686</ele>
        <time>2014-10-18T09:17:11Z</time>
      </trkpt>
      <trkpt lat="43.98315" lon="1.91101">
        <ele>227.15686</ele>
        <time>2014-10-18T09:17:16Z</time>
      </trkpt>
      <trkpt lat="43.98315" lon="1.91101">
        <ele>227.15686</ele>
        <time>2014-10-18T09:17:21Z</time>
      </trkpt>
      <trkpt lat="43.98315" lon="1.91101">
        <ele>227.15686</ele>
        <time>2014-10-18T09:17:26Z</time>
      </trkpt>
      <trkpt lat="43.98315" lon="1.91101">
        <ele>227.15686</ele>
        <time>2014-10-18T09:17:31Z</time>
      </trkpt>
      <trkpt lat="43.98315" lon="1.911">
        <ele>227.15686</ele>
        <time>2014-10-18T09:17:36Z</time>
      </trkpt>
      <trkpt lat="43.98315" lon="1.911">
        <ele>227.15686</ele>
        <time>2014-10-18T09:17:41Z</time>
      </trkpt>
      <trkpt lat="43.98315" lon="1.911">
        <ele>227.15686</ele>
        <time>2014-10-18T09:17:46Z</time>
      </trkpt>
      <trkpt lat="43.98314" lon="1.91099">
        <ele>227.15686</ele>
        <time>2014-10-18T09:17:51Z</time>
      </trkpt>
      <trkpt lat="43.98314" lon="1.91099">
        <ele>227.15686</ele>
        <time>2014-10-18T09:17:56Z</time>
      </trkpt>
      <trkpt lat="43.98314" lon="1.91099">
        <ele>227.15686</ele>
        <time>2014-10-18T09:18:01Z</time>
      </trkpt>
      <trkpt lat="43.98315" lon="1.91099">
        <ele>227.15686</ele>
        <time>2014-10-18T09:18:06Z</time>
      </trkpt>
      <trkpt lat="43.98316" lon="1.91098">
        <ele>220.15956</ele>
        <time>2014-10-18T09:18:11Z</time>
      </trkpt>
      <trkpt lat="43.98316" lon="1.91098">
        <ele>220.15956</ele>
        <time>2014-10-18T09:18:16Z</time>
      </trkpt>
      <trkpt lat="43.98316" lon="1.91098">
        <ele>220.15956</ele>
        <time>2014-10-18T09:18:21Z</time>
      </trkpt>
      <trkpt lat="43.98316" lon="1.91098">
        <ele>220.15956</ele>
        <time>2014-10-18T09:18:26Z</time>
      </trkpt>
      <trkpt lat="43.98316" lon="1.91098">
        <ele>220.15956</ele>
        <time>2014-10-18T09:18:31Z</time>
      </trkpt>
      <trkpt lat="43.98316" lon="1.91098">
        <ele>220.15956</ele>
        <time>2014-10-18T09:18:36Z</time>
      </trkpt>
      <trkpt lat="43.98316" lon="1.91098">
        <ele>220.15956</ele>
        <time>2014-10-18T09:18:41Z</time>
      </trkpt>
      <trkpt lat="43.98316" lon="1.91098">
        <ele>220.15956</ele>
        <time>2014-10-18T09:18:46Z</time>
      </trkpt>
      <trkpt lat="43.98316" lon="1.91097">
        <ele>220.15956</ele>
        <time>2014-10-18T09:18:51Z</time>
      </trkpt>
      <trkpt lat="43.98313" lon="1.91094">
        <ele>220.15956</ele>
        <time>2014-10-18T09:18:56Z</time>
      </trkpt>
      <trkpt lat="43.9831" lon="1.91088">
        <ele>217.92908</ele>
        <time>2014-10-18T09:19:01Z</time>
      </trkpt>
      <trkpt lat="43.98309" lon="1.91082">
        <ele>217.92908</ele>
        <time>2014-10-18T09:19:06Z</time>
      </trkpt>
      <trkpt lat="43.98307" lon="1.91075">
        <ele>216.0354</ele>
        <time>2014-10-18T09:19:11Z</time>
      </trkpt>
      <trkpt lat="43.98305" lon="1.91071">
        <ele>216.0354</ele>
        <time>2014-10-18T09:19:16Z</time>
      </trkpt>
      <trkpt lat="43.98305" lon="1.91067">
        <ele>216.0354</ele>
        <time>2014-10-18T09:19:21Z</time>
      </trkpt>
      <trkpt lat="43.98302" lon="1.91061">
        <ele>215.91174</ele>
        <time>2014-10-18T09:19:26Z</time>
      </trkpt>
      <trkpt lat="43.983" lon="1.91054">
        <ele>215.91174</ele>
        <time>2014-10-18T09:19:31Z</time>
      </trkpt>
      <trkpt lat="43.98299" lon="1.91048">
        <ele>215.98244</ele>
        <time>2014-10-18T09:19:36Z</time>
      </trkpt>
      <trkpt lat="43.98298" lon="1.91043">
        <ele>215.98244</ele>
        <time>2014-10-18T09:19:41Z</time>
      </trkpt>
      <trkpt lat="43.98298" lon="1.91034">
        <ele>215.47476</ele>
        <time>2014-10-18T09:19:46Z</time>
      </trkpt>
      <trkpt lat="43.98297" lon="1.91028">
        <ele>215.47476</ele>
        <time>2014-10-18T09:19:51Z</time>
      </trkpt>
      <trkpt lat="43.98295" lon="1.91021">
        <ele>215.03522</ele>
        <time>2014-10-18T09:19:56Z</time>
      </trkpt>
      <trkpt lat="43.98294" lon="1.91014">
        <ele>215.03522</ele>
        <time>2014-10-18T09:20:01Z</time>
      </trkpt>
      <trkpt lat="43.98295" lon="1.91008">
        <ele>213.92838</ele>
        <time>2014-10-18T09:20:06Z</time>
      </trkpt>
      <trkpt lat="43.98297" lon="1.91004">
        <ele>213.92838</ele>
        <time>2014-10-18T09:20:11Z</time>
      </trkpt>
      <trkpt lat="43.983" lon="1.90999">
        <ele>213.92838</ele>
        <time>2014-10-18T09:20:16Z</time>
      </trkpt>
      <trkpt lat="43.98303" lon="1.90992">
        <ele>213.43971</ele>
        <time>2014-10-18T09:20:21Z</time>
      </trkpt>
      <trkpt lat="43.98306" lon="1.90988">
        <ele>213.43971</ele>
        <time>2014-10-18T09:20:26Z</time>
      </trkpt>
      <trkpt lat="43.98312" lon="1.90982">
        <ele>214.38031</ele>
        <time>2014-10-18T09:20:31Z</time>
      </trkpt>
      <trkpt lat="43.98317" lon="1.90978">
        <ele>214.38031</ele>
        <time>2014-10-18T09:20:36Z</time>
      </trkpt>
      <trkpt lat="43.98322" lon="1.90974">
        <ele>215.61356</ele>
        <time>2014-10-18T09:20:41Z</time>
      </trkpt>
      <trkpt lat="43.98326" lon="1.9097">
        <ele>215.61356</ele>
        <time>2014-10-18T09:20:46Z</time>
      </trkpt>
      <trkpt lat="43.98328" lon="1.90963">
        <ele>216.19734</ele>
        <time>2014-10-18T09:20:51Z</time>
      </trkpt>
      <trkpt lat="43.98329" lon="1.90954">
        <ele>216.19734</ele>
        <time>2014-10-18T09:20:56Z</time>
      </trkpt>
      <trkpt lat="43.9833" lon="1.90947">
        <ele>215.4916</ele>
        <time>2014-10-18T09:21:01Z</time>
      </trkpt>
      <trkpt lat="43.98333" lon="1.90941">
        <ele>215.4916</ele>
        <time>2014-10-18T09:21:06Z</time>
      </trkpt>
      <trkpt lat="43.98331" lon="1.90933">
        <ele>214.77637</ele>
        <time>2014-10-18T09:21:11Z</time>
      </trkpt>
      <trkpt lat="43.98326" lon="1.90928">
        <ele>214.77637</ele>
        <time>2014-10-18T09:21:16Z</time>
      </trkpt>
      <trkpt lat="43.98321" lon="1.90925">
        <ele>213.79073</ele>
        <time>2014-10-18T09:21:21Z</time>
      </trkpt>
      <trkpt lat="43.9832" lon="1.90917">
        <ele>213.79073</ele>
        <time>2014-10-18T09:21:26Z</time>
      </trkpt>
      <trkpt lat="43.9832" lon="1.90911">
        <ele>213.83737</ele>
        <time>2014-10-18T09:21:31Z</time>
      </trkpt>
      <trkpt lat="43.98317" lon="1.90907">
        <ele>213.83737</ele>
        <time>2014-10-18T09:21:36Z</time>
      </trkpt>
      <trkpt lat="43.98313" lon="1.90898">
        <ele>213.74718</ele>
        <time>2014-10-18T09:21:41Z</time>
      </trkpt>
      <trkpt lat="43.9831" lon="1.90891">
        <ele>213.74718</ele>
        <time>2014-10-18T09:21:46Z</time>
      </trkpt>
      <trkpt lat="43.98306" lon="1.90885">
        <ele>214.55977</ele>
        <time>2014-10-18T09:21:51Z</time>
      </trkpt>
      <trkpt lat="43.98301" lon="1.90882">
        <ele>214.55977</ele>
        <time>2014-10-18T09:21:56Z</time>
      </trkpt>
      <trkpt lat="43.98297" lon="1.90878">
        <ele>215.27768</ele>
        <time>2014-10-18T09:22:01Z</time>
      </trkpt>
      <trkpt lat="43.98293" lon="1.90872">
        <ele>215.27768</ele>
        <time>2014-10-18T09:22:06Z</time>
      </trkpt>
      <trkpt lat="43.98289" lon="1.90867">
        <ele>216.76114</ele>
        <time>2014-10-18T09:22:11Z</time>
      </trkpt>
      <trkpt lat="43.98285" lon="1.90861">
        <ele>216.76114</ele>
        <time>2014-10-18T09:22:16Z</time>
      </trkpt>
      <trkpt lat="43.98282" lon="1.90855">
        <ele>217.99117</ele>
        <time>2014-10-18T09:22:21Z</time>
      </trkpt>
      <trkpt lat="43.98279" lon="1.90848">
        <ele>217.99117</ele>
        <time>2014-10-18T09:22:26Z</time>
      </trkpt>
      <trkpt lat="43.98277" lon="1.90838">
        <ele>218.38046</ele>
        <time>2014-10-18T09:22:31Z</time>
      </trkpt>
      <trkpt lat="43.98274" lon="1.90829">
        <ele>218.38046</ele>
        <time>2014-10-18T09:22:36Z</time>
      </trkpt>
      <trkpt lat="43.9827" lon="1.90822">
        <ele>218.05273</ele>
        <time>2014-10-18T09:22:41Z</time>
      </trkpt>
      <trkpt lat="43.98268" lon="1.90816">
        <ele>218.05273</ele>
        <time>2014-10-18T09:22:46Z</time>
      </trkpt>
      <trkpt lat="43.98265" lon="1.90809">
        <ele>217.55338</ele>
        <time>2014-10-18T09:22:51Z</time>
      </trkpt>
      <trkpt lat="43.9826" lon="1.90802">
        <ele>217.55338</ele>
        <time>2014-10-18T09:22:56Z</time>
      </trkpt>
      <trkpt lat="43.98255" lon="1.90797">
        <ele>217.39043</ele>
        <time>2014-10-18T09:23:01Z</time>
      </trkpt>
      <trkpt lat="43.98253" lon="1.9079">
        <ele>217.39043</ele>
        <time>2014-10-18T09:23:06Z</time>
      </trkpt>
      <trkpt lat="43.9825" lon="1.90783">
        <ele>217.60089</ele>
        <time>2014-10-18T09:23:11Z</time>
      </trkpt>
      <trkpt lat="43.98246" lon="1.90778">
        <ele>217.60089</ele>
        <time>2014-10-18T09:23:16Z</time>
      </trkpt>
      <trkpt lat="43.98243" lon="1.90773">
        <ele>217.42816</ele>
        <time>2014-10-18T09:23:21Z</time>
      </trkpt>
      <trkpt lat="43.98238" lon="1.90764">
        <ele>217.42816</ele>
        <time>2014-10-18T09:23:26Z</time>
      </trkpt>
      <trkpt lat="43.98234" lon="1.90756">
        <ele>217.14513</ele>
        <time>2014-10-18T09:23:31Z</time>
      </trkpt>
      <trkpt lat="43.98232" lon="1.90748">
        <ele>217.14513</ele>
        <time>2014-10-18T09:23:36Z</time>
      </trkpt>
      <trkpt lat="43.98229" lon="1.9074">
        <ele>216.60724</ele>
        <time>2014-10-18T09:23:41Z</time>
      </trkpt>
      <trkpt lat="43.98226" lon="1.90734">
        <ele>216.60724</ele>
        <time>2014-10-18T09:23:46Z</time>
      </trkpt>
      <trkpt lat="43.98222" lon="1.90728">
        <ele>216.77974</ele>
        <time>2014-10-18T09:23:51Z</time>
      </trkpt>
      <trkpt lat="43.98218" lon="1.90721">
        <ele>216.77974</ele>
        <time>2014-10-18T09:23:56Z</time>
      </trkpt>
      <trkpt lat="43.98216" lon="1.90715">
        <ele>216.94112</ele>
        <time>2014-10-18T09:24:01Z</time>
      </trkpt>
      <trkpt lat="43.98212" lon="1.90709">
        <ele>216.94112</ele>
        <time>2014-10-18T09:24:06Z</time>
      </trkpt>
      <trkpt lat="43.98209" lon="1.90704">
        <ele>217.43892</ele>
        <time>2014-10-18T09:24:11Z</time>
      </trkpt>
      <trkpt lat="43.98207" lon="1.90698">
        <ele>217.43892</ele>
        <time>2014-10-18T09:24:16Z</time>
      </trkpt>
      <trkpt lat="43.98203" lon="1.90691">
        <ele>216.59477</ele>
        <time>2014-10-18T09:24:21Z</time>
      </trkpt>
      <trkpt lat="43.982" lon="1.90685">
        <ele>216.59477</ele>
        <time>2014-10-18T09:24:26Z</time>
      </trkpt>
      <trkpt lat="43.98197" lon="1.9068">
        <ele>216.31084</ele>
        <time>2014-10-18T09:24:31Z</time>
      </trkpt>
      <trkpt lat="43.98193" lon="1.90672">
        <ele>216.31084</ele>
        <time>2014-10-18T09:24:36Z</time>
      </trkpt>
      <trkpt lat="43.98191" lon="1.90663">
        <ele>216.02055</ele>
        <time>2014-10-18T09:24:41Z</time>
      </trkpt>
      <trkpt lat="43.98189" lon="1.90655">
        <ele>216.02055</ele>
        <time>2014-10-18T09:24:46Z</time>
      </trkpt>
      <trkpt lat="43.98185" lon="1.90647">
        <ele>216.54286</ele>
        <time>2014-10-18T09:24:51Z</time>
      </trkpt>
      <trkpt lat="43.98181" lon="1.90639">
        <ele>216.54286</ele>
        <time>2014-10-18T09:24:56Z</time>
      </trkpt>
      <trkpt lat="43.98178" lon="1.9063">
        <ele>217.24904</ele>
        <time>2014-10-18T09:25:01Z</time>
      </trkpt>
      <trkpt lat="43.98175" lon="1.90625">
        <ele>217.24904</ele>
        <time>2014-10-18T09:25:06Z</time>
      </trkpt>
      <trkpt lat="43.98173" lon="1.90618">
        <ele>217.85641</ele>
        <time>2014-10-18T09:25:11Z</time>
      </trkpt>
      <trkpt lat="43.98171" lon="1.90612">
        <ele>217.85641</ele>
        <time>2014-10-18T09:25:16Z</time>
      </trkpt>
      <trkpt lat="43.98168" lon="1.90603">
        <ele>218.31213</ele>
        <time>2014-10-18T09:25:21Z</time>
      </trkpt>
      <trkpt lat="43.98166" lon="1.90595">
        <ele>218.31213</ele>
        <time>2014-10-18T09:25:26Z</time>
      </trkpt>
      <trkpt lat="43.98167" lon="1.90588">
        <ele>218.5664</ele>
        <time>2014-10-18T09:25:31Z</time>
      </trkpt>
      <trkpt lat="43.98169" lon="1.90578">
        <ele>218.5664</ele>
        <time>2014-10-18T09:25:36Z</time>
      </trkpt>
      <trkpt lat="43.98165" lon="1.9057">
        <ele>218.48529</ele>
        <time>2014-10-18T09:25:41Z</time>
      </trkpt>
      <trkpt lat="43.98161" lon="1.90563">
        <ele>218.48529</ele>
        <time>2014-10-18T09:25:46Z</time>
      </trkpt>
      <trkpt lat="43.98159" lon="1.90554">
        <ele>217.34216</ele>
        <time>2014-10-18T09:25:51Z</time>
      </trkpt>
      <trkpt lat="43.98156" lon="1.90547">
        <ele>217.34216</ele>
        <time>2014-10-18T09:25:56Z</time>
      </trkpt>
      <trkpt lat="43.98154" lon="1.90539">
        <ele>216.77023</ele>
        <time>2014-10-18T09:26:01Z</time>
      </trkpt>
      <trkpt lat="43.98152" lon="1.90532">
        <ele>216.77023</ele>
        <time>2014-10-18T09:26:06Z</time>
      </trkpt>
      <trkpt lat="43.98149" lon="1.90525">
        <ele>216.50137</ele>
        <time>2014-10-18T09:26:11Z</time>
      </trkpt>
      <trkpt lat="43.98146" lon="1.90517">
        <ele>216.50137</ele>
        <time>2014-10-18T09:26:16Z</time>
      </trkpt>
      <trkpt lat="43.98144" lon="1.90509">
        <ele>216.66805</ele>
        <time>2014-10-18T09:26:21Z</time>
      </trkpt>
      <trkpt lat="43.98141" lon="1.90503">
        <ele>216.66805</ele>
        <time>2014-10-18T09:26:26Z</time>
      </trkpt>
      <trkpt lat="43.98138" lon="1.90496">
        <ele>216.80856</ele>
        <time>2014-10-18T09:26:31Z</time>
      </trkpt>
      <trkpt lat="43.98135" lon="1.90489">
        <ele>216.80856</ele>
        <time>2014-10-18T09:26:36Z</time>
      </trkpt>
      <trkpt lat="43.98132" lon="1.9048">
        <ele>216.20488</ele>
        <time>2014-10-18T09:26:41Z</time>
      </trkpt>
      <trkpt lat="43.98129" lon="1.90472">
        <ele>216.20488</ele>
        <time>2014-10-18T09:26:46Z</time>
      </trkpt>
      <trkpt lat="43.98125" lon="1.90466">
        <ele>216.04047</ele>
        <time>2014-10-18T09:26:51Z</time>
      </trkpt>
      <trkpt lat="43.98122" lon="1.9046">
        <ele>216.04047</ele>
        <time>2014-10-18T09:26:56Z</time>
      </trkpt>
      <trkpt lat="43.9812" lon="1.90454">
        <ele>215.98439</ele>
        <time>2014-10-18T09:27:01Z</time>
      </trkpt>
      <trkpt lat="43.98118" lon="1.90446">
        <ele>215.98439</ele>
        <time>2014-10-18T09:27:06Z</time>
      </trkpt>
      <trkpt lat="43.98116" lon="1.90438">
        <ele>215.51685</ele>
        <time>2014-10-18T09:27:11Z</time>
      </trkpt>
      <trkpt lat="43.98114" lon="1.90428">
        <ele>215.51685</ele>
        <time>2014-10-18T09:27:16Z</time>
      </trkpt>
      <trkpt lat="43.98112" lon="1.90419">
        <ele>214.95804</ele>
        <time>2014-10-18T09:27:21Z</time>
      </trkpt>
      <trkpt lat="43.98111" lon="1.90409">
        <ele>214.95804</ele>
        <time>2014-10-18T09:27:26Z</time>
      </trkpt>
      <trkpt lat="43.9811" lon="1.904">
        <ele>214.57452</ele>
        <time>2014-10-18T09:27:31Z</time>
      </trkpt>
      <trkpt lat="43.98109" lon="1.90392">
        <ele>214.57452</ele>
        <time>2014-10-18T09:27:36Z</time>
      </trkpt>
      <trkpt lat="43.98106" lon="1.90383">
        <ele>214.38495</ele>
        <time>2014-10-18T09:27:41Z</time>
      </trkpt>
      <trkpt lat="43.98103" lon="1.90377">
        <ele>214.38495</ele>
        <time>2014-10-18T09:27:46Z</time>
      </trkpt>
      <trkpt lat="43.98101" lon="1.9037">
        <ele>213.71208</ele>
        <time>2014-10-18T09:27:51Z</time>
      </trkpt>
      <trkpt lat="43.98098" lon="1.90363">
        <ele>213.71208</ele>
        <time>2014-10-18T09:27:56Z</time>
      </trkpt>
      <trkpt lat="43.98097" lon="1.90358">
        <ele>213.89172</ele>
        <time>2014-10-18T09:28:01Z</time>
      </trkpt>
      <trkpt lat="43.98095" lon="1.90351">
        <ele>213.89172</ele>
        <time>2014-10-18T09:28:06Z</time>
      </trkpt>
      <trkpt lat="43.98092" lon="1.90343">
        <ele>214.07375</ele>
        <time>2014-10-18T09:28:11Z</time>
      </trkpt>
      <trkpt lat="43.9809" lon="1.90336">
        <ele>214.07375</ele>
        <time>2014-10-18T09:28:16Z</time>
      </trkpt>
      <trkpt lat="43.98088" lon="1.90327">
        <ele>214.16771</ele>
        <time>2014-10-18T09:28:21Z</time>
      </trkpt>
      <trkpt lat="43.98087" lon="1.9032">
        <ele>214.16771</ele>
        <time>2014-10-18T09:28:26Z</time>
      </trkpt>
      <trkpt lat="43.98085" lon="1.90313">
        <ele>214.36037</ele>
        <time>2014-10-18T09:28:31Z</time>
      </trkpt>
      <trkpt lat="43.98081" lon="1.90306">
        <ele>214.36037</ele>
        <time>2014-10-18T09:28:36Z</time>
      </trkpt>
      <trkpt lat="43.98077" lon="1.90301">
        <ele>214.43437</ele>
        <time>2014-10-18T09:28:41Z</time>
      </trkpt>
      <trkpt lat="43.98076" lon="1.90301">
        <ele>214.43437</ele>
        <time>2014-10-18T09:28:46Z</time>
      </trkpt>
      <trkpt lat="43.98077" lon="1.90301">
        <ele>214.43437</ele>
        <time>2014-10-18T09:28:51Z</time>
      </trkpt>
      <trkpt lat="43.98077" lon="1.90301">
        <ele>214.43437</ele>
        <time>2014-10-18T09:28:56Z</time>
      </trkpt>
      <trkpt lat="43.98077" lon="1.90301">
        <ele>214.43437</ele>
        <time>2014-10-18T09:29:01Z</time>
      </trkpt>
      <trkpt lat="43.98077" lon="1.90301">
        <ele>214.43437</ele>
        <time>2014-10-18T09:29:06Z</time>
      </trkpt>
      <trkpt lat="43.98077" lon="1.90301">
        <ele>214.43437</ele>
        <time>2014-10-18T09:29:11Z</time>
      </trkpt>
      <trkpt lat="43.98077" lon="1.90301">
        <ele>214.43437</ele>
        <time>2014-10-18T09:29:16Z</time>
      </trkpt>
      <trkpt lat="43.98077" lon="1.90301">
        <ele>214.43437</ele>
        <time>2014-10-18T09:29:21Z</time>
      </trkpt>
      <trkpt lat="43.98077" lon="1.90301">
        <ele>214.43437</ele>
        <time>2014-10-18T09:29:26Z</time>
      </trkpt>
      <trkpt lat="43.98077" lon="1.90301">
        <ele>214.43437</ele>
        <time>2014-10-18T09:29:31Z</time>
      </trkpt>
      <trkpt lat="43.98077" lon="1.90301">
        <ele>214.43437</ele>
        <time>2014-10-18T09:29:36Z</time>
      </trkpt>
      <trkpt lat="43.98077" lon="1.90301">
        <ele>214.43437</ele>
        <time>2014-10-18T09:29:41Z</time>
      </trkpt>
      <trkpt lat="43.98077" lon="1.90301">
        <ele>214.43437</ele>
        <time>2014-10-18T09:29:46Z</time>
      </trkpt>
      <trkpt lat="43.98077" lon="1.90301">
        <ele>214.43437</ele>
        <time>2014-10-18T09:29:51Z</time>
      </trkpt>
      <trkpt lat="43.98077" lon="1.90301">
        <ele>214.43437</ele>
        <time>2014-10-18T09:29:56Z</time>
      </trkpt>
      <trkpt lat="43.98077" lon="1.90301">
        <ele>214.43437</ele>
        <time>2014-10-18T09:30:01Z</time>
      </trkpt>
      <trkpt lat="43.98077" lon="1.90301">
        <ele>214.43437</ele>
        <time>2014-10-18T09:30:06Z</time>
      </trkpt>
      <trkpt lat="43.98077" lon="1.90301">
        <ele>214.43437</ele>
        <time>2014-10-18T09:30:11Z</time>
      </trkpt>
      <trkpt lat="43.98077" lon="1.90301">
        <ele>214.43437</ele>
        <time>2014-10-18T09:30:16Z</time>
      </trkpt>
      <trkpt lat="43.98077" lon="1.90301">
        <ele>214.43437</ele>
        <time>2014-10-18T09:30:21Z</time>
      </trkpt>
      <trkpt lat="43.98077" lon="1.90301">
        <ele>214.43437</ele>
        <time>2014-10-18T09:30:26Z</time>
      </trkpt>
      <trkpt lat="43.98077" lon="1.90301">
        <ele>214.43437</ele>
        <time>2014-10-18T09:30:31Z</time>
      </trkpt>
      <trkpt lat="43.98077" lon="1.90301">
        <ele>214.43437</ele>
        <time>2014-10-18T09:30:36Z</time>
      </trkpt>
      <trkpt lat="43.98077" lon="1.90301">
        <ele>214.43437</ele>
        <time>2014-10-18T09:30:41Z</time>
      </trkpt>
      <trkpt lat="43.98077" lon="1.90301">
        <ele>214.43437</ele>
        <time>2014-10-18T09:30:46Z</time>
      </trkpt>
      <trkpt lat="43.98077" lon="1.90301">
        <ele>214.43437</ele>
        <time>2014-10-18T09:30:51Z</time>
      </trkpt>
      <trkpt lat="43.98077" lon="1.90301">
        <ele>214.43437</ele>
        <time>2014-10-18T09:30:56Z</time>
      </trkpt>
      <trkpt lat="43.98077" lon="1.90301">
        <ele>214.43437</ele>
        <time>2014-10-18T09:31:01Z</time>
      </trkpt>
      <trkpt lat="43.98077" lon="1.90301">
        <ele>214.43437</ele>
        <time>2014-10-18T09:31:06Z</time>
      </trkpt>
      <trkpt lat="43.98077" lon="1.90301">
        <ele>214.43437</ele>
        <time>2014-10-18T09:31:11Z</time>
      </trkpt>
      <trkpt lat="43.98077" lon="1.90301">
        <ele>214.43437</ele>
        <time>2014-10-18T09:31:16Z</time>
      </trkpt>
      <trkpt lat="43.98077" lon="1.90301">
        <ele>214.43437</ele>
        <time>2014-10-18T09:31:21Z</time>
      </trkpt>
      <trkpt lat="43.98077" lon="1.90301">
        <ele>214.43437</ele>
        <time>2014-10-18T09:31:26Z</time>
      </trkpt>
      <trkpt lat="43.98077" lon="1.90301">
        <ele>214.43437</ele>
        <time>2014-10-18T09:31:31Z</time>
      </trkpt>
      <trkpt lat="43.98077" lon="1.90301">
        <ele>214.43437</ele>
        <time>2014-10-18T09:31:36Z</time>
      </trkpt>
      <trkpt lat="43.98077" lon="1.90301">
        <ele>214.43437</ele>
        <time>2014-10-18T09:31:51Z</time>
      </trkpt>
      <trkpt lat="43.98077" lon="1.90302">
        <ele>214.43437</ele>
        <time>2014-10-18T09:31:56Z</time>
      </trkpt>
      <trkpt lat="43.98076" lon="1.90301">
        <ele>214.43437</ele>
        <time>2014-10-18T09:32:01Z</time>
      </trkpt>
      <trkpt lat="43.98078" lon="1.903">
        <ele>214.43437</ele>
        <time>2014-10-18T09:32:06Z</time>
      </trkpt>
      <trkpt lat="43.98078" lon="1.90302">
        <ele>214.43437</ele>
        <time>2014-10-18T09:32:11Z</time>
      </trkpt>
      <trkpt lat="43.98079" lon="1.903">
        <ele>214.43437</ele>
        <time>2014-10-18T09:32:16Z</time>
      </trkpt>
      <trkpt lat="43.98081" lon="1.90298">
        <ele>215.97826</ele>
        <time>2014-10-18T09:32:21Z</time>
      </trkpt>
      <trkpt lat="43.98082" lon="1.90298">
        <ele>215.97826</ele>
        <time>2014-10-18T09:32:26Z</time>
      </trkpt>
      <trkpt lat="43.98083" lon="1.90299">
        <ele>215.97826</ele>
        <time>2014-10-18T09:32:31Z</time>
      </trkpt>
      <trkpt lat="43.98083" lon="1.90299">
        <ele>215.97826</ele>
        <time>2014-10-18T09:32:36Z</time>
      </trkpt>
      <trkpt lat="43.98083" lon="1.90299">
        <ele>215.97826</ele>
        <time>2014-10-18T09:32:41Z</time>
      </trkpt>
      <trkpt lat="43.98083" lon="1.90299">
        <ele>215.97826</ele>
        <time>2014-10-18T09:32:46Z</time>
      </trkpt>
      <trkpt lat="43.98083" lon="1.90299">
        <ele>215.97826</ele>
        <time>2014-10-18T09:32:51Z</time>
      </trkpt>
      <trkpt lat="43.98083" lon="1.90299">
        <ele>215.97826</ele>
        <time>2014-10-18T09:32:56Z</time>
      </trkpt>
      <trkpt lat="43.98083" lon="1.90299">
        <ele>215.97826</ele>
        <time>2014-10-18T09:33:01Z</time>
      </trkpt>
      <trkpt lat="43.98083" lon="1.90299">
        <ele>215.97826</ele>
        <time>2014-10-18T09:33:06Z</time>
      </trkpt>
      <trkpt lat="43.98083" lon="1.90299">
        <ele>215.97826</ele>
        <time>2014-10-18T09:33:11Z</time>
      </trkpt>
      <trkpt lat="43.98082" lon="1.903">
        <ele>215.97826</ele>
        <time>2014-10-18T09:33:16Z</time>
      </trkpt>
      <trkpt lat="43.98079" lon="1.90303">
        <ele>215.97826</ele>
        <time>2014-10-18T09:33:21Z</time>
      </trkpt>
      <trkpt lat="43.98073" lon="1.90302">
        <ele>217.18867</ele>
        <time>2014-10-18T09:33:26Z</time>
      </trkpt>
      <trkpt lat="43.98068" lon="1.90296">
        <ele>217.18867</ele>
        <time>2014-10-18T09:33:31Z</time>
      </trkpt>
      <trkpt lat="43.98064" lon="1.90293">
        <ele>218.48996</ele>
        <time>2014-10-18T09:33:36Z</time>
      </trkpt>
      <trkpt lat="43.98059" lon="1.9029">
        <ele>218.48996</ele>
        <time>2014-10-18T09:33:41Z</time>
      </trkpt>
      <trkpt lat="43.98054" lon="1.90286">
        <ele>218.71841</ele>
        <time>2014-10-18T09:33:46Z</time>
      </trkpt>
      <trkpt lat="43.98049" lon="1.90282">
        <ele>218.71841</ele>
        <time>2014-10-18T09:33:51Z</time>
      </trkpt>
      <trkpt lat="43.98045" lon="1.90278">
        <ele>219.05232</ele>
        <time>2014-10-18T09:33:56Z</time>
      </trkpt>
      <trkpt lat="43.9804" lon="1.90276">
        <ele>219.05232</ele>
        <time>2014-10-18T09:34:01Z</time>
      </trkpt>
      <trkpt lat="43.98034" lon="1.90273">
        <ele>219.10007</ele>
        <time>2014-10-18T09:34:06Z</time>
      </trkpt>
      <trkpt lat="43.98031" lon="1.90268">
        <ele>219.10007</ele>
        <time>2014-10-18T09:34:11Z</time>
      </trkpt>
      <trkpt lat="43.98028" lon="1.90264">
        <ele>219.10007</ele>
        <time>2014-10-18T09:34:16Z</time>
      </trkpt>
      <trkpt lat="43.98028" lon="1.90267">
        <ele>219.42804</ele>
        <time>2014-10-18T09:34:21Z</time>
      </trkpt>
      <trkpt lat="43.98024" lon="1.90267">
        <ele>219.42804</ele>
        <time>2014-10-18T09:34:26Z</time>
      </trkpt>
      <trkpt lat="43.98018" lon="1.90263">
        <ele>219.69098</ele>
        <time>2014-10-18T09:34:31Z</time>
      </trkpt>
      <trkpt lat="43.98013" lon="1.90256">
        <ele>219.69098</ele>
        <time>2014-10-18T09:34:36Z</time>
      </trkpt>
      <trkpt lat="43.98009" lon="1.90252">
        <ele>219.49905</ele>
        <time>2014-10-18T09:34:41Z</time>
      </trkpt>
      <trkpt lat="43.98006" lon="1.90248">
        <ele>219.49905</ele>
        <time>2014-10-18T09:34:46Z</time>
      </trkpt>
      <trkpt lat="43.98001" lon="1.90244">
        <ele>219.61864</ele>
        <time>2014-10-18T09:34:51Z</time>
      </trkpt>
      <trkpt lat="43.97996" lon="1.9024">
        <ele>219.61864</ele>
        <time>2014-10-18T09:34:56Z</time>
      </trkpt>
      <trkpt lat="43.97991" lon="1.90236">
        <ele>219.69019</ele>
        <time>2014-10-18T09:35:01Z</time>
      </trkpt>
      <trkpt lat="43.97988" lon="1.90233">
        <ele>219.69019</ele>
        <time>2014-10-18T09:35:06Z</time>
      </trkpt>
      <trkpt lat="43.97982" lon="1.90231">
        <ele>219.99391</ele>
        <time>2014-10-18T09:35:11Z</time>
      </trkpt>
      <trkpt lat="43.97976" lon="1.90228">
        <ele>219.99391</ele>
        <time>2014-10-18T09:35:16Z</time>
      </trkpt>
      <trkpt lat="43.97971" lon="1.90224">
        <ele>220.40965</ele>
        <time>2014-10-18T09:35:21Z</time>
      </trkpt>
      <trkpt lat="43.97966" lon="1.90223">
        <ele>220.40965</ele>
        <time>2014-10-18T09:35:26Z</time>
      </trkpt>
      <trkpt lat="43.97962" lon="1.9022">
        <ele>221.5952</ele>
        <time>2014-10-18T09:35:31Z</time>
      </trkpt>
      <trkpt lat="43.97957" lon="1.90218">
        <ele>221.5952</ele>
        <time>2014-10-18T09:35:36Z</time>
      </trkpt>
      <trkpt lat="43.97951" lon="1.90214">
        <ele>221.79366</ele>
        <time>2014-10-18T09:35:41Z</time>
      </trkpt>
      <trkpt lat="43.97946" lon="1.90209">
        <ele>221.79366</ele>
        <time>2014-10-18T09:35:46Z</time>
      </trkpt>
      <trkpt lat="43.97942" lon="1.90204">
        <ele>221.16719</ele>
        <time>2014-10-18T09:35:51Z</time>
      </trkpt>
      <trkpt lat="43.97935" lon="1.90199">
        <ele>221.16719</ele>
        <time>2014-10-18T09:35:56Z</time>
      </trkpt>
      <trkpt lat="43.97932" lon="1.90193">
        <ele>220.79277</ele>
        <time>2014-10-18T09:36:01Z</time>
      </trkpt>
      <trkpt lat="43.97926" lon="1.90189">
        <ele>220.79277</ele>
        <time>2014-10-18T09:36:06Z</time>
      </trkpt>
      <trkpt lat="43.97922" lon="1.90186">
        <ele>221.1295</ele>
        <time>2014-10-18T09:36:11Z</time>
      </trkpt>
      <trkpt lat="43.97917" lon="1.90181">
        <ele>221.1295</ele>
        <time>2014-10-18T09:36:16Z</time>
      </trkpt>
      <trkpt lat="43.97912" lon="1.90176">
        <ele>221.17014</ele>
        <time>2014-10-18T09:36:21Z</time>
      </trkpt>
      <trkpt lat="43.97907" lon="1.90171">
        <ele>221.17014</ele>
        <time>2014-10-18T09:36:26Z</time>
      </trkpt>
      <trkpt lat="43.97904" lon="1.90167">
        <ele>221.50012</ele>
        <time>2014-10-18T09:36:31Z</time>
      </trkpt>
      <trkpt lat="43.97898" lon="1.90165">
        <ele>221.50012</ele>
        <time>2014-10-18T09:36:36Z</time>
      </trkpt>
      <trkpt lat="43.97893" lon="1.90161">
        <ele>221.08727</ele>
        <time>2014-10-18T09:36:41Z</time>
      </trkpt>
      <trkpt lat="43.97889" lon="1.90158">
        <ele>221.08727</ele>
        <time>2014-10-18T09:36:46Z</time>
      </trkpt>
      <trkpt lat="43.97882" lon="1.90156">
        <ele>219.8008</ele>
        <time>2014-10-18T09:36:51Z</time>
      </trkpt>
      <trkpt lat="43.97875" lon="1.90155">
        <ele>219.8008</ele>
        <time>2014-10-18T09:36:56Z</time>
      </trkpt>
      <trkpt lat="43.9787" lon="1.90153">
        <ele>219.10838</ele>
        <time>2014-10-18T09:37:01Z</time>
      </trkpt>
      <trkpt lat="43.97866" lon="1.9015">
        <ele>219.10838</ele>
        <time>2014-10-18T09:37:06Z</time>
      </trkpt>
      <trkpt lat="43.97863" lon="1.90146">
        <ele>219.10838</ele>
        <time>2014-10-18T09:37:11Z</time>
      </trkpt>
      <trkpt lat="43.97857" lon="1.90143">
        <ele>217.65602</ele>
        <time>2014-10-18T09:37:16Z</time>
      </trkpt>
      <trkpt lat="43.9785" lon="1.90141">
        <ele>217.65602</ele>
        <time>2014-10-18T09:37:21Z</time>
      </trkpt>
      <trkpt lat="43.97844" lon="1.9014">
        <ele>216.51349</ele>
        <time>2014-10-18T09:37:26Z</time>
      </trkpt>
      <trkpt lat="43.97839" lon="1.90138">
        <ele>216.51349</ele>
        <time>2014-10-18T09:37:31Z</time>
      </trkpt>
      <trkpt lat="43.97834" lon="1.90136">
        <ele>214.17636</ele>
        <time>2014-10-18T09:37:36Z</time>
      </trkpt>
      <trkpt lat="43.97829" lon="1.90135">
        <ele>214.17636</ele>
        <time>2014-10-18T09:37:41Z</time>
      </trkpt>
      <trkpt lat="43.97824" lon="1.90134">
        <ele>212.0513</ele>
        <time>2014-10-18T09:37:46Z</time>
      </trkpt>
      <trkpt lat="43.97819" lon="1.90131">
        <ele>212.0513</ele>
        <time>2014-10-18T09:37:51Z</time>
      </trkpt>
      <trkpt lat="43.97815" lon="1.90131">
        <ele>210.63347</ele>
        <time>2014-10-18T09:37:56Z</time>
      </trkpt>
      <trkpt lat="43.97809" lon="1.9013">
        <ele>210.63347</ele>
        <time>2014-10-18T09:38:01Z</time>
      </trkpt>
      <trkpt lat="43.97804" lon="1.90129">
        <ele>209.77408</ele>
        <time>2014-10-18T09:38:06Z</time>
      </trkpt>
      <trkpt lat="43.97798" lon="1.90125">
        <ele>209.77408</ele>
        <time>2014-10-18T09:38:11Z</time>
      </trkpt>
      <trkpt lat="43.97792" lon="1.9012">
        <ele>208.58395</ele>
        <time>2014-10-18T09:38:16Z</time>
      </trkpt>
      <trkpt lat="43.97789" lon="1.90113">
        <ele>208.58395</ele>
        <time>2014-10-18T09:38:21Z</time>
      </trkpt>
      <trkpt lat="43.97787" lon="1.90104">
        <ele>207.16283</ele>
        <time>2014-10-18T09:38:26Z</time>
      </trkpt>
      <trkpt lat="43.97786" lon="1.90096">
        <ele>207.16283</ele>
        <time>2014-10-18T09:38:31Z</time>
      </trkpt>
      <trkpt lat="43.97784" lon="1.90086">
        <ele>205.81995</ele>
        <time>2014-10-18T09:38:36Z</time>
      </trkpt>
      <trkpt lat="43.97787" lon="1.90079">
        <ele>205.81995</ele>
        <time>2014-10-18T09:38:41Z</time>
      </trkpt>
      <trkpt lat="43.97787" lon="1.90071">
        <ele>205.02908</ele>
        <time>2014-10-18T09:38:46Z</time>
      </trkpt>
      <trkpt lat="43.97787" lon="1.90062">
        <ele>205.02908</ele>
        <time>2014-10-18T09:38:51Z</time>
      </trkpt>
      <trkpt lat="43.97789" lon="1.90056">
        <ele>203.9441</ele>
        <time>2014-10-18T09:38:56Z</time>
      </trkpt>
      <trkpt lat="43.97794" lon="1.9005">
        <ele>203.9441</ele>
        <time>2014-10-18T09:39:01Z</time>
      </trkpt>
      <trkpt lat="43.97797" lon="1.90043">
        <ele>203.4402</ele>
        <time>2014-10-18T09:39:06Z</time>
      </trkpt>
      <trkpt lat="43.978" lon="1.90037">
        <ele>203.4402</ele>
        <time>2014-10-18T09:39:11Z</time>
      </trkpt>
      <trkpt lat="43.97799" lon="1.90029">
        <ele>203.34592</ele>
        <time>2014-10-18T09:39:16Z</time>
      </trkpt>
      <trkpt lat="43.97797" lon="1.90021">
        <ele>203.34592</ele>
        <time>2014-10-18T09:39:21Z</time>
      </trkpt>
      <trkpt lat="43.97794" lon="1.90013">
        <ele>203.29912</ele>
        <time>2014-10-18T09:39:26Z</time>
      </trkpt>
      <trkpt lat="43.97791" lon="1.90008">
        <ele>203.29912</ele>
        <time>2014-10-18T09:39:31Z</time>
      </trkpt>
      <trkpt lat="43.97787" lon="1.90002">
        <ele>202.99294</ele>
        <time>2014-10-18T09:39:36Z</time>
      </trkpt>
      <trkpt lat="43.97784" lon="1.89995">
        <ele>202.99294</ele>
        <time>2014-10-18T09:39:41Z</time>
      </trkpt>
      <trkpt lat="43.97783" lon="1.89987">
        <ele>201.81192</ele>
        <time>2014-10-18T09:39:46Z</time>
      </trkpt>
      <trkpt lat="43.9778" lon="1.89979">
        <ele>201.81192</ele>
        <time>2014-10-18T09:39:51Z</time>
      </trkpt>
      <trkpt lat="43.97775" lon="1.89973">
        <ele>200.73166</ele>
        <time>2014-10-18T09:39:56Z</time>
      </trkpt>
      <trkpt lat="43.97769" lon="1.89968">
        <ele>200.73166</ele>
        <time>2014-10-18T09:40:01Z</time>
      </trkpt>
      <trkpt lat="43.97766" lon="1.89962">
        <ele>200.10757</ele>
        <time>2014-10-18T09:40:06Z</time>
      </trkpt>
      <trkpt lat="43.97764" lon="1.89956">
        <ele>200.10757</ele>
        <time>2014-10-18T09:40:11Z</time>
      </trkpt>
      <trkpt lat="43.9776" lon="1.89952">
        <ele>199.705</ele>
        <time>2014-10-18T09:40:16Z</time>
      </trkpt>
      <trkpt lat="43.97758" lon="1.89946">
        <ele>199.705</ele>
        <time>2014-10-18T09:40:21Z</time>
      </trkpt>
      <trkpt lat="43.97754" lon="1.89942">
        <ele>200.01265</ele>
        <time>2014-10-18T09:40:26Z</time>
      </trkpt>
      <trkpt lat="43.97752" lon="1.89938">
        <ele>200.01265</ele>
        <time>2014-10-18T09:40:31Z</time>
      </trkpt>
      <trkpt lat="43.97749" lon="1.89931">
        <ele>199.75035</ele>
        <time>2014-10-18T09:40:36Z</time>
      </trkpt>
      <trkpt lat="43.97747" lon="1.89923">
        <ele>199.75035</ele>
        <time>2014-10-18T09:40:41Z</time>
      </trkpt>
      <trkpt lat="43.97745" lon="1.89914">
        <ele>198.81548</ele>
        <time>2014-10-18T09:40:46Z</time>
      </trkpt>
      <trkpt lat="43.9774" lon="1.89907">
        <ele>198.81548</ele>
        <time>2014-10-18T09:40:51Z</time>
      </trkpt>
      <trkpt lat="43.97737" lon="1.899">
        <ele>198.21086</ele>
        <time>2014-10-18T09:40:56Z</time>
      </trkpt>
      <trkpt lat="43.97732" lon="1.89894">
        <ele>198.21086</ele>
        <time>2014-10-18T09:41:01Z</time>
      </trkpt>
      <trkpt lat="43.9773" lon="1.89888">
        <ele>197.58101</ele>
        <time>2014-10-18T09:41:06Z</time>
      </trkpt>
      <trkpt lat="43.97728" lon="1.89882">
        <ele>197.58101</ele>
        <time>2014-10-18T09:41:11Z</time>
      </trkpt>
      <trkpt lat="43.97726" lon="1.89875">
        <ele>197.01485</ele>
        <time>2014-10-18T09:41:16Z</time>
      </trkpt>
      <trkpt lat="43.97724" lon="1.89867">
        <ele>197.01485</ele>
        <time>2014-10-18T09:41:21Z</time>
      </trkpt>
      <trkpt lat="43.97724" lon="1.8986">
        <ele>196.63776</ele>
        <time>2014-10-18T09:41:26Z</time>
      </trkpt>
      <trkpt lat="43.9772" lon="1.89853">
        <ele>196.63776</ele>
        <time>2014-10-18T09:41:31Z</time>
      </trkpt>
      <trkpt lat="43.97717" lon="1.89847">
        <ele>195.729</ele>
        <time>2014-10-18T09:41:36Z</time>
      </trkpt>
      <trkpt lat="43.97713" lon="1.8984">
        <ele>195.729</ele>
        <time>2014-10-18T09:41:41Z</time>
      </trkpt>
      <trkpt lat="43.97709" lon="1.89834">
        <ele>194.74704</ele>
        <time>2014-10-18T09:41:46Z</time>
      </trkpt>
      <trkpt lat="43.97706" lon="1.89827">
        <ele>194.74704</ele>
        <time>2014-10-18T09:41:51Z</time>
      </trkpt>
      <trkpt lat="43.97704" lon="1.8982">
        <ele>194.17442</ele>
        <time>2014-10-18T09:41:56Z</time>
      </trkpt>
      <trkpt lat="43.97704" lon="1.89817">
        <ele>194.17442</ele>
        <time>2014-10-18T09:42:01Z</time>
      </trkpt>
      <trkpt lat="43.977" lon="1.89812">
        <ele>194.17442</ele>
        <time>2014-10-18T09:42:06Z</time>
      </trkpt>
      <trkpt lat="43.97696" lon="1.89806">
        <ele>194.65878</ele>
        <time>2014-10-18T09:42:11Z</time>
      </trkpt>
      <trkpt lat="43.9769" lon="1.89802">
        <ele>194.65878</ele>
        <time>2014-10-18T09:42:16Z</time>
      </trkpt>
      <trkpt lat="43.97685" lon="1.89798">
        <ele>195.19684</ele>
        <time>2014-10-18T09:42:21Z</time>
      </trkpt>
      <trkpt lat="43.97681" lon="1.89793">
        <ele>195.19684</ele>
        <time>2014-10-18T09:42:26Z</time>
      </trkpt>
      <trkpt lat="43.97677" lon="1.89788">
        <ele>195.60861</ele>
        <time>2014-10-18T09:42:31Z</time>
      </trkpt>
      <trkpt lat="43.97672" lon="1.89778">
        <ele>195.60861</ele>
        <time>2014-10-18T09:42:36Z</time>
      </trkpt>
      <trkpt lat="43.97668" lon="1.89771">
        <ele>196.76567</ele>
        <time>2014-10-18T09:42:41Z</time>
      </trkpt>
      <trkpt lat="43.97663" lon="1.89771">
        <ele>196.76567</ele>
        <time>2014-10-18T09:42:46Z</time>
      </trkpt>
      <trkpt lat="43.97658" lon="1.89769">
        <ele>198.14714</ele>
        <time>2014-10-18T09:42:51Z</time>
      </trkpt>
      <trkpt lat="43.97654" lon="1.89765">
        <ele>198.14714</ele>
        <time>2014-10-18T09:42:56Z</time>
      </trkpt>
      <trkpt lat="43.97651" lon="1.89763">
        <ele>198.14714</ele>
        <time>2014-10-18T09:43:01Z</time>
      </trkpt>
      <trkpt lat="43.97648" lon="1.89758">
        <ele>199.75998</ele>
        <time>2014-10-18T09:43:06Z</time>
      </trkpt>
      <trkpt lat="43.97644" lon="1.89752">
        <ele>199.75998</ele>
        <time>2014-10-18T09:43:11Z</time>
      </trkpt>
      <trkpt lat="43.9764" lon="1.89747">
        <ele>201.35056</ele>
        <time>2014-10-18T09:43:16Z</time>
      </trkpt>
      <trkpt lat="43.97637" lon="1.89742">
        <ele>201.35056</ele>
        <time>2014-10-18T09:43:21Z</time>
      </trkpt>
      <trkpt lat="43.97631" lon="1.89736">
        <ele>202.91461</ele>
        <time>2014-10-18T09:43:26Z</time>
      </trkpt>
      <trkpt lat="43.97626" lon="1.89731">
        <ele>202.91461</ele>
        <time>2014-10-18T09:43:31Z</time>
      </trkpt>
      <trkpt lat="43.97621" lon="1.89727">
        <ele>204.04477</ele>
        <time>2014-10-18T09:43:36Z</time>
      </trkpt>
      <trkpt lat="43.97622" lon="1.89725">
        <ele>204.04477</ele>
        <time>2014-10-18T09:43:41Z</time>
      </trkpt>
      <trkpt lat="43.97619" lon="1.89722">
        <ele>204.04477</ele>
        <time>2014-10-18T09:43:46Z</time>
      </trkpt>
      <trkpt lat="43.97616" lon="1.89715">
        <ele>205.76294</ele>
        <time>2014-10-18T09:43:51Z</time>
      </trkpt>
      <trkpt lat="43.97612" lon="1.89707">
        <ele>205.76294</ele>
        <time>2014-10-18T09:43:56Z</time>
      </trkpt>
      <trkpt lat="43.97607" lon="1.89701">
        <ele>207.4289</ele>
        <time>2014-10-18T09:44:01Z</time>
      </trkpt>
      <trkpt lat="43.97604" lon="1.89696">
        <ele>207.4289</ele>
        <time>2014-10-18T09:44:06Z</time>
      </trkpt>
      <trkpt lat="43.97601" lon="1.89689">
        <ele>209.57393</ele>
        <time>2014-10-18T09:44:11Z</time>
      </trkpt>
      <trkpt lat="43.97598" lon="1.89683">
        <ele>209.57393</ele>
        <time>2014-10-18T09:44:16Z</time>
      </trkpt>
      <trkpt lat="43.97597" lon="1.89677">
        <ele>212.04048</ele>
        <time>2014-10-18T09:44:21Z</time>
      </trkpt>
      <trkpt lat="43.97594" lon="1.89672">
        <ele>212.04048</ele>
        <time>2014-10-18T09:44:26Z</time>
      </trkpt>
      <trkpt lat="43.97591" lon="1.89666">
        <ele>214.19177</ele>
        <time>2014-10-18T09:44:31Z</time>
      </trkpt>
      <trkpt lat="43.97588" lon="1.89659">
        <ele>214.19177</ele>
        <time>2014-10-18T09:44:36Z</time>
      </trkpt>
      <trkpt lat="43.97586" lon="1.89653">
        <ele>216.04414</ele>
        <time>2014-10-18T09:44:41Z</time>
      </trkpt>
      <trkpt lat="43.97583" lon="1.89647">
        <ele>216.04414</ele>
        <time>2014-10-18T09:44:46Z</time>
      </trkpt>
      <trkpt lat="43.9758" lon="1.89642">
        <ele>217.95956</ele>
        <time>2014-10-18T09:44:51Z</time>
      </trkpt>
      <trkpt lat="43.9758" lon="1.89636">
        <ele>217.95956</ele>
        <time>2014-10-18T09:44:56Z</time>
      </trkpt>
      <trkpt lat="43.97578" lon="1.8963">
        <ele>220.01398</ele>
        <time>2014-10-18T09:45:01Z</time>
      </trkpt>
      <trkpt lat="43.97575" lon="1.89626">
        <ele>220.01398</ele>
        <time>2014-10-18T09:45:06Z</time>
      </trkpt>
      <trkpt lat="43.97572" lon="1.8962">
        <ele>220.01398</ele>
        <time>2014-10-18T09:45:11Z</time>
      </trkpt>
      <trkpt lat="43.97569" lon="1.89614">
        <ele>221.71545</ele>
        <time>2014-10-18T09:45:16Z</time>
      </trkpt>
      <trkpt lat="43.97567" lon="1.8961">
        <ele>221.71545</ele>
        <time>2014-10-18T09:45:21Z</time>
      </trkpt>
      <trkpt lat="43.97565" lon="1.89604">
        <ele>221.71545</ele>
        <time>2014-10-18T09:45:26Z</time>
      </trkpt>
      <trkpt lat="43.97561" lon="1.896">
        <ele>223.67583</ele>
        <time>2014-10-18T09:45:31Z</time>
      </trkpt>
      <trkpt lat="43.97556" lon="1.89596">
        <ele>223.67583</ele>
        <time>2014-10-18T09:45:36Z</time>
      </trkpt>
      <trkpt lat="43.97554" lon="1.8959">
        <ele>225.52466</ele>
        <time>2014-10-18T09:45:41Z</time>
      </trkpt>
      <trkpt lat="43.97552" lon="1.89585">
        <ele>225.52466</ele>
        <time>2014-10-18T09:45:46Z</time>
      </trkpt>
      <trkpt lat="43.97549" lon="1.89579">
        <ele>227.12094</ele>
        <time>2014-10-18T09:45:51Z</time>
      </trkpt>
      <trkpt lat="43.97545" lon="1.89573">
        <ele>227.12094</ele>
        <time>2014-10-18T09:45:56Z</time>
      </trkpt>
      <trkpt lat="43.97541" lon="1.89567">
        <ele>228.73845</ele>
        <time>2014-10-18T09:46:01Z</time>
      </trkpt>
      <trkpt lat="43.97537" lon="1.8956">
        <ele>228.73845</ele>
        <time>2014-10-18T09:46:06Z</time>
      </trkpt>
      <trkpt lat="43.97534" lon="1.89554">
        <ele>230.12656</ele>
        <time>2014-10-18T09:46:11Z</time>
      </trkpt>
      <trkpt lat="43.97531" lon="1.89548">
        <ele>230.12656</ele>
        <time>2014-10-18T09:46:16Z</time>
      </trkpt>
      <trkpt lat="43.97527" lon="1.89544">
        <ele>231.31325</ele>
        <time>2014-10-18T09:46:21Z</time>
      </trkpt>
      <trkpt lat="43.97524" lon="1.89539">
        <ele>231.31325</ele>
        <time>2014-10-18T09:46:26Z</time>
      </trkpt>
      <trkpt lat="43.97521" lon="1.89533">
        <ele>232.844</ele>
        <time>2014-10-18T09:46:31Z</time>
      </trkpt>
      <trkpt lat="43.97515" lon="1.89529">
        <ele>232.844</ele>
        <time>2014-10-18T09:46:36Z</time>
      </trkpt>
      <trkpt lat="43.9751" lon="1.89525">
        <ele>234.04167</ele>
        <time>2014-10-18T09:46:41Z</time>
      </trkpt>
      <trkpt lat="43.97505" lon="1.89521">
        <ele>234.04167</ele>
        <time>2014-10-18T09:46:46Z</time>
      </trkpt>
      <trkpt lat="43.97502" lon="1.89518">
        <ele>235.33202</ele>
        <time>2014-10-18T09:46:51Z</time>
      </trkpt>
      <trkpt lat="43.97498" lon="1.89515">
        <ele>235.33202</ele>
        <time>2014-10-18T09:46:56Z</time>
      </trkpt>
      <trkpt lat="43.97493" lon="1.89512">
        <ele>236.44647</ele>
        <time>2014-10-18T09:47:01Z</time>
      </trkpt>
      <trkpt lat="43.9749" lon="1.89507">
        <ele>236.44647</ele>
        <time>2014-10-18T09:47:06Z</time>
      </trkpt>
      <trkpt lat="43.97486" lon="1.89503">
        <ele>237.35298</ele>
        <time>2014-10-18T09:47:11Z</time>
      </trkpt>
      <trkpt lat="43.97482" lon="1.89499">
        <ele>237.35298</ele>
        <time>2014-10-18T09:47:16Z</time>
      </trkpt>
      <trkpt lat="43.97477" lon="1.89496">
        <ele>238.28203</ele>
        <time>2014-10-18T09:47:21Z</time>
      </trkpt>
      <trkpt lat="43.97473" lon="1.89493">
        <ele>238.28203</ele>
        <time>2014-10-18T09:47:26Z</time>
      </trkpt>
      <trkpt lat="43.97469" lon="1.89489">
        <ele>239.11574</ele>
        <time>2014-10-18T09:47:31Z</time>
      </trkpt>
      <trkpt lat="43.97465" lon="1.89485">
        <ele>239.11574</ele>
        <time>2014-10-18T09:47:36Z</time>
      </trkpt>
      <trkpt lat="43.97462" lon="1.89482">
        <ele>239.11574</ele>
        <time>2014-10-18T09:47:41Z</time>
      </trkpt>
      <trkpt lat="43.97459" lon="1.89477">
        <ele>240.71086</ele>
        <time>2014-10-18T09:47:46Z</time>
      </trkpt>
      <trkpt lat="43.97455" lon="1.89473">
        <ele>240.71086</ele>
        <time>2014-10-18T09:47:51Z</time>
      </trkpt>
      <trkpt lat="43.97451" lon="1.89469">
        <ele>241.89926</ele>
        <time>2014-10-18T09:47:56Z</time>
      </trkpt>
      <trkpt lat="43.97447" lon="1.89464">
        <ele>241.89926</ele>
        <time>2014-10-18T09:48:01Z</time>
      </trkpt>
      <trkpt lat="43.97444" lon="1.89459">
        <ele>242.85364</ele>
        <time>2014-10-18T09:48:06Z</time>
      </trkpt>
      <trkpt lat="43.9744" lon="1.89457">
        <ele>242.85364</ele>
        <time>2014-10-18T09:48:11Z</time>
      </trkpt>
      <trkpt lat="43.97436" lon="1.89456">
        <ele>242.85364</ele>
        <time>2014-10-18T09:48:16Z</time>
      </trkpt>
      <trkpt lat="43.97432" lon="1.89453">
        <ele>244.32567</ele>
        <time>2014-10-18T09:48:21Z</time>
      </trkpt>
      <trkpt lat="43.97427" lon="1.89449">
        <ele>244.32567</ele>
        <time>2014-10-18T09:48:26Z</time>
      </trkpt>
      <trkpt lat="43.97422" lon="1.89444">
        <ele>245.19461</ele>
        <time>2014-10-18T09:48:31Z</time>
      </trkpt>
      <trkpt lat="43.97417" lon="1.8944">
        <ele>245.19461</ele>
        <time>2014-10-18T09:48:36Z</time>
      </trkpt>
      <trkpt lat="43.97413" lon="1.89435">
        <ele>245.83617</ele>
        <time>2014-10-18T09:48:41Z</time>
      </trkpt>
      <trkpt lat="43.97408" lon="1.89431">
        <ele>245.83617</ele>
        <time>2014-10-18T09:48:46Z</time>
      </trkpt>
      <trkpt lat="43.97403" lon="1.89428">
        <ele>246.31094</ele>
        <time>2014-10-18T09:48:51Z</time>
      </trkpt>
      <trkpt lat="43.97399" lon="1.89424">
        <ele>246.31094</ele>
        <time>2014-10-18T09:48:56Z</time>
      </trkpt>
      <trkpt lat="43.97395" lon="1.8942">
        <ele>247.45387</ele>
        <time>2014-10-18T09:49:01Z</time>
      </trkpt>
      <trkpt lat="43.97392" lon="1.89417">
        <ele>247.45387</ele>
        <time>2014-10-18T09:49:06Z</time>
      </trkpt>
      <trkpt lat="43.97389" lon="1.89413">
        <ele>247.45387</ele>
        <time>2014-10-18T09:49:11Z</time>
      </trkpt>
      <trkpt lat="43.97386" lon="1.8941">
        <ele>248.4515</ele>
        <time>2014-10-18T09:49:16Z</time>
      </trkpt>
      <trkpt lat="43.97383" lon="1.89406">
        <ele>248.4515</ele>
        <time>2014-10-18T09:49:21Z</time>
      </trkpt>
      <trkpt lat="43.97378" lon="1.89404">
        <ele>249.54498</ele>
        <time>2014-10-18T09:49:26Z</time>
      </trkpt>
      <trkpt lat="43.97373" lon="1.894">
        <ele>249.54498</ele>
        <time>2014-10-18T09:49:31Z</time>
      </trkpt>
      <trkpt lat="43.97369" lon="1.89398">
        <ele>251.1017</ele>
        <time>2014-10-18T09:49:36Z</time>
      </trkpt>
      <trkpt lat="43.97366" lon="1.89393">
        <ele>251.1017</ele>
        <time>2014-10-18T09:49:41Z</time>
      </trkpt>
      <trkpt lat="43.97363" lon="1.89389">
        <ele>252.1061</ele>
        <time>2014-10-18T09:49:46Z</time>
      </trkpt>
      <trkpt lat="43.97361" lon="1.89383">
        <ele>252.1061</ele>
        <time>2014-10-18T09:49:51Z</time>
      </trkpt>
      <trkpt lat="43.9736" lon="1.89384">
        <ele>252.1061</ele>
        <time>2014-10-18T09:49:56Z</time>
      </trkpt>
      <trkpt lat="43.9736" lon="1.89384">
        <ele>252.1061</ele>
        <time>2014-10-18T09:50:01Z</time>
      </trkpt>
      <trkpt lat="43.9736" lon="1.89383">
        <ele>252.1061</ele>
        <time>2014-10-18T09:50:06Z</time>
      </trkpt>
      <trkpt lat="43.97357" lon="1.89385">
        <ele>252.1061</ele>
        <time>2014-10-18T09:50:11Z</time>
      </trkpt>
      <trkpt lat="43.97353" lon="1.89384">
        <ele>252.87265</ele>
        <time>2014-10-18T09:50:16Z</time>
      </trkpt>
      <trkpt lat="43.97353" lon="1.89382">
        <ele>252.87265</ele>
        <time>2014-10-18T09:50:21Z</time>
      </trkpt>
      <trkpt lat="43.97353" lon="1.89386">
        <ele>252.87265</ele>
        <time>2014-10-18T09:50:26Z</time>
      </trkpt>
      <trkpt lat="43.97353" lon="1.89386">
        <ele>252.87265</ele>
        <time>2014-10-18T09:50:31Z</time>
      </trkpt>
      <trkpt lat="43.97353" lon="1.89386">
        <ele>252.87265</ele>
        <time>2014-10-18T09:50:36Z</time>
      </trkpt>
      <trkpt lat="43.97353" lon="1.89386">
        <ele>252.87265</ele>
        <time>2014-10-18T09:50:41Z</time>
      </trkpt>
      <trkpt lat="43.97353" lon="1.89386">
        <ele>252.87265</ele>
        <time>2014-10-18T09:50:46Z</time>
      </trkpt>
      <trkpt lat="43.97353" lon="1.89386">
        <ele>252.87265</ele>
        <time>2014-10-18T09:50:51Z</time>
      </trkpt>
      <trkpt lat="43.97352" lon="1.89384">
        <ele>252.87265</ele>
        <time>2014-10-18T09:50:56Z</time>
      </trkpt>
      <trkpt lat="43.97351" lon="1.89383">
        <ele>252.87265</ele>
        <time>2014-10-18T09:51:01Z</time>
      </trkpt>
      <trkpt lat="43.9735" lon="1.89384">
        <ele>254.97606</ele>
        <time>2014-10-18T09:51:06Z</time>
      </trkpt>
      <trkpt lat="43.9735" lon="1.89385">
        <ele>254.97606</ele>
        <time>2014-10-18T09:51:11Z</time>
      </trkpt>
      <trkpt lat="43.97352" lon="1.89384">
        <ele>254.97606</ele>
        <time>2014-10-18T09:51:16Z</time>
      </trkpt>
      <trkpt lat="43.97352" lon="1.89383">
        <ele>254.97606</ele>
        <time>2014-10-18T09:51:21Z</time>
      </trkpt>
      <trkpt lat="43.97352" lon="1.89383">
        <ele>254.97606</ele>
        <time>2014-10-18T09:51:26Z</time>
      </trkpt>
      <trkpt lat="43.97352" lon="1.89383">
        <ele>254.97606</ele>
        <time>2014-10-18T09:51:31Z</time>
      </trkpt>
      <trkpt lat="43.97352" lon="1.89382">
        <ele>254.97606</ele>
        <time>2014-10-18T09:51:36Z</time>
      </trkpt>
      <trkpt lat="43.97352" lon="1.89382">
        <ele>254.97606</ele>
        <time>2014-10-18T09:51:46Z</time>
      </trkpt>
      <trkpt lat="43.97352" lon="1.89382">
        <ele>254.97606</ele>
        <time>2014-10-18T09:51:51Z</time>
      </trkpt>
      <trkpt lat="43.97352" lon="1.89382">
        <ele>254.97606</ele>
        <time>2014-10-18T09:51:56Z</time>
      </trkpt>
      <trkpt lat="43.97352" lon="1.89382">
        <ele>254.97606</ele>
        <time>2014-10-18T09:52:01Z</time>
      </trkpt>
      <trkpt lat="43.97352" lon="1.89382">
        <ele>254.97606</ele>
        <time>2014-10-18T09:52:06Z</time>
      </trkpt>
      <trkpt lat="43.97352" lon="1.89382">
        <ele>254.97606</ele>
        <time>2014-10-18T09:52:11Z</time>
      </trkpt>
      <trkpt lat="43.97353" lon="1.89381">
        <ele>254.97606</ele>
        <time>2014-10-18T09:52:16Z</time>
      </trkpt>
      <trkpt lat="43.97353" lon="1.89381">
        <ele>254.97606</ele>
        <time>2014-10-18T09:52:21Z</time>
      </trkpt>
      <trkpt lat="43.97354" lon="1.89382">
        <ele>254.97606</ele>
        <time>2014-10-18T09:52:26Z</time>
      </trkpt>
      <trkpt lat="43.97353" lon="1.8938">
        <ele>254.97606</ele>
        <time>2014-10-18T09:52:31Z</time>
      </trkpt>
      <trkpt lat="43.97353" lon="1.8938">
        <ele>254.97606</ele>
        <time>2014-10-18T09:52:36Z</time>
      </trkpt>
      <trkpt lat="43.97353" lon="1.8938">
        <ele>254.97606</ele>
        <time>2014-10-18T09:52:41Z</time>
      </trkpt>
      <trkpt lat="43.97353" lon="1.8938">
        <ele>254.97606</ele>
        <time>2014-10-18T09:52:46Z</time>
      </trkpt>
      <trkpt lat="43.97353" lon="1.8938">
        <ele>254.97606</ele>
        <time>2014-10-18T09:52:51Z</time>
      </trkpt>
      <trkpt lat="43.97353" lon="1.8938">
        <ele>254.97606</ele>
        <time>2014-10-18T09:52:56Z</time>
      </trkpt>
      <trkpt lat="43.97353" lon="1.8938">
        <ele>254.97606</ele>
        <time>2014-10-18T09:53:01Z</time>
      </trkpt>
      <trkpt lat="43.97353" lon="1.8938">
        <ele>254.97606</ele>
        <time>2014-10-18T09:53:06Z</time>
      </trkpt>
      <trkpt lat="43.97353" lon="1.8938">
        <ele>254.97606</ele>
        <time>2014-10-18T09:53:11Z</time>
      </trkpt>
      <trkpt lat="43.97353" lon="1.8938">
        <ele>254.97606</ele>
        <time>2014-10-18T09:53:16Z</time>
      </trkpt>
      <trkpt lat="43.97349" lon="1.89376">
        <ele>256.91736</ele>
        <time>2014-10-18T09:53:21Z</time>
      </trkpt>
      <trkpt lat="43.97344" lon="1.89368">
        <ele>256.91736</ele>
        <time>2014-10-18T09:53:26Z</time>
      </trkpt>
      <trkpt lat="43.97338" lon="1.89364">
        <ele>257.82697</ele>
        <time>2014-10-18T09:53:31Z</time>
      </trkpt>
      <trkpt lat="43.97333" lon="1.8936">
        <ele>257.82697</ele>
        <time>2014-10-18T09:53:36Z</time>
      </trkpt>
      <trkpt lat="43.97331" lon="1.89354">
        <ele>258.6171</ele>
        <time>2014-10-18T09:53:41Z</time>
      </trkpt>
      <trkpt lat="43.97327" lon="1.89348">
        <ele>258.6171</ele>
        <time>2014-10-18T09:53:46Z</time>
      </trkpt>
      <trkpt lat="43.97323" lon="1.89342">
        <ele>258.99484</ele>
        <time>2014-10-18T09:53:51Z</time>
      </trkpt>
      <trkpt lat="43.97319" lon="1.89334">
        <ele>258.99484</ele>
        <time>2014-10-18T09:53:56Z</time>
      </trkpt>
      <trkpt lat="43.97318" lon="1.89326">
        <ele>258.9062</ele>
        <time>2014-10-18T09:54:01Z</time>
      </trkpt>
      <trkpt lat="43.97314" lon="1.89319">
        <ele>258.9062</ele>
        <time>2014-10-18T09:54:06Z</time>
      </trkpt>
      <trkpt lat="43.97316" lon="1.89311">
        <ele>258.69153</ele>
        <time>2014-10-18T09:54:11Z</time>
      </trkpt>
      <trkpt lat="43.97317" lon="1.89302">
        <ele>258.69153</ele>
        <time>2014-10-18T09:54:16Z</time>
      </trkpt>
      <trkpt lat="43.97316" lon="1.89294">
        <ele>258.32077</ele>
        <time>2014-10-18T09:54:21Z</time>
      </trkpt>
      <trkpt lat="43.97314" lon="1.89287">
        <ele>258.32077</ele>
        <time>2014-10-18T09:54:26Z</time>
      </trkpt>
      <trkpt lat="43.97316" lon="1.89283">
        <ele>258.32077</ele>
        <time>2014-10-18T09:54:31Z</time>
      </trkpt>
      <trkpt lat="43.97315" lon="1.89277">
        <ele>257.997</ele>
        <time>2014-10-18T09:54:36Z</time>
      </trkpt>
      <trkpt lat="43.97315" lon="1.89271">
        <ele>257.997</ele>
        <time>2014-10-18T09:54:41Z</time>
      </trkpt>
      <trkpt lat="43.97313" lon="1.89263">
        <ele>256.76987</ele>
        <time>2014-10-18T09:54:46Z</time>
      </trkpt>
      <trkpt lat="43.97313" lon="1.89256">
        <ele>256.76987</ele>
        <time>2014-10-18T09:54:51Z</time>
      </trkpt>
      <trkpt lat="43.97312" lon="1.89248">
        <ele>255.69232</ele>
        <time>2014-10-18T09:54:56Z</time>
      </trkpt>
      <trkpt lat="43.97313" lon="1.89239">
        <ele>255.69232</ele>
        <time>2014-10-18T09:55:01Z</time>
      </trkpt>
      <trkpt lat="43.97313" lon="1.89231">
        <ele>254.99022</ele>
        <time>2014-10-18T09:55:06Z</time>
      </trkpt>
      <trkpt lat="43.97314" lon="1.89223">
        <ele>254.99022</ele>
        <time>2014-10-18T09:55:11Z</time>
      </trkpt>
      <trkpt lat="43.97316" lon="1.89215">
        <ele>253.76204</ele>
        <time>2014-10-18T09:55:16Z</time>
      </trkpt>
      <trkpt lat="43.97316" lon="1.89207">
        <ele>253.76204</ele>
        <time>2014-10-18T09:55:21Z</time>
      </trkpt>
      <trkpt lat="43.97313" lon="1.89197">
        <ele>252.47087</ele>
        <time>2014-10-18T09:55:26Z</time>
      </trkpt>
      <trkpt lat="43.97309" lon="1.89189">
        <ele>252.47087</ele>
        <time>2014-10-18T09:55:31Z</time>
      </trkpt>
      <trkpt lat="43.97301" lon="1.89182">
        <ele>250.9839</ele>
        <time>2014-10-18T09:55:36Z</time>
      </trkpt>
      <trkpt lat="43.97302" lon="1.89174">
        <ele>250.9839</ele>
        <time>2014-10-18T09:55:41Z</time>
      </trkpt>
      <trkpt lat="43.97305" lon="1.89167">
        <ele>249.23611</ele>
        <time>2014-10-18T09:55:46Z</time>
      </trkpt>
      <trkpt lat="43.97305" lon="1.8916">
        <ele>249.23611</ele>
        <time>2014-10-18T09:55:51Z</time>
      </trkpt>
      <trkpt lat="43.97306" lon="1.89151">
        <ele>247.39851</ele>
        <time>2014-10-18T09:55:56Z</time>
      </trkpt>
      <trkpt lat="43.97304" lon="1.89142">
        <ele>247.39851</ele>
        <time>2014-10-18T09:56:01Z</time>
      </trkpt>
      <trkpt lat="43.97304" lon="1.89134">
        <ele>246.03317</ele>
        <time>2014-10-18T09:56:06Z</time>
      </trkpt>
      <trkpt lat="43.97302" lon="1.89126">
        <ele>246.03317</ele>
        <time>2014-10-18T09:56:11Z</time>
      </trkpt>
      <trkpt lat="43.97301" lon="1.89119">
        <ele>244.07417</ele>
        <time>2014-10-18T09:56:16Z</time>
      </trkpt>
      <trkpt lat="43.97299" lon="1.89111">
        <ele>244.07417</ele>
        <time>2014-10-18T09:56:21Z</time>
      </trkpt>
      <trkpt lat="43.97295" lon="1.89104">
        <ele>242.49536</ele>
        <time>2014-10-18T09:56:26Z</time>
      </trkpt>
      <trkpt lat="43.97292" lon="1.89097">
        <ele>242.49536</ele>
        <time>2014-10-18T09:56:31Z</time>
      </trkpt>
      <trkpt lat="43.97288" lon="1.8909">
        <ele>241.0161</ele>
        <time>2014-10-18T09:56:36Z</time>
      </trkpt>
      <trkpt lat="43.97286" lon="1.89084">
        <ele>241.0161</ele>
        <time>2014-10-18T09:56:41Z</time>
      </trkpt>
      <trkpt lat="43.97286" lon="1.89078">
        <ele>240.24057</ele>
        <time>2014-10-18T09:56:46Z</time>
      </trkpt>
      <trkpt lat="43.97283" lon="1.89073">
        <ele>240.24057</ele>
        <time>2014-10-18T09:56:51Z</time>
      </trkpt>
      <trkpt lat="43.97277" lon="1.89067">
        <ele>238.92505</ele>
        <time>2014-10-18T09:56:56Z</time>
      </trkpt>
      <trkpt lat="43.97273" lon="1.89058">
        <ele>238.92505</ele>
        <time>2014-10-18T09:57:01Z</time>
      </trkpt>
      <trkpt lat="43.97272" lon="1.8905">
        <ele>237.79199</ele>
        <time>2014-10-18T09:57:06Z</time>
      </trkpt>
      <trkpt lat="43.97271" lon="1.89041">
        <ele>237.79199</ele>
        <time>2014-10-18T09:57:11Z</time>
      </trkpt>
      <trkpt lat="43.97268" lon="1.89034">
        <ele>235.3916</ele>
        <time>2014-10-18T09:57:16Z</time>
      </trkpt>
      <trkpt lat="43.97269" lon="1.89026">
        <ele>235.3916</ele>
        <time>2014-10-18T09:57:21Z</time>
      </trkpt>
      <trkpt lat="43.97271" lon="1.89016">
        <ele>233.55447</ele>
        <time>2014-10-18T09:57:26Z</time>
      </trkpt>
      <trkpt lat="43.9727" lon="1.89009">
        <ele>233.55447</ele>
        <time>2014-10-18T09:57:31Z</time>
      </trkpt>
      <trkpt lat="43.97269" lon="1.89002">
        <ele>231.48177</ele>
        <time>2014-10-18T09:57:36Z</time>
      </trkpt>
      <trkpt lat="43.97271" lon="1.88993">
        <ele>231.48177</ele>
        <time>2014-10-18T09:57:41Z</time>
      </trkpt>
      <trkpt lat="43.97268" lon="1.88984">
        <ele>229.77406</ele>
        <time>2014-10-18T09:57:46Z</time>
      </trkpt>
      <trkpt lat="43.97266" lon="1.88977">
        <ele>229.77406</ele>
        <time>2014-10-18T09:57:51Z</time>
      </trkpt>
      <trkpt lat="43.97266" lon="1.88969">
        <ele>228.61194</ele>
        <time>2014-10-18T09:57:56Z</time>
      </trkpt>
      <trkpt lat="43.97266" lon="1.88961">
        <ele>228.61194</ele>
        <time>2014-10-18T09:58:01Z</time>
      </trkpt>
      <trkpt lat="43.97263" lon="1.88955">
        <ele>227.78624</ele>
        <time>2014-10-18T09:58:06Z</time>
      </trkpt>
      <trkpt lat="43.97259" lon="1.88949">
        <ele>227.78624</ele>
        <time>2014-10-18T09:58:11Z</time>
      </trkpt>
      <trkpt lat="43.97258" lon="1.88942">
        <ele>228.11086</ele>
        <time>2014-10-18T09:58:16Z</time>
      </trkpt>
      <trkpt lat="43.97256" lon="1.88935">
        <ele>228.11086</ele>
        <time>2014-10-18T09:58:21Z</time>
      </trkpt>
      <trkpt lat="43.97256" lon="1.88928">
        <ele>229.12593</ele>
        <time>2014-10-18T09:58:26Z</time>
      </trkpt>
      <trkpt lat="43.97254" lon="1.88921">
        <ele>229.12593</ele>
        <time>2014-10-18T09:58:31Z</time>
      </trkpt>
      <trkpt lat="43.97249" lon="1.88914">
        <ele>229.82683</ele>
        <time>2014-10-18T09:58:36Z</time>
      </trkpt>
      <trkpt lat="43.97247" lon="1.88907">
        <ele>229.82683</ele>
        <time>2014-10-18T09:58:41Z</time>
      </trkpt>
      <trkpt lat="43.97244" lon="1.889">
        <ele>230.34988</ele>
        <time>2014-10-18T09:58:46Z</time>
      </trkpt>
      <trkpt lat="43.97244" lon="1.88891">
        <ele>230.34988</ele>
        <time>2014-10-18T09:58:51Z</time>
      </trkpt>
      <trkpt lat="43.97244" lon="1.88883">
        <ele>231.21088</ele>
        <time>2014-10-18T09:58:56Z</time>
      </trkpt>
      <trkpt lat="43.97245" lon="1.88875">
        <ele>231.21088</ele>
        <time>2014-10-18T09:59:01Z</time>
      </trkpt>
      <trkpt lat="43.97242" lon="1.88868">
        <ele>231.69048</ele>
        <time>2014-10-18T09:59:06Z</time>
      </trkpt>
      <trkpt lat="43.97238" lon="1.88862">
        <ele>231.69048</ele>
        <time>2014-10-18T09:59:11Z</time>
      </trkpt>
      <trkpt lat="43.97238" lon="1.88853">
        <ele>232.44904</ele>
        <time>2014-10-18T09:59:16Z</time>
      </trkpt>
      <trkpt lat="43.97237" lon="1.88846">
        <ele>232.44904</ele>
        <time>2014-10-18T09:59:21Z</time>
      </trkpt>
      <trkpt lat="43.97236" lon="1.88838">
        <ele>232.1952</ele>
        <time>2014-10-18T09:59:26Z</time>
      </trkpt>
      <trkpt lat="43.97233" lon="1.88831">
        <ele>232.1952</ele>
        <time>2014-10-18T09:59:31Z</time>
      </trkpt>
      <trkpt lat="43.97225" lon="1.88822">
        <ele>231.45023</ele>
        <time>2014-10-18T09:59:36Z</time>
      </trkpt>
      <trkpt lat="43.97217" lon="1.88814">
        <ele>230.22276</ele>
        <time>2014-10-18T09:59:41Z</time>
      </trkpt>
      <trkpt lat="43.97216" lon="1.88808">
        <ele>230.22276</ele>
        <time>2014-10-18T09:59:46Z</time>
      </trkpt>
      <trkpt lat="43.97214" lon="1.888">
        <ele>229.08417</ele>
        <time>2014-10-18T09:59:51Z</time>
      </trkpt>
      <trkpt lat="43.97214" lon="1.88792">
        <ele>229.08417</ele>
        <time>2014-10-18T09:59:56Z</time>
      </trkpt>
      <trkpt lat="43.97212" lon="1.88784">
        <ele>228.05911</ele>
        <time>2014-10-18T10:00:01Z</time>
      </trkpt>
      <trkpt lat="43.97211" lon="1.88776">
        <ele>228.05911</ele>
        <time>2014-10-18T10:00:06Z</time>
      </trkpt>
      <trkpt lat="43.97208" lon="1.88769">
        <ele>227.04036</ele>
        <time>2014-10-18T10:00:11Z</time>
      </trkpt>
      <trkpt lat="43.97207" lon="1.88762">
        <ele>227.04036</ele>
        <time>2014-10-18T10:00:16Z</time>
      </trkpt>
      <trkpt lat="43.97206" lon="1.88754">
        <ele>226.11581</ele>
        <time>2014-10-18T10:00:21Z</time>
      </trkpt>
      <trkpt lat="43.97205" lon="1.88747">
        <ele>226.11581</ele>
        <time>2014-10-18T10:00:26Z</time>
      </trkpt>
      <trkpt lat="43.97204" lon="1.88741">
        <ele>225.07837</ele>
        <time>2014-10-18T10:00:31Z</time>
      </trkpt>
      <trkpt lat="43.97204" lon="1.88735">
        <ele>225.07837</ele>
        <time>2014-10-18T10:00:36Z</time>
      </trkpt>
      <trkpt lat="43.97202" lon="1.88729">
        <ele>225.07837</ele>
        <time>2014-10-18T10:00:41Z</time>
      </trkpt>
      <trkpt lat="43.97197" lon="1.88722">
        <ele>224.02457</ele>
        <time>2014-10-18T10:00:46Z</time>
      </trkpt>
      <trkpt lat="43.97195" lon="1.88714">
        <ele>224.02457</ele>
        <time>2014-10-18T10:00:51Z</time>
      </trkpt>
      <trkpt lat="43.9719" lon="1.88708">
        <ele>222.91417</ele>
        <time>2014-10-18T10:00:56Z</time>
      </trkpt>
      <trkpt lat="43.97186" lon="1.88702">
        <ele>222.91417</ele>
        <time>2014-10-18T10:01:01Z</time>
      </trkpt>
      <trkpt lat="43.97183" lon="1.88695">
        <ele>221.30646</ele>
        <time>2014-10-18T10:01:06Z</time>
      </trkpt>
      <trkpt lat="43.9718" lon="1.88688">
        <ele>221.30646</ele>
        <time>2014-10-18T10:01:11Z</time>
      </trkpt>
      <trkpt lat="43.97176" lon="1.88681">
        <ele>220.13464</ele>
        <time>2014-10-18T10:01:16Z</time>
      </trkpt>
      <trkpt lat="43.97174" lon="1.88672">
        <ele>220.13464</ele>
        <time>2014-10-18T10:01:21Z</time>
      </trkpt>
      <trkpt lat="43.97173" lon="1.88665">
        <ele>218.72008</ele>
        <time>2014-10-18T10:01:26Z</time>
      </trkpt>
      <trkpt lat="43.9717" lon="1.88657">
        <ele>218.72008</ele>
        <time>2014-10-18T10:01:31Z</time>
      </trkpt>
      <trkpt lat="43.97169" lon="1.8865">
        <ele>217.44336</ele>
        <time>2014-10-18T10:01:36Z</time>
      </trkpt>
      <trkpt lat="43.97168" lon="1.88643">
        <ele>217.44336</ele>
        <time>2014-10-18T10:01:41Z</time>
      </trkpt>
      <trkpt lat="43.9717" lon="1.88636">
        <ele>216.64229</ele>
        <time>2014-10-18T10:01:46Z</time>
      </trkpt>
      <trkpt lat="43.97172" lon="1.88629">
        <ele>216.64229</ele>
        <time>2014-10-18T10:01:51Z</time>
      </trkpt>
      <trkpt lat="43.97173" lon="1.88622">
        <ele>215.90782</ele>
        <time>2014-10-18T10:01:56Z</time>
      </trkpt>
      <trkpt lat="43.97174" lon="1.88614">
        <ele>215.90782</ele>
        <time>2014-10-18T10:02:01Z</time>
      </trkpt>
      <trkpt lat="43.97176" lon="1.88607">
        <ele>215.46603</ele>
        <time>2014-10-18T10:02:06Z</time>
      </trkpt>
      <trkpt lat="43.97176" lon="1.88597">
        <ele>215.46603</ele>
        <time>2014-10-18T10:02:11Z</time>
      </trkpt>
      <trkpt lat="43.97175" lon="1.88588">
        <ele>215.22282</ele>
        <time>2014-10-18T10:02:16Z</time>
      </trkpt>
      <trkpt lat="43.97174" lon="1.8858">
        <ele>215.22282</ele>
        <time>2014-10-18T10:02:21Z</time>
      </trkpt>
      <trkpt lat="43.97174" lon="1.88571">
        <ele>215.09042</ele>
        <time>2014-10-18T10:02:26Z</time>
      </trkpt>
      <trkpt lat="43.97176" lon="1.88563">
        <ele>215.09042</ele>
        <time>2014-10-18T10:02:31Z</time>
      </trkpt>
      <trkpt lat="43.97176" lon="1.88554">
        <ele>214.92944</ele>
        <time>2014-10-18T10:02:36Z</time>
      </trkpt>
      <trkpt lat="43.97177" lon="1.88546">
        <ele>214.92944</ele>
        <time>2014-10-18T10:02:41Z</time>
      </trkpt>
      <trkpt lat="43.97175" lon="1.88538">
        <ele>214.71172</ele>
        <time>2014-10-18T10:02:46Z</time>
      </trkpt>
      <trkpt lat="43.97172" lon="1.8853">
        <ele>214.71172</ele>
        <time>2014-10-18T10:02:51Z</time>
      </trkpt>
      <trkpt lat="43.97174" lon="1.88521">
        <ele>214.44005</ele>
        <time>2014-10-18T10:02:56Z</time>
      </trkpt>
      <trkpt lat="43.97174" lon="1.88514">
        <ele>214.44005</ele>
        <time>2014-10-18T10:03:01Z</time>
      </trkpt>
      <trkpt lat="43.97173" lon="1.88507">
        <ele>214.4198</ele>
        <time>2014-10-18T10:03:06Z</time>
      </trkpt>
      <trkpt lat="43.97174" lon="1.88499">
        <ele>214.4198</ele>
        <time>2014-10-18T10:03:11Z</time>
      </trkpt>
      <trkpt lat="43.97171" lon="1.88492">
        <ele>214.70259</ele>
        <time>2014-10-18T10:03:16Z</time>
      </trkpt>
      <trkpt lat="43.97168" lon="1.88483">
        <ele>214.70259</ele>
        <time>2014-10-18T10:03:21Z</time>
      </trkpt>
      <trkpt lat="43.97168" lon="1.88475">
        <ele>214.55719</ele>
        <time>2014-10-18T10:03:26Z</time>
      </trkpt>
      <trkpt lat="43.97168" lon="1.88466">
        <ele>214.55719</ele>
        <time>2014-10-18T10:03:31Z</time>
      </trkpt>
      <trkpt lat="43.97167" lon="1.88458">
        <ele>214.28722</ele>
        <time>2014-10-18T10:03:36Z</time>
      </trkpt>
      <trkpt lat="43.97164" lon="1.88451">
        <ele>214.28722</ele>
        <time>2014-10-18T10:03:41Z</time>
      </trkpt>
      <trkpt lat="43.97162" lon="1.88445">
        <ele>214.1023</ele>
        <time>2014-10-18T10:03:46Z</time>
      </trkpt>
      <trkpt lat="43.97162" lon="1.88438">
        <ele>214.1023</ele>
        <time>2014-10-18T10:03:51Z</time>
      </trkpt>
      <trkpt lat="43.97163" lon="1.88431">
        <ele>214.1964</ele>
        <time>2014-10-18T10:03:56Z</time>
      </trkpt>
      <trkpt lat="43.97158" lon="1.88429">
        <ele>214.1964</ele>
        <time>2014-10-18T10:04:01Z</time>
      </trkpt>
      <trkpt lat="43.97157" lon="1.88429">
        <ele>214.1964</ele>
        <time>2014-10-18T10:04:06Z</time>
      </trkpt>
      <trkpt lat="43.97155" lon="1.88429">
        <ele>214.1964</ele>
        <time>2014-10-18T10:04:11Z</time>
      </trkpt>
      <trkpt lat="43.97155" lon="1.8843">
        <ele>214.1964</ele>
        <time>2014-10-18T10:04:16Z</time>
      </trkpt>
      <trkpt lat="43.97151" lon="1.88432">
        <ele>214.38821</ele>
        <time>2014-10-18T10:04:21Z</time>
      </trkpt>
      <trkpt lat="43.97144" lon="1.88435">
        <ele>214.38821</ele>
        <time>2014-10-18T10:04:26Z</time>
      </trkpt>
      <trkpt lat="43.97139" lon="1.88438">
        <ele>215.37415</ele>
        <time>2014-10-18T10:04:31Z</time>
      </trkpt>
      <trkpt lat="43.97133" lon="1.88441">
        <ele>215.37415</ele>
        <time>2014-10-18T10:04:36Z</time>
      </trkpt>
      <trkpt lat="43.97127" lon="1.88444">
        <ele>216.37054</ele>
        <time>2014-10-18T10:04:41Z</time>
      </trkpt>
      <trkpt lat="43.97122" lon="1.88447">
        <ele>216.37054</ele>
        <time>2014-10-18T10:04:46Z</time>
      </trkpt>
      <trkpt lat="43.97117" lon="1.88448">
        <ele>217.45834</ele>
        <time>2014-10-18T10:04:51Z</time>
      </trkpt>
      <trkpt lat="43.97112" lon="1.88448">
        <ele>217.45834</ele>
        <time>2014-10-18T10:04:56Z</time>
      </trkpt>
      <trkpt lat="43.97108" lon="1.88449">
        <ele>218.32321</ele>
        <time>2014-10-18T10:05:01Z</time>
      </trkpt>
      <trkpt lat="43.97104" lon="1.88452">
        <ele>218.32321</ele>
        <time>2014-10-18T10:05:06Z</time>
      </trkpt>
      <trkpt lat="43.97099" lon="1.88452">
        <ele>219.17902</ele>
        <time>2014-10-18T10:05:11Z</time>
      </trkpt>
      <trkpt lat="43.97094" lon="1.88452">
        <ele>219.17902</ele>
        <time>2014-10-18T10:05:16Z</time>
      </trkpt>
      <trkpt lat="43.97088" lon="1.88454">
        <ele>220.25278</ele>
        <time>2014-10-18T10:05:21Z</time>
      </trkpt>
      <trkpt lat="43.97082" lon="1.88456">
        <ele>220.25278</ele>
        <time>2014-10-18T10:05:26Z</time>
      </trkpt>
      <trkpt lat="43.97076" lon="1.88458">
        <ele>221.29318</ele>
        <time>2014-10-18T10:05:31Z</time>
      </trkpt>
      <trkpt lat="43.9707" lon="1.8846">
        <ele>221.29318</ele>
        <time>2014-10-18T10:05:36Z</time>
      </trkpt>
      <trkpt lat="43.97064" lon="1.88465">
        <ele>222.45663</ele>
        <time>2014-10-18T10:05:41Z</time>
      </trkpt>
      <trkpt lat="43.97059" lon="1.88466">
        <ele>222.45663</ele>
        <time>2014-10-18T10:05:46Z</time>
      </trkpt>
      <trkpt lat="43.97053" lon="1.88467">
        <ele>223.18166</ele>
        <time>2014-10-18T10:05:51Z</time>
      </trkpt>
      <trkpt lat="43.97048" lon="1.88468">
        <ele>223.18166</ele>
        <time>2014-10-18T10:05:56Z</time>
      </trkpt>
      <trkpt lat="43.97042" lon="1.88471">
        <ele>223.92929</ele>
        <time>2014-10-18T10:06:01Z</time>
      </trkpt>
      <trkpt lat="43.97037" lon="1.88471">
        <ele>223.92929</ele>
        <time>2014-10-18T10:06:06Z</time>
      </trkpt>
      <trkpt lat="43.97032" lon="1.88471">
        <ele>224.86734</ele>
        <time>2014-10-18T10:06:11Z</time>
      </trkpt>
      <trkpt lat="43.97027" lon="1.88473">
        <ele>224.86734</ele>
        <time>2014-10-18T10:06:16Z</time>
      </trkpt>
      <trkpt lat="43.97022" lon="1.88475">
        <ele>225.41591</ele>
        <time>2014-10-18T10:06:21Z</time>
      </trkpt>
      <trkpt lat="43.97017" lon="1.88477">
        <ele>225.41591</ele>
        <time>2014-10-18T10:06:26Z</time>
      </trkpt>
      <trkpt lat="43.97012" lon="1.88479">
        <ele>226.27823</ele>
        <time>2014-10-18T10:06:31Z</time>
      </trkpt>
      <trkpt lat="43.97006" lon="1.88482">
        <ele>226.27823</ele>
        <time>2014-10-18T10:06:36Z</time>
      </trkpt>
      <trkpt lat="43.97" lon="1.88484">
        <ele>227.34132</ele>
        <time>2014-10-18T10:06:41Z</time>
      </trkpt>
      <trkpt lat="43.96995" lon="1.88485">
        <ele>227.34132</ele>
        <time>2014-10-18T10:06:46Z</time>
      </trkpt>
      <trkpt lat="43.9699" lon="1.88485">
        <ele>228.4136</ele>
        <time>2014-10-18T10:06:51Z</time>
      </trkpt>
      <trkpt lat="43.96985" lon="1.88487">
        <ele>228.4136</ele>
        <time>2014-10-18T10:06:56Z</time>
      </trkpt>
      <trkpt lat="43.9698" lon="1.88489">
        <ele>229.5626</ele>
        <time>2014-10-18T10:07:01Z</time>
      </trkpt>
      <trkpt lat="43.96975" lon="1.88491">
        <ele>229.5626</ele>
        <time>2014-10-18T10:07:06Z</time>
      </trkpt>
      <trkpt lat="43.96969" lon="1.88494">
        <ele>230.77878</ele>
        <time>2014-10-18T10:07:11Z</time>
      </trkpt>
      <trkpt lat="43.96963" lon="1.88494">
        <ele>230.77878</ele>
        <time>2014-10-18T10:07:16Z</time>
      </trkpt>
      <trkpt lat="43.96958" lon="1.88495">
        <ele>231.73613</ele>
        <time>2014-10-18T10:07:21Z</time>
      </trkpt>
      <trkpt lat="43.96953" lon="1.88496">
        <ele>231.73613</ele>
        <time>2014-10-18T10:07:26Z</time>
      </trkpt>
      <trkpt lat="43.96947" lon="1.88501">
        <ele>232.49376</ele>
        <time>2014-10-18T10:07:31Z</time>
      </trkpt>
      <trkpt lat="43.96941" lon="1.88505">
        <ele>232.49376</ele>
        <time>2014-10-18T10:07:36Z</time>
      </trkpt>
      <trkpt lat="43.96935" lon="1.88507">
        <ele>233.52504</ele>
        <time>2014-10-18T10:07:41Z</time>
      </trkpt>
      <trkpt lat="43.9693" lon="1.88509">
        <ele>233.52504</ele>
        <time>2014-10-18T10:07:46Z</time>
      </trkpt>
      <trkpt lat="43.96926" lon="1.8851">
        <ele>234.27351</ele>
        <time>2014-10-18T10:07:51Z</time>
      </trkpt>
      <trkpt lat="43.9692" lon="1.88508">
        <ele>234.27351</ele>
        <time>2014-10-18T10:07:56Z</time>
      </trkpt>
      <trkpt lat="43.96915" lon="1.88509">
        <ele>235.00276</ele>
        <time>2014-10-18T10:08:01Z</time>
      </trkpt>
      <trkpt lat="43.96909" lon="1.88511">
        <ele>235.00276</ele>
        <time>2014-10-18T10:08:06Z</time>
      </trkpt>
      <trkpt lat="43.96904" lon="1.88512">
        <ele>235.82744</ele>
        <time>2014-10-18T10:08:11Z</time>
      </trkpt>
      <trkpt lat="43.96899" lon="1.88515">
        <ele>235.82744</ele>
        <time>2014-10-18T10:08:16Z</time>
      </trkpt>
      <trkpt lat="43.96894" lon="1.88516">
        <ele>236.33484</ele>
        <time>2014-10-18T10:08:21Z</time>
      </trkpt>
      <trkpt lat="43.96889" lon="1.88518">
        <ele>236.33484</ele>
        <time>2014-10-18T10:08:26Z</time>
      </trkpt>
      <trkpt lat="43.96884" lon="1.88517">
        <ele>236.57591</ele>
        <time>2014-10-18T10:08:31Z</time>
      </trkpt>
      <trkpt lat="43.96879" lon="1.88517">
        <ele>236.57591</ele>
        <time>2014-10-18T10:08:36Z</time>
      </trkpt>
      <trkpt lat="43.96874" lon="1.88517">
        <ele>236.81488</ele>
        <time>2014-10-18T10:08:41Z</time>
      </trkpt>
      <trkpt lat="43.96869" lon="1.88517">
        <ele>236.81488</ele>
        <time>2014-10-18T10:08:46Z</time>
      </trkpt>
      <trkpt lat="43.96865" lon="1.88515">
        <ele>236.56168</ele>
        <time>2014-10-18T10:08:51Z</time>
      </trkpt>
      <trkpt lat="43.96861" lon="1.88514">
        <ele>236.56168</ele>
        <time>2014-10-18T10:08:56Z</time>
      </trkpt>
      <trkpt lat="43.96856" lon="1.88514">
        <ele>236.51665</ele>
        <time>2014-10-18T10:09:01Z</time>
      </trkpt>
      <trkpt lat="43.9685" lon="1.88515">
        <ele>236.51665</ele>
        <time>2014-10-18T10:09:06Z</time>
      </trkpt>
      <trkpt lat="43.96843" lon="1.88516">
        <ele>236.2617</ele>
        <time>2014-10-18T10:09:11Z</time>
      </trkpt>
      <trkpt lat="43.96838" lon="1.88515">
        <ele>236.2617</ele>
        <time>2014-10-18T10:09:16Z</time>
      </trkpt>
      <trkpt lat="43.96832" lon="1.88519">
        <ele>235.88574</ele>
        <time>2014-10-18T10:09:21Z</time>
      </trkpt>
      <trkpt lat="43.96827" lon="1.88521">
        <ele>235.88574</ele>
        <time>2014-10-18T10:09:26Z</time>
      </trkpt>
      <trkpt lat="43.96821" lon="1.8852">
        <ele>235.77417</ele>
        <time>2014-10-18T10:09:31Z</time>
      </trkpt>
      <trkpt lat="43.96816" lon="1.88521">
        <ele>235.77417</ele>
        <time>2014-10-18T10:09:36Z</time>
      </trkpt>
      <trkpt lat="43.9681" lon="1.88524">
        <ele>235.99513</ele>
        <time>2014-10-18T10:09:41Z</time>
      </trkpt>
      <trkpt lat="43.96805" lon="1.88527">
        <ele>235.99513</ele>
        <time>2014-10-18T10:09:46Z</time>
      </trkpt>
      <trkpt lat="43.968" lon="1.8853">
        <ele>236.39474</ele>
        <time>2014-10-18T10:09:51Z</time>
      </trkpt>
      <trkpt lat="43.96795" lon="1.88532">
        <ele>236.39474</ele>
        <time>2014-10-18T10:09:56Z</time>
      </trkpt>
      <trkpt lat="43.9679" lon="1.88535">
        <ele>237.1038</ele>
        <time>2014-10-18T10:10:01Z</time>
      </trkpt>
      <trkpt lat="43.96785" lon="1.88538">
        <ele>237.1038</ele>
        <time>2014-10-18T10:10:06Z</time>
      </trkpt>
      <trkpt lat="43.9678" lon="1.88541">
        <ele>237.69502</ele>
        <time>2014-10-18T10:10:11Z</time>
      </trkpt>
      <trkpt lat="43.96775" lon="1.88543">
        <ele>237.69502</ele>
        <time>2014-10-18T10:10:16Z</time>
      </trkpt>
      <trkpt lat="43.9677" lon="1.88546">
        <ele>237.84491</ele>
        <time>2014-10-18T10:10:21Z</time>
      </trkpt>
      <trkpt lat="43.96766" lon="1.88548">
        <ele>237.84491</ele>
        <time>2014-10-18T10:10:26Z</time>
      </trkpt>
      <trkpt lat="43.96761" lon="1.8855">
        <ele>237.8603</ele>
        <time>2014-10-18T10:10:31Z</time>
      </trkpt>
      <trkpt lat="43.96756" lon="1.88553">
        <ele>237.8603</ele>
        <time>2014-10-18T10:10:36Z</time>
      </trkpt>
      <trkpt lat="43.96751" lon="1.88556">
        <ele>237.80975</ele>
        <time>2014-10-18T10:10:41Z</time>
      </trkpt>
      <trkpt lat="43.96746" lon="1.88558">
        <ele>237.80975</ele>
        <time>2014-10-18T10:10:46Z</time>
      </trkpt>
      <trkpt lat="43.96741" lon="1.88559">
        <ele>237.54079</ele>
        <time>2014-10-18T10:10:51Z</time>
      </trkpt>
      <trkpt lat="43.96736" lon="1.88561">
        <ele>237.54079</ele>
        <time>2014-10-18T10:10:56Z</time>
      </trkpt>
      <trkpt lat="43.9673" lon="1.88564">
        <ele>237.6766</ele>
        <time>2014-10-18T10:11:01Z</time>
      </trkpt>
      <trkpt lat="43.96725" lon="1.88567">
        <ele>237.6766</ele>
        <time>2014-10-18T10:11:06Z</time>
      </trkpt>
      <trkpt lat="43.9672" lon="1.8857">
        <ele>237.72702</ele>
        <time>2014-10-18T10:11:11Z</time>
      </trkpt>
      <trkpt lat="43.96715" lon="1.88571">
        <ele>237.72702</ele>
        <time>2014-10-18T10:11:16Z</time>
      </trkpt>
      <trkpt lat="43.9671" lon="1.88574">
        <ele>237.94432</ele>
        <time>2014-10-18T10:11:21Z</time>
      </trkpt>
      <trkpt lat="43.96704" lon="1.88576">
        <ele>237.94432</ele>
        <time>2014-10-18T10:11:26Z</time>
      </trkpt>
      <trkpt lat="43.96699" lon="1.88576">
        <ele>238.36</ele>
        <time>2014-10-18T10:11:31Z</time>
      </trkpt>
      <trkpt lat="43.96694" lon="1.88576">
        <ele>238.36</ele>
        <time>2014-10-18T10:11:36Z</time>
      </trkpt>
      <trkpt lat="43.96689" lon="1.88577">
        <ele>238.65683</ele>
        <time>2014-10-18T10:11:41Z</time>
      </trkpt>
      <trkpt lat="43.96684" lon="1.88578">
        <ele>238.65683</ele>
        <time>2014-10-18T10:11:46Z</time>
      </trkpt>
      <trkpt lat="43.96678" lon="1.8858">
        <ele>239.07446</ele>
        <time>2014-10-18T10:11:51Z</time>
      </trkpt>
      <trkpt lat="43.96672" lon="1.8858">
        <ele>239.07446</ele>
        <time>2014-10-18T10:11:56Z</time>
      </trkpt>
      <trkpt lat="43.96666" lon="1.8858">
        <ele>239.359</ele>
        <time>2014-10-18T10:12:01Z</time>
      </trkpt>
      <trkpt lat="43.96661" lon="1.8858">
        <ele>239.359</ele>
        <time>2014-10-18T10:12:06Z</time>
      </trkpt>
      <trkpt lat="43.96656" lon="1.88579">
        <ele>239.89526</ele>
        <time>2014-10-18T10:12:11Z</time>
      </trkpt>
      <trkpt lat="43.96651" lon="1.88578">
        <ele>239.89526</ele>
        <time>2014-10-18T10:12:16Z</time>
      </trkpt>
      <trkpt lat="43.96647" lon="1.88578">
        <ele>240.26094</ele>
        <time>2014-10-18T10:12:21Z</time>
      </trkpt>
      <trkpt lat="43.96642" lon="1.88578">
        <ele>240.26094</ele>
        <time>2014-10-18T10:12:26Z</time>
      </trkpt>
      <trkpt lat="43.96637" lon="1.88577">
        <ele>240.61281</ele>
        <time>2014-10-18T10:12:31Z</time>
      </trkpt>
      <trkpt lat="43.96633" lon="1.88577">
        <ele>240.61281</ele>
        <time>2014-10-18T10:12:36Z</time>
      </trkpt>
      <trkpt lat="43.96628" lon="1.88577">
        <ele>241.06734</ele>
        <time>2014-10-18T10:12:41Z</time>
      </trkpt>
      <trkpt lat="43.96623" lon="1.88579">
        <ele>241.06734</ele>
        <time>2014-10-18T10:12:46Z</time>
      </trkpt>
      <trkpt lat="43.96618" lon="1.88581">
        <ele>241.7754</ele>
        <time>2014-10-18T10:12:51Z</time>
      </trkpt>
      <trkpt lat="43.96613" lon="1.88581">
        <ele>241.7754</ele>
        <time>2014-10-18T10:12:56Z</time>
      </trkpt>
      <trkpt lat="43.96608" lon="1.88579">
        <ele>242.51584</ele>
        <time>2014-10-18T10:13:01Z</time>
      </trkpt>
      <trkpt lat="43.96602" lon="1.88578">
        <ele>242.51584</ele>
        <time>2014-10-18T10:13:06Z</time>
      </trkpt>
      <trkpt lat="43.96598" lon="1.88576">
        <ele>243.48712</ele>
        <time>2014-10-18T10:13:11Z</time>
      </trkpt>
      <trkpt lat="43.96593" lon="1.88575">
        <ele>243.48712</ele>
        <time>2014-10-18T10:13:16Z</time>
      </trkpt>
      <trkpt lat="43.96589" lon="1.88576">
        <ele>243.48712</ele>
        <time>2014-10-18T10:13:21Z</time>
      </trkpt>
      <trkpt lat="43.96585" lon="1.88577">
        <ele>244.82925</ele>
        <time>2014-10-18T10:13:26Z</time>
      </trkpt>
      <trkpt lat="43.96581" lon="1.88575">
        <ele>244.82925</ele>
        <time>2014-10-18T10:13:31Z</time>
      </trkpt>
      <trkpt lat="43.96577" lon="1.88574">
        <ele>244.82925</ele>
        <time>2014-10-18T10:13:36Z</time>
      </trkpt>
      <trkpt lat="43.96571" lon="1.88575">
        <ele>246.19542</ele>
        <time>2014-10-18T10:13:41Z</time>
      </trkpt>
      <trkpt lat="43.96566" lon="1.88576">
        <ele>246.19542</ele>
        <time>2014-10-18T10:13:46Z</time>
      </trkpt>
      <trkpt lat="43.9656" lon="1.8858">
        <ele>247.23534</ele>
        <time>2014-10-18T10:13:51Z</time>
      </trkpt>
      <trkpt lat="43.96558" lon="1.88578">
        <ele>247.23534</ele>
        <time>2014-10-18T10:13:56Z</time>
      </trkpt>
      <trkpt lat="43.96554" lon="1.88578">
        <ele>247.23534</ele>
        <time>2014-10-18T10:14:01Z</time>
      </trkpt>
      <trkpt lat="43.9655" lon="1.88578">
        <ele>248.24513</ele>
        <time>2014-10-18T10:14:06Z</time>
      </trkpt>
      <trkpt lat="43.96547" lon="1.88579">
        <ele>248.24513</ele>
        <time>2014-10-18T10:14:11Z</time>
      </trkpt>
      <trkpt lat="43.96542" lon="1.88579">
        <ele>248.24513</ele>
        <time>2014-10-18T10:14:16Z</time>
      </trkpt>
      <trkpt lat="43.96538" lon="1.88581">
        <ele>249.38397</ele>
        <time>2014-10-18T10:14:21Z</time>
      </trkpt>
      <trkpt lat="43.96533" lon="1.88579">
        <ele>249.38397</ele>
        <time>2014-10-18T10:14:26Z</time>
      </trkpt>
      <trkpt lat="43.96528" lon="1.88579">
        <ele>250.46753</ele>
        <time>2014-10-18T10:14:31Z</time>
      </trkpt>
      <trkpt lat="43.96522" lon="1.8858">
        <ele>250.46753</ele>
        <time>2014-10-18T10:14:36Z</time>
      </trkpt>
      <trkpt lat="43.96517" lon="1.88578">
        <ele>251.36848</ele>
        <time>2014-10-18T10:14:41Z</time>
      </trkpt>
      <trkpt lat="43.96512" lon="1.88576">
        <ele>251.36848</ele>
        <time>2014-10-18T10:14:46Z</time>
      </trkpt>
      <trkpt lat="43.96507" lon="1.88574">
        <ele>251.95494</ele>
        <time>2014-10-18T10:14:51Z</time>
      </trkpt>
      <trkpt lat="43.96501" lon="1.88575">
        <ele>251.95494</ele>
        <time>2014-10-18T10:14:56Z</time>
      </trkpt>
      <trkpt lat="43.96496" lon="1.88574">
        <ele>252.56685</ele>
        <time>2014-10-18T10:15:01Z</time>
      </trkpt>
      <trkpt lat="43.96491" lon="1.88574">
        <ele>252.56685</ele>
        <time>2014-10-18T10:15:06Z</time>
      </trkpt>
      <trkpt lat="43.96485" lon="1.88574">
        <ele>253.30289</ele>
        <time>2014-10-18T10:15:11Z</time>
      </trkpt>
      <trkpt lat="43.9648" lon="1.88573">
        <ele>253.30289</ele>
        <time>2014-10-18T10:15:16Z</time>
      </trkpt>
      <trkpt lat="43.96474" lon="1.88572">
        <ele>253.74986</ele>
        <time>2014-10-18T10:15:21Z</time>
      </trkpt>
      <trkpt lat="43.96469" lon="1.88571">
        <ele>253.74986</ele>
        <time>2014-10-18T10:15:26Z</time>
      </trkpt>
      <trkpt lat="43.96464" lon="1.88568">
        <ele>253.97247</ele>
        <time>2014-10-18T10:15:31Z</time>
      </trkpt>
      <trkpt lat="43.96459" lon="1.88566">
        <ele>253.97247</ele>
        <time>2014-10-18T10:15:36Z</time>
      </trkpt>
      <trkpt lat="43.96454" lon="1.88565">
        <ele>253.88722</ele>
        <time>2014-10-18T10:15:41Z</time>
      </trkpt>
      <trkpt lat="43.96448" lon="1.88566">
        <ele>253.88722</ele>
        <time>2014-10-18T10:15:46Z</time>
      </trkpt>
      <trkpt lat="43.96443" lon="1.88567">
        <ele>253.89322</ele>
        <time>2014-10-18T10:15:51Z</time>
      </trkpt>
      <trkpt lat="43.96437" lon="1.88568">
        <ele>253.89322</ele>
        <time>2014-10-18T10:15:56Z</time>
      </trkpt>
      <trkpt lat="43.96431" lon="1.88569">
        <ele>254.28792</ele>
        <time>2014-10-18T10:16:01Z</time>
      </trkpt>
      <trkpt lat="43.96426" lon="1.88569">
        <ele>254.28792</ele>
        <time>2014-10-18T10:16:06Z</time>
      </trkpt>
      <trkpt lat="43.96421" lon="1.88569">
        <ele>254.56769</ele>
        <time>2014-10-18T10:16:11Z</time>
      </trkpt>
      <trkpt lat="43.96417" lon="1.88569">
        <ele>254.56769</ele>
        <time>2014-10-18T10:16:16Z</time>
      </trkpt>
      <trkpt lat="43.96413" lon="1.88568">
        <ele>254.56769</ele>
        <time>2014-10-18T10:16:21Z</time>
      </trkpt>
      <trkpt lat="43.96408" lon="1.8857">
        <ele>254.95795</ele>
        <time>2014-10-18T10:16:26Z</time>
      </trkpt>
      <trkpt lat="43.96403" lon="1.88572">
        <ele>254.95795</ele>
        <time>2014-10-18T10:16:31Z</time>
      </trkpt>
      <trkpt lat="43.96397" lon="1.88575">
        <ele>255.63841</ele>
        <time>2014-10-18T10:16:36Z</time>
      </trkpt>
      <trkpt lat="43.96391" lon="1.88579">
        <ele>255.63841</ele>
        <time>2014-10-18T10:16:41Z</time>
      </trkpt>
      <trkpt lat="43.96385" lon="1.88583">
        <ele>256.58746</ele>
        <time>2014-10-18T10:16:46Z</time>
      </trkpt>
      <trkpt lat="43.96381" lon="1.88584">
        <ele>256.58746</ele>
        <time>2014-10-18T10:16:51Z</time>
      </trkpt>
      <trkpt lat="43.96376" lon="1.88584">
        <ele>257.5105</ele>
        <time>2014-10-18T10:16:56Z</time>
      </trkpt>
      <trkpt lat="43.9637" lon="1.88588">
        <ele>257.5105</ele>
        <time>2014-10-18T10:17:01Z</time>
      </trkpt>
      <trkpt lat="43.96365" lon="1.88591">
        <ele>258.59583</ele>
        <time>2014-10-18T10:17:06Z</time>
      </trkpt>
      <trkpt lat="43.96359" lon="1.88595">
        <ele>258.59583</ele>
        <time>2014-10-18T10:17:11Z</time>
      </trkpt>
      <trkpt lat="43.96353" lon="1.88597">
        <ele>259.65714</ele>
        <time>2014-10-18T10:17:16Z</time>
      </trkpt>
      <trkpt lat="43.96348" lon="1.88596">
        <ele>259.65714</ele>
        <time>2014-10-18T10:17:21Z</time>
      </trkpt>
      <trkpt lat="43.96344" lon="1.88598">
        <ele>260.57956</ele>
        <time>2014-10-18T10:17:26Z</time>
      </trkpt>
      <trkpt lat="43.96339" lon="1.88602">
        <ele>260.57956</ele>
        <time>2014-10-18T10:17:31Z</time>
      </trkpt>
      <trkpt lat="43.96334" lon="1.88606">
        <ele>261.60297</ele>
        <time>2014-10-18T10:17:36Z</time>
      </trkpt>
      <trkpt lat="43.96329" lon="1.88608">
        <ele>261.60297</ele>
        <time>2014-10-18T10:17:41Z</time>
      </trkpt>
      <trkpt lat="43.96324" lon="1.8861">
        <ele>262.54578</ele>
        <time>2014-10-18T10:17:46Z</time>
      </trkpt>
      <trkpt lat="43.96319" lon="1.88611">
        <ele>262.54578</ele>
        <time>2014-10-18T10:17:51Z</time>
      </trkpt>
      <trkpt lat="43.96313" lon="1.88614">
        <ele>263.48505</ele>
        <time>2014-10-18T10:17:56Z</time>
      </trkpt>
      <trkpt lat="43.96306" lon="1.88616">
        <ele>263.48505</ele>
        <time>2014-10-18T10:18:01Z</time>
      </trkpt>
      <trkpt lat="43.96301" lon="1.88622">
        <ele>264.47775</ele>
        <time>2014-10-18T10:18:06Z</time>
      </trkpt>
      <trkpt lat="43.96296" lon="1.88626">
        <ele>264.47775</ele>
        <time>2014-10-18T10:18:11Z</time>
      </trkpt>
      <trkpt lat="43.9629" lon="1.88629">
        <ele>265.4036</ele>
        <time>2014-10-18T10:18:16Z</time>
      </trkpt>
      <trkpt lat="43.96284" lon="1.88633">
        <ele>265.4036</ele>
        <time>2014-10-18T10:18:21Z</time>
      </trkpt>
      <trkpt lat="43.96277" lon="1.88627">
        <ele>266.0361</ele>
        <time>2014-10-18T10:18:26Z</time>
      </trkpt>
      <trkpt lat="43.96271" lon="1.88622">
        <ele>266.0361</ele>
        <time>2014-10-18T10:18:31Z</time>
      </trkpt>
      <trkpt lat="43.96265" lon="1.88615">
        <ele>266.05096</ele>
        <time>2014-10-18T10:18:36Z</time>
      </trkpt>
      <trkpt lat="43.9626" lon="1.8861">
        <ele>266.05096</ele>
        <time>2014-10-18T10:18:41Z</time>
      </trkpt>
      <trkpt lat="43.96255" lon="1.88608">
        <ele>265.97086</ele>
        <time>2014-10-18T10:18:46Z</time>
      </trkpt>
      <trkpt lat="43.96251" lon="1.88604">
        <ele>265.97086</ele>
        <time>2014-10-18T10:18:51Z</time>
      </trkpt>
      <trkpt lat="43.96245" lon="1.886">
        <ele>265.66068</ele>
        <time>2014-10-18T10:18:56Z</time>
      </trkpt>
      <trkpt lat="43.96239" lon="1.88597">
        <ele>265.66068</ele>
        <time>2014-10-18T10:19:01Z</time>
      </trkpt>
      <trkpt lat="43.96234" lon="1.88591">
        <ele>264.9959</ele>
        <time>2014-10-18T10:19:06Z</time>
      </trkpt>
      <trkpt lat="43.96228" lon="1.88588">
        <ele>264.9959</ele>
        <time>2014-10-18T10:19:11Z</time>
      </trkpt>
      <trkpt lat="43.96223" lon="1.88588">
        <ele>264.74124</ele>
        <time>2014-10-18T10:19:16Z</time>
      </trkpt>
      <trkpt lat="43.96218" lon="1.88587">
        <ele>264.74124</ele>
        <time>2014-10-18T10:19:21Z</time>
      </trkpt>
      <trkpt lat="43.96218" lon="1.88591">
        <ele>264.74124</ele>
        <time>2014-10-18T10:19:26Z</time>
      </trkpt>
      <trkpt lat="43.9622" lon="1.88591">
        <ele>264.3071</ele>
        <time>2014-10-18T10:19:31Z</time>
      </trkpt>
      <trkpt lat="43.9622" lon="1.88591">
        <ele>264.3071</ele>
        <time>2014-10-18T10:19:36Z</time>
      </trkpt>
      <trkpt lat="43.96219" lon="1.88591">
        <ele>264.3071</ele>
        <time>2014-10-18T10:19:41Z</time>
      </trkpt>
      <trkpt lat="43.96221" lon="1.88593">
        <ele>264.3071</ele>
        <time>2014-10-18T10:19:46Z</time>
      </trkpt>
      <trkpt lat="43.96224" lon="1.88594">
        <ele>264.3071</ele>
        <time>2014-10-18T10:19:51Z</time>
      </trkpt>
      <trkpt lat="43.96226" lon="1.88596">
        <ele>264.3071</ele>
        <time>2014-10-18T10:19:56Z</time>
      </trkpt>
      <trkpt lat="43.96227" lon="1.886">
        <ele>263.78165</ele>
        <time>2014-10-18T10:20:01Z</time>
      </trkpt>
      <trkpt lat="43.96228" lon="1.88603">
        <ele>263.78165</ele>
        <time>2014-10-18T10:20:06Z</time>
      </trkpt>
      <trkpt lat="43.9623" lon="1.8861">
        <ele>263.78165</ele>
        <time>2014-10-18T10:20:11Z</time>
      </trkpt>
      <trkpt lat="43.96228" lon="1.88618">
        <ele>263.37665</ele>
        <time>2014-10-18T10:20:16Z</time>
      </trkpt>
      <trkpt lat="43.96226" lon="1.88626">
        <ele>263.37665</ele>
        <time>2014-10-18T10:20:21Z</time>
      </trkpt>
      <trkpt lat="43.96223" lon="1.88635">
        <ele>262.23584</ele>
        <time>2014-10-18T10:20:26Z</time>
      </trkpt>
      <trkpt lat="43.9622" lon="1.88643">
        <ele>262.23584</ele>
        <time>2014-10-18T10:20:31Z</time>
      </trkpt>
      <trkpt lat="43.96219" lon="1.88644">
        <ele>262.23584</ele>
        <time>2014-10-18T10:20:36Z</time>
      </trkpt>
      <trkpt lat="43.96221" lon="1.88647">
        <ele>261.1099</ele>
        <time>2014-10-18T10:20:41Z</time>
      </trkpt>
      <trkpt lat="43.9622" lon="1.88645">
        <ele>261.1099</ele>
        <time>2014-10-18T10:20:46Z</time>
      </trkpt>
      <trkpt lat="43.9622" lon="1.88644">
        <ele>261.1099</ele>
        <time>2014-10-18T10:20:51Z</time>
      </trkpt>
      <trkpt lat="43.96216" lon="1.8865">
        <ele>261.1099</ele>
        <time>2014-10-18T10:20:56Z</time>
      </trkpt>
      <trkpt lat="43.96213" lon="1.88657">
        <ele>259.52695</ele>
        <time>2014-10-18T10:21:01Z</time>
      </trkpt>
      <trkpt lat="43.96213" lon="1.88659">
        <ele>259.52695</ele>
        <time>2014-10-18T10:21:06Z</time>
      </trkpt>
      <trkpt lat="43.96212" lon="1.88657">
        <ele>259.52695</ele>
        <time>2014-10-18T10:21:11Z</time>
      </trkpt>
      <trkpt lat="43.96209" lon="1.88662">
        <ele>259.52695</ele>
        <time>2014-10-18T10:21:16Z</time>
      </trkpt>
      <trkpt lat="43.96204" lon="1.88668">
        <ele>258.08862</ele>
        <time>2014-10-18T10:21:21Z</time>
      </trkpt>
      <trkpt lat="43.96201" lon="1.88672">
        <ele>258.08862</ele>
        <time>2014-10-18T10:21:26Z</time>
      </trkpt>
      <trkpt lat="43.96197" lon="1.8868">
        <ele>257.17892</ele>
        <time>2014-10-18T10:21:31Z</time>
      </trkpt>
      <trkpt lat="43.96195" lon="1.88688">
        <ele>257.17892</ele>
        <time>2014-10-18T10:21:36Z</time>
      </trkpt>
      <trkpt lat="43.96195" lon="1.88684">
        <ele>257.17892</ele>
        <time>2014-10-18T10:21:41Z</time>
      </trkpt>
      <trkpt lat="43.96194" lon="1.88681">
        <ele>256.1289</ele>
        <time>2014-10-18T10:21:46Z</time>
      </trkpt>
      <trkpt lat="43.96191" lon="1.88679">
        <ele>256.1289</ele>
        <time>2014-10-18T10:21:51Z</time>
      </trkpt>
      <trkpt lat="43.96186" lon="1.88684">
        <ele>255.01076</ele>
        <time>2014-10-18T10:21:56Z</time>
      </trkpt>
      <trkpt lat="43.96181" lon="1.88693">
        <ele>255.01076</ele>
        <time>2014-10-18T10:22:01Z</time>
      </trkpt>
      <trkpt lat="43.96177" lon="1.88703">
        <ele>254.15092</ele>
        <time>2014-10-18T10:22:06Z</time>
      </trkpt>
      <trkpt lat="43.96173" lon="1.88714">
        <ele>254.15092</ele>
        <time>2014-10-18T10:22:11Z</time>
      </trkpt>
      <trkpt lat="43.96169" lon="1.88721">
        <ele>253.24574</ele>
        <time>2014-10-18T10:22:16Z</time>
      </trkpt>
      <trkpt lat="43.96167" lon="1.88725">
        <ele>253.24574</ele>
        <time>2014-10-18T10:22:21Z</time>
      </trkpt>
      <trkpt lat="43.96164" lon="1.88732">
        <ele>251.69681</ele>
        <time>2014-10-18T10:22:26Z</time>
      </trkpt>
      <trkpt lat="43.9616" lon="1.88738">
        <ele>251.69681</ele>
        <time>2014-10-18T10:22:31Z</time>
      </trkpt>
      <trkpt lat="43.96156" lon="1.88741">
        <ele>249.74402</ele>
        <time>2014-10-18T10:22:36Z</time>
      </trkpt>
      <trkpt lat="43.96152" lon="1.88746">
        <ele>249.74402</ele>
        <time>2014-10-18T10:22:41Z</time>
      </trkpt>
      <trkpt lat="43.96147" lon="1.88754">
        <ele>247.26477</ele>
        <time>2014-10-18T10:22:46Z</time>
      </trkpt>
      <trkpt lat="43.96143" lon="1.8876">
        <ele>247.26477</ele>
        <time>2014-10-18T10:22:51Z</time>
      </trkpt>
      <trkpt lat="43.9614" lon="1.88763">
        <ele>244.78091</ele>
        <time>2014-10-18T10:22:56Z</time>
      </trkpt>
      <trkpt lat="43.96141" lon="1.88754">
        <ele>244.78091</ele>
        <time>2014-10-18T10:23:01Z</time>
      </trkpt>
      <trkpt lat="43.96136" lon="1.88747">
        <ele>242.87674</ele>
        <time>2014-10-18T10:23:06Z</time>
      </trkpt>
      <trkpt lat="43.96137" lon="1.88747">
        <ele>242.87674</ele>
        <time>2014-10-18T10:23:11Z</time>
      </trkpt>
      <trkpt lat="43.96138" lon="1.88747">
        <ele>242.87674</ele>
        <time>2014-10-18T10:23:16Z</time>
      </trkpt>
      <trkpt lat="43.96141" lon="1.88749">
        <ele>242.87674</ele>
        <time>2014-10-18T10:23:21Z</time>
      </trkpt>
      <trkpt lat="43.96141" lon="1.88749">
        <ele>242.87674</ele>
        <time>2014-10-18T10:23:26Z</time>
      </trkpt>
      <trkpt lat="43.96141" lon="1.88749">
        <ele>242.87674</ele>
        <time>2014-10-18T10:23:31Z</time>
      </trkpt>
      <trkpt lat="43.96141" lon="1.88749">
        <ele>242.87674</ele>
        <time>2014-10-18T10:23:36Z</time>
      </trkpt>
      <trkpt lat="43.96141" lon="1.8875">
        <ele>242.87674</ele>
        <time>2014-10-18T10:23:41Z</time>
      </trkpt>
      <trkpt lat="43.96141" lon="1.88751">
        <ele>242.87674</ele>
        <time>2014-10-18T10:23:46Z</time>
      </trkpt>
      <trkpt lat="43.96141" lon="1.88751">
        <ele>242.87674</ele>
        <time>2014-10-18T10:23:51Z</time>
      </trkpt>
      <trkpt lat="43.96141" lon="1.88751">
        <ele>241.27034</ele>
        <time>2014-10-18T10:23:56Z</time>
      </trkpt>
      <trkpt lat="43.9614" lon="1.88755">
        <ele>241.27034</ele>
        <time>2014-10-18T10:24:01Z</time>
      </trkpt>
      <trkpt lat="43.96136" lon="1.8876">
        <ele>241.27034</ele>
        <time>2014-10-18T10:24:06Z</time>
      </trkpt>
      <trkpt lat="43.96131" lon="1.88766">
        <ele>239.84372</ele>
        <time>2014-10-18T10:24:11Z</time>
      </trkpt>
      <trkpt lat="43.96126" lon="1.8877">
        <ele>239.84372</ele>
        <time>2014-10-18T10:24:16Z</time>
      </trkpt>
      <trkpt lat="43.96122" lon="1.88774">
        <ele>238.86153</ele>
        <time>2014-10-18T10:24:21Z</time>
      </trkpt>
      <trkpt lat="43.96117" lon="1.8878">
        <ele>238.86153</ele>
        <time>2014-10-18T10:24:26Z</time>
      </trkpt>
      <trkpt lat="43.96112" lon="1.88787">
        <ele>237.77496</ele>
        <time>2014-10-18T10:24:31Z</time>
      </trkpt>
      <trkpt lat="43.96107" lon="1.88793">
        <ele>237.77496</ele>
        <time>2014-10-18T10:24:36Z</time>
      </trkpt>
      <trkpt lat="43.96103" lon="1.88799">
        <ele>237.07005</ele>
        <time>2014-10-18T10:24:41Z</time>
      </trkpt>
      <trkpt lat="43.96098" lon="1.88807">
        <ele>237.07005</ele>
        <time>2014-10-18T10:24:46Z</time>
      </trkpt>
      <trkpt lat="43.96093" lon="1.88807">
        <ele>236.24477</ele>
        <time>2014-10-18T10:24:51Z</time>
      </trkpt>
      <trkpt lat="43.96089" lon="1.88806">
        <ele>236.24477</ele>
        <time>2014-10-18T10:24:56Z</time>
      </trkpt>
      <trkpt lat="43.96085" lon="1.88808">
        <ele>236.24477</ele>
        <time>2014-10-18T10:25:01Z</time>
      </trkpt>
      <trkpt lat="43.9608" lon="1.88812">
        <ele>234.77649</ele>
        <time>2014-10-18T10:25:06Z</time>
      </trkpt>
      <trkpt lat="43.96075" lon="1.88815">
        <ele>234.77649</ele>
        <time>2014-10-18T10:25:11Z</time>
      </trkpt>
      <trkpt lat="43.96069" lon="1.8882">
        <ele>233.667</ele>
        <time>2014-10-18T10:25:16Z</time>
      </trkpt>
      <trkpt lat="43.96063" lon="1.88825">
        <ele>233.667</ele>
        <time>2014-10-18T10:25:21Z</time>
      </trkpt>
      <trkpt lat="43.96058" lon="1.88827">
        <ele>232.38786</ele>
        <time>2014-10-18T10:25:26Z</time>
      </trkpt>
      <trkpt lat="43.96053" lon="1.8883">
        <ele>232.38786</ele>
        <time>2014-10-18T10:25:31Z</time>
      </trkpt>
      <trkpt lat="43.96047" lon="1.8883">
        <ele>231.02618</ele>
        <time>2014-10-18T10:25:36Z</time>
      </trkpt>
      <trkpt lat="43.96041" lon="1.88833">
        <ele>231.02618</ele>
        <time>2014-10-18T10:25:41Z</time>
      </trkpt>
      <trkpt lat="43.96034" lon="1.88837">
        <ele>230.08072</ele>
        <time>2014-10-18T10:25:46Z</time>
      </trkpt>
      <trkpt lat="43.96028" lon="1.88842">
        <ele>230.08072</ele>
        <time>2014-10-18T10:25:51Z</time>
      </trkpt>
      <trkpt lat="43.96023" lon="1.88844">
        <ele>228.58559</ele>
        <time>2014-10-18T10:25:56Z</time>
      </trkpt>
      <trkpt lat="43.96017" lon="1.88847">
        <ele>228.58559</ele>
        <time>2014-10-18T10:26:01Z</time>
      </trkpt>
      <trkpt lat="43.96012" lon="1.8885">
        <ele>227.44867</ele>
        <time>2014-10-18T10:26:06Z</time>
      </trkpt>
      <trkpt lat="43.96006" lon="1.88848">
        <ele>227.44867</ele>
        <time>2014-10-18T10:26:11Z</time>
      </trkpt>
      <trkpt lat="43.96001" lon="1.88851">
        <ele>226.37154</ele>
        <time>2014-10-18T10:26:16Z</time>
      </trkpt>
      <trkpt lat="43.95996" lon="1.88854">
        <ele>226.37154</ele>
        <time>2014-10-18T10:26:21Z</time>
      </trkpt>
      <trkpt lat="43.95994" lon="1.88856">
        <ele>226.37154</ele>
        <time>2014-10-18T10:26:26Z</time>
      </trkpt>
      <trkpt lat="43.95994" lon="1.88854">
        <ele>225.16388</ele>
        <time>2014-10-18T10:26:31Z</time>
      </trkpt>
      <trkpt lat="43.95994" lon="1.88853">
        <ele>225.16388</ele>
        <time>2014-10-18T10:26:36Z</time>
      </trkpt>
      <trkpt lat="43.95994" lon="1.88852">
        <ele>225.16388</ele>
        <time>2014-10-18T10:26:41Z</time>
      </trkpt>
      <trkpt lat="43.95994" lon="1.88852">
        <ele>225.16388</ele>
        <time>2014-10-18T10:26:46Z</time>
      </trkpt>
      <trkpt lat="43.95994" lon="1.8885">
        <ele>225.16388</ele>
        <time>2014-10-18T10:26:51Z</time>
      </trkpt>
      <trkpt lat="43.95992" lon="1.88847">
        <ele>225.16388</ele>
        <time>2014-10-18T10:26:56Z</time>
      </trkpt>
      <trkpt lat="43.95992" lon="1.88846">
        <ele>225.16388</ele>
        <time>2014-10-18T10:27:01Z</time>
      </trkpt>
      <trkpt lat="43.95992" lon="1.88846">
        <ele>225.16388</ele>
        <time>2014-10-18T10:27:06Z</time>
      </trkpt>
      <trkpt lat="43.95992" lon="1.88846">
        <ele>225.16388</ele>
        <time>2014-10-18T10:27:11Z</time>
      </trkpt>
      <trkpt lat="43.95992" lon="1.88846">
        <ele>225.16388</ele>
        <time>2014-10-18T10:27:16Z</time>
      </trkpt>
      <trkpt lat="43.95992" lon="1.88846">
        <ele>225.16388</ele>
        <time>2014-10-18T10:27:21Z</time>
      </trkpt>
      <trkpt lat="43.95992" lon="1.88846">
        <ele>225.16388</ele>
        <time>2014-10-18T10:27:26Z</time>
      </trkpt>
      <trkpt lat="43.95992" lon="1.88846">
        <ele>225.16388</ele>
        <time>2014-10-18T10:27:31Z</time>
      </trkpt>
      <trkpt lat="43.95992" lon="1.88846">
        <ele>225.16388</ele>
        <time>2014-10-18T10:27:36Z</time>
      </trkpt>
      <trkpt lat="43.95992" lon="1.88846">
        <ele>225.16388</ele>
        <time>2014-10-18T10:27:41Z</time>
      </trkpt>
      <trkpt lat="43.95992" lon="1.88846">
        <ele>225.16388</ele>
        <time>2014-10-18T10:27:46Z</time>
      </trkpt>
      <trkpt lat="43.95992" lon="1.88846">
        <ele>225.16388</ele>
        <time>2014-10-18T10:27:51Z</time>
      </trkpt>
      <trkpt lat="43.95992" lon="1.88846">
        <ele>225.16388</ele>
        <time>2014-10-18T10:27:56Z</time>
      </trkpt>
      <trkpt lat="43.95992" lon="1.88846">
        <ele>225.16388</ele>
        <time>2014-10-18T10:28:01Z</time>
      </trkpt>
      <trkpt lat="43.95992" lon="1.88846">
        <ele>225.16388</ele>
        <time>2014-10-18T10:28:06Z</time>
      </trkpt>
      <trkpt lat="43.95992" lon="1.88846">
        <ele>225.16388</ele>
        <time>2014-10-18T10:28:11Z</time>
      </trkpt>
      <trkpt lat="43.95992" lon="1.88846">
        <ele>225.16388</ele>
        <time>2014-10-18T10:28:16Z</time>
      </trkpt>
      <trkpt lat="43.95992" lon="1.88846">
        <ele>225.16388</ele>
        <time>2014-10-18T10:28:21Z</time>
      </trkpt>
      <trkpt lat="43.95992" lon="1.88846">
        <ele>225.16388</ele>
        <time>2014-10-18T10:28:26Z</time>
      </trkpt>
      <trkpt lat="43.95992" lon="1.88846">
        <ele>225.16388</ele>
        <time>2014-10-18T10:28:31Z</time>
      </trkpt>
      <trkpt lat="43.95992" lon="1.88846">
        <ele>225.16388</ele>
        <time>2014-10-18T10:28:36Z</time>
      </trkpt>
      <trkpt lat="43.95992" lon="1.88846">
        <ele>225.16388</ele>
        <time>2014-10-18T10:28:41Z</time>
      </trkpt>
      <trkpt lat="43.95992" lon="1.88846">
        <ele>225.16388</ele>
        <time>2014-10-18T10:28:46Z</time>
      </trkpt>
      <trkpt lat="43.95992" lon="1.88846">
        <ele>225.16388</ele>
        <time>2014-10-18T10:28:51Z</time>
      </trkpt>
      <trkpt lat="43.95992" lon="1.88846">
        <ele>225.16388</ele>
        <time>2014-10-18T10:28:56Z</time>
      </trkpt>
      <trkpt lat="43.95992" lon="1.88846">
        <ele>225.16388</ele>
        <time>2014-10-18T10:29:01Z</time>
      </trkpt>
      <trkpt lat="43.95992" lon="1.88846">
        <ele>225.16388</ele>
        <time>2014-10-18T10:29:06Z</time>
      </trkpt>
      <trkpt lat="43.95992" lon="1.88846">
        <ele>225.16388</ele>
        <time>2014-10-18T10:29:11Z</time>
      </trkpt>
      <trkpt lat="43.95992" lon="1.88846">
        <ele>225.16388</ele>
        <time>2014-10-18T10:29:16Z</time>
      </trkpt>
      <trkpt lat="43.95992" lon="1.88846">
        <ele>225.16388</ele>
        <time>2014-10-18T10:29:21Z</time>
      </trkpt>
      <trkpt lat="43.95992" lon="1.88846">
        <ele>225.16388</ele>
        <time>2014-10-18T10:29:26Z</time>
      </trkpt>
      <trkpt lat="43.95992" lon="1.88846">
        <ele>225.16388</ele>
        <time>2014-10-18T10:29:31Z</time>
      </trkpt>
      <trkpt lat="43.95992" lon="1.88846">
        <ele>225.16388</ele>
        <time>2014-10-18T10:29:36Z</time>
      </trkpt>
      <trkpt lat="43.95992" lon="1.88846">
        <ele>225.16388</ele>
        <time>2014-10-18T10:29:41Z</time>
      </trkpt>
      <trkpt lat="43.95992" lon="1.88846">
        <ele>225.16388</ele>
        <time>2014-10-18T10:29:46Z</time>
      </trkpt>
      <trkpt lat="43.95992" lon="1.88846">
        <ele>225.16388</ele>
        <time>2014-10-18T10:29:51Z</time>
      </trkpt>
      <trkpt lat="43.95992" lon="1.88846">
        <ele>225.16388</ele>
        <time>2014-10-18T10:29:56Z</time>
      </trkpt>
      <trkpt lat="43.95992" lon="1.88846">
        <ele>225.16388</ele>
        <time>2014-10-18T10:30:01Z</time>
      </trkpt>
      <trkpt lat="43.95993" lon="1.88847">
        <ele>223.5487</ele>
        <time>2014-10-18T10:30:06Z</time>
      </trkpt>
      <trkpt lat="43.95994" lon="1.8885">
        <ele>223.5487</ele>
        <time>2014-10-18T10:30:11Z</time>
      </trkpt>
      <trkpt lat="43.95994" lon="1.8885">
        <ele>223.5487</ele>
        <time>2014-10-18T10:30:16Z</time>
      </trkpt>
      <trkpt lat="43.95994" lon="1.8885">
        <ele>223.5487</ele>
        <time>2014-10-18T10:30:21Z</time>
      </trkpt>
      <trkpt lat="43.95994" lon="1.8885">
        <ele>223.5487</ele>
        <time>2014-10-18T10:30:26Z</time>
      </trkpt>
      <trkpt lat="43.95994" lon="1.8885">
        <ele>223.5487</ele>
        <time>2014-10-18T10:30:31Z</time>
      </trkpt>
      <trkpt lat="43.95994" lon="1.8885">
        <ele>223.5487</ele>
        <time>2014-10-18T10:30:36Z</time>
      </trkpt>
      <trkpt lat="43.95994" lon="1.8885">
        <ele>223.5487</ele>
        <time>2014-10-18T10:30:41Z</time>
      </trkpt>
      <trkpt lat="43.95994" lon="1.8885">
        <ele>223.5487</ele>
        <time>2014-10-18T10:30:46Z</time>
      </trkpt>
      <trkpt lat="43.95994" lon="1.8885">
        <ele>223.5487</ele>
        <time>2014-10-18T10:30:51Z</time>
      </trkpt>
      <trkpt lat="43.95994" lon="1.8885">
        <ele>223.5487</ele>
        <time>2014-10-18T10:30:56Z</time>
      </trkpt>
      <trkpt lat="43.95994" lon="1.8885">
        <ele>223.5487</ele>
        <time>2014-10-18T10:31:01Z</time>
      </trkpt>
      <trkpt lat="43.95995" lon="1.88851">
        <ele>223.5487</ele>
        <time>2014-10-18T10:31:06Z</time>
      </trkpt>
      <trkpt lat="43.95993" lon="1.88851">
        <ele>223.5487</ele>
        <time>2014-10-18T10:31:11Z</time>
      </trkpt>
      <trkpt lat="43.95993" lon="1.8885">
        <ele>223.5487</ele>
        <time>2014-10-18T10:31:16Z</time>
      </trkpt>
      <trkpt lat="43.95993" lon="1.8885">
        <ele>223.5487</ele>
        <time>2014-10-18T10:31:21Z</time>
      </trkpt>
      <trkpt lat="43.95993" lon="1.8885">
        <ele>223.5487</ele>
        <time>2014-10-18T10:31:26Z</time>
      </trkpt>
      <trkpt lat="43.95992" lon="1.8885">
        <ele>223.5487</ele>
        <time>2014-10-18T10:31:31Z</time>
      </trkpt>
      <trkpt lat="43.95993" lon="1.8885">
        <ele>223.5487</ele>
        <time>2014-10-18T10:31:36Z</time>
      </trkpt>
      <trkpt lat="43.95993" lon="1.88851">
        <ele>223.5487</ele>
        <time>2014-10-18T10:31:41Z</time>
      </trkpt>
      <trkpt lat="43.95993" lon="1.88852">
        <ele>223.5487</ele>
        <time>2014-10-18T10:31:46Z</time>
      </trkpt>
      <trkpt lat="43.95993" lon="1.88852">
        <ele>223.5487</ele>
        <time>2014-10-18T10:31:51Z</time>
      </trkpt>
      <trkpt lat="43.95994" lon="1.88852">
        <ele>223.5487</ele>
        <time>2014-10-18T10:31:56Z</time>
      </trkpt>
      <trkpt lat="43.95994" lon="1.88852">
        <ele>223.5487</ele>
        <time>2014-10-18T10:32:01Z</time>
      </trkpt>
      <trkpt lat="43.95994" lon="1.88853">
        <ele>222.85568</ele>
        <time>2014-10-18T10:32:06Z</time>
      </trkpt>
      <trkpt lat="43.95994" lon="1.88853">
        <ele>222.85568</ele>
        <time>2014-10-18T10:32:11Z</time>
      </trkpt>
      <trkpt lat="43.95994" lon="1.88853">
        <ele>222.85568</ele>
        <time>2014-10-18T10:32:16Z</time>
      </trkpt>
      <trkpt lat="43.95993" lon="1.88853">
        <ele>222.85568</ele>
        <time>2014-10-18T10:32:21Z</time>
      </trkpt>
      <trkpt lat="43.95993" lon="1.88849">
        <ele>222.85568</ele>
        <time>2014-10-18T10:32:26Z</time>
      </trkpt>
      <trkpt lat="43.95992" lon="1.8885">
        <ele>222.85568</ele>
        <time>2014-10-18T10:32:31Z</time>
      </trkpt>
      <trkpt lat="43.95992" lon="1.8885">
        <ele>222.85568</ele>
        <time>2014-10-18T10:32:36Z</time>
      </trkpt>
      <trkpt lat="43.95991" lon="1.8885">
        <ele>222.85568</ele>
        <time>2014-10-18T10:32:41Z</time>
      </trkpt>
      <trkpt lat="43.95991" lon="1.8885">
        <ele>222.85568</ele>
        <time>2014-10-18T10:32:46Z</time>
      </trkpt>
      <trkpt lat="43.95992" lon="1.88849">
        <ele>222.85568</ele>
        <time>2014-10-18T10:32:51Z</time>
      </trkpt>
      <trkpt lat="43.95992" lon="1.88849">
        <ele>222.85568</ele>
        <time>2014-10-18T10:32:56Z</time>
      </trkpt>
      <trkpt lat="43.95992" lon="1.88849">
        <ele>222.85568</ele>
        <time>2014-10-18T10:33:01Z</time>
      </trkpt>
      <trkpt lat="43.95992" lon="1.88849">
        <ele>222.85568</ele>
        <time>2014-10-18T10:33:06Z</time>
      </trkpt>
      <trkpt lat="43.95989" lon="1.88853">
        <ele>220.86977</ele>
        <time>2014-10-18T10:33:11Z</time>
      </trkpt>
      <trkpt lat="43.95984" lon="1.88861">
        <ele>220.86977</ele>
        <time>2014-10-18T10:33:16Z</time>
      </trkpt>
      <trkpt lat="43.95979" lon="1.88864">
        <ele>219.3756</ele>
        <time>2014-10-18T10:33:21Z</time>
      </trkpt>
      <trkpt lat="43.95975" lon="1.8887">
        <ele>219.3756</ele>
        <time>2014-10-18T10:33:26Z</time>
      </trkpt>
      <trkpt lat="43.95971" lon="1.88878">
        <ele>218.1373</ele>
        <time>2014-10-18T10:33:31Z</time>
      </trkpt>
      <trkpt lat="43.95966" lon="1.88886">
        <ele>218.1373</ele>
        <time>2014-10-18T10:33:36Z</time>
      </trkpt>
      <trkpt lat="43.95961" lon="1.88889">
        <ele>216.83469</ele>
        <time>2014-10-18T10:33:41Z</time>
      </trkpt>
      <trkpt lat="43.95956" lon="1.88891">
        <ele>216.83469</ele>
        <time>2014-10-18T10:33:46Z</time>
      </trkpt>
      <trkpt lat="43.95952" lon="1.88897">
        <ele>216.15108</ele>
        <time>2014-10-18T10:33:51Z</time>
      </trkpt>
      <trkpt lat="43.95947" lon="1.88903">
        <ele>216.15108</ele>
        <time>2014-10-18T10:33:56Z</time>
      </trkpt>
      <trkpt lat="43.95944" lon="1.88909">
        <ele>215.82431</ele>
        <time>2014-10-18T10:34:01Z</time>
      </trkpt>
      <trkpt lat="43.95942" lon="1.88915">
        <ele>215.82431</ele>
        <time>2014-10-18T10:34:06Z</time>
      </trkpt>
      <trkpt lat="43.95939" lon="1.88922">
        <ele>214.86102</ele>
        <time>2014-10-18T10:34:11Z</time>
      </trkpt>
      <trkpt lat="43.95935" lon="1.88929">
        <ele>214.86102</ele>
        <time>2014-10-18T10:34:16Z</time>
      </trkpt>
      <trkpt lat="43.95931" lon="1.88934">
        <ele>214.56183</ele>
        <time>2014-10-18T10:34:21Z</time>
      </trkpt>
      <trkpt lat="43.95926" lon="1.88938">
        <ele>214.56183</ele>
        <time>2014-10-18T10:34:26Z</time>
      </trkpt>
      <trkpt lat="43.95922" lon="1.88945">
        <ele>214.64551</ele>
        <time>2014-10-18T10:34:31Z</time>
      </trkpt>
      <trkpt lat="43.95919" lon="1.88951">
        <ele>214.64551</ele>
        <time>2014-10-18T10:34:36Z</time>
      </trkpt>
      <trkpt lat="43.95914" lon="1.88956">
        <ele>214.60542</ele>
        <time>2014-10-18T10:34:41Z</time>
      </trkpt>
      <trkpt lat="43.95909" lon="1.88961">
        <ele>214.60542</ele>
        <time>2014-10-18T10:34:46Z</time>
      </trkpt>
      <trkpt lat="43.95905" lon="1.88965">
        <ele>214.28944</ele>
        <time>2014-10-18T10:34:51Z</time>
      </trkpt>
      <trkpt lat="43.959" lon="1.88968">
        <ele>214.28944</ele>
        <time>2014-10-18T10:34:56Z</time>
      </trkpt>
      <trkpt lat="43.95895" lon="1.88971">
        <ele>214.11946</ele>
        <time>2014-10-18T10:35:01Z</time>
      </trkpt>
      <trkpt lat="43.9589" lon="1.88976">
        <ele>214.11946</ele>
        <time>2014-10-18T10:35:06Z</time>
      </trkpt>
      <trkpt lat="43.95887" lon="1.8898">
        <ele>213.79411</ele>
        <time>2014-10-18T10:35:11Z</time>
      </trkpt>
      <trkpt lat="43.95883" lon="1.88983">
        <ele>213.79411</ele>
        <time>2014-10-18T10:35:16Z</time>
      </trkpt>
      <trkpt lat="43.95879" lon="1.88986">
        <ele>213.79411</ele>
        <time>2014-10-18T10:35:21Z</time>
      </trkpt>
      <trkpt lat="43.95875" lon="1.88989">
        <ele>212.87616</ele>
        <time>2014-10-18T10:35:26Z</time>
      </trkpt>
      <trkpt lat="43.9587" lon="1.88994">
        <ele>212.87616</ele>
        <time>2014-10-18T10:35:31Z</time>
      </trkpt>
      <trkpt lat="43.95865" lon="1.88998">
        <ele>211.68262</ele>
        <time>2014-10-18T10:35:36Z</time>
      </trkpt>
      <trkpt lat="43.95861" lon="1.89003">
        <ele>211.68262</ele>
        <time>2014-10-18T10:35:41Z</time>
      </trkpt>
      <trkpt lat="43.95856" lon="1.89007">
        <ele>210.5801</ele>
        <time>2014-10-18T10:35:46Z</time>
      </trkpt>
      <trkpt lat="43.95852" lon="1.89012">
        <ele>210.5801</ele>
        <time>2014-10-18T10:35:51Z</time>
      </trkpt>
      <trkpt lat="43.95847" lon="1.89015">
        <ele>209.56206</ele>
        <time>2014-10-18T10:35:56Z</time>
      </trkpt>
      <trkpt lat="43.95842" lon="1.89014">
        <ele>209.56206</ele>
        <time>2014-10-18T10:36:01Z</time>
      </trkpt>
      <trkpt lat="43.95836" lon="1.89015">
        <ele>208.78082</ele>
        <time>2014-10-18T10:36:06Z</time>
      </trkpt>
      <trkpt lat="43.9583" lon="1.89016">
        <ele>208.78082</ele>
        <time>2014-10-18T10:36:11Z</time>
      </trkpt>
      <trkpt lat="43.95824" lon="1.89018">
        <ele>208.39119</ele>
        <time>2014-10-18T10:36:16Z</time>
      </trkpt>
      <trkpt lat="43.95819" lon="1.89019">
        <ele>208.39119</ele>
        <time>2014-10-18T10:36:21Z</time>
      </trkpt>
      <trkpt lat="43.95813" lon="1.89021">
        <ele>207.94467</ele>
        <time>2014-10-18T10:36:26Z</time>
      </trkpt>
      <trkpt lat="43.95807" lon="1.89022">
        <ele>207.94467</ele>
        <time>2014-10-18T10:36:31Z</time>
      </trkpt>
      <trkpt lat="43.95801" lon="1.89024">
        <ele>207.32849</ele>
        <time>2014-10-18T10:36:36Z</time>
      </trkpt>
      <trkpt lat="43.95796" lon="1.89024">
        <ele>207.32849</ele>
        <time>2014-10-18T10:36:41Z</time>
      </trkpt>
      <trkpt lat="43.95791" lon="1.89025">
        <ele>206.6404</ele>
        <time>2014-10-18T10:36:46Z</time>
      </trkpt>
      <trkpt lat="43.95786" lon="1.89027">
        <ele>206.6404</ele>
        <time>2014-10-18T10:36:51Z</time>
      </trkpt>
      <trkpt lat="43.9578" lon="1.89026">
        <ele>206.37471</ele>
        <time>2014-10-18T10:36:56Z</time>
      </trkpt>
      <trkpt lat="43.95777" lon="1.8902">
        <ele>206.37471</ele>
        <time>2014-10-18T10:37:01Z</time>
      </trkpt>
      <trkpt lat="43.95775" lon="1.89013">
        <ele>206.26767</ele>
        <time>2014-10-18T10:37:06Z</time>
      </trkpt>
      <trkpt lat="43.95772" lon="1.89005">
        <ele>206.26767</ele>
        <time>2014-10-18T10:37:11Z</time>
      </trkpt>
      <trkpt lat="43.9577" lon="1.88997">
        <ele>206.478</ele>
        <time>2014-10-18T10:37:16Z</time>
      </trkpt>
      <trkpt lat="43.95768" lon="1.88989">
        <ele>206.478</ele>
        <time>2014-10-18T10:37:21Z</time>
      </trkpt>
      <trkpt lat="43.95766" lon="1.88981">
        <ele>206.31604</ele>
        <time>2014-10-18T10:37:26Z</time>
      </trkpt>
      <trkpt lat="43.95764" lon="1.88973">
        <ele>206.31604</ele>
        <time>2014-10-18T10:37:31Z</time>
      </trkpt>
      <trkpt lat="43.95762" lon="1.88965">
        <ele>206.38324</ele>
        <time>2014-10-18T10:37:36Z</time>
      </trkpt>
      <trkpt lat="43.95759" lon="1.88958">
        <ele>206.38324</ele>
        <time>2014-10-18T10:37:41Z</time>
      </trkpt>
      <trkpt lat="43.95755" lon="1.88951">
        <ele>206.83273</ele>
        <time>2014-10-18T10:37:46Z</time>
      </trkpt>
      <trkpt lat="43.95753" lon="1.88945">
        <ele>206.83273</ele>
        <time>2014-10-18T10:37:51Z</time>
      </trkpt>
      <trkpt lat="43.95754" lon="1.88939">
        <ele>207.27219</ele>
        <time>2014-10-18T10:37:56Z</time>
      </trkpt>
      <trkpt lat="43.95754" lon="1.88933">
        <ele>207.27219</ele>
        <time>2014-10-18T10:38:01Z</time>
      </trkpt>
      <trkpt lat="43.95755" lon="1.88926">
        <ele>207.64078</ele>
        <time>2014-10-18T10:38:06Z</time>
      </trkpt>
      <trkpt lat="43.95755" lon="1.88918">
        <ele>207.64078</ele>
        <time>2014-10-18T10:38:11Z</time>
      </trkpt>
      <trkpt lat="43.95756" lon="1.88911">
        <ele>208.28593</ele>
        <time>2014-10-18T10:38:16Z</time>
      </trkpt>
      <trkpt lat="43.95757" lon="1.88905">
        <ele>208.28593</ele>
        <time>2014-10-18T10:38:21Z</time>
      </trkpt>
      <trkpt lat="43.95758" lon="1.889">
        <ele>208.28593</ele>
        <time>2014-10-18T10:38:26Z</time>
      </trkpt>
      <trkpt lat="43.9576" lon="1.88894">
        <ele>208.53447</ele>
        <time>2014-10-18T10:38:31Z</time>
      </trkpt>
      <trkpt lat="43.9576" lon="1.88886">
        <ele>208.53447</ele>
        <time>2014-10-18T10:38:36Z</time>
      </trkpt>
      <trkpt lat="43.9576" lon="1.88878">
        <ele>208.49883</ele>
        <time>2014-10-18T10:38:41Z</time>
      </trkpt>
      <trkpt lat="43.95761" lon="1.88871">
        <ele>208.49883</ele>
        <time>2014-10-18T10:38:46Z</time>
      </trkpt>
      <trkpt lat="43.95764" lon="1.88865">
        <ele>208.29845</ele>
        <time>2014-10-18T10:38:51Z</time>
      </trkpt>
      <trkpt lat="43.95765" lon="1.88862">
        <ele>208.29845</ele>
        <time>2014-10-18T10:38:56Z</time>
      </trkpt>
      <trkpt lat="43.95766" lon="1.88855">
        <ele>208.29845</ele>
        <time>2014-10-18T10:39:01Z</time>
      </trkpt>
      <trkpt lat="43.95767" lon="1.88847">
        <ele>208.70746</ele>
        <time>2014-10-18T10:39:06Z</time>
      </trkpt>
      <trkpt lat="43.95769" lon="1.8884">
        <ele>208.70746</ele>
        <time>2014-10-18T10:39:11Z</time>
      </trkpt>
      <trkpt lat="43.95771" lon="1.88833">
        <ele>210.25417</ele>
        <time>2014-10-18T10:39:16Z</time>
      </trkpt>
      <trkpt lat="43.95773" lon="1.88826">
        <ele>210.25417</ele>
        <time>2014-10-18T10:39:21Z</time>
      </trkpt>
      <trkpt lat="43.95775" lon="1.88817">
        <ele>212.15677</ele>
        <time>2014-10-18T10:39:26Z</time>
      </trkpt>
      <trkpt lat="43.95778" lon="1.88811">
        <ele>212.15677</ele>
        <time>2014-10-18T10:39:31Z</time>
      </trkpt>
      <trkpt lat="43.95782" lon="1.88806">
        <ele>214.28087</ele>
        <time>2014-10-18T10:39:36Z</time>
      </trkpt>
      <trkpt lat="43.95783" lon="1.88799">
        <ele>214.28087</ele>
        <time>2014-10-18T10:39:41Z</time>
      </trkpt>
      <trkpt lat="43.95786" lon="1.88792">
        <ele>216.35727</ele>
        <time>2014-10-18T10:39:46Z</time>
      </trkpt>
      <trkpt lat="43.95792" lon="1.88789">
        <ele>216.35727</ele>
        <time>2014-10-18T10:39:51Z</time>
      </trkpt>
      <trkpt lat="43.95795" lon="1.88782">
        <ele>218.20894</ele>
        <time>2014-10-18T10:39:56Z</time>
      </trkpt>
      <trkpt lat="43.95797" lon="1.88775">
        <ele>218.20894</ele>
        <time>2014-10-18T10:40:01Z</time>
      </trkpt>
      <trkpt lat="43.95798" lon="1.88766">
        <ele>219.55728</ele>
        <time>2014-10-18T10:40:06Z</time>
      </trkpt>
      <trkpt lat="43.95801" lon="1.88759">
        <ele>219.55728</ele>
        <time>2014-10-18T10:40:11Z</time>
      </trkpt>
      <trkpt lat="43.95801" lon="1.88752">
        <ele>222.19211</ele>
        <time>2014-10-18T10:40:16Z</time>
      </trkpt>
      <trkpt lat="43.95798" lon="1.88743">
        <ele>222.19211</ele>
        <time>2014-10-18T10:40:21Z</time>
      </trkpt>
      <trkpt lat="43.95798" lon="1.88734">
        <ele>223.22882</ele>
        <time>2014-10-18T10:40:26Z</time>
      </trkpt>
      <trkpt lat="43.95796" lon="1.88726">
        <ele>223.22882</ele>
        <time>2014-10-18T10:40:31Z</time>
      </trkpt>
      <trkpt lat="43.95794" lon="1.88719">
        <ele>224.76942</ele>
        <time>2014-10-18T10:40:36Z</time>
      </trkpt>
      <trkpt lat="43.95788" lon="1.88716">
        <ele>224.76942</ele>
        <time>2014-10-18T10:40:41Z</time>
      </trkpt>
      <trkpt lat="43.95782" lon="1.88714">
        <ele>226.68506</ele>
        <time>2014-10-18T10:40:46Z</time>
      </trkpt>
      <trkpt lat="43.95776" lon="1.88712">
        <ele>226.68506</ele>
        <time>2014-10-18T10:40:51Z</time>
      </trkpt>
      <trkpt lat="43.9577" lon="1.88708">
        <ele>228.37994</ele>
        <time>2014-10-18T10:40:56Z</time>
      </trkpt>
      <trkpt lat="43.95765" lon="1.88705">
        <ele>228.37994</ele>
        <time>2014-10-18T10:41:01Z</time>
      </trkpt>
      <trkpt lat="43.9576" lon="1.88701">
        <ele>230.29715</ele>
        <time>2014-10-18T10:41:06Z</time>
      </trkpt>
      <trkpt lat="43.95756" lon="1.88697">
        <ele>230.29715</ele>
        <time>2014-10-18T10:41:11Z</time>
      </trkpt>
      <trkpt lat="43.9575" lon="1.88691">
        <ele>232.5874</ele>
        <time>2014-10-18T10:41:16Z</time>
      </trkpt>
      <trkpt lat="43.95744" lon="1.88687">
        <ele>232.5874</ele>
        <time>2014-10-18T10:41:21Z</time>
      </trkpt>
      <trkpt lat="43.95738" lon="1.88685">
        <ele>234.92834</ele>
        <time>2014-10-18T10:41:26Z</time>
      </trkpt>
      <trkpt lat="43.95733" lon="1.88684">
        <ele>234.92834</ele>
        <time>2014-10-18T10:41:31Z</time>
      </trkpt>
      <trkpt lat="43.95729" lon="1.8868">
        <ele>236.66106</ele>
        <time>2014-10-18T10:41:36Z</time>
      </trkpt>
      <trkpt lat="43.95726" lon="1.88675">
        <ele>236.66106</ele>
        <time>2014-10-18T10:41:41Z</time>
      </trkpt>
      <trkpt lat="43.95722" lon="1.88671">
        <ele>237.60924</ele>
        <time>2014-10-18T10:41:46Z</time>
      </trkpt>
      <trkpt lat="43.95717" lon="1.88666">
        <ele>237.60924</ele>
        <time>2014-10-18T10:41:51Z</time>
      </trkpt>
      <trkpt lat="43.95713" lon="1.88659">
        <ele>238.80809</ele>
        <time>2014-10-18T10:41:56Z</time>
      </trkpt>
      <trkpt lat="43.95709" lon="1.88655">
        <ele>238.80809</ele>
        <time>2014-10-18T10:42:01Z</time>
      </trkpt>
      <trkpt lat="43.95705" lon="1.88652">
        <ele>239.55894</ele>
        <time>2014-10-18T10:42:06Z</time>
      </trkpt>
      <trkpt lat="43.95704" lon="1.8865">
        <ele>239.55894</ele>
        <time>2014-10-18T10:42:11Z</time>
      </trkpt>
      <trkpt lat="43.95705" lon="1.88649">
        <ele>239.55894</ele>
        <time>2014-10-18T10:42:16Z</time>
      </trkpt>
      <trkpt lat="43.95704" lon="1.88648">
        <ele>239.55894</ele>
        <time>2014-10-18T10:42:21Z</time>
      </trkpt>
      <trkpt lat="43.95705" lon="1.88648">
        <ele>239.55894</ele>
        <time>2014-10-18T10:42:26Z</time>
      </trkpt>
      <trkpt lat="43.95706" lon="1.88646">
        <ele>239.55894</ele>
        <time>2014-10-18T10:42:31Z</time>
      </trkpt>
      <trkpt lat="43.95707" lon="1.88645">
        <ele>239.55894</ele>
        <time>2014-10-18T10:42:36Z</time>
      </trkpt>
      <trkpt lat="43.95707" lon="1.88645">
        <ele>239.55894</ele>
        <time>2014-10-18T10:42:41Z</time>
      </trkpt>
      <trkpt lat="43.95707" lon="1.88645">
        <ele>239.55894</ele>
        <time>2014-10-18T10:42:46Z</time>
      </trkpt>
      <trkpt lat="43.95707" lon="1.88645">
        <ele>239.55894</ele>
        <time>2014-10-18T10:42:51Z</time>
      </trkpt>
      <trkpt lat="43.95707" lon="1.88645">
        <ele>239.55894</ele>
        <time>2014-10-18T10:42:56Z</time>
      </trkpt>
      <trkpt lat="43.95707" lon="1.88645">
        <ele>239.55894</ele>
        <time>2014-10-18T10:43:01Z</time>
      </trkpt>
      <trkpt lat="43.95705" lon="1.88644">
        <ele>240.6282</ele>
        <time>2014-10-18T10:43:06Z</time>
      </trkpt>
      <trkpt lat="43.95704" lon="1.88642">
        <ele>240.6282</ele>
        <time>2014-10-18T10:43:11Z</time>
      </trkpt>
      <trkpt lat="43.95704" lon="1.88641">
        <ele>240.6282</ele>
        <time>2014-10-18T10:43:16Z</time>
      </trkpt>
      <trkpt lat="43.95703" lon="1.88641">
        <ele>240.6282</ele>
        <time>2014-10-18T10:43:21Z</time>
      </trkpt>
      <trkpt lat="43.95703" lon="1.88641">
        <ele>240.6282</ele>
        <time>2014-10-18T10:43:26Z</time>
      </trkpt>
      <trkpt lat="43.95703" lon="1.88642">
        <ele>240.6282</ele>
        <time>2014-10-18T10:43:31Z</time>
      </trkpt>
      <trkpt lat="43.95703" lon="1.88643">
        <ele>240.6282</ele>
        <time>2014-10-18T10:43:36Z</time>
      </trkpt>
      <trkpt lat="43.95702" lon="1.88643">
        <ele>240.6282</ele>
        <time>2014-10-18T10:43:41Z</time>
      </trkpt>
      <trkpt lat="43.95702" lon="1.88643">
        <ele>240.6282</ele>
        <time>2014-10-18T10:43:46Z</time>
      </trkpt>
      <trkpt lat="43.95702" lon="1.88644">
        <ele>240.6282</ele>
        <time>2014-10-18T10:43:51Z</time>
      </trkpt>
      <trkpt lat="43.95702" lon="1.88644">
        <ele>240.6282</ele>
        <time>2014-10-18T10:43:56Z</time>
      </trkpt>
      <trkpt lat="43.95703" lon="1.88641">
        <ele>242.11998</ele>
        <time>2014-10-18T10:44:01Z</time>
      </trkpt>
      <trkpt lat="43.95702" lon="1.88642">
        <ele>242.11998</ele>
        <time>2014-10-18T10:44:06Z</time>
      </trkpt>
      <trkpt lat="43.95702" lon="1.88642">
        <ele>242.11998</ele>
        <time>2014-10-18T10:44:11Z</time>
      </trkpt>
      <trkpt lat="43.95701" lon="1.88642">
        <ele>242.11998</ele>
        <time>2014-10-18T10:44:16Z</time>
      </trkpt>
      <trkpt lat="43.95702" lon="1.88641">
        <ele>242.11998</ele>
        <time>2014-10-18T10:44:21Z</time>
      </trkpt>
      <trkpt lat="43.95702" lon="1.88641">
        <ele>242.11998</ele>
        <time>2014-10-18T10:44:26Z</time>
      </trkpt>
      <trkpt lat="43.95702" lon="1.88641">
        <ele>242.11998</ele>
        <time>2014-10-18T10:44:31Z</time>
      </trkpt>
      <trkpt lat="43.95702" lon="1.88641">
        <ele>242.11998</ele>
        <time>2014-10-18T10:44:36Z</time>
      </trkpt>
      <trkpt lat="43.95702" lon="1.88641">
        <ele>242.11998</ele>
        <time>2014-10-18T10:44:41Z</time>
      </trkpt>
      <trkpt lat="43.95702" lon="1.88641">
        <ele>242.11998</ele>
        <time>2014-10-18T10:44:46Z</time>
      </trkpt>
      <trkpt lat="43.95701" lon="1.88643">
        <ele>242.11998</ele>
        <time>2014-10-18T10:44:51Z</time>
      </trkpt>
      <trkpt lat="43.957" lon="1.88647">
        <ele>242.11998</ele>
        <time>2014-10-18T10:44:56Z</time>
      </trkpt>
      <trkpt lat="43.95701" lon="1.88649">
        <ele>244.25943</ele>
        <time>2014-10-18T10:45:01Z</time>
      </trkpt>
      <trkpt lat="43.95702" lon="1.88648">
        <ele>244.25943</ele>
        <time>2014-10-18T10:45:06Z</time>
      </trkpt>
      <trkpt lat="43.95702" lon="1.88648">
        <ele>244.25943</ele>
        <time>2014-10-18T10:45:11Z</time>
      </trkpt>
      <trkpt lat="43.95702" lon="1.88648">
        <ele>244.25943</ele>
        <time>2014-10-18T10:45:16Z</time>
      </trkpt>
      <trkpt lat="43.95702" lon="1.88648">
        <ele>244.25943</ele>
        <time>2014-10-18T10:45:21Z</time>
      </trkpt>
      <trkpt lat="43.95702" lon="1.88648">
        <ele>244.25943</ele>
        <time>2014-10-18T10:45:26Z</time>
      </trkpt>
      <trkpt lat="43.95702" lon="1.88648">
        <ele>244.25943</ele>
        <time>2014-10-18T10:45:31Z</time>
      </trkpt>
      <trkpt lat="43.95702" lon="1.88648">
        <ele>244.25943</ele>
        <time>2014-10-18T10:45:36Z</time>
      </trkpt>
      <trkpt lat="43.95702" lon="1.88648">
        <ele>244.25943</ele>
        <time>2014-10-18T10:45:41Z</time>
      </trkpt>
      <trkpt lat="43.95702" lon="1.88648">
        <ele>244.25943</ele>
        <time>2014-10-18T10:45:46Z</time>
      </trkpt>
      <trkpt lat="43.95702" lon="1.88648">
        <ele>244.25943</ele>
        <time>2014-10-18T10:45:51Z</time>
      </trkpt>
      <trkpt lat="43.95702" lon="1.88648">
        <ele>244.25943</ele>
        <time>2014-10-18T10:45:56Z</time>
      </trkpt>
      <trkpt lat="43.95702" lon="1.88648">
        <ele>244.25943</ele>
        <time>2014-10-18T10:46:01Z</time>
      </trkpt>
      <trkpt lat="43.95702" lon="1.88648">
        <ele>244.25943</ele>
        <time>2014-10-18T10:46:06Z</time>
      </trkpt>
      <trkpt lat="43.95702" lon="1.88648">
        <ele>244.25943</ele>
        <time>2014-10-18T10:46:11Z</time>
      </trkpt>
      <trkpt lat="43.95703" lon="1.88645">
        <ele>244.25943</ele>
        <time>2014-10-18T10:46:16Z</time>
      </trkpt>
      <trkpt lat="43.95701" lon="1.88642">
        <ele>244.25943</ele>
        <time>2014-10-18T10:46:21Z</time>
      </trkpt>
      <trkpt lat="43.95701" lon="1.88642">
        <ele>244.25943</ele>
        <time>2014-10-18T10:46:26Z</time>
      </trkpt>
      <trkpt lat="43.95701" lon="1.88643">
        <ele>244.25943</ele>
        <time>2014-10-18T10:46:31Z</time>
      </trkpt>
      <trkpt lat="43.957" lon="1.88646">
        <ele>245.8268</ele>
        <time>2014-10-18T10:46:36Z</time>
      </trkpt>
      <trkpt lat="43.95696" lon="1.88654">
        <ele>245.8268</ele>
        <time>2014-10-18T10:46:41Z</time>
      </trkpt>
      <trkpt lat="43.95691" lon="1.88662">
        <ele>245.90988</ele>
        <time>2014-10-18T10:46:46Z</time>
      </trkpt>
      <trkpt lat="43.95687" lon="1.88669">
        <ele>245.90988</ele>
        <time>2014-10-18T10:46:51Z</time>
      </trkpt>
      <trkpt lat="43.95683" lon="1.88679">
        <ele>246.16092</ele>
        <time>2014-10-18T10:46:56Z</time>
      </trkpt>
      <trkpt lat="43.95678" lon="1.8869">
        <ele>246.48203</ele>
        <time>2014-10-18T10:47:01Z</time>
      </trkpt>
      <trkpt lat="43.95673" lon="1.887">
        <ele>246.40773</ele>
        <time>2014-10-18T10:47:06Z</time>
      </trkpt>
      <trkpt lat="43.95668" lon="1.88711">
        <ele>246.40773</ele>
        <time>2014-10-18T10:47:11Z</time>
      </trkpt>
      <trkpt lat="43.95664" lon="1.88717">
        <ele>246.60321</ele>
        <time>2014-10-18T10:47:16Z</time>
      </trkpt>
      <trkpt lat="43.95659" lon="1.88724">
        <ele>246.60321</ele>
        <time>2014-10-18T10:47:21Z</time>
      </trkpt>
      <trkpt lat="43.95655" lon="1.8873">
        <ele>246.54568</ele>
        <time>2014-10-18T10:47:26Z</time>
      </trkpt>
      <trkpt lat="43.95651" lon="1.88733">
        <ele>246.54568</ele>
        <time>2014-10-18T10:47:31Z</time>
      </trkpt>
      <trkpt lat="43.95648" lon="1.88737">
        <ele>246.51535</ele>
        <time>2014-10-18T10:47:36Z</time>
      </trkpt>
      <trkpt lat="43.95647" lon="1.88741">
        <ele>246.51535</ele>
        <time>2014-10-18T10:47:41Z</time>
      </trkpt>
      <trkpt lat="43.95647" lon="1.88748">
        <ele>246.51535</ele>
        <time>2014-10-18T10:47:46Z</time>
      </trkpt>
      <trkpt lat="43.95644" lon="1.88754">
        <ele>245.79187</ele>
        <time>2014-10-18T10:47:51Z</time>
      </trkpt>
      <trkpt lat="43.9564" lon="1.88759">
        <ele>245.79187</ele>
        <time>2014-10-18T10:47:56Z</time>
      </trkpt>
      <trkpt lat="43.95638" lon="1.88766">
        <ele>245.52563</ele>
        <time>2014-10-18T10:48:01Z</time>
      </trkpt>
      <trkpt lat="43.95633" lon="1.8877">
        <ele>245.52563</ele>
        <time>2014-10-18T10:48:06Z</time>
      </trkpt>
      <trkpt lat="43.95629" lon="1.88777">
        <ele>244.97989</ele>
        <time>2014-10-18T10:48:11Z</time>
      </trkpt>
      <trkpt lat="43.95624" lon="1.88782">
        <ele>244.97989</ele>
        <time>2014-10-18T10:48:16Z</time>
      </trkpt>
      <trkpt lat="43.9562" lon="1.88788">
        <ele>243.81871</ele>
        <time>2014-10-18T10:48:21Z</time>
      </trkpt>
      <trkpt lat="43.95615" lon="1.88793">
        <ele>243.81871</ele>
        <time>2014-10-18T10:48:26Z</time>
      </trkpt>
      <trkpt lat="43.95611" lon="1.88795">
        <ele>242.88547</ele>
        <time>2014-10-18T10:48:31Z</time>
      </trkpt>
      <trkpt lat="43.95608" lon="1.88801">
        <ele>242.88547</ele>
        <time>2014-10-18T10:48:36Z</time>
      </trkpt>
      <trkpt lat="43.95603" lon="1.88806">
        <ele>241.80804</ele>
        <time>2014-10-18T10:48:41Z</time>
      </trkpt>
      <trkpt lat="43.95599" lon="1.8881">
        <ele>241.80804</ele>
        <time>2014-10-18T10:48:46Z</time>
      </trkpt>
      <trkpt lat="43.95595" lon="1.88817">
        <ele>240.77531</ele>
        <time>2014-10-18T10:48:51Z</time>
      </trkpt>
      <trkpt lat="43.95591" lon="1.88822">
        <ele>240.77531</ele>
        <time>2014-10-18T10:48:56Z</time>
      </trkpt>
      <trkpt lat="43.95588" lon="1.88827">
        <ele>240.13498</ele>
        <time>2014-10-18T10:49:01Z</time>
      </trkpt>
      <trkpt lat="43.95583" lon="1.88832">
        <ele>240.13498</ele>
        <time>2014-10-18T10:49:06Z</time>
      </trkpt>
      <trkpt lat="43.95577" lon="1.88836">
        <ele>239.58846</ele>
        <time>2014-10-18T10:49:11Z</time>
      </trkpt>
      <trkpt lat="43.95572" lon="1.88842">
        <ele>239.58846</ele>
        <time>2014-10-18T10:49:16Z</time>
      </trkpt>
      <trkpt lat="43.95566" lon="1.88847">
        <ele>239.14696</ele>
        <time>2014-10-18T10:49:21Z</time>
      </trkpt>
      <trkpt lat="43.95561" lon="1.88851">
        <ele>239.14696</ele>
        <time>2014-10-18T10:49:26Z</time>
      </trkpt>
      <trkpt lat="43.95557" lon="1.88857">
        <ele>238.3738</ele>
        <time>2014-10-18T10:49:31Z</time>
      </trkpt>
      <trkpt lat="43.95553" lon="1.8886">
        <ele>238.3738</ele>
        <time>2014-10-18T10:49:36Z</time>
      </trkpt>
      <trkpt lat="43.95548" lon="1.88864">
        <ele>237.4849</ele>
        <time>2014-10-18T10:49:41Z</time>
      </trkpt>
      <trkpt lat="43.95544" lon="1.88869">
        <ele>237.4849</ele>
        <time>2014-10-18T10:49:46Z</time>
      </trkpt>
      <trkpt lat="43.9554" lon="1.88875">
        <ele>236.66618</ele>
        <time>2014-10-18T10:49:51Z</time>
      </trkpt>
      <trkpt lat="43.95536" lon="1.8888">
        <ele>236.66618</ele>
        <time>2014-10-18T10:49:56Z</time>
      </trkpt>
      <trkpt lat="43.95532" lon="1.88886">
        <ele>235.71494</ele>
        <time>2014-10-18T10:50:01Z</time>
      </trkpt>
      <trkpt lat="43.95527" lon="1.88891">
        <ele>235.71494</ele>
        <time>2014-10-18T10:50:06Z</time>
      </trkpt>
      <trkpt lat="43.95522" lon="1.88896">
        <ele>234.93361</ele>
        <time>2014-10-18T10:50:11Z</time>
      </trkpt>
      <trkpt lat="43.95517" lon="1.88902">
        <ele>234.93361</ele>
        <time>2014-10-18T10:50:16Z</time>
      </trkpt>
      <trkpt lat="43.95512" lon="1.88906">
        <ele>233.96777</ele>
        <time>2014-10-18T10:50:21Z</time>
      </trkpt>
      <trkpt lat="43.95507" lon="1.8891">
        <ele>233.96777</ele>
        <time>2014-10-18T10:50:26Z</time>
      </trkpt>
      <trkpt lat="43.95502" lon="1.88916">
        <ele>232.76324</ele>
        <time>2014-10-18T10:50:31Z</time>
      </trkpt>
      <trkpt lat="43.95497" lon="1.88922">
        <ele>232.76324</ele>
        <time>2014-10-18T10:50:36Z</time>
      </trkpt>
      <trkpt lat="43.95491" lon="1.88927">
        <ele>231.64511</ele>
        <time>2014-10-18T10:50:41Z</time>
      </trkpt>
      <trkpt lat="43.95485" lon="1.88929">
        <ele>231.64511</ele>
        <time>2014-10-18T10:50:46Z</time>
      </trkpt>
      <trkpt lat="43.95479" lon="1.8893">
        <ele>230.6548</ele>
        <time>2014-10-18T10:50:51Z</time>
      </trkpt>
      <trkpt lat="43.95474" lon="1.88926">
        <ele>230.6548</ele>
        <time>2014-10-18T10:50:56Z</time>
      </trkpt>
      <trkpt lat="43.95469" lon="1.8892">
        <ele>229.21057</ele>
        <time>2014-10-18T10:51:01Z</time>
      </trkpt>
      <trkpt lat="43.95465" lon="1.88914">
        <ele>229.21057</ele>
        <time>2014-10-18T10:51:06Z</time>
      </trkpt>
      <trkpt lat="43.95461" lon="1.8891">
        <ele>228.0283</ele>
        <time>2014-10-18T10:51:11Z</time>
      </trkpt>
      <trkpt lat="43.95456" lon="1.88905">
        <ele>228.0283</ele>
        <time>2014-10-18T10:51:16Z</time>
      </trkpt>
      <trkpt lat="43.95451" lon="1.88901">
        <ele>227.5831</ele>
        <time>2014-10-18T10:51:21Z</time>
      </trkpt>
      <trkpt lat="43.95445" lon="1.88899">
        <ele>227.5831</ele>
        <time>2014-10-18T10:51:26Z</time>
      </trkpt>
      <trkpt lat="43.9544" lon="1.88894">
        <ele>226.48277</ele>
        <time>2014-10-18T10:51:31Z</time>
      </trkpt>
      <trkpt lat="43.95435" lon="1.88892">
        <ele>226.48277</ele>
        <time>2014-10-18T10:51:36Z</time>
      </trkpt>
      <trkpt lat="43.95429" lon="1.8889">
        <ele>224.67845</ele>
        <time>2014-10-18T10:51:41Z</time>
      </trkpt>
      <trkpt lat="43.95424" lon="1.88891">
        <ele>224.67845</ele>
        <time>2014-10-18T10:51:46Z</time>
      </trkpt>
      <trkpt lat="43.95419" lon="1.88892">
        <ele>222.76077</ele>
        <time>2014-10-18T10:51:51Z</time>
      </trkpt>
      <trkpt lat="43.95414" lon="1.88895">
        <ele>222.76077</ele>
        <time>2014-10-18T10:51:56Z</time>
      </trkpt>
      <trkpt lat="43.95408" lon="1.889">
        <ele>221.796</ele>
        <time>2014-10-18T10:52:01Z</time>
      </trkpt>
      <trkpt lat="43.95405" lon="1.88906">
        <ele>221.796</ele>
        <time>2014-10-18T10:52:06Z</time>
      </trkpt>
      <trkpt lat="43.95401" lon="1.88912">
        <ele>220.85257</ele>
        <time>2014-10-18T10:52:11Z</time>
      </trkpt>
      <trkpt lat="43.95399" lon="1.88921">
        <ele>220.85257</ele>
        <time>2014-10-18T10:52:16Z</time>
      </trkpt>
      <trkpt lat="43.95399" lon="1.88929">
        <ele>219.98944</ele>
        <time>2014-10-18T10:52:21Z</time>
      </trkpt>
      <trkpt lat="43.95396" lon="1.88938">
        <ele>219.98944</ele>
        <time>2014-10-18T10:52:26Z</time>
      </trkpt>
      <trkpt lat="43.95392" lon="1.88944">
        <ele>219.24649</ele>
        <time>2014-10-18T10:52:31Z</time>
      </trkpt>
      <trkpt lat="43.95387" lon="1.88948">
        <ele>219.24649</ele>
        <time>2014-10-18T10:52:36Z</time>
      </trkpt>
      <trkpt lat="43.95381" lon="1.88951">
        <ele>218.37196</ele>
        <time>2014-10-18T10:52:41Z</time>
      </trkpt>
      <trkpt lat="43.95375" lon="1.88956">
        <ele>218.37196</ele>
        <time>2014-10-18T10:52:46Z</time>
      </trkpt>
      <trkpt lat="43.9537" lon="1.88964">
        <ele>217.72368</ele>
        <time>2014-10-18T10:52:51Z</time>
      </trkpt>
      <trkpt lat="43.95366" lon="1.88971">
        <ele>217.72368</ele>
        <time>2014-10-18T10:52:56Z</time>
      </trkpt>
      <trkpt lat="43.95362" lon="1.88978">
        <ele>217.09923</ele>
        <time>2014-10-18T10:53:01Z</time>
      </trkpt>
      <trkpt lat="43.95361" lon="1.88984">
        <ele>217.09923</ele>
        <time>2014-10-18T10:53:06Z</time>
      </trkpt>
      <trkpt lat="43.95363" lon="1.88994">
        <ele>217.07462</ele>
        <time>2014-10-18T10:53:11Z</time>
      </trkpt>
      <trkpt lat="43.95361" lon="1.89002">
        <ele>217.07462</ele>
        <time>2014-10-18T10:53:16Z</time>
      </trkpt>
      <trkpt lat="43.95358" lon="1.89007">
        <ele>216.22188</ele>
        <time>2014-10-18T10:53:21Z</time>
      </trkpt>
      <trkpt lat="43.95355" lon="1.89013">
        <ele>216.22188</ele>
        <time>2014-10-18T10:53:26Z</time>
      </trkpt>
      <trkpt lat="43.95354" lon="1.89022">
        <ele>215.58356</ele>
        <time>2014-10-18T10:53:31Z</time>
      </trkpt>
      <trkpt lat="43.9535" lon="1.89031">
        <ele>215.58356</ele>
        <time>2014-10-18T10:53:36Z</time>
      </trkpt>
      <trkpt lat="43.95347" lon="1.89036">
        <ele>214.52525</ele>
        <time>2014-10-18T10:53:41Z</time>
      </trkpt>
      <trkpt lat="43.95344" lon="1.89043">
        <ele>214.52525</ele>
        <time>2014-10-18T10:53:46Z</time>
      </trkpt>
      <trkpt lat="43.95343" lon="1.89052">
        <ele>213.642</ele>
        <time>2014-10-18T10:53:51Z</time>
      </trkpt>
      <trkpt lat="43.95344" lon="1.8906">
        <ele>213.642</ele>
        <time>2014-10-18T10:53:56Z</time>
      </trkpt>
      <trkpt lat="43.95342" lon="1.89068">
        <ele>213.52773</ele>
        <time>2014-10-18T10:54:01Z</time>
      </trkpt>
      <trkpt lat="43.9534" lon="1.8907">
        <ele>213.52773</ele>
        <time>2014-10-18T10:54:06Z</time>
      </trkpt>
      <trkpt lat="43.95341" lon="1.89071">
        <ele>213.52773</ele>
        <time>2014-10-18T10:54:11Z</time>
      </trkpt>
      <trkpt lat="43.95342" lon="1.89071">
        <ele>213.52773</ele>
        <time>2014-10-18T10:54:16Z</time>
      </trkpt>
      <trkpt lat="43.95343" lon="1.89071">
        <ele>213.52773</ele>
        <time>2014-10-18T10:54:21Z</time>
      </trkpt>
      <trkpt lat="43.95343" lon="1.89071">
        <ele>213.52773</ele>
        <time>2014-10-18T10:54:26Z</time>
      </trkpt>
      <trkpt lat="43.95344" lon="1.89069">
        <ele>213.52773</ele>
        <time>2014-10-18T10:54:31Z</time>
      </trkpt>
      <trkpt lat="43.95344" lon="1.89067">
        <ele>213.79376</ele>
        <time>2014-10-18T10:54:36Z</time>
      </trkpt>
      <trkpt lat="43.95344" lon="1.89066">
        <ele>213.79376</ele>
        <time>2014-10-18T10:54:41Z</time>
      </trkpt>
      <trkpt lat="43.95344" lon="1.89066">
        <ele>213.79376</ele>
        <time>2014-10-18T10:54:46Z</time>
      </trkpt>
      <trkpt lat="43.95344" lon="1.89066">
        <ele>213.79376</ele>
        <time>2014-10-18T10:54:51Z</time>
      </trkpt>
      <trkpt lat="43.95344" lon="1.89066">
        <ele>213.79376</ele>
        <time>2014-10-18T10:54:56Z</time>
      </trkpt>
      <trkpt lat="43.95344" lon="1.89066">
        <ele>213.79376</ele>
        <time>2014-10-18T10:55:01Z</time>
      </trkpt>
      <trkpt lat="43.95344" lon="1.89066">
        <ele>213.79376</ele>
        <time>2014-10-18T10:55:06Z</time>
      </trkpt>
      <trkpt lat="43.95344" lon="1.89066">
        <ele>213.79376</ele>
        <time>2014-10-18T10:55:11Z</time>
      </trkpt>
      <trkpt lat="43.95344" lon="1.89066">
        <ele>213.79376</ele>
        <time>2014-10-18T10:55:16Z</time>
      </trkpt>
      <trkpt lat="43.95344" lon="1.89066">
        <ele>213.79376</ele>
        <time>2014-10-18T10:55:21Z</time>
      </trkpt>
      <trkpt lat="43.95344" lon="1.89066">
        <ele>213.79376</ele>
        <time>2014-10-18T10:55:26Z</time>
      </trkpt>
      <trkpt lat="43.95344" lon="1.89066">
        <ele>213.79376</ele>
        <time>2014-10-18T10:55:31Z</time>
      </trkpt>
      <trkpt lat="43.9534" lon="1.89071">
        <ele>213.79376</ele>
        <time>2014-10-18T10:55:36Z</time>
      </trkpt>
      <trkpt lat="43.9534" lon="1.89075">
        <ele>214.55444</ele>
        <time>2014-10-18T10:55:41Z</time>
      </trkpt>
      <trkpt lat="43.95339" lon="1.89076">
        <ele>214.55444</ele>
        <time>2014-10-18T10:55:46Z</time>
      </trkpt>
      <trkpt lat="43.95337" lon="1.89078">
        <ele>214.55444</ele>
        <time>2014-10-18T10:55:51Z</time>
      </trkpt>
      <trkpt lat="43.95332" lon="1.8908">
        <ele>214.94865</ele>
        <time>2014-10-18T10:55:56Z</time>
      </trkpt>
      <trkpt lat="43.95328" lon="1.89081">
        <ele>214.94865</ele>
        <time>2014-10-18T10:56:01Z</time>
      </trkpt>
      <trkpt lat="43.95324" lon="1.89083">
        <ele>214.94865</ele>
        <time>2014-10-18T10:56:06Z</time>
      </trkpt>
      <trkpt lat="43.95321" lon="1.89087">
        <ele>214.95773</ele>
        <time>2014-10-18T10:56:11Z</time>
      </trkpt>
      <trkpt lat="43.95318" lon="1.89091">
        <ele>214.95773</ele>
        <time>2014-10-18T10:56:16Z</time>
      </trkpt>
      <trkpt lat="43.95314" lon="1.89097">
        <ele>215.2139</ele>
        <time>2014-10-18T10:56:21Z</time>
      </trkpt>
      <trkpt lat="43.95311" lon="1.89102">
        <ele>215.2139</ele>
        <time>2014-10-18T10:56:26Z</time>
      </trkpt>
      <trkpt lat="43.9531" lon="1.89102">
        <ele>215.2139</ele>
        <time>2014-10-18T10:56:31Z</time>
      </trkpt>
      <trkpt lat="43.95309" lon="1.89101">
        <ele>215.2139</ele>
        <time>2014-10-18T10:56:36Z</time>
      </trkpt>
      <trkpt lat="43.95309" lon="1.89103">
        <ele>215.2139</ele>
        <time>2014-10-18T10:56:41Z</time>
      </trkpt>
      <trkpt lat="43.95309" lon="1.89104">
        <ele>215.36551</ele>
        <time>2014-10-18T10:56:46Z</time>
      </trkpt>
      <trkpt lat="43.95309" lon="1.89108">
        <ele>215.36551</ele>
        <time>2014-10-18T10:56:51Z</time>
      </trkpt>
      <trkpt lat="43.95311" lon="1.89109">
        <ele>215.36551</ele>
        <time>2014-10-18T10:56:56Z</time>
      </trkpt>
      <trkpt lat="43.95312" lon="1.89109">
        <ele>215.36551</ele>
        <time>2014-10-18T10:57:01Z</time>
      </trkpt>
      <trkpt lat="43.95312" lon="1.8911">
        <ele>215.36551</ele>
        <time>2014-10-18T10:57:06Z</time>
      </trkpt>
      <trkpt lat="43.95312" lon="1.8911">
        <ele>215.36551</ele>
        <time>2014-10-18T10:57:11Z</time>
      </trkpt>
      <trkpt lat="43.95313" lon="1.8911">
        <ele>215.36551</ele>
        <time>2014-10-18T10:57:16Z</time>
      </trkpt>
      <trkpt lat="43.95314" lon="1.8911">
        <ele>215.36551</ele>
        <time>2014-10-18T10:57:21Z</time>
      </trkpt>
      <trkpt lat="43.95314" lon="1.8911">
        <ele>215.36551</ele>
        <time>2014-10-18T10:57:26Z</time>
      </trkpt>
      <trkpt lat="43.95314" lon="1.89111">
        <ele>215.36551</ele>
        <time>2014-10-18T10:57:31Z</time>
      </trkpt>
      <trkpt lat="43.95312" lon="1.8912">
        <ele>215.0005</ele>
        <time>2014-10-18T10:57:36Z</time>
      </trkpt>
      <trkpt lat="43.9531" lon="1.89125">
        <ele>215.0005</ele>
        <time>2014-10-18T10:57:41Z</time>
      </trkpt>
      <trkpt lat="43.95306" lon="1.89126">
        <ele>215.0005</ele>
        <time>2014-10-18T10:57:46Z</time>
      </trkpt>
      <trkpt lat="43.95302" lon="1.89123">
        <ele>215.13641</ele>
        <time>2014-10-18T10:57:51Z</time>
      </trkpt>
      <trkpt lat="43.95299" lon="1.89126">
        <ele>215.13641</ele>
        <time>2014-10-18T10:57:56Z</time>
      </trkpt>
      <trkpt lat="43.95297" lon="1.89131">
        <ele>215.13641</ele>
        <time>2014-10-18T10:58:01Z</time>
      </trkpt>
      <trkpt lat="43.95298" lon="1.89135">
        <ele>215.23026</ele>
        <time>2014-10-18T10:58:06Z</time>
      </trkpt>
      <trkpt lat="43.95297" lon="1.89136">
        <ele>215.23026</ele>
        <time>2014-10-18T10:58:11Z</time>
      </trkpt>
      <trkpt lat="43.95297" lon="1.89136">
        <ele>215.23026</ele>
        <time>2014-10-18T10:58:16Z</time>
      </trkpt>
      <trkpt lat="43.95297" lon="1.89135">
        <ele>215.23026</ele>
        <time>2014-10-18T10:58:21Z</time>
      </trkpt>
      <trkpt lat="43.95297" lon="1.89135">
        <ele>215.23026</ele>
        <time>2014-10-18T10:58:26Z</time>
      </trkpt>
      <trkpt lat="43.95297" lon="1.89135">
        <ele>215.23026</ele>
        <time>2014-10-18T10:58:31Z</time>
      </trkpt>
      <trkpt lat="43.95297" lon="1.89136">
        <ele>215.23026</ele>
        <time>2014-10-18T10:58:36Z</time>
      </trkpt>
      <trkpt lat="43.95297" lon="1.89136">
        <ele>215.23026</ele>
        <time>2014-10-18T10:58:41Z</time>
      </trkpt>
      <trkpt lat="43.95299" lon="1.89136">
        <ele>215.23026</ele>
        <time>2014-10-18T10:58:46Z</time>
      </trkpt>
      <trkpt lat="43.95303" lon="1.8914">
        <ele>215.23026</ele>
        <time>2014-10-18T10:58:51Z</time>
      </trkpt>
      <trkpt lat="43.953" lon="1.89142">
        <ele>215.0817</ele>
        <time>2014-10-18T10:58:56Z</time>
      </trkpt>
      <trkpt lat="43.95301" lon="1.89145">
        <ele>215.0817</ele>
        <time>2014-10-18T10:59:01Z</time>
      </trkpt>
      <trkpt lat="43.95302" lon="1.89144">
        <ele>215.0817</ele>
        <time>2014-10-18T10:59:06Z</time>
      </trkpt>
      <trkpt lat="43.95302" lon="1.89145">
        <ele>215.0817</ele>
        <time>2014-10-18T10:59:11Z</time>
      </trkpt>
      <trkpt lat="43.95306" lon="1.89147">
        <ele>215.0817</ele>
        <time>2014-10-18T10:59:16Z</time>
      </trkpt>
      <trkpt lat="43.95304" lon="1.89151">
        <ele>214.75072</ele>
        <time>2014-10-18T10:59:21Z</time>
      </trkpt>
      <trkpt lat="43.95301" lon="1.89157">
        <ele>214.75072</ele>
        <time>2014-10-18T10:59:26Z</time>
      </trkpt>
      <trkpt lat="43.95298" lon="1.8916">
        <ele>214.75072</ele>
        <time>2014-10-18T10:59:31Z</time>
      </trkpt>
      <trkpt lat="43.95298" lon="1.8916">
        <ele>214.39435</ele>
        <time>2014-10-18T10:59:36Z</time>
      </trkpt>
      <trkpt lat="43.953" lon="1.8916">
        <ele>214.39435</ele>
        <time>2014-10-18T10:59:41Z</time>
      </trkpt>
      <trkpt lat="43.953" lon="1.89163">
        <ele>214.39435</ele>
        <time>2014-10-18T10:59:46Z</time>
      </trkpt>
      <trkpt lat="43.95299" lon="1.89162">
        <ele>214.39435</ele>
        <time>2014-10-18T10:59:51Z</time>
      </trkpt>
      <trkpt lat="43.95299" lon="1.89162">
        <ele>214.39435</ele>
        <time>2014-10-18T10:59:56Z</time>
      </trkpt>
      <trkpt lat="43.95299" lon="1.89162">
        <ele>214.39435</ele>
        <time>2014-10-18T11:00:01Z</time>
      </trkpt>
      <trkpt lat="43.95299" lon="1.89162">
        <ele>214.39435</ele>
        <time>2014-10-18T11:00:06Z</time>
      </trkpt>
      <trkpt lat="43.95297" lon="1.89159">
        <ele>214.39435</ele>
        <time>2014-10-18T11:00:11Z</time>
      </trkpt>
      <trkpt lat="43.95293" lon="1.89157">
        <ele>212.84668</ele>
        <time>2014-10-18T11:00:16Z</time>
      </trkpt>
      <trkpt lat="43.95291" lon="1.89157">
        <ele>212.84668</ele>
        <time>2014-10-18T11:00:21Z</time>
      </trkpt>
      <trkpt lat="43.95285" lon="1.89158">
        <ele>212.84668</ele>
        <time>2014-10-18T11:00:26Z</time>
      </trkpt>
      <trkpt lat="43.95279" lon="1.89159">
        <ele>211.53838</ele>
        <time>2014-10-18T11:00:31Z</time>
      </trkpt>
      <trkpt lat="43.95273" lon="1.8916">
        <ele>211.53838</ele>
        <time>2014-10-18T11:00:36Z</time>
      </trkpt>
      <trkpt lat="43.95269" lon="1.89159">
        <ele>209.9929</ele>
        <time>2014-10-18T11:00:41Z</time>
      </trkpt>
      <trkpt lat="43.95267" lon="1.89154">
        <ele>209.9929</ele>
        <time>2014-10-18T11:00:46Z</time>
      </trkpt>
      <trkpt lat="43.95266" lon="1.89151">
        <ele>209.9929</ele>
        <time>2014-10-18T11:00:51Z</time>
      </trkpt>
      <trkpt lat="43.95261" lon="1.89149">
        <ele>207.97113</ele>
        <time>2014-10-18T11:00:56Z</time>
      </trkpt>
      <trkpt lat="43.95257" lon="1.89146">
        <ele>207.97113</ele>
        <time>2014-10-18T11:01:01Z</time>
      </trkpt>
      <trkpt lat="43.95254" lon="1.89143">
        <ele>207.97113</ele>
        <time>2014-10-18T11:01:06Z</time>
      </trkpt>
      <trkpt lat="43.95255" lon="1.89142">
        <ele>206.36249</ele>
        <time>2014-10-18T11:01:11Z</time>
      </trkpt>
      <trkpt lat="43.95254" lon="1.89143">
        <ele>206.36249</ele>
        <time>2014-10-18T11:01:16Z</time>
      </trkpt>
      <trkpt lat="43.95254" lon="1.89143">
        <ele>206.36249</ele>
        <time>2014-10-18T11:01:21Z</time>
      </trkpt>
      <trkpt lat="43.95251" lon="1.89144">
        <ele>206.36249</ele>
        <time>2014-10-18T11:01:26Z</time>
      </trkpt>
      <trkpt lat="43.95243" lon="1.89144">
        <ele>204.79372</ele>
        <time>2014-10-18T11:01:31Z</time>
      </trkpt>
      <trkpt lat="43.95238" lon="1.89143">
        <ele>204.79372</ele>
        <time>2014-10-18T11:01:36Z</time>
      </trkpt>
      <trkpt lat="43.95232" lon="1.89141">
        <ele>202.99095</ele>
        <time>2014-10-18T11:01:41Z</time>
      </trkpt>
      <trkpt lat="43.95227" lon="1.8914">
        <ele>202.99095</ele>
        <time>2014-10-18T11:01:46Z</time>
      </trkpt>
      <trkpt lat="43.95221" lon="1.89139">
        <ele>201.45036</ele>
        <time>2014-10-18T11:01:51Z</time>
      </trkpt>
      <trkpt lat="43.95218" lon="1.89137">
        <ele>201.45036</ele>
        <time>2014-10-18T11:01:56Z</time>
      </trkpt>
      <trkpt lat="43.95214" lon="1.89137">
        <ele>201.45036</ele>
        <time>2014-10-18T11:02:01Z</time>
      </trkpt>
      <trkpt lat="43.9521" lon="1.89136">
        <ele>199.69418</ele>
        <time>2014-10-18T11:02:06Z</time>
      </trkpt>
      <trkpt lat="43.95205" lon="1.89135">
        <ele>199.69418</ele>
        <time>2014-10-18T11:02:11Z</time>
      </trkpt>
      <trkpt lat="43.952" lon="1.89135">
        <ele>198.59175</ele>
        <time>2014-10-18T11:02:16Z</time>
      </trkpt>
      <trkpt lat="43.95194" lon="1.89134">
        <ele>198.59175</ele>
        <time>2014-10-18T11:02:21Z</time>
      </trkpt>
      <trkpt lat="43.95189" lon="1.89132">
        <ele>196.98665</ele>
        <time>2014-10-18T11:02:26Z</time>
      </trkpt>
      <trkpt lat="43.95184" lon="1.89131">
        <ele>196.98665</ele>
        <time>2014-10-18T11:02:31Z</time>
      </trkpt>
      <trkpt lat="43.95179" lon="1.89131">
        <ele>194.86086</ele>
        <time>2014-10-18T11:02:36Z</time>
      </trkpt>
      <trkpt lat="43.95175" lon="1.8913">
        <ele>194.86086</ele>
        <time>2014-10-18T11:02:41Z</time>
      </trkpt>
      <trkpt lat="43.9517" lon="1.8913">
        <ele>194.86086</ele>
        <time>2014-10-18T11:02:46Z</time>
      </trkpt>
      <trkpt lat="43.95165" lon="1.89129">
        <ele>192.64577</ele>
        <time>2014-10-18T11:02:51Z</time>
      </trkpt>
      <trkpt lat="43.95161" lon="1.89127">
        <ele>192.64577</ele>
        <time>2014-10-18T11:02:56Z</time>
      </trkpt>
      <trkpt lat="43.95157" lon="1.89126">
        <ele>192.64577</ele>
        <time>2014-10-18T11:03:01Z</time>
      </trkpt>
      <trkpt lat="43.95151" lon="1.89125">
        <ele>191.24565</ele>
        <time>2014-10-18T11:03:06Z</time>
      </trkpt>
      <trkpt lat="43.95146" lon="1.8913">
        <ele>191.24565</ele>
        <time>2014-10-18T11:03:11Z</time>
      </trkpt>
      <trkpt lat="43.95144" lon="1.89136">
        <ele>190.0405</ele>
        <time>2014-10-18T11:03:16Z</time>
      </trkpt>
      <trkpt lat="43.95143" lon="1.89137">
        <ele>190.0405</ele>
        <time>2014-10-18T11:03:21Z</time>
      </trkpt>
      <trkpt lat="43.95142" lon="1.89144">
        <ele>190.0405</ele>
        <time>2014-10-18T11:03:26Z</time>
      </trkpt>
      <trkpt lat="43.9514" lon="1.89155">
        <ele>189.14691</ele>
        <time>2014-10-18T11:03:31Z</time>
      </trkpt>
      <trkpt lat="43.9514" lon="1.89161">
        <ele>189.14691</ele>
        <time>2014-10-18T11:03:36Z</time>
      </trkpt>
      <trkpt lat="43.95139" lon="1.89169">
        <ele>188.23969</ele>
        <time>2014-10-18T11:03:41Z</time>
      </trkpt>
      <trkpt lat="43.95137" lon="1.89179">
        <ele>188.23969</ele>
        <time>2014-10-18T11:03:46Z</time>
      </trkpt>
      <trkpt lat="43.95136" lon="1.89189">
        <ele>187.56508</ele>
        <time>2014-10-18T11:03:51Z</time>
      </trkpt>
      <trkpt lat="43.95136" lon="1.892">
        <ele>187.56508</ele>
        <time>2014-10-18T11:03:56Z</time>
      </trkpt>
      <trkpt lat="43.95134" lon="1.8921">
        <ele>187.09114</ele>
        <time>2014-10-18T11:04:01Z</time>
      </trkpt>
      <trkpt lat="43.95133" lon="1.89219">
        <ele>187.09114</ele>
        <time>2014-10-18T11:04:06Z</time>
      </trkpt>
      <trkpt lat="43.95133" lon="1.89226">
        <ele>186.18237</ele>
        <time>2014-10-18T11:04:11Z</time>
      </trkpt>
      <trkpt lat="43.95131" lon="1.89234">
        <ele>186.18237</ele>
        <time>2014-10-18T11:04:16Z</time>
      </trkpt>
      <trkpt lat="43.9513" lon="1.8924">
        <ele>185.44727</ele>
        <time>2014-10-18T11:04:21Z</time>
      </trkpt>
      <trkpt lat="43.95126" lon="1.89246">
        <ele>185.44727</ele>
        <time>2014-10-18T11:04:26Z</time>
      </trkpt>
      <trkpt lat="43.95125" lon="1.89254">
        <ele>184.71408</ele>
        <time>2014-10-18T11:04:31Z</time>
      </trkpt>
      <trkpt lat="43.95123" lon="1.89263">
        <ele>184.71408</ele>
        <time>2014-10-18T11:04:36Z</time>
      </trkpt>
      <trkpt lat="43.95121" lon="1.89272">
        <ele>184.78922</ele>
        <time>2014-10-18T11:04:41Z</time>
      </trkpt>
      <trkpt lat="43.9512" lon="1.89279">
        <ele>184.78922</ele>
        <time>2014-10-18T11:04:46Z</time>
      </trkpt>
      <trkpt lat="43.95118" lon="1.89287">
        <ele>184.38556</ele>
        <time>2014-10-18T11:04:51Z</time>
      </trkpt>
      <trkpt lat="43.95116" lon="1.89294">
        <ele>184.38556</ele>
        <time>2014-10-18T11:04:56Z</time>
      </trkpt>
      <trkpt lat="43.95113" lon="1.89301">
        <ele>183.62326</ele>
        <time>2014-10-18T11:05:01Z</time>
      </trkpt>
      <trkpt lat="43.95108" lon="1.89304">
        <ele>183.62326</ele>
        <time>2014-10-18T11:05:06Z</time>
      </trkpt>
      <trkpt lat="43.95104" lon="1.89308">
        <ele>182.9605</ele>
        <time>2014-10-18T11:05:11Z</time>
      </trkpt>
      <trkpt lat="43.951" lon="1.89311">
        <ele>182.9605</ele>
        <time>2014-10-18T11:05:16Z</time>
      </trkpt>
      <trkpt lat="43.95095" lon="1.89314">
        <ele>182.21622</ele>
        <time>2014-10-18T11:05:21Z</time>
      </trkpt>
      <trkpt lat="43.95092" lon="1.8932">
        <ele>182.21622</ele>
        <time>2014-10-18T11:05:26Z</time>
      </trkpt>
      <trkpt lat="43.95087" lon="1.89325">
        <ele>181.95789</ele>
        <time>2014-10-18T11:05:31Z</time>
      </trkpt>
      <trkpt lat="43.95082" lon="1.89331">
        <ele>181.95789</ele>
        <time>2014-10-18T11:05:36Z</time>
      </trkpt>
      <trkpt lat="43.95078" lon="1.89336">
        <ele>181.5714</ele>
        <time>2014-10-18T11:05:41Z</time>
      </trkpt>
      <trkpt lat="43.95073" lon="1.89341">
        <ele>181.5714</ele>
        <time>2014-10-18T11:05:46Z</time>
      </trkpt>
      <trkpt lat="43.95068" lon="1.89346">
        <ele>181.16545</ele>
        <time>2014-10-18T11:05:51Z</time>
      </trkpt>
      <trkpt lat="43.95064" lon="1.8935">
        <ele>181.16545</ele>
        <time>2014-10-18T11:05:56Z</time>
      </trkpt>
      <trkpt lat="43.95059" lon="1.89354">
        <ele>181.21547</ele>
        <time>2014-10-18T11:06:01Z</time>
      </trkpt>
      <trkpt lat="43.95055" lon="1.8936">
        <ele>181.21547</ele>
        <time>2014-10-18T11:06:06Z</time>
      </trkpt>
      <trkpt lat="43.95051" lon="1.89362">
        <ele>181.10873</ele>
        <time>2014-10-18T11:06:11Z</time>
      </trkpt>
      <trkpt lat="43.95047" lon="1.89366">
        <ele>181.10873</ele>
        <time>2014-10-18T11:06:16Z</time>
      </trkpt>
      <trkpt lat="43.95043" lon="1.89371">
        <ele>181.41641</ele>
        <time>2014-10-18T11:06:21Z</time>
      </trkpt>
      <trkpt lat="43.95039" lon="1.89375">
        <ele>181.41641</ele>
        <time>2014-10-18T11:06:26Z</time>
      </trkpt>
      <trkpt lat="43.95035" lon="1.8938">
        <ele>181.4993</ele>
        <time>2014-10-18T11:06:31Z</time>
      </trkpt>
      <trkpt lat="43.9503" lon="1.89386">
        <ele>181.4993</ele>
        <time>2014-10-18T11:06:36Z</time>
      </trkpt>
      <trkpt lat="43.95024" lon="1.89392">
        <ele>181.83221</ele>
        <time>2014-10-18T11:06:41Z</time>
      </trkpt>
      <trkpt lat="43.95019" lon="1.89396">
        <ele>181.83221</ele>
        <time>2014-10-18T11:06:46Z</time>
      </trkpt>
      <trkpt lat="43.95014" lon="1.89403">
        <ele>182.71033</ele>
        <time>2014-10-18T11:06:51Z</time>
      </trkpt>
      <trkpt lat="43.95009" lon="1.89408">
        <ele>182.71033</ele>
        <time>2014-10-18T11:06:56Z</time>
      </trkpt>
      <trkpt lat="43.95004" lon="1.89414">
        <ele>183.64183</ele>
        <time>2014-10-18T11:07:01Z</time>
      </trkpt>
      <trkpt lat="43.94999" lon="1.89419">
        <ele>183.64183</ele>
        <time>2014-10-18T11:07:06Z</time>
      </trkpt>
      <trkpt lat="43.94995" lon="1.89423">
        <ele>184.171</ele>
        <time>2014-10-18T11:07:11Z</time>
      </trkpt>
      <trkpt lat="43.94992" lon="1.89427">
        <ele>184.171</ele>
        <time>2014-10-18T11:07:16Z</time>
      </trkpt>
      <trkpt lat="43.94988" lon="1.89433">
        <ele>184.7414</ele>
        <time>2014-10-18T11:07:21Z</time>
      </trkpt>
      <trkpt lat="43.94984" lon="1.89438">
        <ele>184.7414</ele>
        <time>2014-10-18T11:07:26Z</time>
      </trkpt>
      <trkpt lat="43.9498" lon="1.89442">
        <ele>184.94255</ele>
        <time>2014-10-18T11:07:31Z</time>
      </trkpt>
      <trkpt lat="43.94976" lon="1.89447">
        <ele>184.94255</ele>
        <time>2014-10-18T11:07:36Z</time>
      </trkpt>
      <trkpt lat="43.94972" lon="1.89453">
        <ele>185.49048</ele>
        <time>2014-10-18T11:07:41Z</time>
      </trkpt>
      <trkpt lat="43.94967" lon="1.8946">
        <ele>185.49048</ele>
        <time>2014-10-18T11:07:46Z</time>
      </trkpt>
      <trkpt lat="43.94962" lon="1.89467">
        <ele>186.03897</ele>
        <time>2014-10-18T11:07:51Z</time>
      </trkpt>
      <trkpt lat="43.94958" lon="1.89472">
        <ele>186.03897</ele>
        <time>2014-10-18T11:07:56Z</time>
      </trkpt>
      <trkpt lat="43.94955" lon="1.89477">
        <ele>186.54109</ele>
        <time>2014-10-18T11:08:01Z</time>
      </trkpt>
      <trkpt lat="43.94951" lon="1.89483">
        <ele>186.54109</ele>
        <time>2014-10-18T11:08:06Z</time>
      </trkpt>
      <trkpt lat="43.94947" lon="1.8949">
        <ele>187.1986</ele>
        <time>2014-10-18T11:08:11Z</time>
      </trkpt>
      <trkpt lat="43.94943" lon="1.89497">
        <ele>187.1986</ele>
        <time>2014-10-18T11:08:16Z</time>
      </trkpt>
      <trkpt lat="43.9494" lon="1.89505">
        <ele>187.62164</ele>
        <time>2014-10-18T11:08:21Z</time>
      </trkpt>
      <trkpt lat="43.94936" lon="1.89512">
        <ele>187.62164</ele>
        <time>2014-10-18T11:08:26Z</time>
      </trkpt>
      <trkpt lat="43.94932" lon="1.89518">
        <ele>188.21355</ele>
        <time>2014-10-18T11:08:31Z</time>
      </trkpt>
      <trkpt lat="43.94928" lon="1.89525">
        <ele>188.21355</ele>
        <time>2014-10-18T11:08:36Z</time>
      </trkpt>
      <trkpt lat="43.94924" lon="1.89531">
        <ele>188.88649</ele>
        <time>2014-10-18T11:08:41Z</time>
      </trkpt>
      <trkpt lat="43.94921" lon="1.89535">
        <ele>188.88649</ele>
        <time>2014-10-18T11:08:46Z</time>
      </trkpt>
      <trkpt lat="43.94917" lon="1.89541">
        <ele>189.77512</ele>
        <time>2014-10-18T11:08:51Z</time>
      </trkpt>
      <trkpt lat="43.94913" lon="1.89548">
        <ele>189.77512</ele>
        <time>2014-10-18T11:08:56Z</time>
      </trkpt>
      <trkpt lat="43.94909" lon="1.89552">
        <ele>190.51375</ele>
        <time>2014-10-18T11:09:01Z</time>
      </trkpt>
      <trkpt lat="43.94905" lon="1.89557">
        <ele>190.51375</ele>
        <time>2014-10-18T11:09:06Z</time>
      </trkpt>
      <trkpt lat="43.94901" lon="1.89561">
        <ele>191.05228</ele>
        <time>2014-10-18T11:09:11Z</time>
      </trkpt>
      <trkpt lat="43.94896" lon="1.89568">
        <ele>191.05228</ele>
        <time>2014-10-18T11:09:16Z</time>
      </trkpt>
      <trkpt lat="43.9489" lon="1.89573">
        <ele>191.56113</ele>
        <time>2014-10-18T11:09:21Z</time>
      </trkpt>
      <trkpt lat="43.94885" lon="1.89578">
        <ele>191.56113</ele>
        <time>2014-10-18T11:09:26Z</time>
      </trkpt>
      <trkpt lat="43.9488" lon="1.89581">
        <ele>192.09755</ele>
        <time>2014-10-18T11:09:31Z</time>
      </trkpt>
      <trkpt lat="43.94874" lon="1.89584">
        <ele>192.09755</ele>
        <time>2014-10-18T11:09:36Z</time>
      </trkpt>
      <trkpt lat="43.94869" lon="1.89587">
        <ele>193.01721</ele>
        <time>2014-10-18T11:09:41Z</time>
      </trkpt>
      <trkpt lat="43.94863" lon="1.89589">
        <ele>193.01721</ele>
        <time>2014-10-18T11:09:46Z</time>
      </trkpt>
      <trkpt lat="43.94856" lon="1.89593">
        <ele>194.01463</ele>
        <time>2014-10-18T11:09:51Z</time>
      </trkpt>
      <trkpt lat="43.94851" lon="1.89595">
        <ele>194.01463</ele>
        <time>2014-10-18T11:09:56Z</time>
      </trkpt>
      <trkpt lat="43.94844" lon="1.89596">
        <ele>195.45515</ele>
        <time>2014-10-18T11:10:01Z</time>
      </trkpt>
      <trkpt lat="43.94838" lon="1.89598">
        <ele>195.45515</ele>
        <time>2014-10-18T11:10:06Z</time>
      </trkpt>
      <trkpt lat="43.94833" lon="1.89597">
        <ele>196.85472</ele>
        <time>2014-10-18T11:10:11Z</time>
      </trkpt>
      <trkpt lat="43.94827" lon="1.89599">
        <ele>196.85472</ele>
        <time>2014-10-18T11:10:16Z</time>
      </trkpt>
      <trkpt lat="43.94821" lon="1.896">
        <ele>197.98126</ele>
        <time>2014-10-18T11:10:21Z</time>
      </trkpt>
      <trkpt lat="43.94815" lon="1.89603">
        <ele>197.98126</ele>
        <time>2014-10-18T11:10:26Z</time>
      </trkpt>
      <trkpt lat="43.94809" lon="1.89604">
        <ele>199.1394</ele>
        <time>2014-10-18T11:10:31Z</time>
      </trkpt>
      <trkpt lat="43.94803" lon="1.89605">
        <ele>199.1394</ele>
        <time>2014-10-18T11:10:36Z</time>
      </trkpt>
      <trkpt lat="43.94798" lon="1.89605">
        <ele>200.13588</ele>
        <time>2014-10-18T11:10:41Z</time>
      </trkpt>
      <trkpt lat="43.94793" lon="1.89604">
        <ele>200.13588</ele>
        <time>2014-10-18T11:10:46Z</time>
      </trkpt>
      <trkpt lat="43.94788" lon="1.89603">
        <ele>201.39749</ele>
        <time>2014-10-18T11:10:51Z</time>
      </trkpt>
      <trkpt lat="43.94782" lon="1.89603">
        <ele>201.39749</ele>
        <time>2014-10-18T11:10:56Z</time>
      </trkpt>
      <trkpt lat="43.94776" lon="1.89603">
        <ele>202.13734</ele>
        <time>2014-10-18T11:11:01Z</time>
      </trkpt>
      <trkpt lat="43.94771" lon="1.89604">
        <ele>202.13734</ele>
        <time>2014-10-18T11:11:06Z</time>
      </trkpt>
      <trkpt lat="43.94765" lon="1.89605">
        <ele>202.69432</ele>
        <time>2014-10-18T11:11:11Z</time>
      </trkpt>
      <trkpt lat="43.9476" lon="1.89606">
        <ele>202.69432</ele>
        <time>2014-10-18T11:11:16Z</time>
      </trkpt>
      <trkpt lat="43.94756" lon="1.89609">
        <ele>203.52724</ele>
        <time>2014-10-18T11:11:21Z</time>
      </trkpt>
      <trkpt lat="43.94751" lon="1.89611">
        <ele>203.52724</ele>
        <time>2014-10-18T11:11:26Z</time>
      </trkpt>
      <trkpt lat="43.94747" lon="1.8961">
        <ele>204.28229</ele>
        <time>2014-10-18T11:11:31Z</time>
      </trkpt>
      <trkpt lat="43.94742" lon="1.89607">
        <ele>204.28229</ele>
        <time>2014-10-18T11:11:36Z</time>
      </trkpt>
      <trkpt lat="43.94736" lon="1.89608">
        <ele>204.80495</ele>
        <time>2014-10-18T11:11:41Z</time>
      </trkpt>
      <trkpt lat="43.94731" lon="1.89609">
        <ele>204.80495</ele>
        <time>2014-10-18T11:11:46Z</time>
      </trkpt>
      <trkpt lat="43.94725" lon="1.89612">
        <ele>205.58688</ele>
        <time>2014-10-18T11:11:51Z</time>
      </trkpt>
      <trkpt lat="43.94719" lon="1.89616">
        <ele>205.58688</ele>
        <time>2014-10-18T11:11:56Z</time>
      </trkpt>
      <trkpt lat="43.94714" lon="1.89618">
        <ele>206.42014</ele>
        <time>2014-10-18T11:12:01Z</time>
      </trkpt>
      <trkpt lat="43.94708" lon="1.89622">
        <ele>206.42014</ele>
        <time>2014-10-18T11:12:06Z</time>
      </trkpt>
      <trkpt lat="43.94703" lon="1.89626">
        <ele>207.28491</ele>
        <time>2014-10-18T11:12:11Z</time>
      </trkpt>
      <trkpt lat="43.94698" lon="1.8963">
        <ele>207.28491</ele>
        <time>2014-10-18T11:12:16Z</time>
      </trkpt>
      <trkpt lat="43.94692" lon="1.89635">
        <ele>209.05637</ele>
        <time>2014-10-18T11:12:21Z</time>
      </trkpt>
      <trkpt lat="43.94688" lon="1.89638">
        <ele>209.05637</ele>
        <time>2014-10-18T11:12:26Z</time>
      </trkpt>
      <trkpt lat="43.94683" lon="1.89638">
        <ele>210.58301</ele>
        <time>2014-10-18T11:12:31Z</time>
      </trkpt>
      <trkpt lat="43.94678" lon="1.89638">
        <ele>210.58301</ele>
        <time>2014-10-18T11:12:36Z</time>
      </trkpt>
      <trkpt lat="43.94673" lon="1.89639">
        <ele>211.74986</ele>
        <time>2014-10-18T11:12:41Z</time>
      </trkpt>
      <trkpt lat="43.94668" lon="1.89646">
        <ele>211.74986</ele>
        <time>2014-10-18T11:12:46Z</time>
      </trkpt>
      <trkpt lat="43.94663" lon="1.89649">
        <ele>213.63322</ele>
        <time>2014-10-18T11:12:51Z</time>
      </trkpt>
      <trkpt lat="43.94658" lon="1.89653">
        <ele>213.63322</ele>
        <time>2014-10-18T11:12:56Z</time>
      </trkpt>
      <trkpt lat="43.94654" lon="1.89658">
        <ele>215.9026</ele>
        <time>2014-10-18T11:13:01Z</time>
      </trkpt>
      <trkpt lat="43.94649" lon="1.89663">
        <ele>215.9026</ele>
        <time>2014-10-18T11:13:06Z</time>
      </trkpt>
      <trkpt lat="43.94645" lon="1.89666">
        <ele>217.99142</ele>
        <time>2014-10-18T11:13:11Z</time>
      </trkpt>
      <trkpt lat="43.9464" lon="1.89667">
        <ele>217.99142</ele>
        <time>2014-10-18T11:13:16Z</time>
      </trkpt>
      <trkpt lat="43.94636" lon="1.89669">
        <ele>219.7356</ele>
        <time>2014-10-18T11:13:21Z</time>
      </trkpt>
      <trkpt lat="43.94631" lon="1.89672">
        <ele>219.7356</ele>
        <time>2014-10-18T11:13:26Z</time>
      </trkpt>
      <trkpt lat="43.94627" lon="1.89672">
        <ele>219.7356</ele>
        <time>2014-10-18T11:13:31Z</time>
      </trkpt>
      <trkpt lat="43.94623" lon="1.89675">
        <ele>221.99297</ele>
        <time>2014-10-18T11:13:36Z</time>
      </trkpt>
      <trkpt lat="43.9462" lon="1.89675">
        <ele>221.99297</ele>
        <time>2014-10-18T11:13:41Z</time>
      </trkpt>
      <trkpt lat="43.94615" lon="1.89676">
        <ele>221.99297</ele>
        <time>2014-10-18T11:13:46Z</time>
      </trkpt>
      <trkpt lat="43.94611" lon="1.8968">
        <ele>222.94864</ele>
        <time>2014-10-18T11:13:51Z</time>
      </trkpt>
      <trkpt lat="43.94609" lon="1.89684">
        <ele>222.94864</ele>
        <time>2014-10-18T11:13:56Z</time>
      </trkpt>
      <trkpt lat="43.94606" lon="1.8969">
        <ele>222.94864</ele>
        <time>2014-10-18T11:14:01Z</time>
      </trkpt>
      <trkpt lat="43.94603" lon="1.89695">
        <ele>224.31142</ele>
        <time>2014-10-18T11:14:06Z</time>
      </trkpt>
      <trkpt lat="43.946" lon="1.89698">
        <ele>224.31142</ele>
        <time>2014-10-18T11:14:11Z</time>
      </trkpt>
      <trkpt lat="43.94598" lon="1.897">
        <ele>224.31142</ele>
        <time>2014-10-18T11:14:16Z</time>
      </trkpt>
      <trkpt lat="43.94596" lon="1.89703">
        <ele>226.26567</ele>
        <time>2014-10-18T11:14:21Z</time>
      </trkpt>
      <trkpt lat="43.94593" lon="1.8971">
        <ele>226.26567</ele>
        <time>2014-10-18T11:14:26Z</time>
      </trkpt>
      <trkpt lat="43.94588" lon="1.89715">
        <ele>228.20247</ele>
        <time>2014-10-18T11:14:31Z</time>
      </trkpt>
      <trkpt lat="43.94583" lon="1.8972">
        <ele>228.20247</ele>
        <time>2014-10-18T11:14:36Z</time>
      </trkpt>
      <trkpt lat="43.94579" lon="1.89725">
        <ele>230.0334</ele>
        <time>2014-10-18T11:14:41Z</time>
      </trkpt>
      <trkpt lat="43.94573" lon="1.89727">
        <ele>230.0334</ele>
        <time>2014-10-18T11:14:46Z</time>
      </trkpt>
      <trkpt lat="43.94568" lon="1.8973">
        <ele>231.10045</ele>
        <time>2014-10-18T11:14:51Z</time>
      </trkpt>
      <trkpt lat="43.94563" lon="1.89731">
        <ele>231.10045</ele>
        <time>2014-10-18T11:14:56Z</time>
      </trkpt>
      <trkpt lat="43.94559" lon="1.89733">
        <ele>232.29498</ele>
        <time>2014-10-18T11:15:01Z</time>
      </trkpt>
      <trkpt lat="43.94554" lon="1.89738">
        <ele>232.29498</ele>
        <time>2014-10-18T11:15:06Z</time>
      </trkpt>
      <trkpt lat="43.94548" lon="1.89743">
        <ele>234.05354</ele>
        <time>2014-10-18T11:15:11Z</time>
      </trkpt>
      <trkpt lat="43.94543" lon="1.89745">
        <ele>234.05354</ele>
        <time>2014-10-18T11:15:16Z</time>
      </trkpt>
      <trkpt lat="43.94538" lon="1.89746">
        <ele>235.52536</ele>
        <time>2014-10-18T11:15:21Z</time>
      </trkpt>
      <trkpt lat="43.94534" lon="1.89747">
        <ele>235.52536</ele>
        <time>2014-10-18T11:15:26Z</time>
      </trkpt>
      <trkpt lat="43.94529" lon="1.89749">
        <ele>236.75891</ele>
        <time>2014-10-18T11:15:31Z</time>
      </trkpt>
      <trkpt lat="43.94524" lon="1.8975">
        <ele>236.75891</ele>
        <time>2014-10-18T11:15:36Z</time>
      </trkpt>
      <trkpt lat="43.94519" lon="1.89751">
        <ele>238.01602</ele>
        <time>2014-10-18T11:15:41Z</time>
      </trkpt>
      <trkpt lat="43.94513" lon="1.89753">
        <ele>238.01602</ele>
        <time>2014-10-18T11:15:46Z</time>
      </trkpt>
      <trkpt lat="43.94508" lon="1.89755">
        <ele>238.64587</ele>
        <time>2014-10-18T11:15:51Z</time>
      </trkpt>
      <trkpt lat="43.94502" lon="1.8976">
        <ele>238.64587</ele>
        <time>2014-10-18T11:15:56Z</time>
      </trkpt>
      <trkpt lat="43.94497" lon="1.89762">
        <ele>239.2866</ele>
        <time>2014-10-18T11:16:01Z</time>
      </trkpt>
      <trkpt lat="43.94492" lon="1.89763">
        <ele>239.2866</ele>
        <time>2014-10-18T11:16:06Z</time>
      </trkpt>
      <trkpt lat="43.94486" lon="1.89766">
        <ele>239.90988</ele>
        <time>2014-10-18T11:16:11Z</time>
      </trkpt>
      <trkpt lat="43.94481" lon="1.8977">
        <ele>239.90988</ele>
        <time>2014-10-18T11:16:16Z</time>
      </trkpt>
      <trkpt lat="43.94475" lon="1.89773">
        <ele>240.20132</ele>
        <time>2014-10-18T11:16:21Z</time>
      </trkpt>
      <trkpt lat="43.94469" lon="1.89776">
        <ele>240.20132</ele>
        <time>2014-10-18T11:16:26Z</time>
      </trkpt>
      <trkpt lat="43.94464" lon="1.89778">
        <ele>240.865</ele>
        <time>2014-10-18T11:16:31Z</time>
      </trkpt>
      <trkpt lat="43.9446" lon="1.89779">
        <ele>240.865</ele>
        <time>2014-10-18T11:16:36Z</time>
      </trkpt>
      <trkpt lat="43.94455" lon="1.89781">
        <ele>241.68764</ele>
        <time>2014-10-18T11:16:41Z</time>
      </trkpt>
      <trkpt lat="43.94451" lon="1.89785">
        <ele>241.68764</ele>
        <time>2014-10-18T11:16:46Z</time>
      </trkpt>
      <trkpt lat="43.94451" lon="1.8979">
        <ele>241.68764</ele>
        <time>2014-10-18T11:16:51Z</time>
      </trkpt>
      <trkpt lat="43.94451" lon="1.89795">
        <ele>242.73058</ele>
        <time>2014-10-18T11:16:56Z</time>
      </trkpt>
      <trkpt lat="43.94451" lon="1.89804">
        <ele>242.73058</ele>
        <time>2014-10-18T11:17:01Z</time>
      </trkpt>
      <trkpt lat="43.94452" lon="1.89812">
        <ele>243.64659</ele>
        <time>2014-10-18T11:17:06Z</time>
      </trkpt>
      <trkpt lat="43.94453" lon="1.89819">
        <ele>243.64659</ele>
        <time>2014-10-18T11:17:11Z</time>
      </trkpt>
      <trkpt lat="43.94453" lon="1.89827">
        <ele>244.40253</ele>
        <time>2014-10-18T11:17:16Z</time>
      </trkpt>
      <trkpt lat="43.94452" lon="1.89834">
        <ele>244.40253</ele>
        <time>2014-10-18T11:17:21Z</time>
      </trkpt>
      <trkpt lat="43.94449" lon="1.8984">
        <ele>244.10352</ele>
        <time>2014-10-18T11:17:26Z</time>
      </trkpt>
      <trkpt lat="43.94448" lon="1.89848">
        <ele>244.10352</ele>
        <time>2014-10-18T11:17:31Z</time>
      </trkpt>
      <trkpt lat="43.94446" lon="1.89857">
        <ele>243.47978</ele>
        <time>2014-10-18T11:17:36Z</time>
      </trkpt>
      <trkpt lat="43.94444" lon="1.89867">
        <ele>243.47978</ele>
        <time>2014-10-18T11:17:41Z</time>
      </trkpt>
      <trkpt lat="43.94442" lon="1.89873">
        <ele>243.20882</ele>
        <time>2014-10-18T11:17:46Z</time>
      </trkpt>
      <trkpt lat="43.94439" lon="1.89878">
        <ele>243.20882</ele>
        <time>2014-10-18T11:17:51Z</time>
      </trkpt>
      <trkpt lat="43.94435" lon="1.89886">
        <ele>242.20244</ele>
        <time>2014-10-18T11:17:56Z</time>
      </trkpt>
      <trkpt lat="43.94432" lon="1.89892">
        <ele>242.20244</ele>
        <time>2014-10-18T11:18:01Z</time>
      </trkpt>
      <trkpt lat="43.94431" lon="1.89899">
        <ele>241.1405</ele>
        <time>2014-10-18T11:18:06Z</time>
      </trkpt>
      <trkpt lat="43.94428" lon="1.89906">
        <ele>241.1405</ele>
        <time>2014-10-18T11:18:11Z</time>
      </trkpt>
      <trkpt lat="43.94425" lon="1.8991">
        <ele>239.52902</ele>
        <time>2014-10-18T11:18:16Z</time>
      </trkpt>
      <trkpt lat="43.94421" lon="1.89915">
        <ele>239.52902</ele>
        <time>2014-10-18T11:18:21Z</time>
      </trkpt>
      <trkpt lat="43.94418" lon="1.89921">
        <ele>238.16551</ele>
        <time>2014-10-18T11:18:26Z</time>
      </trkpt>
      <trkpt lat="43.94414" lon="1.89929">
        <ele>238.16551</ele>
        <time>2014-10-18T11:18:31Z</time>
      </trkpt>
      <trkpt lat="43.94411" lon="1.89937">
        <ele>236.76495</ele>
        <time>2014-10-18T11:18:36Z</time>
      </trkpt>
      <trkpt lat="43.94408" lon="1.89945">
        <ele>236.76495</ele>
        <time>2014-10-18T11:18:41Z</time>
      </trkpt>
      <trkpt lat="43.94405" lon="1.89954">
        <ele>235.63972</ele>
        <time>2014-10-18T11:18:46Z</time>
      </trkpt>
      <trkpt lat="43.94406" lon="1.89962">
        <ele>235.63972</ele>
        <time>2014-10-18T11:18:51Z</time>
      </trkpt>
      <trkpt lat="43.94409" lon="1.89968">
        <ele>234.08403</ele>
        <time>2014-10-18T11:18:56Z</time>
      </trkpt>
      <trkpt lat="43.94415" lon="1.89972">
        <ele>234.08403</ele>
        <time>2014-10-18T11:19:01Z</time>
      </trkpt>
      <trkpt lat="43.94419" lon="1.89977">
        <ele>233.03023</ele>
        <time>2014-10-18T11:19:06Z</time>
      </trkpt>
      <trkpt lat="43.94424" lon="1.89982">
        <ele>233.03023</ele>
        <time>2014-10-18T11:19:11Z</time>
      </trkpt>
      <trkpt lat="43.94428" lon="1.89985">
        <ele>231.7698</ele>
        <time>2014-10-18T11:19:16Z</time>
      </trkpt>
      <trkpt lat="43.94434" lon="1.89988">
        <ele>231.7698</ele>
        <time>2014-10-18T11:19:21Z</time>
      </trkpt>
      <trkpt lat="43.94439" lon="1.89993">
        <ele>230.45381</ele>
        <time>2014-10-18T11:19:26Z</time>
      </trkpt>
      <trkpt lat="43.94441" lon="1.89995">
        <ele>230.45381</ele>
        <time>2014-10-18T11:19:31Z</time>
      </trkpt>
      <trkpt lat="43.94445" lon="1.90001">
        <ele>230.45381</ele>
        <time>2014-10-18T11:19:36Z</time>
      </trkpt>
      <trkpt lat="43.94449" lon="1.90009">
        <ele>229.3519</ele>
        <time>2014-10-18T11:19:41Z</time>
      </trkpt>
      <trkpt lat="43.94453" lon="1.90018">
        <ele>229.3519</ele>
        <time>2014-10-18T11:19:46Z</time>
      </trkpt>
      <trkpt lat="43.94456" lon="1.90026">
        <ele>228.65549</ele>
        <time>2014-10-18T11:19:51Z</time>
      </trkpt>
      <trkpt lat="43.94459" lon="1.90034">
        <ele>228.65549</ele>
        <time>2014-10-18T11:19:56Z</time>
      </trkpt>
      <trkpt lat="43.94461" lon="1.90042">
        <ele>228.10835</ele>
        <time>2014-10-18T11:20:01Z</time>
      </trkpt>
      <trkpt lat="43.94461" lon="1.90044">
        <ele>228.10835</ele>
        <time>2014-10-18T11:20:06Z</time>
      </trkpt>
      <trkpt lat="43.94463" lon="1.90044">
        <ele>228.10835</ele>
        <time>2014-10-18T11:20:11Z</time>
      </trkpt>
      <trkpt lat="43.94464" lon="1.90047">
        <ele>228.10835</ele>
        <time>2014-10-18T11:20:16Z</time>
      </trkpt>
      <trkpt lat="43.9447" lon="1.90055">
        <ele>227.86159</ele>
        <time>2014-10-18T11:20:21Z</time>
      </trkpt>
      <trkpt lat="43.94477" lon="1.9006">
        <ele>227.86159</ele>
        <time>2014-10-18T11:20:26Z</time>
      </trkpt>
      <trkpt lat="43.94484" lon="1.90067">
        <ele>227.54982</ele>
        <time>2014-10-18T11:20:31Z</time>
      </trkpt>
      <trkpt lat="43.94488" lon="1.90073">
        <ele>227.54982</ele>
        <time>2014-10-18T11:20:36Z</time>
      </trkpt>
      <trkpt lat="43.94491" lon="1.9008">
        <ele>227.07953</ele>
        <time>2014-10-18T11:20:41Z</time>
      </trkpt>
      <trkpt lat="43.94495" lon="1.90087">
        <ele>227.07953</ele>
        <time>2014-10-18T11:20:46Z</time>
      </trkpt>
      <trkpt lat="43.94496" lon="1.90094">
        <ele>226.34995</ele>
        <time>2014-10-18T11:20:51Z</time>
      </trkpt>
      <trkpt lat="43.94494" lon="1.90101">
        <ele>226.34995</ele>
        <time>2014-10-18T11:20:56Z</time>
      </trkpt>
      <trkpt lat="43.94493" lon="1.90109">
        <ele>225.32591</ele>
        <time>2014-10-18T11:21:01Z</time>
      </trkpt>
      <trkpt lat="43.94491" lon="1.90116">
        <ele>225.32591</ele>
        <time>2014-10-18T11:21:06Z</time>
      </trkpt>
      <trkpt lat="43.9449" lon="1.90124">
        <ele>223.93234</ele>
        <time>2014-10-18T11:21:11Z</time>
      </trkpt>
      <trkpt lat="43.94488" lon="1.90131">
        <ele>223.93234</ele>
        <time>2014-10-18T11:21:16Z</time>
      </trkpt>
      <trkpt lat="43.94488" lon="1.90137">
        <ele>222.76341</ele>
        <time>2014-10-18T11:21:21Z</time>
      </trkpt>
      <trkpt lat="43.9449" lon="1.90145">
        <ele>222.76341</ele>
        <time>2014-10-18T11:21:26Z</time>
      </trkpt>
      <trkpt lat="43.9449" lon="1.90154">
        <ele>222.05188</ele>
        <time>2014-10-18T11:21:31Z</time>
      </trkpt>
      <trkpt lat="43.94488" lon="1.90165">
        <ele>222.05188</ele>
        <time>2014-10-18T11:21:36Z</time>
      </trkpt>
      <trkpt lat="43.94488" lon="1.90175">
        <ele>221.62283</ele>
        <time>2014-10-18T11:21:41Z</time>
      </trkpt>
      <trkpt lat="43.94486" lon="1.90184">
        <ele>221.62283</ele>
        <time>2014-10-18T11:21:46Z</time>
      </trkpt>
      <trkpt lat="43.94485" lon="1.90191">
        <ele>220.5351</ele>
        <time>2014-10-18T11:21:51Z</time>
      </trkpt>
      <trkpt lat="43.94485" lon="1.90198">
        <ele>220.5351</ele>
        <time>2014-10-18T11:21:56Z</time>
      </trkpt>
      <trkpt lat="43.94482" lon="1.90202">
        <ele>220.5351</ele>
        <time>2014-10-18T11:22:01Z</time>
      </trkpt>
      <trkpt lat="43.94481" lon="1.90208">
        <ele>219.01355</ele>
        <time>2014-10-18T11:22:06Z</time>
      </trkpt>
      <trkpt lat="43.9448" lon="1.90215">
        <ele>219.01355</ele>
        <time>2014-10-18T11:22:11Z</time>
      </trkpt>
      <trkpt lat="43.94477" lon="1.9022">
        <ele>217.42618</ele>
        <time>2014-10-18T11:22:16Z</time>
      </trkpt>
      <trkpt lat="43.94475" lon="1.90225">
        <ele>217.42618</ele>
        <time>2014-10-18T11:22:21Z</time>
      </trkpt>
      <trkpt lat="43.94473" lon="1.90231">
        <ele>216.47421</ele>
        <time>2014-10-18T11:22:26Z</time>
      </trkpt>
      <trkpt lat="43.9447" lon="1.90239">
        <ele>216.47421</ele>
        <time>2014-10-18T11:22:31Z</time>
      </trkpt>
      <trkpt lat="43.94469" lon="1.90246">
        <ele>215.42203</ele>
        <time>2014-10-18T11:22:36Z</time>
      </trkpt>
      <trkpt lat="43.94467" lon="1.90252">
        <ele>215.42203</ele>
        <time>2014-10-18T11:22:41Z</time>
      </trkpt>
      <trkpt lat="43.94468" lon="1.9026">
        <ele>214.82748</ele>
        <time>2014-10-18T11:22:46Z</time>
      </trkpt>
      <trkpt lat="43.94465" lon="1.90267">
        <ele>214.82748</ele>
        <time>2014-10-18T11:22:51Z</time>
      </trkpt>
      <trkpt lat="43.94466" lon="1.90271">
        <ele>214.82748</ele>
        <time>2014-10-18T11:22:56Z</time>
      </trkpt>
      <trkpt lat="43.94469" lon="1.90272">
        <ele>214.91783</ele>
        <time>2014-10-18T11:23:01Z</time>
      </trkpt>
      <trkpt lat="43.94471" lon="1.90272">
        <ele>214.91783</ele>
        <time>2014-10-18T11:23:06Z</time>
      </trkpt>
      <trkpt lat="43.9447" lon="1.90273">
        <ele>214.91783</ele>
        <time>2014-10-18T11:23:11Z</time>
      </trkpt>
      <trkpt lat="43.9447" lon="1.90274">
        <ele>214.91783</ele>
        <time>2014-10-18T11:23:16Z</time>
      </trkpt>
      <trkpt lat="43.94469" lon="1.90274">
        <ele>214.91783</ele>
        <time>2014-10-18T11:23:21Z</time>
      </trkpt>
      <trkpt lat="43.94469" lon="1.90274">
        <ele>214.91783</ele>
        <time>2014-10-18T11:23:26Z</time>
      </trkpt>
      <trkpt lat="43.94469" lon="1.90274">
        <ele>214.91783</ele>
        <time>2014-10-18T11:23:31Z</time>
      </trkpt>
      <trkpt lat="43.94469" lon="1.90274">
        <ele>214.91783</ele>
        <time>2014-10-18T11:23:36Z</time>
      </trkpt>
      <trkpt lat="43.94469" lon="1.90274">
        <ele>214.91783</ele>
        <time>2014-10-18T11:23:41Z</time>
      </trkpt>
      <trkpt lat="43.94469" lon="1.90274">
        <ele>214.91783</ele>
        <time>2014-10-18T11:23:46Z</time>
      </trkpt>
      <trkpt lat="43.94469" lon="1.90274">
        <ele>214.91783</ele>
        <time>2014-10-18T11:23:51Z</time>
      </trkpt>
      <trkpt lat="43.94469" lon="1.90274">
        <ele>214.91783</ele>
        <time>2014-10-18T11:23:56Z</time>
      </trkpt>
      <trkpt lat="43.94469" lon="1.90274">
        <ele>214.91783</ele>
        <time>2014-10-18T11:24:01Z</time>
      </trkpt>
      <trkpt lat="43.94469" lon="1.90274">
        <ele>214.91783</ele>
        <time>2014-10-18T11:24:06Z</time>
      </trkpt>
      <trkpt lat="43.94469" lon="1.90274">
        <ele>214.91783</ele>
        <time>2014-10-18T11:24:11Z</time>
      </trkpt>
      <trkpt lat="43.94469" lon="1.90274">
        <ele>214.91783</ele>
        <time>2014-10-18T11:24:16Z</time>
      </trkpt>
      <trkpt lat="43.94469" lon="1.90274">
        <ele>214.91783</ele>
        <time>2014-10-18T11:24:21Z</time>
      </trkpt>
      <trkpt lat="43.94469" lon="1.90274">
        <ele>214.91783</ele>
        <time>2014-10-18T11:24:26Z</time>
      </trkpt>
      <trkpt lat="43.94469" lon="1.90274">
        <ele>214.91783</ele>
        <time>2014-10-18T11:24:31Z</time>
      </trkpt>
      <trkpt lat="43.94469" lon="1.90274">
        <ele>214.91783</ele>
        <time>2014-10-18T11:24:36Z</time>
      </trkpt>
      <trkpt lat="43.94469" lon="1.90274">
        <ele>214.91783</ele>
        <time>2014-10-18T11:24:41Z</time>
      </trkpt>
      <trkpt lat="43.94469" lon="1.90274">
        <ele>214.91783</ele>
        <time>2014-10-18T11:24:46Z</time>
      </trkpt>
      <trkpt lat="43.94468" lon="1.90274">
        <ele>214.91783</ele>
        <time>2014-10-18T11:24:51Z</time>
      </trkpt>
      <trkpt lat="43.94467" lon="1.90272">
        <ele>214.91783</ele>
        <time>2014-10-18T11:24:56Z</time>
      </trkpt>
      <trkpt lat="43.94466" lon="1.90271">
        <ele>214.91783</ele>
        <time>2014-10-18T11:25:01Z</time>
      </trkpt>
      <trkpt lat="43.94466" lon="1.90271">
        <ele>214.91783</ele>
        <time>2014-10-18T11:25:06Z</time>
      </trkpt>
      <trkpt lat="43.94466" lon="1.90271">
        <ele>214.91783</ele>
        <time>2014-10-18T11:25:11Z</time>
      </trkpt>
      <trkpt lat="43.94466" lon="1.90271">
        <ele>214.91783</ele>
        <time>2014-10-18T11:25:16Z</time>
      </trkpt>
      <trkpt lat="43.94466" lon="1.90271">
        <ele>214.91783</ele>
        <time>2014-10-18T11:25:21Z</time>
      </trkpt>
      <trkpt lat="43.94466" lon="1.90271">
        <ele>214.91783</ele>
        <time>2014-10-18T11:25:26Z</time>
      </trkpt>
      <trkpt lat="43.94466" lon="1.90271">
        <ele>214.91783</ele>
        <time>2014-10-18T11:25:31Z</time>
      </trkpt>
      <trkpt lat="43.94466" lon="1.90271">
        <ele>214.91783</ele>
        <time>2014-10-18T11:25:36Z</time>
      </trkpt>
      <trkpt lat="43.94466" lon="1.90271">
        <ele>214.91783</ele>
        <time>2014-10-18T11:25:41Z</time>
      </trkpt>
      <trkpt lat="43.94466" lon="1.90271">
        <ele>214.91783</ele>
        <time>2014-10-18T11:25:46Z</time>
      </trkpt>
      <trkpt lat="43.94466" lon="1.9027">
        <ele>214.74869</ele>
        <time>2014-10-18T11:25:51Z</time>
      </trkpt>
      <trkpt lat="43.94465" lon="1.90269">
        <ele>214.74869</ele>
        <time>2014-10-18T11:25:56Z</time>
      </trkpt>
      <trkpt lat="43.94464" lon="1.9027">
        <ele>214.74869</ele>
        <time>2014-10-18T11:26:01Z</time>
      </trkpt>
      <trkpt lat="43.94465" lon="1.90269">
        <ele>214.74869</ele>
        <time>2014-10-18T11:26:06Z</time>
      </trkpt>
      <trkpt lat="43.94463" lon="1.90266">
        <ele>214.74869</ele>
        <time>2014-10-18T11:26:11Z</time>
      </trkpt>
      <trkpt lat="43.94465" lon="1.90266">
        <ele>214.74869</ele>
        <time>2014-10-18T11:26:16Z</time>
      </trkpt>
      <trkpt lat="43.94464" lon="1.90266">
        <ele>214.74869</ele>
        <time>2014-10-18T11:26:21Z</time>
      </trkpt>
      <trkpt lat="43.94464" lon="1.90266">
        <ele>214.74869</ele>
        <time>2014-10-18T11:26:26Z</time>
      </trkpt>
      <trkpt lat="43.94464" lon="1.90266">
        <ele>214.74869</ele>
        <time>2014-10-18T11:26:31Z</time>
      </trkpt>
      <trkpt lat="43.94464" lon="1.90267">
        <ele>214.74869</ele>
        <time>2014-10-18T11:26:36Z</time>
      </trkpt>
      <trkpt lat="43.94463" lon="1.90267">
        <ele>214.77148</ele>
        <time>2014-10-18T11:26:41Z</time>
      </trkpt>
      <trkpt lat="43.94463" lon="1.90267">
        <ele>214.77148</ele>
        <time>2014-10-18T11:26:46Z</time>
      </trkpt>
      <trkpt lat="43.94463" lon="1.90267">
        <ele>214.77148</ele>
        <time>2014-10-18T11:26:51Z</time>
      </trkpt>
      <trkpt lat="43.94463" lon="1.90267">
        <ele>214.77148</ele>
        <time>2014-10-18T11:26:56Z</time>
      </trkpt>
      <trkpt lat="43.94464" lon="1.90267">
        <ele>214.77148</ele>
        <time>2014-10-18T11:27:01Z</time>
      </trkpt>
      <trkpt lat="43.94464" lon="1.90267">
        <ele>214.77148</ele>
        <time>2014-10-18T11:27:06Z</time>
      </trkpt>
      <trkpt lat="43.94464" lon="1.90268">
        <ele>214.77148</ele>
        <time>2014-10-18T11:27:11Z</time>
      </trkpt>
      <trkpt lat="43.94463" lon="1.90267">
        <ele>214.77148</ele>
        <time>2014-10-18T11:27:16Z</time>
      </trkpt>
      <trkpt lat="43.94463" lon="1.90267">
        <ele>214.77148</ele>
        <time>2014-10-18T11:27:21Z</time>
      </trkpt>
      <trkpt lat="43.94462" lon="1.90266">
        <ele>214.77148</ele>
        <time>2014-10-18T11:27:26Z</time>
      </trkpt>
      <trkpt lat="43.94461" lon="1.90265">
        <ele>214.77148</ele>
        <time>2014-10-18T11:27:31Z</time>
      </trkpt>
      <trkpt lat="43.94461" lon="1.90265">
        <ele>214.77148</ele>
        <time>2014-10-18T11:27:36Z</time>
      </trkpt>
      <trkpt lat="43.9446" lon="1.90265">
        <ele>214.77148</ele>
        <time>2014-10-18T11:27:41Z</time>
      </trkpt>
      <trkpt lat="43.9446" lon="1.90265">
        <ele>214.77148</ele>
        <time>2014-10-18T11:27:46Z</time>
      </trkpt>
      <trkpt lat="43.9446" lon="1.90265">
        <ele>214.77148</ele>
        <time>2014-10-18T11:27:51Z</time>
      </trkpt>
      <trkpt lat="43.9446" lon="1.90265">
        <ele>214.77148</ele>
        <time>2014-10-18T11:27:56Z</time>
      </trkpt>
      <trkpt lat="43.9446" lon="1.90264">
        <ele>214.77148</ele>
        <time>2014-10-18T11:28:01Z</time>
      </trkpt>
      <trkpt lat="43.94457" lon="1.90262">
        <ele>214.85616</ele>
        <time>2014-10-18T11:28:06Z</time>
      </trkpt>
      <trkpt lat="43.94451" lon="1.9026">
        <ele>214.85616</ele>
        <time>2014-10-18T11:28:11Z</time>
      </trkpt>
      <trkpt lat="43.94446" lon="1.90258">
        <ele>215.22786</ele>
        <time>2014-10-18T11:28:16Z</time>
      </trkpt>
      <trkpt lat="43.9444" lon="1.90258">
        <ele>215.22786</ele>
        <time>2014-10-18T11:28:21Z</time>
      </trkpt>
      <trkpt lat="43.94433" lon="1.90254">
        <ele>216.23836</ele>
        <time>2014-10-18T11:28:26Z</time>
      </trkpt>
      <trkpt lat="43.94428" lon="1.9025">
        <ele>216.23836</ele>
        <time>2014-10-18T11:28:31Z</time>
      </trkpt>
      <trkpt lat="43.94425" lon="1.90246">
        <ele>216.45358</ele>
        <time>2014-10-18T11:28:36Z</time>
      </trkpt>
      <trkpt lat="43.9442" lon="1.90242">
        <ele>216.45358</ele>
        <time>2014-10-18T11:28:41Z</time>
      </trkpt>
      <trkpt lat="43.94416" lon="1.90239">
        <ele>216.53572</ele>
        <time>2014-10-18T11:28:46Z</time>
      </trkpt>
      <trkpt lat="43.94409" lon="1.90235">
        <ele>216.53572</ele>
        <time>2014-10-18T11:28:51Z</time>
      </trkpt>
      <trkpt lat="43.94403" lon="1.90232">
        <ele>216.81036</ele>
        <time>2014-10-18T11:28:56Z</time>
      </trkpt>
      <trkpt lat="43.94398" lon="1.90227">
        <ele>216.81036</ele>
        <time>2014-10-18T11:29:01Z</time>
      </trkpt>
      <trkpt lat="43.94395" lon="1.90222">
        <ele>216.03665</ele>
        <time>2014-10-18T11:29:06Z</time>
      </trkpt>
      <trkpt lat="43.9439" lon="1.90215">
        <ele>216.03665</ele>
        <time>2014-10-18T11:29:11Z</time>
      </trkpt>
      <trkpt lat="43.94384" lon="1.90213">
        <ele>215.41676</ele>
        <time>2014-10-18T11:29:16Z</time>
      </trkpt>
      <trkpt lat="43.94379" lon="1.90211">
        <ele>215.41676</ele>
        <time>2014-10-18T11:29:21Z</time>
      </trkpt>
      <trkpt lat="43.94375" lon="1.90208">
        <ele>214.53653</ele>
        <time>2014-10-18T11:29:26Z</time>
      </trkpt>
      <trkpt lat="43.94371" lon="1.90205">
        <ele>214.53653</ele>
        <time>2014-10-18T11:29:31Z</time>
      </trkpt>
      <trkpt lat="43.94366" lon="1.90202">
        <ele>213.71902</ele>
        <time>2014-10-18T11:29:36Z</time>
      </trkpt>
      <trkpt lat="43.94362" lon="1.90198">
        <ele>213.71902</ele>
        <time>2014-10-18T11:29:41Z</time>
      </trkpt>
      <trkpt lat="43.94357" lon="1.90193">
        <ele>213.42192</ele>
        <time>2014-10-18T11:29:46Z</time>
      </trkpt>
      <trkpt lat="43.94351" lon="1.90189">
        <ele>213.42192</ele>
        <time>2014-10-18T11:29:51Z</time>
      </trkpt>
      <trkpt lat="43.94348" lon="1.90181">
        <ele>214.01013</ele>
        <time>2014-10-18T11:29:56Z</time>
      </trkpt>
      <trkpt lat="43.94343" lon="1.90179">
        <ele>214.01013</ele>
        <time>2014-10-18T11:30:01Z</time>
      </trkpt>
      <trkpt lat="43.94337" lon="1.90181">
        <ele>214.53664</ele>
        <time>2014-10-18T11:30:06Z</time>
      </trkpt>
      <trkpt lat="43.94332" lon="1.90178">
        <ele>214.53664</ele>
        <time>2014-10-18T11:30:11Z</time>
      </trkpt>
      <trkpt lat="43.94326" lon="1.9018">
        <ele>215.66615</ele>
        <time>2014-10-18T11:30:16Z</time>
      </trkpt>
      <trkpt lat="43.9432" lon="1.90181">
        <ele>215.66615</ele>
        <time>2014-10-18T11:30:21Z</time>
      </trkpt>
      <trkpt lat="43.94315" lon="1.90179">
        <ele>216.94643</ele>
        <time>2014-10-18T11:30:26Z</time>
      </trkpt>
      <trkpt lat="43.94309" lon="1.90179">
        <ele>216.94643</ele>
        <time>2014-10-18T11:30:31Z</time>
      </trkpt>
      <trkpt lat="43.94303" lon="1.90182">
        <ele>218.33269</ele>
        <time>2014-10-18T11:30:36Z</time>
      </trkpt>
      <trkpt lat="43.94298" lon="1.90179">
        <ele>218.33269</ele>
        <time>2014-10-18T11:30:41Z</time>
      </trkpt>
      <trkpt lat="43.94295" lon="1.90173">
        <ele>219.72554</ele>
        <time>2014-10-18T11:30:46Z</time>
      </trkpt>
      <trkpt lat="43.9429" lon="1.90171">
        <ele>219.72554</ele>
        <time>2014-10-18T11:30:51Z</time>
      </trkpt>
      <trkpt lat="43.94285" lon="1.90169">
        <ele>220.90321</ele>
        <time>2014-10-18T11:30:56Z</time>
      </trkpt>
      <trkpt lat="43.9428" lon="1.90169">
        <ele>220.90321</ele>
        <time>2014-10-18T11:31:01Z</time>
      </trkpt>
      <trkpt lat="43.94275" lon="1.90168">
        <ele>222.17964</ele>
        <time>2014-10-18T11:31:06Z</time>
      </trkpt>
      <trkpt lat="43.94271" lon="1.90163">
        <ele>222.17964</ele>
        <time>2014-10-18T11:31:11Z</time>
      </trkpt>
      <trkpt lat="43.94269" lon="1.90156">
        <ele>223.77344</ele>
        <time>2014-10-18T11:31:16Z</time>
      </trkpt>
      <trkpt lat="43.94268" lon="1.90154">
        <ele>223.77344</ele>
        <time>2014-10-18T11:31:21Z</time>
      </trkpt>
      <trkpt lat="43.94265" lon="1.9015">
        <ele>223.77344</ele>
        <time>2014-10-18T11:31:26Z</time>
      </trkpt>
      <trkpt lat="43.94262" lon="1.90147">
        <ele>225.32431</ele>
        <time>2014-10-18T11:31:31Z</time>
      </trkpt>
      <trkpt lat="43.94257" lon="1.90147">
        <ele>225.32431</ele>
        <time>2014-10-18T11:31:36Z</time>
      </trkpt>
      <trkpt lat="43.9425" lon="1.90149">
        <ele>226.26802</ele>
        <time>2014-10-18T11:31:41Z</time>
      </trkpt>
      <trkpt lat="43.94244" lon="1.90151">
        <ele>226.26802</ele>
        <time>2014-10-18T11:31:46Z</time>
      </trkpt>
      <trkpt lat="43.9424" lon="1.90148">
        <ele>227.36617</ele>
        <time>2014-10-18T11:31:51Z</time>
      </trkpt>
      <trkpt lat="43.94237" lon="1.90154">
        <ele>227.36617</ele>
        <time>2014-10-18T11:31:56Z</time>
      </trkpt>
      <trkpt lat="43.94233" lon="1.90161">
        <ele>227.95503</ele>
        <time>2014-10-18T11:32:01Z</time>
      </trkpt>
      <trkpt lat="43.94229" lon="1.90168">
        <ele>227.95503</ele>
        <time>2014-10-18T11:32:06Z</time>
      </trkpt>
      <trkpt lat="43.94224" lon="1.90174">
        <ele>229.07838</ele>
        <time>2014-10-18T11:32:11Z</time>
      </trkpt>
      <trkpt lat="43.94218" lon="1.9018">
        <ele>229.07838</ele>
        <time>2014-10-18T11:32:16Z</time>
      </trkpt>
      <trkpt lat="43.94214" lon="1.90186">
        <ele>230.00148</ele>
        <time>2014-10-18T11:32:21Z</time>
      </trkpt>
      <trkpt lat="43.94209" lon="1.90189">
        <ele>230.00148</ele>
        <time>2014-10-18T11:32:26Z</time>
      </trkpt>
      <trkpt lat="43.94206" lon="1.90192">
        <ele>230.7359</ele>
        <time>2014-10-18T11:32:31Z</time>
      </trkpt>
      <trkpt lat="43.94205" lon="1.90197">
        <ele>230.7359</ele>
        <time>2014-10-18T11:32:36Z</time>
      </trkpt>
      <trkpt lat="43.94202" lon="1.90202">
        <ele>230.7359</ele>
        <time>2014-10-18T11:32:41Z</time>
      </trkpt>
      <trkpt lat="43.94198" lon="1.90205">
        <ele>230.83186</ele>
        <time>2014-10-18T11:32:46Z</time>
      </trkpt>
      <trkpt lat="43.94194" lon="1.90209">
        <ele>230.83186</ele>
        <time>2014-10-18T11:32:51Z</time>
      </trkpt>
      <trkpt lat="43.94192" lon="1.90219">
        <ele>231.50294</ele>
        <time>2014-10-18T11:32:56Z</time>
      </trkpt>
      <trkpt lat="43.9419" lon="1.90227">
        <ele>231.50294</ele>
        <time>2014-10-18T11:33:01Z</time>
      </trkpt>
      <trkpt lat="43.94187" lon="1.90233">
        <ele>232.34453</ele>
        <time>2014-10-18T11:33:06Z</time>
      </trkpt>
      <trkpt lat="43.94183" lon="1.90238">
        <ele>232.34453</ele>
        <time>2014-10-18T11:33:11Z</time>
      </trkpt>
      <trkpt lat="43.94178" lon="1.90245">
        <ele>233.15422</ele>
        <time>2014-10-18T11:33:16Z</time>
      </trkpt>
      <trkpt lat="43.94173" lon="1.9025">
        <ele>233.15422</ele>
        <time>2014-10-18T11:33:21Z</time>
      </trkpt>
      <trkpt lat="43.94168" lon="1.90255">
        <ele>233.81677</ele>
        <time>2014-10-18T11:33:26Z</time>
      </trkpt>
      <trkpt lat="43.94164" lon="1.90261">
        <ele>233.81677</ele>
        <time>2014-10-18T11:33:31Z</time>
      </trkpt>
      <trkpt lat="43.94161" lon="1.90266">
        <ele>234.52852</ele>
        <time>2014-10-18T11:33:36Z</time>
      </trkpt>
      <trkpt lat="43.94158" lon="1.90272">
        <ele>234.52852</ele>
        <time>2014-10-18T11:33:41Z</time>
      </trkpt>
      <trkpt lat="43.94154" lon="1.9028">
        <ele>235.12546</ele>
        <time>2014-10-18T11:33:46Z</time>
      </trkpt>
      <trkpt lat="43.94151" lon="1.90286">
        <ele>235.12546</ele>
        <time>2014-10-18T11:33:51Z</time>
      </trkpt>
      <trkpt lat="43.94147" lon="1.9029">
        <ele>235.49933</ele>
        <time>2014-10-18T11:33:56Z</time>
      </trkpt>
      <trkpt lat="43.94143" lon="1.90295">
        <ele>235.49933</ele>
        <time>2014-10-18T11:34:01Z</time>
      </trkpt>
      <trkpt lat="43.94139" lon="1.903">
        <ele>236.01161</ele>
        <time>2014-10-18T11:34:06Z</time>
      </trkpt>
      <trkpt lat="43.94135" lon="1.90307">
        <ele>236.01161</ele>
        <time>2014-10-18T11:34:11Z</time>
      </trkpt>
      <trkpt lat="43.9413" lon="1.90312">
        <ele>235.75763</ele>
        <time>2014-10-18T11:34:16Z</time>
      </trkpt>
      <trkpt lat="43.94125" lon="1.90319">
        <ele>235.75763</ele>
        <time>2014-10-18T11:34:21Z</time>
      </trkpt>
      <trkpt lat="43.94121" lon="1.90324">
        <ele>234.99664</ele>
        <time>2014-10-18T11:34:26Z</time>
      </trkpt>
      <trkpt lat="43.9412" lon="1.90332">
        <ele>234.99664</ele>
        <time>2014-10-18T11:34:31Z</time>
      </trkpt>
      <trkpt lat="43.94117" lon="1.9034">
        <ele>234.51791</ele>
        <time>2014-10-18T11:34:36Z</time>
      </trkpt>
      <trkpt lat="43.94115" lon="1.90346">
        <ele>234.51791</ele>
        <time>2014-10-18T11:34:41Z</time>
      </trkpt>
      <trkpt lat="43.94113" lon="1.90352">
        <ele>234.28828</ele>
        <time>2014-10-18T11:34:46Z</time>
      </trkpt>
      <trkpt lat="43.94111" lon="1.90354">
        <ele>234.28828</ele>
        <time>2014-10-18T11:34:51Z</time>
      </trkpt>
      <trkpt lat="43.9411" lon="1.9035">
        <ele>234.28828</ele>
        <time>2014-10-18T11:34:56Z</time>
      </trkpt>
      <trkpt lat="43.9411" lon="1.90351">
        <ele>234.28828</ele>
        <time>2014-10-18T11:35:01Z</time>
      </trkpt>
      <trkpt lat="43.9411" lon="1.90351">
        <ele>234.28828</ele>
        <time>2014-10-18T11:35:06Z</time>
      </trkpt>
      <trkpt lat="43.9411" lon="1.90351">
        <ele>234.28828</ele>
        <time>2014-10-18T11:35:11Z</time>
      </trkpt>
      <trkpt lat="43.94114" lon="1.90358">
        <ele>233.38283</ele>
        <time>2014-10-18T11:35:16Z</time>
      </trkpt>
      <trkpt lat="43.94117" lon="1.90365">
        <ele>233.38283</ele>
        <time>2014-10-18T11:35:21Z</time>
      </trkpt>
      <trkpt lat="43.94117" lon="1.90375">
        <ele>232.27235</ele>
        <time>2014-10-18T11:35:26Z</time>
      </trkpt>
      <trkpt lat="43.94112" lon="1.90383">
        <ele>232.27235</ele>
        <time>2014-10-18T11:35:31Z</time>
      </trkpt>
      <trkpt lat="43.94107" lon="1.90386">
        <ele>231.0334</ele>
        <time>2014-10-18T11:35:36Z</time>
      </trkpt>
      <trkpt lat="43.94103" lon="1.90391">
        <ele>231.0334</ele>
        <time>2014-10-18T11:35:41Z</time>
      </trkpt>
      <trkpt lat="43.94098" lon="1.90396">
        <ele>230.29929</ele>
        <time>2014-10-18T11:35:46Z</time>
      </trkpt>
      <trkpt lat="43.94092" lon="1.90399">
        <ele>230.29929</ele>
        <time>2014-10-18T11:35:51Z</time>
      </trkpt>
      <trkpt lat="43.94087" lon="1.90404">
        <ele>229.7619</ele>
        <time>2014-10-18T11:35:56Z</time>
      </trkpt>
      <trkpt lat="43.94081" lon="1.90408">
        <ele>229.7619</ele>
        <time>2014-10-18T11:36:01Z</time>
      </trkpt>
      <trkpt lat="43.94077" lon="1.90411">
        <ele>228.52997</ele>
        <time>2014-10-18T11:36:06Z</time>
      </trkpt>
      <trkpt lat="43.94073" lon="1.90416">
        <ele>228.52997</ele>
        <time>2014-10-18T11:36:11Z</time>
      </trkpt>
      <trkpt lat="43.9407" lon="1.90423">
        <ele>226.88925</ele>
        <time>2014-10-18T11:36:16Z</time>
      </trkpt>
      <trkpt lat="43.94066" lon="1.90429">
        <ele>226.88925</ele>
        <time>2014-10-18T11:36:21Z</time>
      </trkpt>
      <trkpt lat="43.94063" lon="1.90434">
        <ele>224.8318</ele>
        <time>2014-10-18T11:36:26Z</time>
      </trkpt>
      <trkpt lat="43.94062" lon="1.90439">
        <ele>224.8318</ele>
        <time>2014-10-18T11:36:31Z</time>
      </trkpt>
      <trkpt lat="43.94059" lon="1.90446">
        <ele>222.68288</ele>
        <time>2014-10-18T11:36:36Z</time>
      </trkpt>
      <trkpt lat="43.94056" lon="1.90452">
        <ele>222.68288</ele>
        <time>2014-10-18T11:36:41Z</time>
      </trkpt>
      <trkpt lat="43.94053" lon="1.9046">
        <ele>220.35492</ele>
        <time>2014-10-18T11:36:46Z</time>
      </trkpt>
      <trkpt lat="43.9405" lon="1.90466">
        <ele>220.35492</ele>
        <time>2014-10-18T11:36:51Z</time>
      </trkpt>
      <trkpt lat="43.94046" lon="1.90472">
        <ele>217.94017</ele>
        <time>2014-10-18T11:36:56Z</time>
      </trkpt>
      <trkpt lat="43.94043" lon="1.90478">
        <ele>217.94017</ele>
        <time>2014-10-18T11:37:01Z</time>
      </trkpt>
      <trkpt lat="43.9404" lon="1.90483">
        <ele>215.68279</ele>
        <time>2014-10-18T11:37:06Z</time>
      </trkpt>
      <trkpt lat="43.94036" lon="1.90486">
        <ele>215.68279</ele>
        <time>2014-10-18T11:37:11Z</time>
      </trkpt>
      <trkpt lat="43.94033" lon="1.90495">
        <ele>213.7796</ele>
        <time>2014-10-18T11:37:16Z</time>
      </trkpt>
      <trkpt lat="43.94029" lon="1.90504">
        <ele>213.7796</ele>
        <time>2014-10-18T11:37:21Z</time>
      </trkpt>
      <trkpt lat="43.94024" lon="1.90509">
        <ele>211.73459</ele>
        <time>2014-10-18T11:37:26Z</time>
      </trkpt>
      <trkpt lat="43.94019" lon="1.90515">
        <ele>211.73459</ele>
        <time>2014-10-18T11:37:31Z</time>
      </trkpt>
      <trkpt lat="43.94015" lon="1.9052">
        <ele>209.92424</ele>
        <time>2014-10-18T11:37:36Z</time>
      </trkpt>
      <trkpt lat="43.94011" lon="1.90525">
        <ele>209.92424</ele>
        <time>2014-10-18T11:37:41Z</time>
      </trkpt>
      <trkpt lat="43.94009" lon="1.90532">
        <ele>207.342</ele>
        <time>2014-10-18T11:37:46Z</time>
      </trkpt>
      <trkpt lat="43.94008" lon="1.90539">
        <ele>207.342</ele>
        <time>2014-10-18T11:37:51Z</time>
      </trkpt>
      <trkpt lat="43.94004" lon="1.90544">
        <ele>205.04597</ele>
        <time>2014-10-18T11:37:56Z</time>
      </trkpt>
      <trkpt lat="43.94002" lon="1.90545">
        <ele>205.04597</ele>
        <time>2014-10-18T11:38:01Z</time>
      </trkpt>
      <trkpt lat="43.94001" lon="1.90552">
        <ele>205.04597</ele>
        <time>2014-10-18T11:38:06Z</time>
      </trkpt>
      <trkpt lat="43.94006" lon="1.90559">
        <ele>203.7274</ele>
        <time>2014-10-18T11:38:11Z</time>
      </trkpt>
      <trkpt lat="43.9401" lon="1.90564">
        <ele>203.7274</ele>
        <time>2014-10-18T11:38:16Z</time>
      </trkpt>
      <trkpt lat="43.9401" lon="1.90566">
        <ele>203.7274</ele>
        <time>2014-10-18T11:38:21Z</time>
      </trkpt>
      <trkpt lat="43.9401" lon="1.90566">
        <ele>203.7274</ele>
        <time>2014-10-18T11:38:26Z</time>
      </trkpt>
      <trkpt lat="43.94009" lon="1.90565">
        <ele>202.09274</ele>
        <time>2014-10-18T11:38:31Z</time>
      </trkpt>
      <trkpt lat="43.94007" lon="1.90565">
        <ele>202.09274</ele>
        <time>2014-10-18T11:38:36Z</time>
      </trkpt>
      <trkpt lat="43.93999" lon="1.90566">
        <ele>199.93858</ele>
        <time>2014-10-18T11:38:41Z</time>
      </trkpt>
      <trkpt lat="43.93994" lon="1.90572">
        <ele>199.93858</ele>
        <time>2014-10-18T11:38:46Z</time>
      </trkpt>
      <trkpt lat="43.93992" lon="1.9058">
        <ele>198.41798</ele>
        <time>2014-10-18T11:38:51Z</time>
      </trkpt>
      <trkpt lat="43.93988" lon="1.90585">
        <ele>198.41798</ele>
        <time>2014-10-18T11:38:56Z</time>
      </trkpt>
      <trkpt lat="43.93983" lon="1.90588">
        <ele>196.59425</ele>
        <time>2014-10-18T11:39:01Z</time>
      </trkpt>
      <trkpt lat="43.93981" lon="1.90591">
        <ele>196.59425</ele>
        <time>2014-10-18T11:39:06Z</time>
      </trkpt>
      <trkpt lat="43.93977" lon="1.90595">
        <ele>196.59425</ele>
        <time>2014-10-18T11:39:11Z</time>
      </trkpt>
      <trkpt lat="43.93974" lon="1.90597">
        <ele>193.94604</ele>
        <time>2014-10-18T11:39:16Z</time>
      </trkpt>
      <trkpt lat="43.9397" lon="1.90601">
        <ele>193.94604</ele>
        <time>2014-10-18T11:39:21Z</time>
      </trkpt>
      <trkpt lat="43.93966" lon="1.90604">
        <ele>191.03004</ele>
        <time>2014-10-18T11:39:26Z</time>
      </trkpt>
      <trkpt lat="43.93962" lon="1.9061">
        <ele>191.03004</ele>
        <time>2014-10-18T11:39:31Z</time>
      </trkpt>
      <trkpt lat="43.93958" lon="1.90616">
        <ele>187.7574</ele>
        <time>2014-10-18T11:39:36Z</time>
      </trkpt>
      <trkpt lat="43.93955" lon="1.90622">
        <ele>187.7574</ele>
        <time>2014-10-18T11:39:41Z</time>
      </trkpt>
      <trkpt lat="43.93953" lon="1.90629">
        <ele>184.50775</ele>
        <time>2014-10-18T11:39:46Z</time>
      </trkpt>
      <trkpt lat="43.93947" lon="1.90641">
        <ele>181.44527</ele>
        <time>2014-10-18T11:39:51Z</time>
      </trkpt>
      <trkpt lat="43.93943" lon="1.90647">
        <ele>181.44527</ele>
        <time>2014-10-18T11:39:56Z</time>
      </trkpt>
      <trkpt lat="43.9394" lon="1.90654">
        <ele>178.75015</ele>
        <time>2014-10-18T11:40:01Z</time>
      </trkpt>
      <trkpt lat="43.93937" lon="1.9066">
        <ele>178.75015</ele>
        <time>2014-10-18T11:40:06Z</time>
      </trkpt>
      <trkpt lat="43.93933" lon="1.90666">
        <ele>177.02052</ele>
        <time>2014-10-18T11:40:11Z</time>
      </trkpt>
      <trkpt lat="43.93928" lon="1.90673">
        <ele>177.02052</ele>
        <time>2014-10-18T11:40:16Z</time>
      </trkpt>
      <trkpt lat="43.93924" lon="1.90679">
        <ele>175.56827</ele>
        <time>2014-10-18T11:40:21Z</time>
      </trkpt>
      <trkpt lat="43.9392" lon="1.90686">
        <ele>175.56827</ele>
        <time>2014-10-18T11:40:26Z</time>
      </trkpt>
      <trkpt lat="43.93916" lon="1.90692">
        <ele>174.4466</ele>
        <time>2014-10-18T11:40:31Z</time>
      </trkpt>
      <trkpt lat="43.93912" lon="1.90702">
        <ele>174.4466</ele>
        <time>2014-10-18T11:40:36Z</time>
      </trkpt>
      <trkpt lat="43.93908" lon="1.90707">
        <ele>173.68932</ele>
        <time>2014-10-18T11:40:41Z</time>
      </trkpt>
      <trkpt lat="43.93903" lon="1.90715">
        <ele>173.68932</ele>
        <time>2014-10-18T11:40:46Z</time>
      </trkpt>
      <trkpt lat="43.93897" lon="1.90719">
        <ele>173.18243</ele>
        <time>2014-10-18T11:40:51Z</time>
      </trkpt>
      <trkpt lat="43.93897" lon="1.90722">
        <ele>173.18243</ele>
        <time>2014-10-18T11:40:56Z</time>
      </trkpt>
      <trkpt lat="43.93892" lon="1.90726">
        <ele>173.18243</ele>
        <time>2014-10-18T11:41:01Z</time>
      </trkpt>
      <trkpt lat="43.93888" lon="1.90733">
        <ele>172.74745</ele>
        <time>2014-10-18T11:41:06Z</time>
      </trkpt>
      <trkpt lat="43.93883" lon="1.90737">
        <ele>172.74745</ele>
        <time>2014-10-18T11:41:11Z</time>
      </trkpt>
      <trkpt lat="43.93879" lon="1.90744">
        <ele>172.4924</ele>
        <time>2014-10-18T11:41:16Z</time>
      </trkpt>
      <trkpt lat="43.93875" lon="1.90751">
        <ele>172.4924</ele>
        <time>2014-10-18T11:41:21Z</time>
      </trkpt>
      <trkpt lat="43.93869" lon="1.90753">
        <ele>172.08447</ele>
        <time>2014-10-18T11:41:26Z</time>
      </trkpt>
      <trkpt lat="43.93863" lon="1.90757">
        <ele>172.08447</ele>
        <time>2014-10-18T11:41:31Z</time>
      </trkpt>
      <trkpt lat="43.93859" lon="1.90762">
        <ele>171.63353</ele>
        <time>2014-10-18T11:41:36Z</time>
      </trkpt>
      <trkpt lat="43.93855" lon="1.90768">
        <ele>171.63353</ele>
        <time>2014-10-18T11:41:41Z</time>
      </trkpt>
      <trkpt lat="43.9385" lon="1.90775">
        <ele>171.70258</ele>
        <time>2014-10-18T11:41:46Z</time>
      </trkpt>
      <trkpt lat="43.93846" lon="1.90779">
        <ele>171.70258</ele>
        <time>2014-10-18T11:41:51Z</time>
      </trkpt>
      <trkpt lat="43.93843" lon="1.90786">
        <ele>171.48587</ele>
        <time>2014-10-18T11:41:56Z</time>
      </trkpt>
      <trkpt lat="43.93838" lon="1.90791">
        <ele>171.48587</ele>
        <time>2014-10-18T11:42:01Z</time>
      </trkpt>
      <trkpt lat="43.93834" lon="1.90795">
        <ele>171.232</ele>
        <time>2014-10-18T11:42:06Z</time>
      </trkpt>
      <trkpt lat="43.9383" lon="1.908">
        <ele>171.232</ele>
        <time>2014-10-18T11:42:11Z</time>
      </trkpt>
      <trkpt lat="43.93826" lon="1.90803">
        <ele>171.1569</ele>
        <time>2014-10-18T11:42:16Z</time>
      </trkpt>
      <trkpt lat="43.9382" lon="1.90806">
        <ele>171.1569</ele>
        <time>2014-10-18T11:42:21Z</time>
      </trkpt>
      <trkpt lat="43.93816" lon="1.90811">
        <ele>171.33047</ele>
        <time>2014-10-18T11:42:26Z</time>
      </trkpt>
      <trkpt lat="43.93811" lon="1.90815">
        <ele>171.33047</ele>
        <time>2014-10-18T11:42:31Z</time>
      </trkpt>
      <trkpt lat="43.93806" lon="1.90817">
        <ele>171.7735</ele>
        <time>2014-10-18T11:42:36Z</time>
      </trkpt>
      <trkpt lat="43.93802" lon="1.90821">
        <ele>171.7735</ele>
        <time>2014-10-18T11:42:41Z</time>
      </trkpt>
      <trkpt lat="43.93799" lon="1.90826">
        <ele>172.28827</ele>
        <time>2014-10-18T11:42:46Z</time>
      </trkpt>
      <trkpt lat="43.93794" lon="1.9083">
        <ele>172.28827</ele>
        <time>2014-10-18T11:42:51Z</time>
      </trkpt>
      <trkpt lat="43.93792" lon="1.90838">
        <ele>173.03737</ele>
        <time>2014-10-18T11:42:56Z</time>
      </trkpt>
      <trkpt lat="43.93791" lon="1.90845">
        <ele>173.03737</ele>
        <time>2014-10-18T11:43:01Z</time>
      </trkpt>
      <trkpt lat="43.93788" lon="1.9085">
        <ele>174.34364</ele>
        <time>2014-10-18T11:43:06Z</time>
      </trkpt>
      <trkpt lat="43.93788" lon="1.90857">
        <ele>174.34364</ele>
        <time>2014-10-18T11:43:11Z</time>
      </trkpt>
      <trkpt lat="43.93787" lon="1.90865">
        <ele>175.98598</ele>
        <time>2014-10-18T11:43:16Z</time>
      </trkpt>
      <trkpt lat="43.93782" lon="1.9087">
        <ele>175.98598</ele>
        <time>2014-10-18T11:43:21Z</time>
      </trkpt>
      <trkpt lat="43.93778" lon="1.90878">
        <ele>177.68652</ele>
        <time>2014-10-18T11:43:26Z</time>
      </trkpt>
      <trkpt lat="43.93773" lon="1.90883">
        <ele>177.68652</ele>
        <time>2014-10-18T11:43:31Z</time>
      </trkpt>
      <trkpt lat="43.93771" lon="1.90889">
        <ele>179.53363</ele>
        <time>2014-10-18T11:43:36Z</time>
      </trkpt>
      <trkpt lat="43.93767" lon="1.90891">
        <ele>179.53363</ele>
        <time>2014-10-18T11:43:41Z</time>
      </trkpt>
      <trkpt lat="43.93763" lon="1.90893">
        <ele>179.53363</ele>
        <time>2014-10-18T11:43:46Z</time>
      </trkpt>
      <trkpt lat="43.9376" lon="1.90898">
        <ele>181.58003</ele>
        <time>2014-10-18T11:43:51Z</time>
      </trkpt>
      <trkpt lat="43.93756" lon="1.90902">
        <ele>181.58003</ele>
        <time>2014-10-18T11:43:56Z</time>
      </trkpt>
      <trkpt lat="43.93753" lon="1.90909">
        <ele>183.22566</ele>
        <time>2014-10-18T11:44:01Z</time>
      </trkpt>
      <trkpt lat="43.93749" lon="1.90913">
        <ele>183.22566</ele>
        <time>2014-10-18T11:44:06Z</time>
      </trkpt>
      <trkpt lat="43.93746" lon="1.90917">
        <ele>183.22566</ele>
        <time>2014-10-18T11:44:11Z</time>
      </trkpt>
      <trkpt lat="43.93743" lon="1.90922">
        <ele>183.90132</ele>
        <time>2014-10-18T11:44:16Z</time>
      </trkpt>
      <trkpt lat="43.93741" lon="1.90926">
        <ele>183.90132</ele>
        <time>2014-10-18T11:44:21Z</time>
      </trkpt>
      <trkpt lat="43.93739" lon="1.90933">
        <ele>183.90132</ele>
        <time>2014-10-18T11:44:26Z</time>
      </trkpt>
      <trkpt lat="43.93735" lon="1.90939">
        <ele>184.17781</ele>
        <time>2014-10-18T11:44:31Z</time>
      </trkpt>
      <trkpt lat="43.93734" lon="1.90953">
        <ele>185.30576</ele>
        <time>2014-10-18T11:44:36Z</time>
      </trkpt>
      <trkpt lat="43.93736" lon="1.90962">
        <ele>185.30576</ele>
        <time>2014-10-18T11:44:41Z</time>
      </trkpt>
      <trkpt lat="43.93735" lon="1.90962">
        <ele>185.30576</ele>
        <time>2014-10-18T11:44:46Z</time>
      </trkpt>
      <trkpt lat="43.9373" lon="1.90963">
        <ele>185.86214</ele>
        <time>2014-10-18T11:44:51Z</time>
      </trkpt>
      <trkpt lat="43.93723" lon="1.90968">
        <ele>185.86214</ele>
        <time>2014-10-18T11:44:56Z</time>
      </trkpt>
      <trkpt lat="43.93719" lon="1.90974">
        <ele>185.91367</ele>
        <time>2014-10-18T11:45:01Z</time>
      </trkpt>
      <trkpt lat="43.93714" lon="1.9098">
        <ele>185.91367</ele>
        <time>2014-10-18T11:45:06Z</time>
      </trkpt>
      <trkpt lat="43.9371" lon="1.90988">
        <ele>186.43163</ele>
        <time>2014-10-18T11:45:11Z</time>
      </trkpt>
      <trkpt lat="43.93705" lon="1.90995">
        <ele>186.43163</ele>
        <time>2014-10-18T11:45:16Z</time>
      </trkpt>
      <trkpt lat="43.93699" lon="1.90999">
        <ele>186.84488</ele>
        <time>2014-10-18T11:45:21Z</time>
      </trkpt>
      <trkpt lat="43.93694" lon="1.91004">
        <ele>186.84488</ele>
        <time>2014-10-18T11:45:26Z</time>
      </trkpt>
      <trkpt lat="43.93691" lon="1.91011">
        <ele>187.44612</ele>
        <time>2014-10-18T11:45:31Z</time>
      </trkpt>
      <trkpt lat="43.93687" lon="1.91017">
        <ele>187.44612</ele>
        <time>2014-10-18T11:45:36Z</time>
      </trkpt>
      <trkpt lat="43.93683" lon="1.91022">
        <ele>187.71353</ele>
        <time>2014-10-18T11:45:41Z</time>
      </trkpt>
      <trkpt lat="43.93678" lon="1.91023">
        <ele>187.71353</ele>
        <time>2014-10-18T11:45:46Z</time>
      </trkpt>
      <trkpt lat="43.93675" lon="1.9103">
        <ele>187.89973</ele>
        <time>2014-10-18T11:45:51Z</time>
      </trkpt>
      <trkpt lat="43.93669" lon="1.91034">
        <ele>187.89973</ele>
        <time>2014-10-18T11:45:56Z</time>
      </trkpt>
      <trkpt lat="43.93666" lon="1.91042">
        <ele>188.41202</ele>
        <time>2014-10-18T11:46:01Z</time>
      </trkpt>
      <trkpt lat="43.93662" lon="1.91048">
        <ele>188.41202</ele>
        <time>2014-10-18T11:46:06Z</time>
      </trkpt>
      <trkpt lat="43.93657" lon="1.91051">
        <ele>188.27243</ele>
        <time>2014-10-18T11:46:11Z</time>
      </trkpt>
      <trkpt lat="43.93654" lon="1.91058">
        <ele>188.27243</ele>
        <time>2014-10-18T11:46:16Z</time>
      </trkpt>
      <trkpt lat="43.93651" lon="1.91063">
        <ele>187.97461</ele>
        <time>2014-10-18T11:46:21Z</time>
      </trkpt>
      <trkpt lat="43.93647" lon="1.91067">
        <ele>187.97461</ele>
        <time>2014-10-18T11:46:26Z</time>
      </trkpt>
      <trkpt lat="43.93648" lon="1.91063">
        <ele>187.97461</ele>
        <time>2014-10-18T11:46:31Z</time>
      </trkpt>
      <trkpt lat="43.93647" lon="1.91061">
        <ele>187.50102</ele>
        <time>2014-10-18T11:46:36Z</time>
      </trkpt>
      <trkpt lat="43.93646" lon="1.91065">
        <ele>187.50102</ele>
        <time>2014-10-18T11:46:41Z</time>
      </trkpt>
      <trkpt lat="43.93641" lon="1.91071">
        <ele>186.77832</ele>
        <time>2014-10-18T11:46:46Z</time>
      </trkpt>
      <trkpt lat="43.93636" lon="1.91071">
        <ele>186.77832</ele>
        <time>2014-10-18T11:46:51Z</time>
      </trkpt>
      <trkpt lat="43.93637" lon="1.91071">
        <ele>186.77832</ele>
        <time>2014-10-18T11:46:56Z</time>
      </trkpt>
      <trkpt lat="43.93637" lon="1.91069">
        <ele>186.77832</ele>
        <time>2014-10-18T11:47:01Z</time>
      </trkpt>
      <trkpt lat="43.93635" lon="1.91066">
        <ele>186.56085</ele>
        <time>2014-10-18T11:47:06Z</time>
      </trkpt>
      <trkpt lat="43.93635" lon="1.91065">
        <ele>186.56085</ele>
        <time>2014-10-18T11:47:11Z</time>
      </trkpt>
      <trkpt lat="43.93636" lon="1.91064">
        <ele>186.56085</ele>
        <time>2014-10-18T11:47:16Z</time>
      </trkpt>
      <trkpt lat="43.93635" lon="1.91064">
        <ele>186.56085</ele>
        <time>2014-10-18T11:47:21Z</time>
      </trkpt>
      <trkpt lat="43.93635" lon="1.91064">
        <ele>186.56085</ele>
        <time>2014-10-18T11:47:26Z</time>
      </trkpt>
      <trkpt lat="43.93635" lon="1.91064">
        <ele>186.56085</ele>
        <time>2014-10-18T11:47:31Z</time>
      </trkpt>
      <trkpt lat="43.93635" lon="1.91064">
        <ele>186.56085</ele>
        <time>2014-10-18T11:47:36Z</time>
      </trkpt>
      <trkpt lat="43.93635" lon="1.91064">
        <ele>186.56085</ele>
        <time>2014-10-18T11:47:41Z</time>
      </trkpt>
      <trkpt lat="43.93635" lon="1.91064">
        <ele>186.56085</ele>
        <time>2014-10-18T11:47:46Z</time>
      </trkpt>
      <trkpt lat="43.93635" lon="1.91064">
        <ele>186.56085</ele>
        <time>2014-10-18T11:47:51Z</time>
      </trkpt>
      <trkpt lat="43.93635" lon="1.91064">
        <ele>186.56085</ele>
        <time>2014-10-18T11:47:56Z</time>
      </trkpt>
      <trkpt lat="43.93633" lon="1.91069">
        <ele>186.56085</ele>
        <time>2014-10-18T11:48:01Z</time>
      </trkpt>
      <trkpt lat="43.9363" lon="1.91079">
        <ele>186.55182</ele>
        <time>2014-10-18T11:48:06Z</time>
      </trkpt>
      <trkpt lat="43.93628" lon="1.91087">
        <ele>186.55182</ele>
        <time>2014-10-18T11:48:11Z</time>
      </trkpt>
      <trkpt lat="43.93627" lon="1.91091">
        <ele>186.51901</ele>
        <time>2014-10-18T11:48:16Z</time>
      </trkpt>
      <trkpt lat="43.93626" lon="1.91099">
        <ele>186.51901</ele>
        <time>2014-10-18T11:48:21Z</time>
      </trkpt>
      <trkpt lat="43.93624" lon="1.91104">
        <ele>186.1033</ele>
        <time>2014-10-18T11:48:26Z</time>
      </trkpt>
      <trkpt lat="43.93621" lon="1.91109">
        <ele>186.1033</ele>
        <time>2014-10-18T11:48:31Z</time>
      </trkpt>
      <trkpt lat="43.9362" lon="1.91116">
        <ele>185.36218</ele>
        <time>2014-10-18T11:48:36Z</time>
      </trkpt>
      <trkpt lat="43.9362" lon="1.91123">
        <ele>185.36218</ele>
        <time>2014-10-18T11:48:41Z</time>
      </trkpt>
      <trkpt lat="43.93622" lon="1.91132">
        <ele>184.63818</ele>
        <time>2014-10-18T11:48:46Z</time>
      </trkpt>
      <trkpt lat="43.93622" lon="1.91141">
        <ele>184.63818</ele>
        <time>2014-10-18T11:48:51Z</time>
      </trkpt>
      <trkpt lat="43.93621" lon="1.91147">
        <ele>183.81631</ele>
        <time>2014-10-18T11:48:56Z</time>
      </trkpt>
      <trkpt lat="43.93619" lon="1.91152">
        <ele>183.81631</ele>
        <time>2014-10-18T11:49:01Z</time>
      </trkpt>
      <trkpt lat="43.9362" lon="1.91161">
        <ele>183.35239</ele>
        <time>2014-10-18T11:49:06Z</time>
      </trkpt>
      <trkpt lat="43.93619" lon="1.9117">
        <ele>183.35239</ele>
        <time>2014-10-18T11:49:11Z</time>
      </trkpt>
      <trkpt lat="43.93621" lon="1.91177">
        <ele>182.81757</ele>
        <time>2014-10-18T11:49:16Z</time>
      </trkpt>
      <trkpt lat="43.93623" lon="1.91185">
        <ele>182.81757</ele>
        <time>2014-10-18T11:49:21Z</time>
      </trkpt>
      <trkpt lat="43.93626" lon="1.9119">
        <ele>181.85796</ele>
        <time>2014-10-18T11:49:26Z</time>
      </trkpt>
      <trkpt lat="43.93627" lon="1.91197">
        <ele>181.85796</ele>
        <time>2014-10-18T11:49:31Z</time>
      </trkpt>
      <trkpt lat="43.9363" lon="1.91205">
        <ele>180.44951</ele>
        <time>2014-10-18T11:49:36Z</time>
      </trkpt>
      <trkpt lat="43.93628" lon="1.91213">
        <ele>180.44951</ele>
        <time>2014-10-18T11:49:41Z</time>
      </trkpt>
      <trkpt lat="43.93632" lon="1.9122">
        <ele>179.21973</ele>
        <time>2014-10-18T11:49:46Z</time>
      </trkpt>
      <trkpt lat="43.93634" lon="1.91228">
        <ele>179.21973</ele>
        <time>2014-10-18T11:49:51Z</time>
      </trkpt>
      <trkpt lat="43.93636" lon="1.91236">
        <ele>178.4181</ele>
        <time>2014-10-18T11:49:56Z</time>
      </trkpt>
      <trkpt lat="43.93636" lon="1.91243">
        <ele>178.4181</ele>
        <time>2014-10-18T11:50:01Z</time>
      </trkpt>
      <trkpt lat="43.93638" lon="1.9125">
        <ele>177.51077</ele>
        <time>2014-10-18T11:50:06Z</time>
      </trkpt>
      <trkpt lat="43.93638" lon="1.91257">
        <ele>177.51077</ele>
        <time>2014-10-18T11:50:11Z</time>
      </trkpt>
      <trkpt lat="43.93636" lon="1.91264">
        <ele>176.69514</ele>
        <time>2014-10-18T11:50:16Z</time>
      </trkpt>
      <trkpt lat="43.93636" lon="1.91271">
        <ele>176.69514</ele>
        <time>2014-10-18T11:50:21Z</time>
      </trkpt>
      <trkpt lat="43.93638" lon="1.91277">
        <ele>176.16824</ele>
        <time>2014-10-18T11:50:26Z</time>
      </trkpt>
      <trkpt lat="43.93643" lon="1.91285">
        <ele>176.16824</ele>
        <time>2014-10-18T11:50:31Z</time>
      </trkpt>
      <trkpt lat="43.93643" lon="1.91294">
        <ele>175.75153</ele>
        <time>2014-10-18T11:50:36Z</time>
      </trkpt>
      <trkpt lat="43.93643" lon="1.91301">
        <ele>175.75153</ele>
        <time>2014-10-18T11:50:41Z</time>
      </trkpt>
      <trkpt lat="43.93647" lon="1.91309">
        <ele>174.89014</ele>
        <time>2014-10-18T11:50:46Z</time>
      </trkpt>
      <trkpt lat="43.93645" lon="1.91315">
        <ele>174.89014</ele>
        <time>2014-10-18T11:50:51Z</time>
      </trkpt>
      <trkpt lat="43.93643" lon="1.9132">
        <ele>173.99352</ele>
        <time>2014-10-18T11:50:56Z</time>
      </trkpt>
      <trkpt lat="43.93643" lon="1.91326">
        <ele>173.99352</ele>
        <time>2014-10-18T11:51:01Z</time>
      </trkpt>
      <trkpt lat="43.93647" lon="1.91333">
        <ele>173.052</ele>
        <time>2014-10-18T11:51:06Z</time>
      </trkpt>
      <trkpt lat="43.93647" lon="1.91341">
        <ele>173.052</ele>
        <time>2014-10-18T11:51:11Z</time>
      </trkpt>
      <trkpt lat="43.93648" lon="1.91347">
        <ele>170.90385</ele>
        <time>2014-10-18T11:51:16Z</time>
      </trkpt>
      <trkpt lat="43.93651" lon="1.91354">
        <ele>170.90385</ele>
        <time>2014-10-18T11:51:21Z</time>
      </trkpt>
      <trkpt lat="43.93657" lon="1.91359">
        <ele>169.14204</ele>
        <time>2014-10-18T11:51:26Z</time>
      </trkpt>
      <trkpt lat="43.93661" lon="1.91367">
        <ele>169.14204</ele>
        <time>2014-10-18T11:51:31Z</time>
      </trkpt>
      <trkpt lat="43.93666" lon="1.91376">
        <ele>167.54091</ele>
        <time>2014-10-18T11:51:36Z</time>
      </trkpt>
      <trkpt lat="43.93666" lon="1.91385">
        <ele>167.54091</ele>
        <time>2014-10-18T11:51:41Z</time>
      </trkpt>
      <trkpt lat="43.93668" lon="1.91392">
        <ele>166.15025</ele>
        <time>2014-10-18T11:51:46Z</time>
      </trkpt>
      <trkpt lat="43.93672" lon="1.91398">
        <ele>166.15025</ele>
        <time>2014-10-18T11:51:51Z</time>
      </trkpt>
      <trkpt lat="43.93671" lon="1.91404">
        <ele>165.18849</ele>
        <time>2014-10-18T11:51:56Z</time>
      </trkpt>
      <trkpt lat="43.9367" lon="1.9141">
        <ele>165.18849</ele>
        <time>2014-10-18T11:52:01Z</time>
      </trkpt>
      <trkpt lat="43.93677" lon="1.91416">
        <ele>164.4532</ele>
        <time>2014-10-18T11:52:06Z</time>
      </trkpt>
      <trkpt lat="43.93682" lon="1.91423">
        <ele>164.4532</ele>
        <time>2014-10-18T11:52:11Z</time>
      </trkpt>
      <trkpt lat="43.93685" lon="1.9143">
        <ele>164.07321</ele>
        <time>2014-10-18T11:52:16Z</time>
      </trkpt>
      <trkpt lat="43.93687" lon="1.91436">
        <ele>164.07321</ele>
        <time>2014-10-18T11:52:21Z</time>
      </trkpt>
      <trkpt lat="43.93691" lon="1.91444">
        <ele>163.12917</ele>
        <time>2014-10-18T11:52:26Z</time>
      </trkpt>
      <trkpt lat="43.93694" lon="1.91452">
        <ele>163.12917</ele>
        <time>2014-10-18T11:52:31Z</time>
      </trkpt>
      <trkpt lat="43.93695" lon="1.9146">
        <ele>162.61543</ele>
        <time>2014-10-18T11:52:36Z</time>
      </trkpt>
      <trkpt lat="43.93697" lon="1.91467">
        <ele>162.61543</ele>
        <time>2014-10-18T11:52:41Z</time>
      </trkpt>
      <trkpt lat="43.93696" lon="1.91475">
        <ele>162.11179</ele>
        <time>2014-10-18T11:52:46Z</time>
      </trkpt>
      <trkpt lat="43.93694" lon="1.91484">
        <ele>162.11179</ele>
        <time>2014-10-18T11:52:51Z</time>
      </trkpt>
      <trkpt lat="43.93691" lon="1.91491">
        <ele>161.4882</ele>
        <time>2014-10-18T11:52:56Z</time>
      </trkpt>
      <trkpt lat="43.93688" lon="1.91499">
        <ele>161.4882</ele>
        <time>2014-10-18T11:53:01Z</time>
      </trkpt>
      <trkpt lat="43.93684" lon="1.91506">
        <ele>160.86948</ele>
        <time>2014-10-18T11:53:06Z</time>
      </trkpt>
      <trkpt lat="43.93683" lon="1.91513">
        <ele>160.86948</ele>
        <time>2014-10-18T11:53:11Z</time>
      </trkpt>
      <trkpt lat="43.93681" lon="1.91515">
        <ele>160.86948</ele>
        <time>2014-10-18T11:53:16Z</time>
      </trkpt>
      <trkpt lat="43.93681" lon="1.91515">
        <ele>160.86948</ele>
        <time>2014-10-18T11:53:21Z</time>
      </trkpt>
      <trkpt lat="43.93678" lon="1.91519">
        <ele>160.42879</ele>
        <time>2014-10-18T11:53:26Z</time>
      </trkpt>
      <trkpt lat="43.93672" lon="1.91526">
        <ele>160.42879</ele>
        <time>2014-10-18T11:53:31Z</time>
      </trkpt>
      <trkpt lat="43.93667" lon="1.91531">
        <ele>159.69199</ele>
        <time>2014-10-18T11:53:36Z</time>
      </trkpt>
      <trkpt lat="43.93663" lon="1.91535">
        <ele>159.69199</ele>
        <time>2014-10-18T11:53:41Z</time>
      </trkpt>
      <trkpt lat="43.93658" lon="1.9154">
        <ele>159.05634</ele>
        <time>2014-10-18T11:53:46Z</time>
      </trkpt>
      <trkpt lat="43.93653" lon="1.91543">
        <ele>159.05634</ele>
        <time>2014-10-18T11:53:51Z</time>
      </trkpt>
      <trkpt lat="43.93648" lon="1.91548">
        <ele>158.02495</ele>
        <time>2014-10-18T11:53:56Z</time>
      </trkpt>
      <trkpt lat="43.93644" lon="1.91552">
        <ele>158.02495</ele>
        <time>2014-10-18T11:54:01Z</time>
      </trkpt>
      <trkpt lat="43.9364" lon="1.91558">
        <ele>157.10403</ele>
        <time>2014-10-18T11:54:06Z</time>
      </trkpt>
      <trkpt lat="43.93638" lon="1.91565">
        <ele>157.10403</ele>
        <time>2014-10-18T11:54:11Z</time>
      </trkpt>
      <trkpt lat="43.93635" lon="1.91571">
        <ele>156.402</ele>
        <time>2014-10-18T11:54:16Z</time>
      </trkpt>
      <trkpt lat="43.93631" lon="1.91577">
        <ele>156.402</ele>
        <time>2014-10-18T11:54:21Z</time>
      </trkpt>
      <trkpt lat="43.93628" lon="1.91583">
        <ele>155.62946</ele>
        <time>2014-10-18T11:54:26Z</time>
      </trkpt>
      <trkpt lat="43.93625" lon="1.91592">
        <ele>155.62946</ele>
        <time>2014-10-18T11:54:31Z</time>
      </trkpt>
      <trkpt lat="43.93622" lon="1.91599">
        <ele>154.95087</ele>
        <time>2014-10-18T11:54:36Z</time>
      </trkpt>
      <trkpt lat="43.9362" lon="1.91606">
        <ele>154.95087</ele>
        <time>2014-10-18T11:54:41Z</time>
      </trkpt>
      <trkpt lat="43.93619" lon="1.9161">
        <ele>154.95087</ele>
        <time>2014-10-18T11:54:46Z</time>
      </trkpt>
      <trkpt lat="43.93619" lon="1.9161">
        <ele>154.95087</ele>
        <time>2014-10-18T11:54:51Z</time>
      </trkpt>
      <trkpt lat="43.93619" lon="1.91615">
        <ele>154.04265</ele>
        <time>2014-10-18T11:54:56Z</time>
      </trkpt>
      <trkpt lat="43.93617" lon="1.91621">
        <ele>154.04265</ele>
        <time>2014-10-18T11:55:01Z</time>
      </trkpt>
      <trkpt lat="43.93616" lon="1.91627">
        <ele>154.04265</ele>
        <time>2014-10-18T11:55:06Z</time>
      </trkpt>
      <trkpt lat="43.93615" lon="1.91628">
        <ele>153.51353</ele>
        <time>2014-10-18T11:55:11Z</time>
      </trkpt>
      <trkpt lat="43.93615" lon="1.91627">
        <ele>153.51353</ele>
        <time>2014-10-18T11:55:16Z</time>
      </trkpt>
      <trkpt lat="43.93615" lon="1.91629">
        <ele>153.51353</ele>
        <time>2014-10-18T11:55:21Z</time>
      </trkpt>
      <trkpt lat="43.93611" lon="1.91635">
        <ele>153.51353</ele>
        <time>2014-10-18T11:55:26Z</time>
      </trkpt>
      <trkpt lat="43.93608" lon="1.91641">
        <ele>153.53734</ele>
        <time>2014-10-18T11:55:31Z</time>
      </trkpt>
      <trkpt lat="43.93605" lon="1.91648">
        <ele>153.53734</ele>
        <time>2014-10-18T11:55:36Z</time>
      </trkpt>
      <trkpt lat="43.93605" lon="1.91654">
        <ele>153.53851</ele>
        <time>2014-10-18T11:55:41Z</time>
      </trkpt>
      <trkpt lat="43.93608" lon="1.91656">
        <ele>153.53851</ele>
        <time>2014-10-18T11:55:46Z</time>
      </trkpt>
      <trkpt lat="43.9361" lon="1.91655">
        <ele>153.53851</ele>
        <time>2014-10-18T11:55:51Z</time>
      </trkpt>
      <trkpt lat="43.9361" lon="1.91653">
        <ele>153.53851</ele>
        <time>2014-10-18T11:55:56Z</time>
      </trkpt>
      <trkpt lat="43.93611" lon="1.91657">
        <ele>154.64114</ele>
        <time>2014-10-18T11:56:01Z</time>
      </trkpt>
      <trkpt lat="43.93611" lon="1.91663">
        <ele>154.64114</ele>
        <time>2014-10-18T11:56:06Z</time>
      </trkpt>
      <trkpt lat="43.93612" lon="1.91669">
        <ele>155.07347</ele>
        <time>2014-10-18T11:56:11Z</time>
      </trkpt>
      <trkpt lat="43.93613" lon="1.91671">
        <ele>155.07347</ele>
        <time>2014-10-18T11:56:16Z</time>
      </trkpt>
      <trkpt lat="43.93614" lon="1.91672">
        <ele>155.07347</ele>
        <time>2014-10-18T11:56:21Z</time>
      </trkpt>
      <trkpt lat="43.93614" lon="1.91672">
        <ele>155.07347</ele>
        <time>2014-10-18T11:56:26Z</time>
      </trkpt>
      <trkpt lat="43.93614" lon="1.91672">
        <ele>155.07347</ele>
        <time>2014-10-18T11:56:31Z</time>
      </trkpt>
      <trkpt lat="43.93613" lon="1.91672">
        <ele>155.07347</ele>
        <time>2014-10-18T11:56:36Z</time>
      </trkpt>
      <trkpt lat="43.93609" lon="1.91666">
        <ele>155.94823</ele>
        <time>2014-10-18T11:56:41Z</time>
      </trkpt>
      <trkpt lat="43.93604" lon="1.91659">
        <ele>155.94823</ele>
        <time>2014-10-18T11:56:46Z</time>
      </trkpt>
      <trkpt lat="43.93602" lon="1.91653">
        <ele>156.43619</ele>
        <time>2014-10-18T11:56:51Z</time>
      </trkpt>
      <trkpt lat="43.936" lon="1.91649">
        <ele>156.43619</ele>
        <time>2014-10-18T11:56:56Z</time>
      </trkpt>
      <trkpt lat="43.93595" lon="1.91642">
        <ele>156.20245</ele>
        <time>2014-10-18T11:57:01Z</time>
      </trkpt>
      <trkpt lat="43.93589" lon="1.91628">
        <ele>156.39429</ele>
        <time>2014-10-18T11:57:06Z</time>
      </trkpt>
      <trkpt lat="43.93584" lon="1.91621">
        <ele>156.39429</ele>
        <time>2014-10-18T11:57:11Z</time>
      </trkpt>
      <trkpt lat="43.93587" lon="1.91624">
        <ele>155.81096</ele>
        <time>2014-10-18T11:57:16Z</time>
      </trkpt>
      <trkpt lat="43.93587" lon="1.91623">
        <ele>155.81096</ele>
        <time>2014-10-18T11:57:21Z</time>
      </trkpt>
      <trkpt lat="43.9358" lon="1.91615">
        <ele>155.33087</ele>
        <time>2014-10-18T11:57:26Z</time>
      </trkpt>
      <trkpt lat="43.9357" lon="1.91608">
        <ele>155.60915</ele>
        <time>2014-10-18T11:57:31Z</time>
      </trkpt>
      <trkpt lat="43.93565" lon="1.91605">
        <ele>155.60915</ele>
        <time>2014-10-18T11:57:36Z</time>
      </trkpt>
      <trkpt lat="43.9356" lon="1.91606">
        <ele>155.88159</ele>
        <time>2014-10-18T11:57:41Z</time>
      </trkpt>
      <trkpt lat="43.93555" lon="1.91607">
        <ele>155.88159</ele>
        <time>2014-10-18T11:57:46Z</time>
      </trkpt>
      <trkpt lat="43.93549" lon="1.91607">
        <ele>156.36253</ele>
        <time>2014-10-18T11:57:51Z</time>
      </trkpt>
      <trkpt lat="43.93542" lon="1.91607">
        <ele>156.36253</ele>
        <time>2014-10-18T11:57:56Z</time>
      </trkpt>
      <trkpt lat="43.93537" lon="1.91607">
        <ele>157.55263</ele>
        <time>2014-10-18T11:58:01Z</time>
      </trkpt>
      <trkpt lat="43.93532" lon="1.91605">
        <ele>157.55263</ele>
        <time>2014-10-18T11:58:06Z</time>
      </trkpt>
      <trkpt lat="43.93526" lon="1.91605">
        <ele>158.19888</ele>
        <time>2014-10-18T11:58:11Z</time>
      </trkpt>
      <trkpt lat="43.93521" lon="1.91608">
        <ele>158.19888</ele>
        <time>2014-10-18T11:58:16Z</time>
      </trkpt>
      <trkpt lat="43.93514" lon="1.91607">
        <ele>158.84244</ele>
        <time>2014-10-18T11:58:21Z</time>
      </trkpt>
      <trkpt lat="43.93508" lon="1.91605">
        <ele>158.84244</ele>
        <time>2014-10-18T11:58:26Z</time>
      </trkpt>
      <trkpt lat="43.93505" lon="1.91611">
        <ele>158.94716</ele>
        <time>2014-10-18T11:58:31Z</time>
      </trkpt>
      <trkpt lat="43.935" lon="1.91612">
        <ele>158.94716</ele>
        <time>2014-10-18T11:58:36Z</time>
      </trkpt>
      <trkpt lat="43.93495" lon="1.91613">
        <ele>159.27162</ele>
        <time>2014-10-18T11:58:41Z</time>
      </trkpt>
      <trkpt lat="43.93489" lon="1.91614">
        <ele>159.27162</ele>
        <time>2014-10-18T11:58:46Z</time>
      </trkpt>
      <trkpt lat="43.93481" lon="1.91615">
        <ele>159.53815</ele>
        <time>2014-10-18T11:58:51Z</time>
      </trkpt>
      <trkpt lat="43.93475" lon="1.91615">
        <ele>159.53815</ele>
        <time>2014-10-18T11:58:56Z</time>
      </trkpt>
      <trkpt lat="43.9347" lon="1.91616">
        <ele>159.70589</ele>
        <time>2014-10-18T11:59:01Z</time>
      </trkpt>
      <trkpt lat="43.93464" lon="1.91619">
        <ele>159.70589</ele>
        <time>2014-10-18T11:59:06Z</time>
      </trkpt>
      <trkpt lat="43.93458" lon="1.91619">
        <ele>159.75174</ele>
        <time>2014-10-18T11:59:11Z</time>
      </trkpt>
      <trkpt lat="43.93453" lon="1.91624">
        <ele>159.75174</ele>
        <time>2014-10-18T11:59:16Z</time>
      </trkpt>
      <trkpt lat="43.93447" lon="1.91629">
        <ele>159.19351</ele>
        <time>2014-10-18T11:59:21Z</time>
      </trkpt>
      <trkpt lat="43.93441" lon="1.9163">
        <ele>159.19351</ele>
        <time>2014-10-18T11:59:26Z</time>
      </trkpt>
      <trkpt lat="43.93433" lon="1.91636">
        <ele>158.5662</ele>
        <time>2014-10-18T11:59:31Z</time>
      </trkpt>
      <trkpt lat="43.93428" lon="1.91637">
        <ele>158.5662</ele>
        <time>2014-10-18T11:59:36Z</time>
      </trkpt>
      <trkpt lat="43.93422" lon="1.91639">
        <ele>158.236</ele>
        <time>2014-10-18T11:59:41Z</time>
      </trkpt>
      <trkpt lat="43.93416" lon="1.91641">
        <ele>158.236</ele>
        <time>2014-10-18T11:59:46Z</time>
      </trkpt>
      <trkpt lat="43.93411" lon="1.91644">
        <ele>157.4606</ele>
        <time>2014-10-18T11:59:51Z</time>
      </trkpt>
      <trkpt lat="43.93405" lon="1.91646">
        <ele>157.4606</ele>
        <time>2014-10-18T11:59:56Z</time>
      </trkpt>
      <trkpt lat="43.93401" lon="1.91646">
        <ele>156.56232</ele>
        <time>2014-10-18T12:00:01Z</time>
      </trkpt>
      <trkpt lat="43.93395" lon="1.91647">
        <ele>156.56232</ele>
        <time>2014-10-18T12:00:06Z</time>
      </trkpt>
      <trkpt lat="43.93391" lon="1.91652">
        <ele>156.24367</ele>
        <time>2014-10-18T12:00:11Z</time>
      </trkpt>
      <trkpt lat="43.93385" lon="1.91655">
        <ele>156.24367</ele>
        <time>2014-10-18T12:00:16Z</time>
      </trkpt>
      <trkpt lat="43.9338" lon="1.91659">
        <ele>155.92903</ele>
        <time>2014-10-18T12:00:21Z</time>
      </trkpt>
      <trkpt lat="43.93378" lon="1.91667">
        <ele>155.92903</ele>
        <time>2014-10-18T12:00:26Z</time>
      </trkpt>
      <trkpt lat="43.93373" lon="1.91673">
        <ele>155.7768</ele>
        <time>2014-10-18T12:00:31Z</time>
      </trkpt>
      <trkpt lat="43.93371" lon="1.91678">
        <ele>155.7768</ele>
        <time>2014-10-18T12:00:36Z</time>
      </trkpt>
      <trkpt lat="43.93366" lon="1.91677">
        <ele>155.22716</ele>
        <time>2014-10-18T12:00:41Z</time>
      </trkpt>
      <trkpt lat="43.93363" lon="1.91674">
        <ele>155.22716</ele>
        <time>2014-10-18T12:00:46Z</time>
      </trkpt>
      <trkpt lat="43.93363" lon="1.91673">
        <ele>155.22716</ele>
        <time>2014-10-18T12:00:51Z</time>
      </trkpt>
      <trkpt lat="43.93364" lon="1.91673">
        <ele>155.22716</ele>
        <time>2014-10-18T12:00:56Z</time>
      </trkpt>
      <trkpt lat="43.9337" lon="1.91678">
        <ele>155.80898</ele>
        <time>2014-10-18T12:01:01Z</time>
      </trkpt>
      <trkpt lat="43.93375" lon="1.91684">
        <ele>155.80898</ele>
        <time>2014-10-18T12:01:06Z</time>
      </trkpt>
      <trkpt lat="43.93381" lon="1.91688">
        <ele>157.04774</ele>
        <time>2014-10-18T12:01:11Z</time>
      </trkpt>
      <trkpt lat="43.93382" lon="1.91696">
        <ele>157.04774</ele>
        <time>2014-10-18T12:01:16Z</time>
      </trkpt>
      <trkpt lat="43.93381" lon="1.91703">
        <ele>157.56532</ele>
        <time>2014-10-18T12:01:21Z</time>
      </trkpt>
      <trkpt lat="43.9338" lon="1.91706">
        <ele>157.56532</ele>
        <time>2014-10-18T12:01:26Z</time>
      </trkpt>
      <trkpt lat="43.93381" lon="1.91706">
        <ele>157.56532</ele>
        <time>2014-10-18T12:01:31Z</time>
      </trkpt>
      <trkpt lat="43.93382" lon="1.91707">
        <ele>157.56532</ele>
        <time>2014-10-18T12:01:36Z</time>
      </trkpt>
      <trkpt lat="43.93384" lon="1.91714">
        <ele>157.56532</ele>
        <time>2014-10-18T12:01:41Z</time>
      </trkpt>
      <trkpt lat="43.93388" lon="1.9172">
        <ele>157.91705</ele>
        <time>2014-10-18T12:01:46Z</time>
      </trkpt>
      <trkpt lat="43.93395" lon="1.91721">
        <ele>157.91705</ele>
        <time>2014-10-18T12:01:51Z</time>
      </trkpt>
      <trkpt lat="43.934" lon="1.91724">
        <ele>158.41623</ele>
        <time>2014-10-18T12:01:56Z</time>
      </trkpt>
      <trkpt lat="43.93403" lon="1.91729">
        <ele>158.41623</ele>
        <time>2014-10-18T12:02:01Z</time>
      </trkpt>
      <trkpt lat="43.93406" lon="1.91734">
        <ele>159.17982</ele>
        <time>2014-10-18T12:02:06Z</time>
      </trkpt>
      <trkpt lat="43.93406" lon="1.91736">
        <ele>159.17982</ele>
        <time>2014-10-18T12:02:11Z</time>
      </trkpt>
      <trkpt lat="43.93409" lon="1.91741">
        <ele>159.17982</ele>
        <time>2014-10-18T12:02:16Z</time>
      </trkpt>
      <trkpt lat="43.93409" lon="1.91744">
        <ele>159.17982</ele>
        <time>2014-10-18T12:02:21Z</time>
      </trkpt>
      <trkpt lat="43.93407" lon="1.91746">
        <ele>159.75348</ele>
        <time>2014-10-18T12:02:26Z</time>
      </trkpt>
      <trkpt lat="43.93402" lon="1.91742">
        <ele>159.75348</ele>
        <time>2014-10-18T12:02:31Z</time>
      </trkpt>
      <trkpt lat="43.93402" lon="1.91737">
        <ele>159.80328</ele>
        <time>2014-10-18T12:02:36Z</time>
      </trkpt>
      <trkpt lat="43.93402" lon="1.91737">
        <ele>159.80328</ele>
        <time>2014-10-18T12:02:41Z</time>
      </trkpt>
      <trkpt lat="43.93405" lon="1.9174">
        <ele>159.80328</ele>
        <time>2014-10-18T12:02:46Z</time>
      </trkpt>
      <trkpt lat="43.93409" lon="1.91744">
        <ele>159.80328</ele>
        <time>2014-10-18T12:02:51Z</time>
      </trkpt>
      <trkpt lat="43.93416" lon="1.91751">
        <ele>159.77072</ele>
        <time>2014-10-18T12:02:56Z</time>
      </trkpt>
      <trkpt lat="43.93418" lon="1.91759">
        <ele>159.77072</ele>
        <time>2014-10-18T12:03:01Z</time>
      </trkpt>
      <trkpt lat="43.93421" lon="1.91767">
        <ele>159.89221</ele>
        <time>2014-10-18T12:03:06Z</time>
      </trkpt>
      <trkpt lat="43.93424" lon="1.91775">
        <ele>159.89221</ele>
        <time>2014-10-18T12:03:11Z</time>
      </trkpt>
      <trkpt lat="43.93429" lon="1.91784">
        <ele>159.47849</ele>
        <time>2014-10-18T12:03:16Z</time>
      </trkpt>
      <trkpt lat="43.93428" lon="1.91794">
        <ele>159.47849</ele>
        <time>2014-10-18T12:03:21Z</time>
      </trkpt>
      <trkpt lat="43.93425" lon="1.91803">
        <ele>159.47772</ele>
        <time>2014-10-18T12:03:26Z</time>
      </trkpt>
      <trkpt lat="43.93421" lon="1.91811">
        <ele>159.47772</ele>
        <time>2014-10-18T12:03:31Z</time>
      </trkpt>
      <trkpt lat="43.93425" lon="1.91811">
        <ele>160.34935</ele>
        <time>2014-10-18T12:03:36Z</time>
      </trkpt>
      <trkpt lat="43.93426" lon="1.91807">
        <ele>160.34935</ele>
        <time>2014-10-18T12:03:41Z</time>
      </trkpt>
      <trkpt lat="43.93427" lon="1.918">
        <ele>160.34935</ele>
        <time>2014-10-18T12:03:46Z</time>
      </trkpt>
      <trkpt lat="43.93427" lon="1.91794">
        <ele>160.5856</ele>
        <time>2014-10-18T12:03:51Z</time>
      </trkpt>
      <trkpt lat="43.93426" lon="1.91794">
        <ele>160.5856</ele>
        <time>2014-10-18T12:03:56Z</time>
      </trkpt>
      <trkpt lat="43.93423" lon="1.91793">
        <ele>160.5856</ele>
        <time>2014-10-18T12:04:01Z</time>
      </trkpt>
      <trkpt lat="43.93422" lon="1.91793">
        <ele>160.5856</ele>
        <time>2014-10-18T12:04:06Z</time>
      </trkpt>
      <trkpt lat="43.93422" lon="1.91791">
        <ele>160.5856</ele>
        <time>2014-10-18T12:04:11Z</time>
      </trkpt>
      <trkpt lat="43.93421" lon="1.91787">
        <ele>160.57825</ele>
        <time>2014-10-18T12:04:16Z</time>
      </trkpt>
      <trkpt lat="43.93425" lon="1.91783">
        <ele>160.57825</ele>
        <time>2014-10-18T12:04:21Z</time>
      </trkpt>
      <trkpt lat="43.93429" lon="1.91782">
        <ele>160.57825</ele>
        <time>2014-10-18T12:04:26Z</time>
      </trkpt>
      <trkpt lat="43.9343" lon="1.91781">
        <ele>161.15213</ele>
        <time>2014-10-18T12:04:31Z</time>
      </trkpt>
      <trkpt lat="43.9343" lon="1.91782">
        <ele>161.15213</ele>
        <time>2014-10-18T12:04:36Z</time>
      </trkpt>
      <trkpt lat="43.93431" lon="1.91781">
        <ele>161.15213</ele>
        <time>2014-10-18T12:04:41Z</time>
      </trkpt>
      <trkpt lat="43.93434" lon="1.91783">
        <ele>161.15213</ele>
        <time>2014-10-18T12:04:46Z</time>
      </trkpt>
      <trkpt lat="43.93436" lon="1.91784">
        <ele>161.15213</ele>
        <time>2014-10-18T12:04:51Z</time>
      </trkpt>
      <trkpt lat="43.93435" lon="1.91785">
        <ele>161.15213</ele>
        <time>2014-10-18T12:04:56Z</time>
      </trkpt>
      <trkpt lat="43.93435" lon="1.91785">
        <ele>161.15213</ele>
        <time>2014-10-18T12:05:01Z</time>
      </trkpt>
      <trkpt lat="43.93435" lon="1.91785">
        <ele>161.15213</ele>
        <time>2014-10-18T12:05:06Z</time>
      </trkpt>
      <trkpt lat="43.93435" lon="1.91785">
        <ele>161.15213</ele>
        <time>2014-10-18T12:05:11Z</time>
      </trkpt>
      <trkpt lat="43.93435" lon="1.91785">
        <ele>161.15213</ele>
        <time>2014-10-18T12:05:16Z</time>
      </trkpt>
      <trkpt lat="43.93435" lon="1.91785">
        <ele>161.15213</ele>
        <time>2014-10-18T12:05:21Z</time>
      </trkpt>
      <trkpt lat="43.93435" lon="1.91785">
        <ele>161.15213</ele>
        <time>2014-10-18T12:05:26Z</time>
      </trkpt>
      <trkpt lat="43.93437" lon="1.91784">
        <ele>161.15213</ele>
        <time>2014-10-18T12:05:31Z</time>
      </trkpt>
      <trkpt lat="43.93445" lon="1.91783">
        <ele>161.49915</ele>
        <time>2014-10-18T12:05:36Z</time>
      </trkpt>
      <trkpt lat="43.9345" lon="1.91782">
        <ele>161.49915</ele>
        <time>2014-10-18T12:05:41Z</time>
      </trkpt>
      <trkpt lat="43.93454" lon="1.91776">
        <ele>161.79349</ele>
        <time>2014-10-18T12:05:46Z</time>
      </trkpt>
      <trkpt lat="43.93457" lon="1.91774">
        <ele>161.79349</ele>
        <time>2014-10-18T12:05:51Z</time>
      </trkpt>
      <trkpt lat="43.93459" lon="1.9177">
        <ele>161.79349</ele>
        <time>2014-10-18T12:05:56Z</time>
      </trkpt>
      <trkpt lat="43.93465" lon="1.91767">
        <ele>161.66357</ele>
        <time>2014-10-18T12:06:01Z</time>
      </trkpt>
      <trkpt lat="43.9347" lon="1.9176">
        <ele>161.66357</ele>
        <time>2014-10-18T12:06:06Z</time>
      </trkpt>
      <trkpt lat="43.93481" lon="1.9176">
        <ele>161.22745</ele>
        <time>2014-10-18T12:06:11Z</time>
      </trkpt>
      <trkpt lat="43.93488" lon="1.91757">
        <ele>161.22745</ele>
        <time>2014-10-18T12:06:16Z</time>
      </trkpt>
      <trkpt lat="43.93493" lon="1.91755">
        <ele>161.09982</ele>
        <time>2014-10-18T12:06:21Z</time>
      </trkpt>
      <trkpt lat="43.93494" lon="1.91756">
        <ele>161.09982</ele>
        <time>2014-10-18T12:06:26Z</time>
      </trkpt>
      <trkpt lat="43.93495" lon="1.91756">
        <ele>161.09982</ele>
        <time>2014-10-18T12:06:31Z</time>
      </trkpt>
      <trkpt lat="43.93499" lon="1.91759">
        <ele>161.09982</ele>
        <time>2014-10-18T12:06:36Z</time>
      </trkpt>
      <trkpt lat="43.93505" lon="1.91764">
        <ele>161.53232</ele>
        <time>2014-10-18T12:06:41Z</time>
      </trkpt>
      <trkpt lat="43.93508" lon="1.91769">
        <ele>161.53232</ele>
        <time>2014-10-18T12:06:46Z</time>
      </trkpt>
      <trkpt lat="43.93509" lon="1.91769">
        <ele>161.53232</ele>
        <time>2014-10-18T12:06:51Z</time>
      </trkpt>
      <trkpt lat="43.93514" lon="1.91774">
        <ele>161.69016</ele>
        <time>2014-10-18T12:06:56Z</time>
      </trkpt>
      <trkpt lat="43.93521" lon="1.91778">
        <ele>161.69016</ele>
        <time>2014-10-18T12:07:01Z</time>
      </trkpt>
      <trkpt lat="43.93527" lon="1.91783">
        <ele>162.22731</ele>
        <time>2014-10-18T12:07:06Z</time>
      </trkpt>
      <trkpt lat="43.93528" lon="1.9179">
        <ele>162.22731</ele>
        <time>2014-10-18T12:07:11Z</time>
      </trkpt>
      <trkpt lat="43.93532" lon="1.91795">
        <ele>162.59586</ele>
        <time>2014-10-18T12:07:16Z</time>
      </trkpt>
      <trkpt lat="43.93536" lon="1.918">
        <ele>162.59586</ele>
        <time>2014-10-18T12:07:21Z</time>
      </trkpt>
      <trkpt lat="43.93539" lon="1.91808">
        <ele>162.36063</ele>
        <time>2014-10-18T12:07:26Z</time>
      </trkpt>
      <trkpt lat="43.93542" lon="1.91814">
        <ele>162.36063</ele>
        <time>2014-10-18T12:07:31Z</time>
      </trkpt>
      <trkpt lat="43.93546" lon="1.9182">
        <ele>162.0857</ele>
        <time>2014-10-18T12:07:36Z</time>
      </trkpt>
      <trkpt lat="43.93548" lon="1.91825">
        <ele>162.0857</ele>
        <time>2014-10-18T12:07:41Z</time>
      </trkpt>
      <trkpt lat="43.93553" lon="1.9183">
        <ele>161.80385</ele>
        <time>2014-10-18T12:07:46Z</time>
      </trkpt>
      <trkpt lat="43.93557" lon="1.91836">
        <ele>161.80385</ele>
        <time>2014-10-18T12:07:51Z</time>
      </trkpt>
      <trkpt lat="43.93561" lon="1.9184">
        <ele>161.83372</ele>
        <time>2014-10-18T12:07:56Z</time>
      </trkpt>
      <trkpt lat="43.93565" lon="1.91844">
        <ele>161.83372</ele>
        <time>2014-10-18T12:08:01Z</time>
      </trkpt>
      <trkpt lat="43.9357" lon="1.9185">
        <ele>161.85004</ele>
        <time>2014-10-18T12:08:06Z</time>
      </trkpt>
      <trkpt lat="43.93573" lon="1.91856">
        <ele>161.85004</ele>
        <time>2014-10-18T12:08:11Z</time>
      </trkpt>
      <trkpt lat="43.93574" lon="1.91863">
        <ele>161.43614</ele>
        <time>2014-10-18T12:08:16Z</time>
      </trkpt>
      <trkpt lat="43.93576" lon="1.91868">
        <ele>161.43614</ele>
        <time>2014-10-18T12:08:21Z</time>
      </trkpt>
      <trkpt lat="43.93579" lon="1.91874">
        <ele>160.82686</ele>
        <time>2014-10-18T12:08:26Z</time>
      </trkpt>
      <trkpt lat="43.93584" lon="1.91882">
        <ele>160.82686</ele>
        <time>2014-10-18T12:08:31Z</time>
      </trkpt>
      <trkpt lat="43.93587" lon="1.91888">
        <ele>160.71593</ele>
        <time>2014-10-18T12:08:36Z</time>
      </trkpt>
      <trkpt lat="43.93589" lon="1.91896">
        <ele>160.71593</ele>
        <time>2014-10-18T12:08:41Z</time>
      </trkpt>
      <trkpt lat="43.93589" lon="1.91904">
        <ele>160.76476</ele>
        <time>2014-10-18T12:08:46Z</time>
      </trkpt>
      <trkpt lat="43.93592" lon="1.9191">
        <ele>160.76476</ele>
        <time>2014-10-18T12:08:51Z</time>
      </trkpt>
      <trkpt lat="43.93595" lon="1.91917">
        <ele>161.27882</ele>
        <time>2014-10-18T12:08:56Z</time>
      </trkpt>
      <trkpt lat="43.93597" lon="1.91923">
        <ele>161.27882</ele>
        <time>2014-10-18T12:09:01Z</time>
      </trkpt>
      <trkpt lat="43.93598" lon="1.9193">
        <ele>160.9835</ele>
        <time>2014-10-18T12:09:06Z</time>
      </trkpt>
      <trkpt lat="43.93601" lon="1.91935">
        <ele>160.9835</ele>
        <time>2014-10-18T12:09:11Z</time>
      </trkpt>
      <trkpt lat="43.93604" lon="1.9194">
        <ele>160.63112</ele>
        <time>2014-10-18T12:09:16Z</time>
      </trkpt>
      <trkpt lat="43.93606" lon="1.91947">
        <ele>160.63112</ele>
        <time>2014-10-18T12:09:21Z</time>
      </trkpt>
      <trkpt lat="43.93607" lon="1.9195">
        <ele>160.63112</ele>
        <time>2014-10-18T12:09:26Z</time>
      </trkpt>
      <trkpt lat="43.9361" lon="1.91954">
        <ele>159.9822</ele>
        <time>2014-10-18T12:09:31Z</time>
      </trkpt>
      <trkpt lat="43.93611" lon="1.9196">
        <ele>159.9822</ele>
        <time>2014-10-18T12:09:36Z</time>
      </trkpt>
      <trkpt lat="43.93613" lon="1.91965">
        <ele>159.9822</ele>
        <time>2014-10-18T12:09:41Z</time>
      </trkpt>
      <trkpt lat="43.93617" lon="1.91966">
        <ele>159.70914</ele>
        <time>2014-10-18T12:09:46Z</time>
      </trkpt>
      <trkpt lat="43.93618" lon="1.91966">
        <ele>159.70914</ele>
        <time>2014-10-18T12:09:51Z</time>
      </trkpt>
      <trkpt lat="43.93619" lon="1.91967">
        <ele>159.70914</ele>
        <time>2014-10-18T12:09:56Z</time>
      </trkpt>
      <trkpt lat="43.93622" lon="1.91965">
        <ele>159.70914</ele>
        <time>2014-10-18T12:10:01Z</time>
      </trkpt>
      <trkpt lat="43.93625" lon="1.91964">
        <ele>159.70914</ele>
        <time>2014-10-18T12:10:06Z</time>
      </trkpt>
      <trkpt lat="43.93627" lon="1.91964">
        <ele>159.97273</ele>
        <time>2014-10-18T12:10:11Z</time>
      </trkpt>
      <trkpt lat="43.93636" lon="1.91963">
        <ele>159.97273</ele>
        <time>2014-10-18T12:10:16Z</time>
      </trkpt>
      <trkpt lat="43.93645" lon="1.91964">
        <ele>160.589</ele>
        <time>2014-10-18T12:10:21Z</time>
      </trkpt>
      <trkpt lat="43.93651" lon="1.91965">
        <ele>160.589</ele>
        <time>2014-10-18T12:10:26Z</time>
      </trkpt>
      <trkpt lat="43.93658" lon="1.9197">
        <ele>160.69473</ele>
        <time>2014-10-18T12:10:31Z</time>
      </trkpt>
      <trkpt lat="43.93666" lon="1.91974">
        <ele>160.69473</ele>
        <time>2014-10-18T12:10:36Z</time>
      </trkpt>
      <trkpt lat="43.93673" lon="1.91974">
        <ele>161.09117</ele>
        <time>2014-10-18T12:10:41Z</time>
      </trkpt>
      <trkpt lat="43.93677" lon="1.91974">
        <ele>161.09117</ele>
        <time>2014-10-18T12:10:46Z</time>
      </trkpt>
      <trkpt lat="43.93681" lon="1.91976">
        <ele>161.09117</ele>
        <time>2014-10-18T12:10:51Z</time>
      </trkpt>
      <trkpt lat="43.93683" lon="1.91977">
        <ele>161.74173</ele>
        <time>2014-10-18T12:10:56Z</time>
      </trkpt>
      <trkpt lat="43.93688" lon="1.9198">
        <ele>161.74173</ele>
        <time>2014-10-18T12:11:01Z</time>
      </trkpt>
      <trkpt lat="43.93689" lon="1.91981">
        <ele>161.74173</ele>
        <time>2014-10-18T12:11:06Z</time>
      </trkpt>
      <trkpt lat="43.93693" lon="1.9198">
        <ele>162.35233</ele>
        <time>2014-10-18T12:11:11Z</time>
      </trkpt>
      <trkpt lat="43.93696" lon="1.91979">
        <ele>162.35233</ele>
        <time>2014-10-18T12:11:16Z</time>
      </trkpt>
      <trkpt lat="43.93698" lon="1.91985">
        <ele>162.35233</ele>
        <time>2014-10-18T12:11:21Z</time>
      </trkpt>
      <trkpt lat="43.93709" lon="1.91989">
        <ele>162.57857</ele>
        <time>2014-10-18T12:11:26Z</time>
      </trkpt>
      <trkpt lat="43.93715" lon="1.91993">
        <ele>162.57857</ele>
        <time>2014-10-18T12:11:31Z</time>
      </trkpt>
      <trkpt lat="43.93717" lon="1.91993">
        <ele>162.57857</ele>
        <time>2014-10-18T12:11:36Z</time>
      </trkpt>
      <trkpt lat="43.93721" lon="1.91994">
        <ele>162.63568</ele>
        <time>2014-10-18T12:11:41Z</time>
      </trkpt>
      <trkpt lat="43.93729" lon="1.91995">
        <ele>162.63568</ele>
        <time>2014-10-18T12:11:46Z</time>
      </trkpt>
      <trkpt lat="43.93735" lon="1.91995">
        <ele>163.40083</ele>
        <time>2014-10-18T12:11:51Z</time>
      </trkpt>
      <trkpt lat="43.93742" lon="1.91996">
        <ele>163.40083</ele>
        <time>2014-10-18T12:11:56Z</time>
      </trkpt>
      <trkpt lat="43.93747" lon="1.91998">
        <ele>163.66725</ele>
        <time>2014-10-18T12:12:01Z</time>
      </trkpt>
      <trkpt lat="43.93752" lon="1.91999">
        <ele>163.66725</ele>
        <time>2014-10-18T12:12:06Z</time>
      </trkpt>
      <trkpt lat="43.9376" lon="1.91997">
        <ele>164.32138</ele>
        <time>2014-10-18T12:12:11Z</time>
      </trkpt>
      <trkpt lat="43.93763" lon="1.91998">
        <ele>164.32138</ele>
        <time>2014-10-18T12:12:16Z</time>
      </trkpt>
      <trkpt lat="43.93766" lon="1.91998">
        <ele>164.32138</ele>
        <time>2014-10-18T12:12:21Z</time>
      </trkpt>
      <trkpt lat="43.93773" lon="1.91995">
        <ele>164.77113</ele>
        <time>2014-10-18T12:12:26Z</time>
      </trkpt>
      <trkpt lat="43.93778" lon="1.91993">
        <ele>164.77113</ele>
        <time>2014-10-18T12:12:31Z</time>
      </trkpt>
      <trkpt lat="43.93786" lon="1.91997">
        <ele>165.50615</ele>
        <time>2014-10-18T12:12:36Z</time>
      </trkpt>
      <trkpt lat="43.93795" lon="1.91999">
        <ele>165.50615</ele>
        <time>2014-10-18T12:12:41Z</time>
      </trkpt>
      <trkpt lat="43.93801" lon="1.91998">
        <ele>166.28757</ele>
        <time>2014-10-18T12:12:46Z</time>
      </trkpt>
      <trkpt lat="43.93805" lon="1.91994">
        <ele>166.28757</ele>
        <time>2014-10-18T12:12:51Z</time>
      </trkpt>
      <trkpt lat="43.93808" lon="1.91989">
        <ele>167.0669</ele>
        <time>2014-10-18T12:12:56Z</time>
      </trkpt>
      <trkpt lat="43.93815" lon="1.91987">
        <ele>167.0669</ele>
        <time>2014-10-18T12:13:01Z</time>
      </trkpt>
      <trkpt lat="43.93819" lon="1.91984">
        <ele>167.92894</ele>
        <time>2014-10-18T12:13:06Z</time>
      </trkpt>
      <trkpt lat="43.9382" lon="1.91982">
        <ele>167.92894</ele>
        <time>2014-10-18T12:13:11Z</time>
      </trkpt>
      <trkpt lat="43.93825" lon="1.91983">
        <ele>167.92894</ele>
        <time>2014-10-18T12:13:16Z</time>
      </trkpt>
      <trkpt lat="43.93831" lon="1.91982">
        <ele>168.59178</ele>
        <time>2014-10-18T12:13:21Z</time>
      </trkpt>
      <trkpt lat="43.93836" lon="1.91979">
        <ele>168.59178</ele>
        <time>2014-10-18T12:13:26Z</time>
      </trkpt>
      <trkpt lat="43.93841" lon="1.91976">
        <ele>169.11186</ele>
        <time>2014-10-18T12:13:31Z</time>
      </trkpt>
      <trkpt lat="43.93846" lon="1.91973">
        <ele>169.11186</ele>
        <time>2014-10-18T12:13:36Z</time>
      </trkpt>
      <trkpt lat="43.93851" lon="1.91971">
        <ele>170.07513</ele>
        <time>2014-10-18T12:13:41Z</time>
      </trkpt>
      <trkpt lat="43.93858" lon="1.91968">
        <ele>170.07513</ele>
        <time>2014-10-18T12:13:46Z</time>
      </trkpt>
      <trkpt lat="43.93862" lon="1.91965">
        <ele>170.48126</ele>
        <time>2014-10-18T12:13:51Z</time>
      </trkpt>
      <trkpt lat="43.93868" lon="1.91965">
        <ele>170.48126</ele>
        <time>2014-10-18T12:13:56Z</time>
      </trkpt>
      <trkpt lat="43.93873" lon="1.91963">
        <ele>171.14879</ele>
        <time>2014-10-18T12:14:01Z</time>
      </trkpt>
      <trkpt lat="43.93878" lon="1.91962">
        <ele>171.14879</ele>
        <time>2014-10-18T12:14:06Z</time>
      </trkpt>
      <trkpt lat="43.93884" lon="1.91961">
        <ele>172.11484</ele>
        <time>2014-10-18T12:14:11Z</time>
      </trkpt>
      <trkpt lat="43.93889" lon="1.91961">
        <ele>172.11484</ele>
        <time>2014-10-18T12:14:16Z</time>
      </trkpt>
      <trkpt lat="43.93895" lon="1.9196">
        <ele>173.08159</ele>
        <time>2014-10-18T12:14:21Z</time>
      </trkpt>
      <trkpt lat="43.939" lon="1.91959">
        <ele>173.08159</ele>
        <time>2014-10-18T12:14:26Z</time>
      </trkpt>
      <trkpt lat="43.93905" lon="1.91958">
        <ele>173.84518</ele>
        <time>2014-10-18T12:14:31Z</time>
      </trkpt>
      <trkpt lat="43.93908" lon="1.91957">
        <ele>173.84518</ele>
        <time>2014-10-18T12:14:36Z</time>
      </trkpt>
      <trkpt lat="43.93914" lon="1.91956">
        <ele>174.79378</ele>
        <time>2014-10-18T12:14:41Z</time>
      </trkpt>
      <trkpt lat="43.93918" lon="1.91957">
        <ele>174.79378</ele>
        <time>2014-10-18T12:14:46Z</time>
      </trkpt>
      <trkpt lat="43.93918" lon="1.91956">
        <ele>174.79378</ele>
        <time>2014-10-18T12:14:51Z</time>
      </trkpt>
      <trkpt lat="43.93921" lon="1.91955">
        <ele>174.79378</ele>
        <time>2014-10-18T12:14:56Z</time>
      </trkpt>
      <trkpt lat="43.93923" lon="1.91954">
        <ele>175.37865</ele>
        <time>2014-10-18T12:15:01Z</time>
      </trkpt>
      <trkpt lat="43.93935" lon="1.91949">
        <ele>176.51917</ele>
        <time>2014-10-18T12:15:06Z</time>
      </trkpt>
      <trkpt lat="43.93943" lon="1.91946">
        <ele>176.51917</ele>
        <time>2014-10-18T12:15:11Z</time>
      </trkpt>
      <trkpt lat="43.93947" lon="1.91946">
        <ele>177.3075</ele>
        <time>2014-10-18T12:15:16Z</time>
      </trkpt>
      <trkpt lat="43.93953" lon="1.91946">
        <ele>177.3075</ele>
        <time>2014-10-18T12:15:21Z</time>
      </trkpt>
      <trkpt lat="43.9396" lon="1.91944">
        <ele>178.14287</ele>
        <time>2014-10-18T12:15:26Z</time>
      </trkpt>
      <trkpt lat="43.93967" lon="1.91946">
        <ele>178.14287</ele>
        <time>2014-10-18T12:15:31Z</time>
      </trkpt>
      <trkpt lat="43.93975" lon="1.91946">
        <ele>179.12129</ele>
        <time>2014-10-18T12:15:36Z</time>
      </trkpt>
      <trkpt lat="43.93982" lon="1.91948">
        <ele>179.12129</ele>
        <time>2014-10-18T12:15:41Z</time>
      </trkpt>
      <trkpt lat="43.93988" lon="1.91948">
        <ele>179.87024</ele>
        <time>2014-10-18T12:15:46Z</time>
      </trkpt>
      <trkpt lat="43.93995" lon="1.91946">
        <ele>179.87024</ele>
        <time>2014-10-18T12:15:51Z</time>
      </trkpt>
      <trkpt lat="43.94" lon="1.91947">
        <ele>180.59286</ele>
        <time>2014-10-18T12:15:56Z</time>
      </trkpt>
      <trkpt lat="43.94005" lon="1.91948">
        <ele>180.59286</ele>
        <time>2014-10-18T12:16:01Z</time>
      </trkpt>
      <trkpt lat="43.94007" lon="1.9195">
        <ele>180.59286</ele>
        <time>2014-10-18T12:16:06Z</time>
      </trkpt>
      <trkpt lat="43.94004" lon="1.91952">
        <ele>181.0884</ele>
        <time>2014-10-18T12:16:11Z</time>
      </trkpt>
      <trkpt lat="43.94003" lon="1.91952">
        <ele>181.0884</ele>
        <time>2014-10-18T12:16:16Z</time>
      </trkpt>
      <trkpt lat="43.94003" lon="1.91951">
        <ele>181.0884</ele>
        <time>2014-10-18T12:16:21Z</time>
      </trkpt>
      <trkpt lat="43.94003" lon="1.91951">
        <ele>181.0884</ele>
        <time>2014-10-18T12:16:26Z</time>
      </trkpt>
      <trkpt lat="43.94003" lon="1.91952">
        <ele>181.0884</ele>
        <time>2014-10-18T12:16:31Z</time>
      </trkpt>
      <trkpt lat="43.94003" lon="1.91956">
        <ele>181.0884</ele>
        <time>2014-10-18T12:16:36Z</time>
      </trkpt>
      <trkpt lat="43.94004" lon="1.91966">
        <ele>180.94093</ele>
        <time>2014-10-18T12:16:41Z</time>
      </trkpt>
      <trkpt lat="43.94007" lon="1.91976">
        <ele>180.94093</ele>
        <time>2014-10-18T12:16:46Z</time>
      </trkpt>
      <trkpt lat="43.94009" lon="1.91981">
        <ele>180.74696</ele>
        <time>2014-10-18T12:16:51Z</time>
      </trkpt>
      <trkpt lat="43.94014" lon="1.91987">
        <ele>180.74696</ele>
        <time>2014-10-18T12:16:56Z</time>
      </trkpt>
      <trkpt lat="43.94018" lon="1.91992">
        <ele>180.62694</ele>
        <time>2014-10-18T12:17:01Z</time>
      </trkpt>
      <trkpt lat="43.94021" lon="1.91999">
        <ele>180.62694</ele>
        <time>2014-10-18T12:17:06Z</time>
      </trkpt>
      <trkpt lat="43.94024" lon="1.92005">
        <ele>181.11023</ele>
        <time>2014-10-18T12:17:11Z</time>
      </trkpt>
      <trkpt lat="43.94027" lon="1.92012">
        <ele>181.11023</ele>
        <time>2014-10-18T12:17:16Z</time>
      </trkpt>
      <trkpt lat="43.94029" lon="1.92017">
        <ele>181.47514</ele>
        <time>2014-10-18T12:17:21Z</time>
      </trkpt>
      <trkpt lat="43.94034" lon="1.92024">
        <ele>181.47514</ele>
        <time>2014-10-18T12:17:26Z</time>
      </trkpt>
      <trkpt lat="43.94039" lon="1.9203">
        <ele>181.81711</ele>
        <time>2014-10-18T12:17:31Z</time>
      </trkpt>
      <trkpt lat="43.94039" lon="1.92033">
        <ele>181.81711</ele>
        <time>2014-10-18T12:17:36Z</time>
      </trkpt>
      <trkpt lat="43.94041" lon="1.92039">
        <ele>181.81711</ele>
        <time>2014-10-18T12:17:41Z</time>
      </trkpt>
      <trkpt lat="43.94044" lon="1.92047">
        <ele>182.25348</ele>
        <time>2014-10-18T12:17:46Z</time>
      </trkpt>
      <trkpt lat="43.94048" lon="1.92052">
        <ele>182.25348</ele>
        <time>2014-10-18T12:17:51Z</time>
      </trkpt>
      <trkpt lat="43.9405" lon="1.92053">
        <ele>182.25348</ele>
        <time>2014-10-18T12:17:56Z</time>
      </trkpt>
      <trkpt lat="43.94052" lon="1.92057">
        <ele>183.05124</ele>
        <time>2014-10-18T12:18:01Z</time>
      </trkpt>
      <trkpt lat="43.94057" lon="1.92063">
        <ele>183.05124</ele>
        <time>2014-10-18T12:18:06Z</time>
      </trkpt>
      <trkpt lat="43.94062" lon="1.9207">
        <ele>183.93799</ele>
        <time>2014-10-18T12:18:11Z</time>
      </trkpt>
      <trkpt lat="43.94068" lon="1.92077">
        <ele>183.93799</ele>
        <time>2014-10-18T12:18:16Z</time>
      </trkpt>
      <trkpt lat="43.94074" lon="1.92084">
        <ele>184.97813</ele>
        <time>2014-10-18T12:18:21Z</time>
      </trkpt>
      <trkpt lat="43.94079" lon="1.92089">
        <ele>184.97813</ele>
        <time>2014-10-18T12:18:26Z</time>
      </trkpt>
      <trkpt lat="43.94084" lon="1.92095">
        <ele>186.1733</ele>
        <time>2014-10-18T12:18:31Z</time>
      </trkpt>
      <trkpt lat="43.94088" lon="1.92099">
        <ele>186.1733</ele>
        <time>2014-10-18T12:18:36Z</time>
      </trkpt>
      <trkpt lat="43.94092" lon="1.92103">
        <ele>187.49574</ele>
        <time>2014-10-18T12:18:41Z</time>
      </trkpt>
      <trkpt lat="43.94095" lon="1.92107">
        <ele>187.49574</ele>
        <time>2014-10-18T12:18:46Z</time>
      </trkpt>
      <trkpt lat="43.94101" lon="1.9211">
        <ele>189.26534</ele>
        <time>2014-10-18T12:18:51Z</time>
      </trkpt>
      <trkpt lat="43.94105" lon="1.92113">
        <ele>189.26534</ele>
        <time>2014-10-18T12:18:56Z</time>
      </trkpt>
      <trkpt lat="43.94108" lon="1.92117">
        <ele>189.26534</ele>
        <time>2014-10-18T12:19:01Z</time>
      </trkpt>
      <trkpt lat="43.94112" lon="1.9212">
        <ele>191.0278</ele>
        <time>2014-10-18T12:19:06Z</time>
      </trkpt>
      <trkpt lat="43.94118" lon="1.92125">
        <ele>191.0278</ele>
        <time>2014-10-18T12:19:11Z</time>
      </trkpt>
      <trkpt lat="43.94122" lon="1.92128">
        <ele>192.62173</ele>
        <time>2014-10-18T12:19:16Z</time>
      </trkpt>
      <trkpt lat="43.94123" lon="1.92131">
        <ele>192.62173</ele>
        <time>2014-10-18T12:19:21Z</time>
      </trkpt>
      <trkpt lat="43.94128" lon="1.92137">
        <ele>193.99896</ele>
        <time>2014-10-18T12:19:26Z</time>
      </trkpt>
      <trkpt lat="43.94133" lon="1.92143">
        <ele>193.99896</ele>
        <time>2014-10-18T12:19:31Z</time>
      </trkpt>
      <trkpt lat="43.94136" lon="1.92148">
        <ele>195.69196</ele>
        <time>2014-10-18T12:19:36Z</time>
      </trkpt>
      <trkpt lat="43.94139" lon="1.92152">
        <ele>195.69196</ele>
        <time>2014-10-18T12:19:41Z</time>
      </trkpt>
      <trkpt lat="43.94142" lon="1.92157">
        <ele>195.69196</ele>
        <time>2014-10-18T12:19:46Z</time>
      </trkpt>
      <trkpt lat="43.94147" lon="1.9216">
        <ele>196.92505</ele>
        <time>2014-10-18T12:19:51Z</time>
      </trkpt>
      <trkpt lat="43.94154" lon="1.92161">
        <ele>196.92505</ele>
        <time>2014-10-18T12:19:56Z</time>
      </trkpt>
      <trkpt lat="43.94161" lon="1.92162">
        <ele>198.75351</ele>
        <time>2014-10-18T12:20:01Z</time>
      </trkpt>
      <trkpt lat="43.94164" lon="1.92165">
        <ele>198.75351</ele>
        <time>2014-10-18T12:20:06Z</time>
      </trkpt>
      <trkpt lat="43.94167" lon="1.92167">
        <ele>198.75351</ele>
        <time>2014-10-18T12:20:11Z</time>
      </trkpt>
      <trkpt lat="43.94173" lon="1.92169">
        <ele>200.66911</ele>
        <time>2014-10-18T12:20:16Z</time>
      </trkpt>
      <trkpt lat="43.94178" lon="1.92169">
        <ele>200.66911</ele>
        <time>2014-10-18T12:20:21Z</time>
      </trkpt>
      <trkpt lat="43.94182" lon="1.92165">
        <ele>202.48898</ele>
        <time>2014-10-18T12:20:26Z</time>
      </trkpt>
      <trkpt lat="43.94187" lon="1.92164">
        <ele>202.48898</ele>
        <time>2014-10-18T12:20:31Z</time>
      </trkpt>
      <trkpt lat="43.94193" lon="1.92168">
        <ele>204.95197</ele>
        <time>2014-10-18T12:20:36Z</time>
      </trkpt>
      <trkpt lat="43.94197" lon="1.92173">
        <ele>204.95197</ele>
        <time>2014-10-18T12:20:41Z</time>
      </trkpt>
      <trkpt lat="43.94202" lon="1.92182">
        <ele>207.27094</ele>
        <time>2014-10-18T12:20:46Z</time>
      </trkpt>
      <trkpt lat="43.94211" lon="1.92189">
        <ele>209.71149</ele>
        <time>2014-10-18T12:20:51Z</time>
      </trkpt>
      <trkpt lat="43.94215" lon="1.9219">
        <ele>209.71149</ele>
        <time>2014-10-18T12:20:56Z</time>
      </trkpt>
      <trkpt lat="43.94217" lon="1.92191">
        <ele>209.71149</ele>
        <time>2014-10-18T12:21:01Z</time>
      </trkpt>
      <trkpt lat="43.94217" lon="1.92191">
        <ele>209.71149</ele>
        <time>2014-10-18T12:21:06Z</time>
      </trkpt>
      <trkpt lat="43.94221" lon="1.9219">
        <ele>212.33205</ele>
        <time>2014-10-18T12:21:11Z</time>
      </trkpt>
      <trkpt lat="43.94224" lon="1.92191">
        <ele>212.33205</ele>
        <time>2014-10-18T12:21:16Z</time>
      </trkpt>
      <trkpt lat="43.94228" lon="1.92192">
        <ele>212.33205</ele>
        <time>2014-10-18T12:21:21Z</time>
      </trkpt>
      <trkpt lat="43.94237" lon="1.92193">
        <ele>214.85495</ele>
        <time>2014-10-18T12:21:26Z</time>
      </trkpt>
      <trkpt lat="43.94244" lon="1.92197">
        <ele>214.85495</ele>
        <time>2014-10-18T12:21:31Z</time>
      </trkpt>
      <trkpt lat="43.94252" lon="1.92199">
        <ele>217.21063</ele>
        <time>2014-10-18T12:21:36Z</time>
      </trkpt>
      <trkpt lat="43.94258" lon="1.92201">
        <ele>217.21063</ele>
        <time>2014-10-18T12:21:41Z</time>
      </trkpt>
      <trkpt lat="43.94265" lon="1.92206">
        <ele>219.86841</ele>
        <time>2014-10-18T12:21:46Z</time>
      </trkpt>
      <trkpt lat="43.94268" lon="1.92216">
        <ele>219.86841</ele>
        <time>2014-10-18T12:21:51Z</time>
      </trkpt>
      <trkpt lat="43.94267" lon="1.92223">
        <ele>221.92218</ele>
        <time>2014-10-18T12:21:56Z</time>
      </trkpt>
      <trkpt lat="43.94267" lon="1.9223">
        <ele>221.92218</ele>
        <time>2014-10-18T12:22:01Z</time>
      </trkpt>
      <trkpt lat="43.94266" lon="1.92237">
        <ele>223.39888</ele>
        <time>2014-10-18T12:22:06Z</time>
      </trkpt>
      <trkpt lat="43.94262" lon="1.92238">
        <ele>223.39888</ele>
        <time>2014-10-18T12:22:11Z</time>
      </trkpt>
      <trkpt lat="43.94262" lon="1.92237">
        <ele>223.39888</ele>
        <time>2014-10-18T12:22:16Z</time>
      </trkpt>
      <trkpt lat="43.94263" lon="1.92237">
        <ele>223.39888</ele>
        <time>2014-10-18T12:22:21Z</time>
      </trkpt>
      <trkpt lat="43.94263" lon="1.92237">
        <ele>223.39888</ele>
        <time>2014-10-18T12:22:26Z</time>
      </trkpt>
      <trkpt lat="43.94262" lon="1.92236">
        <ele>223.39888</ele>
        <time>2014-10-18T12:22:31Z</time>
      </trkpt>
      <trkpt lat="43.94262" lon="1.92236">
        <ele>223.39888</ele>
        <time>2014-10-18T12:22:36Z</time>
      </trkpt>
      <trkpt lat="43.94261" lon="1.92235">
        <ele>223.39888</ele>
        <time>2014-10-18T12:22:41Z</time>
      </trkpt>
      <trkpt lat="43.94261" lon="1.92235">
        <ele>223.39888</ele>
        <time>2014-10-18T12:22:46Z</time>
      </trkpt>
      <trkpt lat="43.94261" lon="1.92235">
        <ele>223.39888</ele>
        <time>2014-10-18T12:22:51Z</time>
      </trkpt>
      <trkpt lat="43.94261" lon="1.92235">
        <ele>223.39888</ele>
        <time>2014-10-18T12:22:56Z</time>
      </trkpt>
      <trkpt lat="43.94261" lon="1.92235">
        <ele>223.39888</ele>
        <time>2014-10-18T12:23:01Z</time>
      </trkpt>
      <trkpt lat="43.94261" lon="1.92235">
        <ele>223.39888</ele>
        <time>2014-10-18T12:23:06Z</time>
      </trkpt>
      <trkpt lat="43.94261" lon="1.92235">
        <ele>223.39888</ele>
        <time>2014-10-18T12:23:11Z</time>
      </trkpt>
      <trkpt lat="43.94261" lon="1.92235">
        <ele>223.39888</ele>
        <time>2014-10-18T12:23:16Z</time>
      </trkpt>
      <trkpt lat="43.94261" lon="1.92235">
        <ele>223.39888</ele>
        <time>2014-10-18T12:23:21Z</time>
      </trkpt>
      <trkpt lat="43.94261" lon="1.92235">
        <ele>223.39888</ele>
        <time>2014-10-18T12:23:26Z</time>
      </trkpt>
      <trkpt lat="43.94261" lon="1.92235">
        <ele>223.39888</ele>
        <time>2014-10-18T12:23:31Z</time>
      </trkpt>
      <trkpt lat="43.94261" lon="1.92235">
        <ele>223.39888</ele>
        <time>2014-10-18T12:23:36Z</time>
      </trkpt>
      <trkpt lat="43.94261" lon="1.92235">
        <ele>223.39888</ele>
        <time>2014-10-18T12:23:41Z</time>
      </trkpt>
      <trkpt lat="43.94262" lon="1.92236">
        <ele>223.39888</ele>
        <time>2014-10-18T12:23:46Z</time>
      </trkpt>
      <trkpt lat="43.94262" lon="1.92236">
        <ele>223.39888</ele>
        <time>2014-10-18T12:23:51Z</time>
      </trkpt>
      <trkpt lat="43.94262" lon="1.92236">
        <ele>223.39888</ele>
        <time>2014-10-18T12:23:56Z</time>
      </trkpt>
      <trkpt lat="43.94262" lon="1.92236">
        <ele>223.39888</ele>
        <time>2014-10-18T12:24:01Z</time>
      </trkpt>
      <trkpt lat="43.94262" lon="1.92236">
        <ele>223.39888</ele>
        <time>2014-10-18T12:24:06Z</time>
      </trkpt>
      <trkpt lat="43.94262" lon="1.92236">
        <ele>223.39888</ele>
        <time>2014-10-18T12:24:11Z</time>
      </trkpt>
      <trkpt lat="43.94262" lon="1.92236">
        <ele>223.39888</ele>
        <time>2014-10-18T12:24:16Z</time>
      </trkpt>
      <trkpt lat="43.94262" lon="1.92236">
        <ele>223.39888</ele>
        <time>2014-10-18T12:24:21Z</time>
      </trkpt>
      <trkpt lat="43.94262" lon="1.92236">
        <ele>223.39888</ele>
        <time>2014-10-18T12:24:26Z</time>
      </trkpt>
      <trkpt lat="43.94262" lon="1.92236">
        <ele>223.39888</ele>
        <time>2014-10-18T12:24:31Z</time>
      </trkpt>
      <trkpt lat="43.94262" lon="1.92236">
        <ele>223.39888</ele>
        <time>2014-10-18T12:24:36Z</time>
      </trkpt>
      <trkpt lat="43.94262" lon="1.92236">
        <ele>223.39888</ele>
        <time>2014-10-18T12:24:41Z</time>
      </trkpt>
      <trkpt lat="43.94262" lon="1.92236">
        <ele>223.39888</ele>
        <time>2014-10-18T12:24:46Z</time>
      </trkpt>
      <trkpt lat="43.94262" lon="1.92236">
        <ele>223.39888</ele>
        <time>2014-10-18T12:24:51Z</time>
      </trkpt>
      <trkpt lat="43.94262" lon="1.92236">
        <ele>223.39888</ele>
        <time>2014-10-18T12:24:56Z</time>
      </trkpt>
      <trkpt lat="43.94262" lon="1.92236">
        <ele>223.39888</ele>
        <time>2014-10-18T12:25:01Z</time>
      </trkpt>
      <trkpt lat="43.94262" lon="1.92236">
        <ele>223.39888</ele>
        <time>2014-10-18T12:25:06Z</time>
      </trkpt>
      <trkpt lat="43.94262" lon="1.92236">
        <ele>223.39888</ele>
        <time>2014-10-18T12:25:11Z</time>
      </trkpt>
      <trkpt lat="43.94262" lon="1.92236">
        <ele>223.39888</ele>
        <time>2014-10-18T12:25:16Z</time>
      </trkpt>
      <trkpt lat="43.94262" lon="1.92236">
        <ele>223.39888</ele>
        <time>2014-10-18T12:25:21Z</time>
      </trkpt>
      <trkpt lat="43.94262" lon="1.92236">
        <ele>223.39888</ele>
        <time>2014-10-18T12:25:26Z</time>
      </trkpt>
      <trkpt lat="43.94262" lon="1.92236">
        <ele>223.39888</ele>
        <time>2014-10-18T12:25:31Z</time>
      </trkpt>
      <trkpt lat="43.94262" lon="1.92236">
        <ele>223.39888</ele>
        <time>2014-10-18T12:25:36Z</time>
      </trkpt>
      <trkpt lat="43.94262" lon="1.92236">
        <ele>223.39888</ele>
        <time>2014-10-18T12:25:41Z</time>
      </trkpt>
      <trkpt lat="43.94262" lon="1.92236">
        <ele>223.39888</ele>
        <time>2014-10-18T12:25:46Z</time>
      </trkpt>
      <trkpt lat="43.94262" lon="1.92236">
        <ele>223.39888</ele>
        <time>2014-10-18T12:25:51Z</time>
      </trkpt>
      <trkpt lat="43.94262" lon="1.92236">
        <ele>223.39888</ele>
        <time>2014-10-18T12:25:56Z</time>
      </trkpt>
      <trkpt lat="43.94262" lon="1.92236">
        <ele>223.39888</ele>
        <time>2014-10-18T12:26:01Z</time>
      </trkpt>
      <trkpt lat="43.94262" lon="1.92236">
        <ele>223.39888</ele>
        <time>2014-10-18T12:26:06Z</time>
      </trkpt>
      <trkpt lat="43.94262" lon="1.92236">
        <ele>223.39888</ele>
        <time>2014-10-18T12:26:11Z</time>
      </trkpt>
      <trkpt lat="43.94262" lon="1.92236">
        <ele>223.39888</ele>
        <time>2014-10-18T12:26:16Z</time>
      </trkpt>
      <trkpt lat="43.94262" lon="1.92236">
        <ele>223.39888</ele>
        <time>2014-10-18T12:26:21Z</time>
      </trkpt>
      <trkpt lat="43.94262" lon="1.92236">
        <ele>223.39888</ele>
        <time>2014-10-18T12:26:26Z</time>
      </trkpt>
      <trkpt lat="43.94262" lon="1.92236">
        <ele>223.39888</ele>
        <time>2014-10-18T12:26:31Z</time>
      </trkpt>
      <trkpt lat="43.94262" lon="1.92236">
        <ele>223.39888</ele>
        <time>2014-10-18T12:26:36Z</time>
      </trkpt>
      <trkpt lat="43.94262" lon="1.92236">
        <ele>223.39888</ele>
        <time>2014-10-18T12:26:41Z</time>
      </trkpt>
      <trkpt lat="43.94262" lon="1.92236">
        <ele>223.39888</ele>
        <time>2014-10-18T12:26:46Z</time>
      </trkpt>
      <trkpt lat="43.94262" lon="1.92237">
        <ele>223.39888</ele>
        <time>2014-10-18T12:26:51Z</time>
      </trkpt>
      <trkpt lat="43.94262" lon="1.92237">
        <ele>223.39888</ele>
        <time>2014-10-18T12:26:56Z</time>
      </trkpt>
      <trkpt lat="43.94262" lon="1.92237">
        <ele>223.39888</ele>
        <time>2014-10-18T12:27:01Z</time>
      </trkpt>
      <trkpt lat="43.94262" lon="1.92236">
        <ele>223.39888</ele>
        <time>2014-10-18T12:27:06Z</time>
      </trkpt>
      <trkpt lat="43.94262" lon="1.92236">
        <ele>223.39888</ele>
        <time>2014-10-18T12:27:11Z</time>
      </trkpt>
      <trkpt lat="43.94262" lon="1.92236">
        <ele>223.39888</ele>
        <time>2014-10-18T12:27:16Z</time>
      </trkpt>
      <trkpt lat="43.94264" lon="1.92238">
        <ele>225.17546</ele>
        <time>2014-10-18T12:27:21Z</time>
      </trkpt>
      <trkpt lat="43.94266" lon="1.92245">
        <ele>225.17546</ele>
        <time>2014-10-18T12:27:26Z</time>
      </trkpt>
      <trkpt lat="43.94266" lon="1.92252">
        <ele>226.78113</ele>
        <time>2014-10-18T12:27:31Z</time>
      </trkpt>
      <trkpt lat="43.94268" lon="1.92258">
        <ele>226.78113</ele>
        <time>2014-10-18T12:27:36Z</time>
      </trkpt>
      <trkpt lat="43.9427" lon="1.92263">
        <ele>228.27025</ele>
        <time>2014-10-18T12:27:41Z</time>
      </trkpt>
      <trkpt lat="43.94275" lon="1.9227">
        <ele>228.27025</ele>
        <time>2014-10-18T12:27:46Z</time>
      </trkpt>
      <trkpt lat="43.94278" lon="1.92277">
        <ele>229.82336</ele>
        <time>2014-10-18T12:27:51Z</time>
      </trkpt>
      <trkpt lat="43.94281" lon="1.92283">
        <ele>229.82336</ele>
        <time>2014-10-18T12:27:56Z</time>
      </trkpt>
      <trkpt lat="43.94284" lon="1.92288">
        <ele>230.87263</ele>
        <time>2014-10-18T12:28:01Z</time>
      </trkpt>
      <trkpt lat="43.94286" lon="1.92293">
        <ele>230.87263</ele>
        <time>2014-10-18T12:28:06Z</time>
      </trkpt>
      <trkpt lat="43.94288" lon="1.92298">
        <ele>230.87263</ele>
        <time>2014-10-18T12:28:11Z</time>
      </trkpt>
      <trkpt lat="43.94291" lon="1.92305">
        <ele>230.9944</ele>
        <time>2014-10-18T12:28:16Z</time>
      </trkpt>
      <trkpt lat="43.94292" lon="1.92311">
        <ele>230.9944</ele>
        <time>2014-10-18T12:28:21Z</time>
      </trkpt>
      <trkpt lat="43.94294" lon="1.92316">
        <ele>230.9944</ele>
        <time>2014-10-18T12:28:26Z</time>
      </trkpt>
      <trkpt lat="43.94297" lon="1.9232">
        <ele>231.55693</ele>
        <time>2014-10-18T12:28:31Z</time>
      </trkpt>
      <trkpt lat="43.943" lon="1.92325">
        <ele>231.55693</ele>
        <time>2014-10-18T12:28:36Z</time>
      </trkpt>
      <trkpt lat="43.94303" lon="1.92332">
        <ele>232.1263</ele>
        <time>2014-10-18T12:28:41Z</time>
      </trkpt>
      <trkpt lat="43.94308" lon="1.92337">
        <ele>232.1263</ele>
        <time>2014-10-18T12:28:46Z</time>
      </trkpt>
      <trkpt lat="43.94311" lon="1.92344">
        <ele>232.73286</ele>
        <time>2014-10-18T12:28:51Z</time>
      </trkpt>
      <trkpt lat="43.94315" lon="1.9235">
        <ele>232.73286</ele>
        <time>2014-10-18T12:28:56Z</time>
      </trkpt>
      <trkpt lat="43.94321" lon="1.92355">
        <ele>233.17409</ele>
        <time>2014-10-18T12:29:01Z</time>
      </trkpt>
      <trkpt lat="43.94326" lon="1.92359">
        <ele>233.17409</ele>
        <time>2014-10-18T12:29:06Z</time>
      </trkpt>
      <trkpt lat="43.94331" lon="1.92364">
        <ele>233.52225</ele>
        <time>2014-10-18T12:29:11Z</time>
      </trkpt>
      <trkpt lat="43.94334" lon="1.92369">
        <ele>233.52225</ele>
        <time>2014-10-18T12:29:16Z</time>
      </trkpt>
      <trkpt lat="43.9434" lon="1.92374">
        <ele>233.49872</ele>
        <time>2014-10-18T12:29:21Z</time>
      </trkpt>
      <trkpt lat="43.94344" lon="1.92379">
        <ele>233.49872</ele>
        <time>2014-10-18T12:29:26Z</time>
      </trkpt>
      <trkpt lat="43.94351" lon="1.92382">
        <ele>233.03375</ele>
        <time>2014-10-18T12:29:31Z</time>
      </trkpt>
      <trkpt lat="43.94356" lon="1.92387">
        <ele>233.03375</ele>
        <time>2014-10-18T12:29:36Z</time>
      </trkpt>
      <trkpt lat="43.94358" lon="1.92391">
        <ele>232.46748</ele>
        <time>2014-10-18T12:29:41Z</time>
      </trkpt>
      <trkpt lat="43.94357" lon="1.92394">
        <ele>232.46748</ele>
        <time>2014-10-18T12:29:46Z</time>
      </trkpt>
      <trkpt lat="43.94365" lon="1.92399">
        <ele>231.76945</ele>
        <time>2014-10-18T12:29:51Z</time>
      </trkpt>
      <trkpt lat="43.94371" lon="1.92401">
        <ele>231.76945</ele>
        <time>2014-10-18T12:29:56Z</time>
      </trkpt>
      <trkpt lat="43.94378" lon="1.92402">
        <ele>231.22887</ele>
        <time>2014-10-18T12:30:01Z</time>
      </trkpt>
      <trkpt lat="43.94386" lon="1.92405">
        <ele>231.22887</ele>
        <time>2014-10-18T12:30:06Z</time>
      </trkpt>
      <trkpt lat="43.94393" lon="1.92408">
        <ele>230.45024</ele>
        <time>2014-10-18T12:30:11Z</time>
      </trkpt>
      <trkpt lat="43.944" lon="1.92411">
        <ele>230.45024</ele>
        <time>2014-10-18T12:30:16Z</time>
      </trkpt>
      <trkpt lat="43.94406" lon="1.92413">
        <ele>230.03334</ele>
        <time>2014-10-18T12:30:21Z</time>
      </trkpt>
      <trkpt lat="43.94413" lon="1.92415">
        <ele>230.03334</ele>
        <time>2014-10-18T12:30:26Z</time>
      </trkpt>
      <trkpt lat="43.94418" lon="1.92417">
        <ele>230.12927</ele>
        <time>2014-10-18T12:30:31Z</time>
      </trkpt>
      <trkpt lat="43.94424" lon="1.92422">
        <ele>230.12927</ele>
        <time>2014-10-18T12:30:36Z</time>
      </trkpt>
      <trkpt lat="43.94428" lon="1.92427">
        <ele>229.24808</ele>
        <time>2014-10-18T12:30:41Z</time>
      </trkpt>
      <trkpt lat="43.94432" lon="1.9243">
        <ele>229.24808</ele>
        <time>2014-10-18T12:30:46Z</time>
      </trkpt>
      <trkpt lat="43.94436" lon="1.92432">
        <ele>229.24808</ele>
        <time>2014-10-18T12:30:51Z</time>
      </trkpt>
      <trkpt lat="43.94439" lon="1.92436">
        <ele>228.63474</ele>
        <time>2014-10-18T12:30:56Z</time>
      </trkpt>
      <trkpt lat="43.94445" lon="1.92439">
        <ele>228.63474</ele>
        <time>2014-10-18T12:31:01Z</time>
      </trkpt>
      <trkpt lat="43.94447" lon="1.92443">
        <ele>228.57724</ele>
        <time>2014-10-18T12:31:06Z</time>
      </trkpt>
      <trkpt lat="43.9445" lon="1.92446">
        <ele>228.57724</ele>
        <time>2014-10-18T12:31:11Z</time>
      </trkpt>
      <trkpt lat="43.94452" lon="1.92448">
        <ele>228.57724</ele>
        <time>2014-10-18T12:31:16Z</time>
      </trkpt>
      <trkpt lat="43.94449" lon="1.92445">
        <ele>228.59143</ele>
        <time>2014-10-18T12:31:21Z</time>
      </trkpt>
      <trkpt lat="43.94449" lon="1.92447">
        <ele>228.59143</ele>
        <time>2014-10-18T12:31:26Z</time>
      </trkpt>
      <trkpt lat="43.94455" lon="1.92452">
        <ele>228.59143</ele>
        <time>2014-10-18T12:31:31Z</time>
      </trkpt>
      <trkpt lat="43.94461" lon="1.92455">
        <ele>228.776</ele>
        <time>2014-10-18T12:31:36Z</time>
      </trkpt>
      <trkpt lat="43.94467" lon="1.92458">
        <ele>228.776</ele>
        <time>2014-10-18T12:31:41Z</time>
      </trkpt>
      <trkpt lat="43.94472" lon="1.92461">
        <ele>229.25067</ele>
        <time>2014-10-18T12:31:46Z</time>
      </trkpt>
      <trkpt lat="43.94476" lon="1.92465">
        <ele>229.25067</ele>
        <time>2014-10-18T12:31:51Z</time>
      </trkpt>
      <trkpt lat="43.94477" lon="1.92471">
        <ele>229.2463</ele>
        <time>2014-10-18T12:31:56Z</time>
      </trkpt>
      <trkpt lat="43.94479" lon="1.92477">
        <ele>229.2463</ele>
        <time>2014-10-18T12:32:01Z</time>
      </trkpt>
      <trkpt lat="43.94484" lon="1.92485">
        <ele>228.8154</ele>
        <time>2014-10-18T12:32:06Z</time>
      </trkpt>
      <trkpt lat="43.94492" lon="1.92488">
        <ele>228.8154</ele>
        <time>2014-10-18T12:32:11Z</time>
      </trkpt>
      <trkpt lat="43.94496" lon="1.92493">
        <ele>228.6561</ele>
        <time>2014-10-18T12:32:16Z</time>
      </trkpt>
      <trkpt lat="43.945" lon="1.92497">
        <ele>228.6561</ele>
        <time>2014-10-18T12:32:21Z</time>
      </trkpt>
      <trkpt lat="43.94505" lon="1.92498">
        <ele>229.29913</ele>
        <time>2014-10-18T12:32:26Z</time>
      </trkpt>
      <trkpt lat="43.94505" lon="1.92505">
        <ele>229.29913</ele>
        <time>2014-10-18T12:32:31Z</time>
      </trkpt>
      <trkpt lat="43.94507" lon="1.92508">
        <ele>229.29913</ele>
        <time>2014-10-18T12:32:36Z</time>
      </trkpt>
      <trkpt lat="43.94511" lon="1.92513">
        <ele>229.54782</ele>
        <time>2014-10-18T12:32:41Z</time>
      </trkpt>
      <trkpt lat="43.94516" lon="1.92518">
        <ele>229.54782</ele>
        <time>2014-10-18T12:32:46Z</time>
      </trkpt>
      <trkpt lat="43.94521" lon="1.92522">
        <ele>229.7643</ele>
        <time>2014-10-18T12:32:51Z</time>
      </trkpt>
      <trkpt lat="43.94527" lon="1.92526">
        <ele>229.7643</ele>
        <time>2014-10-18T12:32:56Z</time>
      </trkpt>
      <trkpt lat="43.94533" lon="1.92529">
        <ele>229.85176</ele>
        <time>2014-10-18T12:33:01Z</time>
      </trkpt>
      <trkpt lat="43.9454" lon="1.92534">
        <ele>229.85176</ele>
        <time>2014-10-18T12:33:06Z</time>
      </trkpt>
      <trkpt lat="43.94544" lon="1.9254">
        <ele>229.8793</ele>
        <time>2014-10-18T12:33:11Z</time>
      </trkpt>
      <trkpt lat="43.94548" lon="1.92545">
        <ele>229.8793</ele>
        <time>2014-10-18T12:33:16Z</time>
      </trkpt>
      <trkpt lat="43.94553" lon="1.92546">
        <ele>230.25688</ele>
        <time>2014-10-18T12:33:21Z</time>
      </trkpt>
      <trkpt lat="43.94558" lon="1.92549">
        <ele>230.25688</ele>
        <time>2014-10-18T12:33:26Z</time>
      </trkpt>
      <trkpt lat="43.94559" lon="1.9255">
        <ele>230.25688</ele>
        <time>2014-10-18T12:33:31Z</time>
      </trkpt>
      <trkpt lat="43.9456" lon="1.9255">
        <ele>230.25688</ele>
        <time>2014-10-18T12:33:36Z</time>
      </trkpt>
      <trkpt lat="43.94561" lon="1.92551">
        <ele>230.62831</ele>
        <time>2014-10-18T12:33:41Z</time>
      </trkpt>
      <trkpt lat="43.94569" lon="1.92555">
        <ele>230.62831</ele>
        <time>2014-10-18T12:33:46Z</time>
      </trkpt>
      <trkpt lat="43.94576" lon="1.92561">
        <ele>230.44733</ele>
        <time>2014-10-18T12:33:51Z</time>
      </trkpt>
      <trkpt lat="43.94578" lon="1.92562">
        <ele>230.44733</ele>
        <time>2014-10-18T12:33:56Z</time>
      </trkpt>
      <trkpt lat="43.9458" lon="1.92563">
        <ele>230.44733</ele>
        <time>2014-10-18T12:34:01Z</time>
      </trkpt>
      <trkpt lat="43.94581" lon="1.92566">
        <ele>230.44733</ele>
        <time>2014-10-18T12:34:06Z</time>
      </trkpt>
      <trkpt lat="43.94585" lon="1.9257">
        <ele>229.90097</ele>
        <time>2014-10-18T12:34:11Z</time>
      </trkpt>
      <trkpt lat="43.94588" lon="1.92572">
        <ele>229.90097</ele>
        <time>2014-10-18T12:34:16Z</time>
      </trkpt>
      <trkpt lat="43.94595" lon="1.92573">
        <ele>230.02815</ele>
        <time>2014-10-18T12:34:21Z</time>
      </trkpt>
      <trkpt lat="43.94602" lon="1.92572">
        <ele>230.02815</ele>
        <time>2014-10-18T12:34:26Z</time>
      </trkpt>
      <trkpt lat="43.94603" lon="1.9258">
        <ele>229.46931</ele>
        <time>2014-10-18T12:34:31Z</time>
      </trkpt>
      <trkpt lat="43.94603" lon="1.92583">
        <ele>229.46931</ele>
        <time>2014-10-18T12:34:36Z</time>
      </trkpt>
      <trkpt lat="43.94604" lon="1.92584">
        <ele>229.46931</ele>
        <time>2014-10-18T12:34:41Z</time>
      </trkpt>
      <trkpt lat="43.94604" lon="1.92584">
        <ele>229.46931</ele>
        <time>2014-10-18T12:34:46Z</time>
      </trkpt>
      <trkpt lat="43.94604" lon="1.92584">
        <ele>229.46931</ele>
        <time>2014-10-18T12:34:51Z</time>
      </trkpt>
      <trkpt lat="43.94604" lon="1.92584">
        <ele>229.46931</ele>
        <time>2014-10-18T12:34:56Z</time>
      </trkpt>
      <trkpt lat="43.94604" lon="1.92584">
        <ele>229.46931</ele>
        <time>2014-10-18T12:35:01Z</time>
      </trkpt>
      <trkpt lat="43.94604" lon="1.92584">
        <ele>229.46931</ele>
        <time>2014-10-18T12:35:06Z</time>
      </trkpt>
      <trkpt lat="43.94604" lon="1.92584">
        <ele>229.46931</ele>
        <time>2014-10-18T12:35:11Z</time>
      </trkpt>
      <trkpt lat="43.94604" lon="1.92584">
        <ele>229.46931</ele>
        <time>2014-10-18T12:35:16Z</time>
      </trkpt>
      <trkpt lat="43.94604" lon="1.92584">
        <ele>229.46931</ele>
        <time>2014-10-18T12:35:21Z</time>
      </trkpt>
      <trkpt lat="43.94604" lon="1.92584">
        <ele>229.46931</ele>
        <time>2014-10-18T12:35:26Z</time>
      </trkpt>
      <trkpt lat="43.94604" lon="1.92584">
        <ele>229.46931</ele>
        <time>2014-10-18T12:35:31Z</time>
      </trkpt>
      <trkpt lat="43.94604" lon="1.92584">
        <ele>229.46931</ele>
        <time>2014-10-18T12:35:36Z</time>
      </trkpt>
      <trkpt lat="43.94604" lon="1.92584">
        <ele>229.46931</ele>
        <time>2014-10-18T12:35:41Z</time>
      </trkpt>
      <trkpt lat="43.94604" lon="1.92584">
        <ele>229.46931</ele>
        <time>2014-10-18T12:35:46Z</time>
      </trkpt>
      <trkpt lat="43.94604" lon="1.92584">
        <ele>229.46931</ele>
        <time>2014-10-18T12:35:51Z</time>
      </trkpt>
      <trkpt lat="43.94604" lon="1.92584">
        <ele>229.46931</ele>
        <time>2014-10-18T12:35:56Z</time>
      </trkpt>
      <trkpt lat="43.94604" lon="1.92584">
        <ele>229.46931</ele>
        <time>2014-10-18T12:36:01Z</time>
      </trkpt>
      <trkpt lat="43.94604" lon="1.92584">
        <ele>229.46931</ele>
        <time>2014-10-18T12:36:06Z</time>
      </trkpt>
      <trkpt lat="43.94604" lon="1.92584">
        <ele>229.46931</ele>
        <time>2014-10-18T12:36:11Z</time>
      </trkpt>
      <trkpt lat="43.94597" lon="1.9258">
        <ele>229.17152</ele>
        <time>2014-10-18T12:36:16Z</time>
      </trkpt>
      <trkpt lat="43.94589" lon="1.92576">
        <ele>229.17152</ele>
        <time>2014-10-18T12:36:21Z</time>
      </trkpt>
      <trkpt lat="43.94582" lon="1.92572">
        <ele>229.56465</ele>
        <time>2014-10-18T12:36:26Z</time>
      </trkpt>
      <trkpt lat="43.94575" lon="1.92569">
        <ele>229.56465</ele>
        <time>2014-10-18T12:36:31Z</time>
      </trkpt>
      <trkpt lat="43.94571" lon="1.92567">
        <ele>230.74239</ele>
        <time>2014-10-18T12:36:36Z</time>
      </trkpt>
      <trkpt lat="43.94566" lon="1.92567">
        <ele>230.74239</ele>
        <time>2014-10-18T12:36:41Z</time>
      </trkpt>
      <trkpt lat="43.94562" lon="1.92565">
        <ele>230.74239</ele>
        <time>2014-10-18T12:36:46Z</time>
      </trkpt>
      <trkpt lat="43.94559" lon="1.92562">
        <ele>231.63634</ele>
        <time>2014-10-18T12:36:51Z</time>
      </trkpt>
      <trkpt lat="43.94557" lon="1.92556">
        <ele>231.63634</ele>
        <time>2014-10-18T12:36:56Z</time>
      </trkpt>
      <trkpt lat="43.94556" lon="1.92548">
        <ele>231.5888</ele>
        <time>2014-10-18T12:37:01Z</time>
      </trkpt>
      <trkpt lat="43.94558" lon="1.92552">
        <ele>231.5888</ele>
        <time>2014-10-18T12:37:06Z</time>
      </trkpt>
      <trkpt lat="43.94558" lon="1.92554">
        <ele>231.5888</ele>
        <time>2014-10-18T12:37:11Z</time>
      </trkpt>
      <trkpt lat="43.94557" lon="1.92554">
        <ele>231.5888</ele>
        <time>2014-10-18T12:37:16Z</time>
      </trkpt>
      <trkpt lat="43.94558" lon="1.92554">
        <ele>231.5888</ele>
        <time>2014-10-18T12:37:21Z</time>
      </trkpt>
      <trkpt lat="43.94558" lon="1.92554">
        <ele>231.5888</ele>
        <time>2014-10-18T12:37:26Z</time>
      </trkpt>
      <trkpt lat="43.94558" lon="1.92554">
        <ele>231.5888</ele>
        <time>2014-10-18T12:37:31Z</time>
      </trkpt>
      <trkpt lat="43.94558" lon="1.92554">
        <ele>231.5888</ele>
        <time>2014-10-18T12:37:36Z</time>
      </trkpt>
      <trkpt lat="43.94558" lon="1.92549">
        <ele>231.59259</ele>
        <time>2014-10-18T12:37:41Z</time>
      </trkpt>
      <trkpt lat="43.94558" lon="1.92546">
        <ele>231.59259</ele>
        <time>2014-10-18T12:37:46Z</time>
      </trkpt>
      <trkpt lat="43.94558" lon="1.92545">
        <ele>231.59259</ele>
        <time>2014-10-18T12:37:51Z</time>
      </trkpt>
      <trkpt lat="43.94559" lon="1.92546">
        <ele>231.59259</ele>
        <time>2014-10-18T12:37:56Z</time>
      </trkpt>
      <trkpt lat="43.9456" lon="1.92547">
        <ele>231.59259</ele>
        <time>2014-10-18T12:38:01Z</time>
      </trkpt>
      <trkpt lat="43.9456" lon="1.92548">
        <ele>231.59259</ele>
        <time>2014-10-18T12:38:06Z</time>
      </trkpt>
      <trkpt lat="43.94561" lon="1.9255">
        <ele>231.59259</ele>
        <time>2014-10-18T12:38:11Z</time>
      </trkpt>
      <trkpt lat="43.94561" lon="1.9255">
        <ele>231.59259</ele>
        <time>2014-10-18T12:38:16Z</time>
      </trkpt>
      <trkpt lat="43.94562" lon="1.9255">
        <ele>231.59259</ele>
        <time>2014-10-18T12:38:21Z</time>
      </trkpt>
      <trkpt lat="43.94562" lon="1.9255">
        <ele>231.59259</ele>
        <time>2014-10-18T12:38:26Z</time>
      </trkpt>
      <trkpt lat="43.94562" lon="1.9255">
        <ele>231.59259</ele>
        <time>2014-10-18T12:38:31Z</time>
      </trkpt>
      <trkpt lat="43.94562" lon="1.9255">
        <ele>231.59259</ele>
        <time>2014-10-18T12:38:36Z</time>
      </trkpt>
      <trkpt lat="43.94562" lon="1.9255">
        <ele>231.59259</ele>
        <time>2014-10-18T12:38:41Z</time>
      </trkpt>
      <trkpt lat="43.94562" lon="1.9255">
        <ele>231.59259</ele>
        <time>2014-10-18T12:38:46Z</time>
      </trkpt>
      <trkpt lat="43.94562" lon="1.9255">
        <ele>231.59259</ele>
        <time>2014-10-18T12:38:51Z</time>
      </trkpt>
      <trkpt lat="43.94562" lon="1.9255">
        <ele>231.59259</ele>
        <time>2014-10-18T12:38:56Z</time>
      </trkpt>
      <trkpt lat="43.94562" lon="1.9255">
        <ele>231.59259</ele>
        <time>2014-10-18T12:39:01Z</time>
      </trkpt>
      <trkpt lat="43.94562" lon="1.9255">
        <ele>231.59259</ele>
        <time>2014-10-18T12:39:06Z</time>
      </trkpt>
      <trkpt lat="43.94562" lon="1.9255">
        <ele>231.59259</ele>
        <time>2014-10-18T12:39:11Z</time>
      </trkpt>
      <trkpt lat="43.94562" lon="1.9255">
        <ele>231.59259</ele>
        <time>2014-10-18T12:39:16Z</time>
      </trkpt>
      <trkpt lat="43.94562" lon="1.9255">
        <ele>231.59259</ele>
        <time>2014-10-18T12:39:21Z</time>
      </trkpt>
      <trkpt lat="43.94562" lon="1.9255">
        <ele>231.59259</ele>
        <time>2014-10-18T12:39:26Z</time>
      </trkpt>
      <trkpt lat="43.94561" lon="1.92551">
        <ele>231.19829</ele>
        <time>2014-10-18T12:39:31Z</time>
      </trkpt>
      <trkpt lat="43.9456" lon="1.92553">
        <ele>231.19829</ele>
        <time>2014-10-18T12:39:36Z</time>
      </trkpt>
      <trkpt lat="43.9456" lon="1.92552">
        <ele>231.19829</ele>
        <time>2014-10-18T12:39:41Z</time>
      </trkpt>
      <trkpt lat="43.9456" lon="1.92552">
        <ele>231.19829</ele>
        <time>2014-10-18T12:39:46Z</time>
      </trkpt>
      <trkpt lat="43.9456" lon="1.92552">
        <ele>231.19829</ele>
        <time>2014-10-18T12:39:51Z</time>
      </trkpt>
      <trkpt lat="43.9456" lon="1.92552">
        <ele>231.19829</ele>
        <time>2014-10-18T12:39:56Z</time>
      </trkpt>
      <trkpt lat="43.9456" lon="1.92552">
        <ele>231.19829</ele>
        <time>2014-10-18T12:40:01Z</time>
      </trkpt>
      <trkpt lat="43.9456" lon="1.92552">
        <ele>231.19829</ele>
        <time>2014-10-18T12:40:06Z</time>
      </trkpt>
      <trkpt lat="43.9456" lon="1.92552">
        <ele>231.19829</ele>
        <time>2014-10-18T12:40:11Z</time>
      </trkpt>
      <trkpt lat="43.9456" lon="1.92552">
        <ele>231.19829</ele>
        <time>2014-10-18T12:40:16Z</time>
      </trkpt>
      <trkpt lat="43.9456" lon="1.92552">
        <ele>231.19829</ele>
        <time>2014-10-18T12:40:21Z</time>
      </trkpt>
      <trkpt lat="43.9456" lon="1.92552">
        <ele>231.19829</ele>
        <time>2014-10-18T12:40:26Z</time>
      </trkpt>
      <trkpt lat="43.9456" lon="1.92552">
        <ele>231.19829</ele>
        <time>2014-10-18T12:40:31Z</time>
      </trkpt>
      <trkpt lat="43.9456" lon="1.92552">
        <ele>231.19829</ele>
        <time>2014-10-18T12:40:36Z</time>
      </trkpt>
      <trkpt lat="43.9456" lon="1.92552">
        <ele>231.19829</ele>
        <time>2014-10-18T12:40:41Z</time>
      </trkpt>
      <trkpt lat="43.9456" lon="1.92552">
        <ele>231.19829</ele>
        <time>2014-10-18T12:40:46Z</time>
      </trkpt>
      <trkpt lat="43.9456" lon="1.92552">
        <ele>231.19829</ele>
        <time>2014-10-18T12:40:51Z</time>
      </trkpt>
      <trkpt lat="43.9456" lon="1.92552">
        <ele>231.19829</ele>
        <time>2014-10-18T12:40:56Z</time>
      </trkpt>
      <trkpt lat="43.9456" lon="1.92552">
        <ele>231.19829</ele>
        <time>2014-10-18T12:41:01Z</time>
      </trkpt>
      <trkpt lat="43.9456" lon="1.92552">
        <ele>231.19829</ele>
        <time>2014-10-18T12:41:06Z</time>
      </trkpt>
      <trkpt lat="43.9456" lon="1.92552">
        <ele>231.19829</ele>
        <time>2014-10-18T12:41:11Z</time>
      </trkpt>
      <trkpt lat="43.9456" lon="1.92552">
        <ele>231.19829</ele>
        <time>2014-10-18T12:41:16Z</time>
      </trkpt>
      <trkpt lat="43.9456" lon="1.92552">
        <ele>231.19829</ele>
        <time>2014-10-18T12:41:21Z</time>
      </trkpt>
      <trkpt lat="43.9456" lon="1.92552">
        <ele>231.19829</ele>
        <time>2014-10-18T12:41:26Z</time>
      </trkpt>
      <trkpt lat="43.9456" lon="1.92552">
        <ele>231.19829</ele>
        <time>2014-10-18T12:41:31Z</time>
      </trkpt>
      <trkpt lat="43.9456" lon="1.92552">
        <ele>231.19829</ele>
        <time>2014-10-18T12:41:36Z</time>
      </trkpt>
      <trkpt lat="43.9456" lon="1.92552">
        <ele>231.19829</ele>
        <time>2014-10-18T12:41:41Z</time>
      </trkpt>
      <trkpt lat="43.9456" lon="1.92552">
        <ele>231.19829</ele>
        <time>2014-10-18T12:41:46Z</time>
      </trkpt>
      <trkpt lat="43.9456" lon="1.92552">
        <ele>231.19829</ele>
        <time>2014-10-18T12:41:51Z</time>
      </trkpt>
      <trkpt lat="43.9456" lon="1.92552">
        <ele>231.19829</ele>
        <time>2014-10-18T12:41:56Z</time>
      </trkpt>
      <trkpt lat="43.9456" lon="1.92552">
        <ele>231.19829</ele>
        <time>2014-10-18T12:42:01Z</time>
      </trkpt>
      <trkpt lat="43.9456" lon="1.92552">
        <ele>231.19829</ele>
        <time>2014-10-18T12:42:06Z</time>
      </trkpt>
      <trkpt lat="43.9456" lon="1.92552">
        <ele>231.19829</ele>
        <time>2014-10-18T12:42:11Z</time>
      </trkpt>
      <trkpt lat="43.9456" lon="1.92553">
        <ele>231.19829</ele>
        <time>2014-10-18T12:42:16Z</time>
      </trkpt>
      <trkpt lat="43.9456" lon="1.92552">
        <ele>231.19829</ele>
        <time>2014-10-18T12:42:21Z</time>
      </trkpt>
      <trkpt lat="43.94561" lon="1.92553">
        <ele>231.19829</ele>
        <time>2014-10-18T12:42:26Z</time>
      </trkpt>
      <trkpt lat="43.9456" lon="1.92554">
        <ele>231.19829</ele>
        <time>2014-10-18T12:42:31Z</time>
      </trkpt>
      <trkpt lat="43.94559" lon="1.92553">
        <ele>231.19829</ele>
        <time>2014-10-18T12:42:36Z</time>
      </trkpt>
      <trkpt lat="43.94559" lon="1.92553">
        <ele>231.19829</ele>
        <time>2014-10-18T12:42:41Z</time>
      </trkpt>
      <trkpt lat="43.94559" lon="1.92552">
        <ele>231.19829</ele>
        <time>2014-10-18T12:42:46Z</time>
      </trkpt>
      <trkpt lat="43.9456" lon="1.92552">
        <ele>231.19829</ele>
        <time>2014-10-18T12:42:51Z</time>
      </trkpt>
      <trkpt lat="43.94561" lon="1.92554">
        <ele>230.53821</ele>
        <time>2014-10-18T12:42:56Z</time>
      </trkpt>
      <trkpt lat="43.9456" lon="1.92553">
        <ele>230.53821</ele>
        <time>2014-10-18T12:43:01Z</time>
      </trkpt>
      <trkpt lat="43.94561" lon="1.92552">
        <ele>230.53821</ele>
        <time>2014-10-18T12:43:06Z</time>
      </trkpt>
      <trkpt lat="43.94561" lon="1.92552">
        <ele>230.53821</ele>
        <time>2014-10-18T12:43:11Z</time>
      </trkpt>
      <trkpt lat="43.94561" lon="1.92552">
        <ele>230.53821</ele>
        <time>2014-10-18T12:43:16Z</time>
      </trkpt>
      <trkpt lat="43.94559" lon="1.92552">
        <ele>230.53821</ele>
        <time>2014-10-18T12:43:21Z</time>
      </trkpt>
      <trkpt lat="43.94559" lon="1.92551">
        <ele>230.53821</ele>
        <time>2014-10-18T12:43:26Z</time>
      </trkpt>
      <trkpt lat="43.94559" lon="1.9255">
        <ele>230.53821</ele>
        <time>2014-10-18T12:43:31Z</time>
      </trkpt>
      <trkpt lat="43.94558" lon="1.9255">
        <ele>230.53821</ele>
        <time>2014-10-18T12:43:36Z</time>
      </trkpt>
      <trkpt lat="43.94558" lon="1.92551">
        <ele>230.53821</ele>
        <time>2014-10-18T12:43:41Z</time>
      </trkpt>
      <trkpt lat="43.94557" lon="1.9255">
        <ele>230.53821</ele>
        <time>2014-10-18T12:43:46Z</time>
      </trkpt>
      <trkpt lat="43.94557" lon="1.92549">
        <ele>230.53821</ele>
        <time>2014-10-18T12:43:51Z</time>
      </trkpt>
      <trkpt lat="43.94557" lon="1.92549">
        <ele>230.53821</ele>
        <time>2014-10-18T12:43:56Z</time>
      </trkpt>
      <trkpt lat="43.94557" lon="1.92549">
        <ele>230.53821</ele>
        <time>2014-10-18T12:44:01Z</time>
      </trkpt>
      <trkpt lat="43.94557" lon="1.92549">
        <ele>230.53821</ele>
        <time>2014-10-18T12:44:06Z</time>
      </trkpt>
      <trkpt lat="43.94556" lon="1.92549">
        <ele>230.53821</ele>
        <time>2014-10-18T12:44:11Z</time>
      </trkpt>
      <trkpt lat="43.94557" lon="1.92549">
        <ele>230.53821</ele>
        <time>2014-10-18T12:44:16Z</time>
      </trkpt>
      <trkpt lat="43.94557" lon="1.92548">
        <ele>231.4217</ele>
        <time>2014-10-18T12:44:21Z</time>
      </trkpt>
      <trkpt lat="43.94557" lon="1.92548">
        <ele>231.4217</ele>
        <time>2014-10-18T12:44:26Z</time>
      </trkpt>
      <trkpt lat="43.94559" lon="1.92551">
        <ele>231.4217</ele>
        <time>2014-10-18T12:44:31Z</time>
      </trkpt>
      <trkpt lat="43.94562" lon="1.92551">
        <ele>231.4217</ele>
        <time>2014-10-18T12:44:36Z</time>
      </trkpt>
      <trkpt lat="43.94563" lon="1.92552">
        <ele>231.4217</ele>
        <time>2014-10-18T12:44:41Z</time>
      </trkpt>
      <trkpt lat="43.94564" lon="1.92553">
        <ele>231.4217</ele>
        <time>2014-10-18T12:44:46Z</time>
      </trkpt>
      <trkpt lat="43.94563" lon="1.92554">
        <ele>231.61543</ele>
        <time>2014-10-18T12:44:51Z</time>
      </trkpt>
      <trkpt lat="43.94563" lon="1.92556">
        <ele>231.61543</ele>
        <time>2014-10-18T12:44:56Z</time>
      </trkpt>
      <trkpt lat="43.94562" lon="1.92555">
        <ele>231.61543</ele>
        <time>2014-10-18T12:45:01Z</time>
      </trkpt>
      <trkpt lat="43.94562" lon="1.92556">
        <ele>231.61543</ele>
        <time>2014-10-18T12:45:06Z</time>
      </trkpt>
      <trkpt lat="43.94563" lon="1.92556">
        <ele>231.61543</ele>
        <time>2014-10-18T12:45:11Z</time>
      </trkpt>
      <trkpt lat="43.94563" lon="1.92556">
        <ele>231.61543</ele>
        <time>2014-10-18T12:45:16Z</time>
      </trkpt>
      <trkpt lat="43.94562" lon="1.92556">
        <ele>231.61543</ele>
        <time>2014-10-18T12:45:21Z</time>
      </trkpt>
      <trkpt lat="43.94562" lon="1.92557">
        <ele>231.61543</ele>
        <time>2014-10-18T12:45:26Z</time>
      </trkpt>
      <trkpt lat="43.94562" lon="1.92556">
        <ele>231.61543</ele>
        <time>2014-10-18T12:45:31Z</time>
      </trkpt>
      <trkpt lat="43.94562" lon="1.92556">
        <ele>231.61543</ele>
        <time>2014-10-18T12:45:36Z</time>
      </trkpt>
      <trkpt lat="43.94562" lon="1.92556">
        <ele>231.61543</ele>
        <time>2014-10-18T12:45:41Z</time>
      </trkpt>
      <trkpt lat="43.94562" lon="1.92556">
        <ele>231.61543</ele>
        <time>2014-10-18T12:45:46Z</time>
      </trkpt>
      <trkpt lat="43.94562" lon="1.92556">
        <ele>231.61543</ele>
        <time>2014-10-18T12:45:51Z</time>
      </trkpt>
      <trkpt lat="43.94562" lon="1.92556">
        <ele>231.61543</ele>
        <time>2014-10-18T12:45:56Z</time>
      </trkpt>
      <trkpt lat="43.94562" lon="1.92556">
        <ele>231.61543</ele>
        <time>2014-10-18T12:46:01Z</time>
      </trkpt>
      <trkpt lat="43.94562" lon="1.92556">
        <ele>231.61543</ele>
        <time>2014-10-18T12:46:06Z</time>
      </trkpt>
      <trkpt lat="43.94562" lon="1.92556">
        <ele>231.61543</ele>
        <time>2014-10-18T12:46:11Z</time>
      </trkpt>
      <trkpt lat="43.94562" lon="1.92556">
        <ele>231.61543</ele>
        <time>2014-10-18T12:46:16Z</time>
      </trkpt>
      <trkpt lat="43.94562" lon="1.92556">
        <ele>231.61543</ele>
        <time>2014-10-18T12:46:21Z</time>
      </trkpt>
      <trkpt lat="43.94562" lon="1.92556">
        <ele>231.61543</ele>
        <time>2014-10-18T12:46:26Z</time>
      </trkpt>
      <trkpt lat="43.94562" lon="1.92556">
        <ele>231.61543</ele>
        <time>2014-10-18T12:46:31Z</time>
      </trkpt>
      <trkpt lat="43.94562" lon="1.92556">
        <ele>231.61543</ele>
        <time>2014-10-18T12:46:36Z</time>
      </trkpt>
      <trkpt lat="43.94562" lon="1.92556">
        <ele>231.61543</ele>
        <time>2014-10-18T12:46:41Z</time>
      </trkpt>
      <trkpt lat="43.94562" lon="1.92556">
        <ele>231.61543</ele>
        <time>2014-10-18T12:46:46Z</time>
      </trkpt>
      <trkpt lat="43.94562" lon="1.92556">
        <ele>231.61543</ele>
        <time>2014-10-18T12:46:51Z</time>
      </trkpt>
      <trkpt lat="43.94562" lon="1.92556">
        <ele>231.61543</ele>
        <time>2014-10-18T12:46:56Z</time>
      </trkpt>
      <trkpt lat="43.94562" lon="1.92556">
        <ele>231.61543</ele>
        <time>2014-10-18T12:47:01Z</time>
      </trkpt>
      <trkpt lat="43.94562" lon="1.92556">
        <ele>231.61543</ele>
        <time>2014-10-18T12:47:06Z</time>
      </trkpt>
      <trkpt lat="43.94562" lon="1.92556">
        <ele>231.61543</ele>
        <time>2014-10-18T12:47:11Z</time>
      </trkpt>
      <trkpt lat="43.94562" lon="1.92556">
        <ele>231.61543</ele>
        <time>2014-10-18T12:47:16Z</time>
      </trkpt>
      <trkpt lat="43.94562" lon="1.92556">
        <ele>231.61543</ele>
        <time>2014-10-18T12:47:21Z</time>
      </trkpt>
      <trkpt lat="43.94562" lon="1.92556">
        <ele>231.61543</ele>
        <time>2014-10-18T12:47:26Z</time>
      </trkpt>
      <trkpt lat="43.94562" lon="1.92556">
        <ele>231.61543</ele>
        <time>2014-10-18T12:47:31Z</time>
      </trkpt>
      <trkpt lat="43.94562" lon="1.92556">
        <ele>231.61543</ele>
        <time>2014-10-18T12:47:36Z</time>
      </trkpt>
      <trkpt lat="43.94562" lon="1.92556">
        <ele>231.61543</ele>
        <time>2014-10-18T12:47:41Z</time>
      </trkpt>
      <trkpt lat="43.94562" lon="1.92556">
        <ele>231.61543</ele>
        <time>2014-10-18T12:47:46Z</time>
      </trkpt>
      <trkpt lat="43.94562" lon="1.92556">
        <ele>231.61543</ele>
        <time>2014-10-18T12:47:51Z</time>
      </trkpt>
      <trkpt lat="43.94562" lon="1.92556">
        <ele>231.61543</ele>
        <time>2014-10-18T12:47:56Z</time>
      </trkpt>
      <trkpt lat="43.94562" lon="1.92556">
        <ele>231.61543</ele>
        <time>2014-10-18T12:48:01Z</time>
      </trkpt>
      <trkpt lat="43.94562" lon="1.92556">
        <ele>231.61543</ele>
        <time>2014-10-18T12:48:06Z</time>
      </trkpt>
      <trkpt lat="43.94562" lon="1.92556">
        <ele>231.61543</ele>
        <time>2014-10-18T12:48:11Z</time>
      </trkpt>
      <trkpt lat="43.94562" lon="1.92556">
        <ele>231.61543</ele>
        <time>2014-10-18T12:48:16Z</time>
      </trkpt>
      <trkpt lat="43.94562" lon="1.92556">
        <ele>231.61543</ele>
        <time>2014-10-18T12:48:21Z</time>
      </trkpt>
      <trkpt lat="43.94562" lon="1.92556">
        <ele>231.61543</ele>
        <time>2014-10-18T12:48:26Z</time>
      </trkpt>
      <trkpt lat="43.94562" lon="1.92556">
        <ele>231.61543</ele>
        <time>2014-10-18T12:48:31Z</time>
      </trkpt>
      <trkpt lat="43.94562" lon="1.92556">
        <ele>231.61543</ele>
        <time>2014-10-18T12:48:36Z</time>
      </trkpt>
      <trkpt lat="43.94562" lon="1.92556">
        <ele>231.61543</ele>
        <time>2014-10-18T12:48:41Z</time>
      </trkpt>
      <trkpt lat="43.94562" lon="1.92556">
        <ele>231.61543</ele>
        <time>2014-10-18T12:48:46Z</time>
      </trkpt>
      <trkpt lat="43.94562" lon="1.92556">
        <ele>231.61543</ele>
        <time>2014-10-18T12:48:51Z</time>
      </trkpt>
      <trkpt lat="43.94562" lon="1.92556">
        <ele>231.61543</ele>
        <time>2014-10-18T12:48:56Z</time>
      </trkpt>
      <trkpt lat="43.94562" lon="1.92556">
        <ele>231.61543</ele>
        <time>2014-10-18T12:49:01Z</time>
      </trkpt>
      <trkpt lat="43.94562" lon="1.92556">
        <ele>231.61543</ele>
        <time>2014-10-18T12:49:06Z</time>
      </trkpt>
      <trkpt lat="43.94561" lon="1.92556">
        <ele>231.61543</ele>
        <time>2014-10-18T12:49:11Z</time>
      </trkpt>
      <trkpt lat="43.94561" lon="1.92556">
        <ele>231.61543</ele>
        <time>2014-10-18T12:49:16Z</time>
      </trkpt>
      <trkpt lat="43.94561" lon="1.92556">
        <ele>231.61543</ele>
        <time>2014-10-18T12:49:21Z</time>
      </trkpt>
      <trkpt lat="43.94561" lon="1.92556">
        <ele>231.61543</ele>
        <time>2014-10-18T12:49:26Z</time>
      </trkpt>
      <trkpt lat="43.94561" lon="1.92556">
        <ele>231.61543</ele>
        <time>2014-10-18T12:49:31Z</time>
      </trkpt>
      <trkpt lat="43.94561" lon="1.92556">
        <ele>231.61543</ele>
        <time>2014-10-18T12:49:36Z</time>
      </trkpt>
      <trkpt lat="43.94561" lon="1.92556">
        <ele>231.61543</ele>
        <time>2014-10-18T12:49:41Z</time>
      </trkpt>
      <trkpt lat="43.94561" lon="1.92556">
        <ele>231.61543</ele>
        <time>2014-10-18T12:49:46Z</time>
      </trkpt>
      <trkpt lat="43.94561" lon="1.92556">
        <ele>231.61543</ele>
        <time>2014-10-18T12:49:51Z</time>
      </trkpt>
      <trkpt lat="43.94561" lon="1.92556">
        <ele>231.61543</ele>
        <time>2014-10-18T12:49:56Z</time>
      </trkpt>
      <trkpt lat="43.94561" lon="1.92556">
        <ele>231.61543</ele>
        <time>2014-10-18T12:50:01Z</time>
      </trkpt>
      <trkpt lat="43.94561" lon="1.92556">
        <ele>231.61543</ele>
        <time>2014-10-18T12:50:06Z</time>
      </trkpt>
      <trkpt lat="43.94561" lon="1.92556">
        <ele>231.61543</ele>
        <time>2014-10-18T12:50:11Z</time>
      </trkpt>
      <trkpt lat="43.94561" lon="1.92556">
        <ele>231.61543</ele>
        <time>2014-10-18T12:50:16Z</time>
      </trkpt>
      <trkpt lat="43.94561" lon="1.92556">
        <ele>231.61543</ele>
        <time>2014-10-18T12:50:21Z</time>
      </trkpt>
      <trkpt lat="43.94561" lon="1.92556">
        <ele>231.61543</ele>
        <time>2014-10-18T12:50:26Z</time>
      </trkpt>
      <trkpt lat="43.94561" lon="1.92556">
        <ele>231.61543</ele>
        <time>2014-10-18T12:50:31Z</time>
      </trkpt>
      <trkpt lat="43.94561" lon="1.92556">
        <ele>231.61543</ele>
        <time>2014-10-18T12:50:36Z</time>
      </trkpt>
      <trkpt lat="43.94561" lon="1.92556">
        <ele>231.61543</ele>
        <time>2014-10-18T12:50:41Z</time>
      </trkpt>
      <trkpt lat="43.94561" lon="1.92556">
        <ele>231.61543</ele>
        <time>2014-10-18T12:50:46Z</time>
      </trkpt>
      <trkpt lat="43.94561" lon="1.92556">
        <ele>231.61543</ele>
        <time>2014-10-18T12:50:51Z</time>
      </trkpt>
      <trkpt lat="43.94561" lon="1.92556">
        <ele>231.61543</ele>
        <time>2014-10-18T12:50:56Z</time>
      </trkpt>
      <trkpt lat="43.94561" lon="1.92556">
        <ele>231.61543</ele>
        <time>2014-10-18T12:51:01Z</time>
      </trkpt>
      <trkpt lat="43.94561" lon="1.92556">
        <ele>231.61543</ele>
        <time>2014-10-18T12:51:06Z</time>
      </trkpt>
      <trkpt lat="43.94561" lon="1.92556">
        <ele>231.61543</ele>
        <time>2014-10-18T12:51:11Z</time>
      </trkpt>
      <trkpt lat="43.94561" lon="1.92556">
        <ele>231.61543</ele>
        <time>2014-10-18T12:51:16Z</time>
      </trkpt>
      <trkpt lat="43.94561" lon="1.92556">
        <ele>231.61543</ele>
        <time>2014-10-18T12:51:21Z</time>
      </trkpt>
      <trkpt lat="43.94561" lon="1.92556">
        <ele>231.61543</ele>
        <time>2014-10-18T12:51:26Z</time>
      </trkpt>
      <trkpt lat="43.94561" lon="1.92556">
        <ele>231.61543</ele>
        <time>2014-10-18T12:51:31Z</time>
      </trkpt>
      <trkpt lat="43.94561" lon="1.92556">
        <ele>231.61543</ele>
        <time>2014-10-18T12:51:36Z</time>
      </trkpt>
      <trkpt lat="43.94561" lon="1.92556">
        <ele>231.61543</ele>
        <time>2014-10-18T12:51:41Z</time>
      </trkpt>
      <trkpt lat="43.94561" lon="1.92556">
        <ele>231.61543</ele>
        <time>2014-10-18T12:51:46Z</time>
      </trkpt>
      <trkpt lat="43.94561" lon="1.92556">
        <ele>231.61543</ele>
        <time>2014-10-18T12:51:51Z</time>
      </trkpt>
      <trkpt lat="43.94561" lon="1.92556">
        <ele>231.61543</ele>
        <time>2014-10-18T12:51:56Z</time>
      </trkpt>
      <trkpt lat="43.94561" lon="1.92556">
        <ele>231.61543</ele>
        <time>2014-10-18T12:52:01Z</time>
      </trkpt>
      <trkpt lat="43.94561" lon="1.92556">
        <ele>231.61543</ele>
        <time>2014-10-18T12:52:06Z</time>
      </trkpt>
      <trkpt lat="43.94561" lon="1.92556">
        <ele>231.61543</ele>
        <time>2014-10-18T12:52:11Z</time>
      </trkpt>
      <trkpt lat="43.94561" lon="1.92556">
        <ele>231.61543</ele>
        <time>2014-10-18T12:52:16Z</time>
      </trkpt>
      <trkpt lat="43.94561" lon="1.92556">
        <ele>231.61543</ele>
        <time>2014-10-18T12:52:21Z</time>
      </trkpt>
      <trkpt lat="43.94561" lon="1.92556">
        <ele>231.61543</ele>
        <time>2014-10-18T12:52:26Z</time>
      </trkpt>
      <trkpt lat="43.94561" lon="1.92556">
        <ele>231.61543</ele>
        <time>2014-10-18T12:52:31Z</time>
      </trkpt>
      <trkpt lat="43.94561" lon="1.92556">
        <ele>231.61543</ele>
        <time>2014-10-18T12:52:36Z</time>
      </trkpt>
      <trkpt lat="43.94561" lon="1.92556">
        <ele>231.61543</ele>
        <time>2014-10-18T12:52:41Z</time>
      </trkpt>
      <trkpt lat="43.94561" lon="1.92556">
        <ele>231.61543</ele>
        <time>2014-10-18T12:52:46Z</time>
      </trkpt>
      <trkpt lat="43.94561" lon="1.92556">
        <ele>231.61543</ele>
        <time>2014-10-18T12:52:51Z</time>
      </trkpt>
      <trkpt lat="43.94561" lon="1.92556">
        <ele>231.61543</ele>
        <time>2014-10-18T12:52:56Z</time>
      </trkpt>
      <trkpt lat="43.94561" lon="1.92555">
        <ele>231.61543</ele>
        <time>2014-10-18T12:53:01Z</time>
      </trkpt>
      <trkpt lat="43.94561" lon="1.92555">
        <ele>231.61543</ele>
        <time>2014-10-18T12:53:06Z</time>
      </trkpt>
      <trkpt lat="43.94561" lon="1.92555">
        <ele>231.61543</ele>
        <time>2014-10-18T12:53:11Z</time>
      </trkpt>
      <trkpt lat="43.94561" lon="1.92555">
        <ele>231.61543</ele>
        <time>2014-10-18T12:53:16Z</time>
      </trkpt>
      <trkpt lat="43.94561" lon="1.92555">
        <ele>231.61543</ele>
        <time>2014-10-18T12:53:21Z</time>
      </trkpt>
      <trkpt lat="43.94561" lon="1.92555">
        <ele>231.61543</ele>
        <time>2014-10-18T12:53:26Z</time>
      </trkpt>
      <trkpt lat="43.94561" lon="1.92555">
        <ele>231.61543</ele>
        <time>2014-10-18T12:53:31Z</time>
      </trkpt>
      <trkpt lat="43.94561" lon="1.92555">
        <ele>231.61543</ele>
        <time>2014-10-18T12:53:36Z</time>
      </trkpt>
      <trkpt lat="43.94561" lon="1.92555">
        <ele>231.61543</ele>
        <time>2014-10-18T12:53:41Z</time>
      </trkpt>
      <trkpt lat="43.94561" lon="1.92555">
        <ele>231.61543</ele>
        <time>2014-10-18T12:53:46Z</time>
      </trkpt>
      <trkpt lat="43.94561" lon="1.92555">
        <ele>231.61543</ele>
        <time>2014-10-18T12:53:51Z</time>
      </trkpt>
      <trkpt lat="43.94561" lon="1.92555">
        <ele>231.61543</ele>
        <time>2014-10-18T12:53:56Z</time>
      </trkpt>
      <trkpt lat="43.94561" lon="1.92555">
        <ele>231.61543</ele>
        <time>2014-10-18T12:54:01Z</time>
      </trkpt>
      <trkpt lat="43.94561" lon="1.92555">
        <ele>231.61543</ele>
        <time>2014-10-18T12:54:06Z</time>
      </trkpt>
      <trkpt lat="43.94561" lon="1.92555">
        <ele>231.61543</ele>
        <time>2014-10-18T12:54:11Z</time>
      </trkpt>
      <trkpt lat="43.94561" lon="1.92555">
        <ele>231.61543</ele>
        <time>2014-10-18T12:54:16Z</time>
      </trkpt>
      <trkpt lat="43.94561" lon="1.92555">
        <ele>231.61543</ele>
        <time>2014-10-18T12:54:21Z</time>
      </trkpt>
      <trkpt lat="43.94561" lon="1.92555">
        <ele>231.61543</ele>
        <time>2014-10-18T12:54:26Z</time>
      </trkpt>
      <trkpt lat="43.94561" lon="1.92555">
        <ele>231.61543</ele>
        <time>2014-10-18T12:54:31Z</time>
      </trkpt>
      <trkpt lat="43.94561" lon="1.92555">
        <ele>231.61543</ele>
        <time>2014-10-18T12:54:36Z</time>
      </trkpt>
      <trkpt lat="43.94561" lon="1.92555">
        <ele>231.61543</ele>
        <time>2014-10-18T12:54:41Z</time>
      </trkpt>
      <trkpt lat="43.94561" lon="1.92555">
        <ele>231.61543</ele>
        <time>2014-10-18T12:54:46Z</time>
      </trkpt>
      <trkpt lat="43.94561" lon="1.92555">
        <ele>231.61543</ele>
        <time>2014-10-18T12:54:51Z</time>
      </trkpt>
      <trkpt lat="43.94561" lon="1.92555">
        <ele>231.61543</ele>
        <time>2014-10-18T12:54:56Z</time>
      </trkpt>
      <trkpt lat="43.94561" lon="1.92555">
        <ele>231.61543</ele>
        <time>2014-10-18T12:55:01Z</time>
      </trkpt>
      <trkpt lat="43.94561" lon="1.92555">
        <ele>231.61543</ele>
        <time>2014-10-18T12:55:06Z</time>
      </trkpt>
      <trkpt lat="43.94561" lon="1.92555">
        <ele>231.61543</ele>
        <time>2014-10-18T12:55:11Z</time>
      </trkpt>
      <trkpt lat="43.94561" lon="1.92555">
        <ele>231.61543</ele>
        <time>2014-10-18T12:55:16Z</time>
      </trkpt>
      <trkpt lat="43.94561" lon="1.92555">
        <ele>231.61543</ele>
        <time>2014-10-18T12:55:21Z</time>
      </trkpt>
      <trkpt lat="43.94561" lon="1.92555">
        <ele>231.61543</ele>
        <time>2014-10-18T12:55:26Z</time>
      </trkpt>
      <trkpt lat="43.94561" lon="1.92555">
        <ele>231.61543</ele>
        <time>2014-10-18T12:55:31Z</time>
      </trkpt>
      <trkpt lat="43.94561" lon="1.92555">
        <ele>231.61543</ele>
        <time>2014-10-18T12:55:36Z</time>
      </trkpt>
      <trkpt lat="43.94561" lon="1.92555">
        <ele>231.61543</ele>
        <time>2014-10-18T12:55:41Z</time>
      </trkpt>
      <trkpt lat="43.94561" lon="1.92555">
        <ele>231.61543</ele>
        <time>2014-10-18T12:55:46Z</time>
      </trkpt>
      <trkpt lat="43.94561" lon="1.92555">
        <ele>231.61543</ele>
        <time>2014-10-18T12:55:51Z</time>
      </trkpt>
      <trkpt lat="43.94561" lon="1.92555">
        <ele>231.61543</ele>
        <time>2014-10-18T12:55:56Z</time>
      </trkpt>
      <trkpt lat="43.94561" lon="1.92555">
        <ele>231.61543</ele>
        <time>2014-10-18T12:56:01Z</time>
      </trkpt>
      <trkpt lat="43.94561" lon="1.92555">
        <ele>231.61543</ele>
        <time>2014-10-18T12:56:06Z</time>
      </trkpt>
      <trkpt lat="43.94561" lon="1.92555">
        <ele>231.61543</ele>
        <time>2014-10-18T12:56:11Z</time>
      </trkpt>
      <trkpt lat="43.94561" lon="1.92555">
        <ele>231.61543</ele>
        <time>2014-10-18T12:56:16Z</time>
      </trkpt>
      <trkpt lat="43.94561" lon="1.92555">
        <ele>231.61543</ele>
        <time>2014-10-18T12:56:21Z</time>
      </trkpt>
      <trkpt lat="43.94561" lon="1.92555">
        <ele>231.61543</ele>
        <time>2014-10-18T12:56:26Z</time>
      </trkpt>
      <trkpt lat="43.94561" lon="1.92555">
        <ele>231.61543</ele>
        <time>2014-10-18T12:56:31Z</time>
      </trkpt>
      <trkpt lat="43.94561" lon="1.92555">
        <ele>231.61543</ele>
        <time>2014-10-18T12:56:36Z</time>
      </trkpt>
      <trkpt lat="43.94561" lon="1.92555">
        <ele>231.61543</ele>
        <time>2014-10-18T12:56:41Z</time>
      </trkpt>
      <trkpt lat="43.94561" lon="1.92555">
        <ele>231.61543</ele>
        <time>2014-10-18T12:56:46Z</time>
      </trkpt>
      <trkpt lat="43.94561" lon="1.92555">
        <ele>231.61543</ele>
        <time>2014-10-18T12:56:51Z</time>
      </trkpt>
      <trkpt lat="43.94561" lon="1.92555">
        <ele>231.61543</ele>
        <time>2014-10-18T12:56:56Z</time>
      </trkpt>
      <trkpt lat="43.94561" lon="1.92555">
        <ele>231.61543</ele>
        <time>2014-10-18T12:57:01Z</time>
      </trkpt>
      <trkpt lat="43.94561" lon="1.92555">
        <ele>231.61543</ele>
        <time>2014-10-18T12:57:06Z</time>
      </trkpt>
      <trkpt lat="43.94561" lon="1.92555">
        <ele>231.61543</ele>
        <time>2014-10-18T12:57:11Z</time>
      </trkpt>
      <trkpt lat="43.94561" lon="1.92555">
        <ele>231.61543</ele>
        <time>2014-10-18T12:57:16Z</time>
      </trkpt>
      <trkpt lat="43.94561" lon="1.92555">
        <ele>231.61543</ele>
        <time>2014-10-18T12:57:21Z</time>
      </trkpt>
      <trkpt lat="43.94561" lon="1.92555">
        <ele>231.61543</ele>
        <time>2014-10-18T12:57:26Z</time>
      </trkpt>
      <trkpt lat="43.94561" lon="1.92555">
        <ele>231.61543</ele>
        <time>2014-10-18T12:57:31Z</time>
      </trkpt>
      <trkpt lat="43.94561" lon="1.92555">
        <ele>231.61543</ele>
        <time>2014-10-18T12:57:36Z</time>
      </trkpt>
      <trkpt lat="43.94561" lon="1.92555">
        <ele>231.61543</ele>
        <time>2014-10-18T12:57:41Z</time>
      </trkpt>
      <trkpt lat="43.94561" lon="1.92555">
        <ele>231.61543</ele>
        <time>2014-10-18T12:57:46Z</time>
      </trkpt>
      <trkpt lat="43.94561" lon="1.92555">
        <ele>231.61543</ele>
        <time>2014-10-18T12:57:51Z</time>
      </trkpt>
      <trkpt lat="43.94561" lon="1.92555">
        <ele>231.61543</ele>
        <time>2014-10-18T12:57:56Z</time>
      </trkpt>
      <trkpt lat="43.94561" lon="1.92555">
        <ele>231.61543</ele>
        <time>2014-10-18T12:58:01Z</time>
      </trkpt>
      <trkpt lat="43.94561" lon="1.92555">
        <ele>231.61543</ele>
        <time>2014-10-18T12:58:06Z</time>
      </trkpt>
      <trkpt lat="43.94561" lon="1.92555">
        <ele>231.61543</ele>
        <time>2014-10-18T12:58:11Z</time>
      </trkpt>
      <trkpt lat="43.94561" lon="1.92555">
        <ele>231.61543</ele>
        <time>2014-10-18T12:58:21Z</time>
      </trkpt>
      <trkpt lat="43.94561" lon="1.92555">
        <ele>231.61543</ele>
        <time>2014-10-18T12:58:26Z</time>
      </trkpt>
      <trkpt lat="43.94561" lon="1.92555">
        <ele>231.61543</ele>
        <time>2014-10-18T12:58:31Z</time>
      </trkpt>
      <trkpt lat="43.94561" lon="1.92555">
        <ele>231.61543</ele>
        <time>2014-10-18T12:58:36Z</time>
      </trkpt>
      <trkpt lat="43.94561" lon="1.92555">
        <ele>231.61543</ele>
        <time>2014-10-18T12:58:41Z</time>
      </trkpt>
      <trkpt lat="43.94561" lon="1.92555">
        <ele>231.61543</ele>
        <time>2014-10-18T12:58:46Z</time>
      </trkpt>
      <trkpt lat="43.94561" lon="1.92555">
        <ele>231.61543</ele>
        <time>2014-10-18T12:58:51Z</time>
      </trkpt>
      <trkpt lat="43.94561" lon="1.92555">
        <ele>231.61543</ele>
        <time>2014-10-18T12:58:56Z</time>
      </trkpt>
      <trkpt lat="43.94561" lon="1.92555">
        <ele>231.61543</ele>
        <time>2014-10-18T12:59:01Z</time>
      </trkpt>
      <trkpt lat="43.94561" lon="1.92555">
        <ele>231.61543</ele>
        <time>2014-10-18T12:59:06Z</time>
      </trkpt>
      <trkpt lat="43.94561" lon="1.92555">
        <ele>231.61543</ele>
        <time>2014-10-18T12:59:11Z</time>
      </trkpt>
      <trkpt lat="43.94561" lon="1.92555">
        <ele>231.61543</ele>
        <time>2014-10-18T12:59:16Z</time>
      </trkpt>
      <trkpt lat="43.94561" lon="1.92555">
        <ele>231.61543</ele>
        <time>2014-10-18T12:59:21Z</time>
      </trkpt>
      <trkpt lat="43.94561" lon="1.92555">
        <ele>231.61543</ele>
        <time>2014-10-18T12:59:26Z</time>
      </trkpt>
      <trkpt lat="43.94561" lon="1.92555">
        <ele>231.61543</ele>
        <time>2014-10-18T12:59:31Z</time>
      </trkpt>
      <trkpt lat="43.94561" lon="1.92555">
        <ele>231.61543</ele>
        <time>2014-10-18T12:59:36Z</time>
      </trkpt>
      <trkpt lat="43.94561" lon="1.92555">
        <ele>231.61543</ele>
        <time>2014-10-18T12:59:41Z</time>
      </trkpt>
      <trkpt lat="43.94561" lon="1.92555">
        <ele>231.61543</ele>
        <time>2014-10-18T12:59:46Z</time>
      </trkpt>
      <trkpt lat="43.94561" lon="1.92555">
        <ele>231.61543</ele>
        <time>2014-10-18T12:59:51Z</time>
      </trkpt>
      <trkpt lat="43.94561" lon="1.92555">
        <ele>231.61543</ele>
        <time>2014-10-18T12:59:56Z</time>
      </trkpt>
      <trkpt lat="43.94561" lon="1.92555">
        <ele>231.61543</ele>
        <time>2014-10-18T13:00:01Z</time>
      </trkpt>
      <trkpt lat="43.94561" lon="1.92555">
        <ele>231.61543</ele>
        <time>2014-10-18T13:00:06Z</time>
      </trkpt>
      <trkpt lat="43.94561" lon="1.92555">
        <ele>231.61543</ele>
        <time>2014-10-18T13:00:11Z</time>
      </trkpt>
      <trkpt lat="43.94561" lon="1.92555">
        <ele>231.61543</ele>
        <time>2014-10-18T13:00:16Z</time>
      </trkpt>
      <trkpt lat="43.94561" lon="1.92555">
        <ele>231.61543</ele>
        <time>2014-10-18T13:00:21Z</time>
      </trkpt>
      <trkpt lat="43.94561" lon="1.92555">
        <ele>231.61543</ele>
        <time>2014-10-18T13:00:26Z</time>
      </trkpt>
      <trkpt lat="43.94561" lon="1.92555">
        <ele>231.61543</ele>
        <time>2014-10-18T13:00:31Z</time>
      </trkpt>
      <trkpt lat="43.94561" lon="1.92555">
        <ele>231.61543</ele>
        <time>2014-10-18T13:00:36Z</time>
      </trkpt>
      <trkpt lat="43.94561" lon="1.92555">
        <ele>231.61543</ele>
        <time>2014-10-18T13:00:41Z</time>
      </trkpt>
      <trkpt lat="43.94561" lon="1.92555">
        <ele>231.61543</ele>
        <time>2014-10-18T13:00:46Z</time>
      </trkpt>
      <trkpt lat="43.94561" lon="1.92555">
        <ele>231.61543</ele>
        <time>2014-10-18T13:00:51Z</time>
      </trkpt>
      <trkpt lat="43.94561" lon="1.92555">
        <ele>231.61543</ele>
        <time>2014-10-18T13:00:56Z</time>
      </trkpt>
      <trkpt lat="43.94561" lon="1.92555">
        <ele>231.61543</ele>
        <time>2014-10-18T13:01:01Z</time>
      </trkpt>
      <trkpt lat="43.94561" lon="1.92555">
        <ele>231.61543</ele>
        <time>2014-10-18T13:01:06Z</time>
      </trkpt>
      <trkpt lat="43.94561" lon="1.92555">
        <ele>231.61543</ele>
        <time>2014-10-18T13:01:11Z</time>
      </trkpt>
      <trkpt lat="43.94561" lon="1.92555">
        <ele>231.61543</ele>
        <time>2014-10-18T13:01:16Z</time>
      </trkpt>
      <trkpt lat="43.94561" lon="1.92555">
        <ele>231.61543</ele>
        <time>2014-10-18T13:01:21Z</time>
      </trkpt>
      <trkpt lat="43.94561" lon="1.92555">
        <ele>231.61543</ele>
        <time>2014-10-18T13:01:26Z</time>
      </trkpt>
      <trkpt lat="43.94561" lon="1.92555">
        <ele>231.61543</ele>
        <time>2014-10-18T13:01:31Z</time>
      </trkpt>
      <trkpt lat="43.94561" lon="1.92555">
        <ele>231.61543</ele>
        <time>2014-10-18T13:01:36Z</time>
      </trkpt>
      <trkpt lat="43.9456" lon="1.92555">
        <ele>231.61543</ele>
        <time>2014-10-18T13:01:41Z</time>
      </trkpt>
      <trkpt lat="43.94561" lon="1.92556">
        <ele>231.61543</ele>
        <time>2014-10-18T13:01:46Z</time>
      </trkpt>
      <trkpt lat="43.94561" lon="1.92554">
        <ele>231.31453</ele>
        <time>2014-10-18T13:01:51Z</time>
      </trkpt>
      <trkpt lat="43.94561" lon="1.92553">
        <ele>231.31453</ele>
        <time>2014-10-18T13:01:56Z</time>
      </trkpt>
      <trkpt lat="43.9456" lon="1.92552">
        <ele>231.31453</ele>
        <time>2014-10-18T13:02:01Z</time>
      </trkpt>
      <trkpt lat="43.9456" lon="1.92552">
        <ele>231.31453</ele>
        <time>2014-10-18T13:02:06Z</time>
      </trkpt>
      <trkpt lat="43.9456" lon="1.92552">
        <ele>231.31453</ele>
        <time>2014-10-18T13:02:11Z</time>
      </trkpt>
      <trkpt lat="43.9456" lon="1.92552">
        <ele>231.31453</ele>
        <time>2014-10-18T13:02:16Z</time>
      </trkpt>
      <trkpt lat="43.9456" lon="1.92552">
        <ele>231.31453</ele>
        <time>2014-10-18T13:02:21Z</time>
      </trkpt>
      <trkpt lat="43.9456" lon="1.92552">
        <ele>231.31453</ele>
        <time>2014-10-18T13:02:26Z</time>
      </trkpt>
      <trkpt lat="43.9456" lon="1.92552">
        <ele>231.31453</ele>
        <time>2014-10-18T13:02:31Z</time>
      </trkpt>
      <trkpt lat="43.9456" lon="1.92552">
        <ele>231.31453</ele>
        <time>2014-10-18T13:02:36Z</time>
      </trkpt>
      <trkpt lat="43.9456" lon="1.92552">
        <ele>231.31453</ele>
        <time>2014-10-18T13:02:41Z</time>
      </trkpt>
      <trkpt lat="43.9456" lon="1.92552">
        <ele>231.31453</ele>
        <time>2014-10-18T13:02:46Z</time>
      </trkpt>
      <trkpt lat="43.9456" lon="1.92552">
        <ele>231.31453</ele>
        <time>2014-10-18T13:02:51Z</time>
      </trkpt>
      <trkpt lat="43.9456" lon="1.92552">
        <ele>231.31453</ele>
        <time>2014-10-18T13:02:56Z</time>
      </trkpt>
      <trkpt lat="43.9456" lon="1.92552">
        <ele>231.31453</ele>
        <time>2014-10-18T13:03:01Z</time>
      </trkpt>
      <trkpt lat="43.9456" lon="1.92552">
        <ele>231.31453</ele>
        <time>2014-10-18T13:03:06Z</time>
      </trkpt>
      <trkpt lat="43.9456" lon="1.92552">
        <ele>231.31453</ele>
        <time>2014-10-18T13:03:11Z</time>
      </trkpt>
      <trkpt lat="43.9456" lon="1.92552">
        <ele>231.31453</ele>
        <time>2014-10-18T13:03:16Z</time>
      </trkpt>
      <trkpt lat="43.9456" lon="1.92552">
        <ele>231.31453</ele>
        <time>2014-10-18T13:03:21Z</time>
      </trkpt>
      <trkpt lat="43.9456" lon="1.92552">
        <ele>231.31453</ele>
        <time>2014-10-18T13:03:26Z</time>
      </trkpt>
      <trkpt lat="43.9456" lon="1.92552">
        <ele>231.31453</ele>
        <time>2014-10-18T13:03:31Z</time>
      </trkpt>
      <trkpt lat="43.9456" lon="1.92552">
        <ele>231.31453</ele>
        <time>2014-10-18T13:03:36Z</time>
      </trkpt>
      <trkpt lat="43.9456" lon="1.92552">
        <ele>231.31453</ele>
        <time>2014-10-18T13:03:41Z</time>
      </trkpt>
      <trkpt lat="43.9456" lon="1.92552">
        <ele>231.31453</ele>
        <time>2014-10-18T13:03:46Z</time>
      </trkpt>
      <trkpt lat="43.9456" lon="1.92552">
        <ele>231.31453</ele>
        <time>2014-10-18T13:03:51Z</time>
      </trkpt>
      <trkpt lat="43.9456" lon="1.92552">
        <ele>231.31453</ele>
        <time>2014-10-18T13:03:56Z</time>
      </trkpt>
      <trkpt lat="43.9456" lon="1.92552">
        <ele>231.31453</ele>
        <time>2014-10-18T13:04:01Z</time>
      </trkpt>
      <trkpt lat="43.9456" lon="1.92552">
        <ele>231.31453</ele>
        <time>2014-10-18T13:04:06Z</time>
      </trkpt>
      <trkpt lat="43.9456" lon="1.92552">
        <ele>231.31453</ele>
        <time>2014-10-18T13:04:11Z</time>
      </trkpt>
      <trkpt lat="43.9456" lon="1.92552">
        <ele>231.31453</ele>
        <time>2014-10-18T13:04:16Z</time>
      </trkpt>
      <trkpt lat="43.9456" lon="1.92552">
        <ele>231.31453</ele>
        <time>2014-10-18T13:04:21Z</time>
      </trkpt>
      <trkpt lat="43.9456" lon="1.92552">
        <ele>231.31453</ele>
        <time>2014-10-18T13:04:26Z</time>
      </trkpt>
      <trkpt lat="43.9456" lon="1.92552">
        <ele>231.31453</ele>
        <time>2014-10-18T13:04:31Z</time>
      </trkpt>
      <trkpt lat="43.9456" lon="1.92552">
        <ele>231.31453</ele>
        <time>2014-10-18T13:04:36Z</time>
      </trkpt>
      <trkpt lat="43.9456" lon="1.92552">
        <ele>231.31453</ele>
        <time>2014-10-18T13:04:41Z</time>
      </trkpt>
      <trkpt lat="43.9456" lon="1.92552">
        <ele>231.31453</ele>
        <time>2014-10-18T13:04:46Z</time>
      </trkpt>
      <trkpt lat="43.9456" lon="1.92552">
        <ele>231.31453</ele>
        <time>2014-10-18T13:04:51Z</time>
      </trkpt>
      <trkpt lat="43.9456" lon="1.92552">
        <ele>231.31453</ele>
        <time>2014-10-18T13:04:56Z</time>
      </trkpt>
      <trkpt lat="43.9456" lon="1.92552">
        <ele>231.31453</ele>
        <time>2014-10-18T13:05:01Z</time>
      </trkpt>
      <trkpt lat="43.9456" lon="1.92552">
        <ele>231.31453</ele>
        <time>2014-10-18T13:05:06Z</time>
      </trkpt>
      <trkpt lat="43.9456" lon="1.92552">
        <ele>231.31453</ele>
        <time>2014-10-18T13:05:11Z</time>
      </trkpt>
      <trkpt lat="43.9456" lon="1.92552">
        <ele>231.31453</ele>
        <time>2014-10-18T13:05:16Z</time>
      </trkpt>
      <trkpt lat="43.9456" lon="1.92552">
        <ele>231.31453</ele>
        <time>2014-10-18T13:05:21Z</time>
      </trkpt>
      <trkpt lat="43.9456" lon="1.92552">
        <ele>231.31453</ele>
        <time>2014-10-18T13:05:26Z</time>
      </trkpt>
      <trkpt lat="43.9456" lon="1.92552">
        <ele>231.31453</ele>
        <time>2014-10-18T13:05:31Z</time>
      </trkpt>
      <trkpt lat="43.9456" lon="1.92552">
        <ele>231.31453</ele>
        <time>2014-10-18T13:05:36Z</time>
      </trkpt>
      <trkpt lat="43.9456" lon="1.92552">
        <ele>231.31453</ele>
        <time>2014-10-18T13:05:41Z</time>
      </trkpt>
      <trkpt lat="43.9456" lon="1.92552">
        <ele>231.31453</ele>
        <time>2014-10-18T13:05:46Z</time>
      </trkpt>
      <trkpt lat="43.94561" lon="1.9255">
        <ele>231.31453</ele>
        <time>2014-10-18T13:05:51Z</time>
      </trkpt>
      <trkpt lat="43.94561" lon="1.9255">
        <ele>231.31453</ele>
        <time>2014-10-18T13:05:56Z</time>
      </trkpt>
      <trkpt lat="43.94561" lon="1.92549">
        <ele>231.31453</ele>
        <time>2014-10-18T13:06:01Z</time>
      </trkpt>
      <trkpt lat="43.94561" lon="1.92549">
        <ele>231.31453</ele>
        <time>2014-10-18T13:06:06Z</time>
      </trkpt>
      <trkpt lat="43.94561" lon="1.92549">
        <ele>231.31453</ele>
        <time>2014-10-18T13:06:11Z</time>
      </trkpt>
      <trkpt lat="43.94561" lon="1.92549">
        <ele>231.31453</ele>
        <time>2014-10-18T13:06:16Z</time>
      </trkpt>
      <trkpt lat="43.94561" lon="1.92549">
        <ele>231.31453</ele>
        <time>2014-10-18T13:06:21Z</time>
      </trkpt>
      <trkpt lat="43.94561" lon="1.92549">
        <ele>231.31453</ele>
        <time>2014-10-18T13:06:26Z</time>
      </trkpt>
      <trkpt lat="43.94561" lon="1.92549">
        <ele>231.31453</ele>
        <time>2014-10-18T13:06:31Z</time>
      </trkpt>
      <trkpt lat="43.94561" lon="1.92549">
        <ele>231.31453</ele>
        <time>2014-10-18T13:06:36Z</time>
      </trkpt>
      <trkpt lat="43.94561" lon="1.92549">
        <ele>231.31453</ele>
        <time>2014-10-18T13:06:41Z</time>
      </trkpt>
      <trkpt lat="43.94561" lon="1.92549">
        <ele>231.31453</ele>
        <time>2014-10-18T13:06:46Z</time>
      </trkpt>
      <trkpt lat="43.94561" lon="1.92549">
        <ele>231.31453</ele>
        <time>2014-10-18T13:06:51Z</time>
      </trkpt>
      <trkpt lat="43.94561" lon="1.92549">
        <ele>231.31453</ele>
        <time>2014-10-18T13:06:56Z</time>
      </trkpt>
      <trkpt lat="43.94561" lon="1.92549">
        <ele>231.31453</ele>
        <time>2014-10-18T13:07:01Z</time>
      </trkpt>
      <trkpt lat="43.94561" lon="1.92549">
        <ele>231.31453</ele>
        <time>2014-10-18T13:07:06Z</time>
      </trkpt>
      <trkpt lat="43.94561" lon="1.92549">
        <ele>231.31453</ele>
        <time>2014-10-18T13:07:11Z</time>
      </trkpt>
      <trkpt lat="43.94561" lon="1.9255">
        <ele>231.31453</ele>
        <time>2014-10-18T13:07:16Z</time>
      </trkpt>
      <trkpt lat="43.94561" lon="1.9255">
        <ele>231.31453</ele>
        <time>2014-10-18T13:07:21Z</time>
      </trkpt>
      <trkpt lat="43.94561" lon="1.9255">
        <ele>231.31453</ele>
        <time>2014-10-18T13:07:26Z</time>
      </trkpt>
      <trkpt lat="43.94561" lon="1.9255">
        <ele>231.31453</ele>
        <time>2014-10-18T13:07:31Z</time>
      </trkpt>
      <trkpt lat="43.94561" lon="1.9255">
        <ele>231.31453</ele>
        <time>2014-10-18T13:07:36Z</time>
      </trkpt>
      <trkpt lat="43.94561" lon="1.9255">
        <ele>231.31453</ele>
        <time>2014-10-18T13:07:41Z</time>
      </trkpt>
      <trkpt lat="43.94561" lon="1.9255">
        <ele>231.31453</ele>
        <time>2014-10-18T13:07:46Z</time>
      </trkpt>
      <trkpt lat="43.94561" lon="1.9255">
        <ele>231.31453</ele>
        <time>2014-10-18T13:07:51Z</time>
      </trkpt>
      <trkpt lat="43.94561" lon="1.9255">
        <ele>231.31453</ele>
        <time>2014-10-18T13:07:56Z</time>
      </trkpt>
      <trkpt lat="43.94561" lon="1.9255">
        <ele>231.31453</ele>
        <time>2014-10-18T13:08:01Z</time>
      </trkpt>
      <trkpt lat="43.94561" lon="1.9255">
        <ele>231.31453</ele>
        <time>2014-10-18T13:08:06Z</time>
      </trkpt>
      <trkpt lat="43.94561" lon="1.9255">
        <ele>231.31453</ele>
        <time>2014-10-18T13:08:11Z</time>
      </trkpt>
      <trkpt lat="43.94561" lon="1.9255">
        <ele>231.31453</ele>
        <time>2014-10-18T13:08:16Z</time>
      </trkpt>
      <trkpt lat="43.94561" lon="1.9255">
        <ele>231.31453</ele>
        <time>2014-10-18T13:08:21Z</time>
      </trkpt>
      <trkpt lat="43.94561" lon="1.9255">
        <ele>231.31453</ele>
        <time>2014-10-18T13:08:26Z</time>
      </trkpt>
      <trkpt lat="43.94561" lon="1.9255">
        <ele>231.31453</ele>
        <time>2014-10-18T13:08:31Z</time>
      </trkpt>
      <trkpt lat="43.94561" lon="1.9255">
        <ele>231.31453</ele>
        <time>2014-10-18T13:08:36Z</time>
      </trkpt>
      <trkpt lat="43.94561" lon="1.9255">
        <ele>231.31453</ele>
        <time>2014-10-18T13:08:41Z</time>
      </trkpt>
      <trkpt lat="43.94561" lon="1.9255">
        <ele>231.31453</ele>
        <time>2014-10-18T13:08:46Z</time>
      </trkpt>
      <trkpt lat="43.94561" lon="1.9255">
        <ele>231.31453</ele>
        <time>2014-10-18T13:08:51Z</time>
      </trkpt>
      <trkpt lat="43.94561" lon="1.9255">
        <ele>231.31453</ele>
        <time>2014-10-18T13:08:56Z</time>
      </trkpt>
      <trkpt lat="43.94561" lon="1.9255">
        <ele>231.31453</ele>
        <time>2014-10-18T13:09:01Z</time>
      </trkpt>
      <trkpt lat="43.94561" lon="1.9255">
        <ele>231.31453</ele>
        <time>2014-10-18T13:09:06Z</time>
      </trkpt>
      <trkpt lat="43.94561" lon="1.9255">
        <ele>231.31453</ele>
        <time>2014-10-18T13:09:11Z</time>
      </trkpt>
      <trkpt lat="43.94561" lon="1.9255">
        <ele>231.31453</ele>
        <time>2014-10-18T13:09:16Z</time>
      </trkpt>
      <trkpt lat="43.94561" lon="1.9255">
        <ele>231.31453</ele>
        <time>2014-10-18T13:09:21Z</time>
      </trkpt>
      <trkpt lat="43.94561" lon="1.9255">
        <ele>231.31453</ele>
        <time>2014-10-18T13:09:26Z</time>
      </trkpt>
      <trkpt lat="43.94561" lon="1.9255">
        <ele>231.31453</ele>
        <time>2014-10-18T13:09:31Z</time>
      </trkpt>
      <trkpt lat="43.94561" lon="1.9255">
        <ele>231.31453</ele>
        <time>2014-10-18T13:09:36Z</time>
      </trkpt>
      <trkpt lat="43.94561" lon="1.9255">
        <ele>231.31453</ele>
        <time>2014-10-18T13:09:41Z</time>
      </trkpt>
      <trkpt lat="43.94561" lon="1.9255">
        <ele>231.31453</ele>
        <time>2014-10-18T13:09:46Z</time>
      </trkpt>
      <trkpt lat="43.94561" lon="1.9255">
        <ele>231.31453</ele>
        <time>2014-10-18T13:09:51Z</time>
      </trkpt>
      <trkpt lat="43.94561" lon="1.9255">
        <ele>231.31453</ele>
        <time>2014-10-18T13:09:56Z</time>
      </trkpt>
      <trkpt lat="43.94561" lon="1.9255">
        <ele>231.31453</ele>
        <time>2014-10-18T13:10:01Z</time>
      </trkpt>
      <trkpt lat="43.94561" lon="1.9255">
        <ele>231.31453</ele>
        <time>2014-10-18T13:10:06Z</time>
      </trkpt>
      <trkpt lat="43.94561" lon="1.9255">
        <ele>231.31453</ele>
        <time>2014-10-18T13:10:11Z</time>
      </trkpt>
      <trkpt lat="43.94561" lon="1.9255">
        <ele>231.31453</ele>
        <time>2014-10-18T13:10:16Z</time>
      </trkpt>
      <trkpt lat="43.94561" lon="1.9255">
        <ele>231.31453</ele>
        <time>2014-10-18T13:10:21Z</time>
      </trkpt>
      <trkpt lat="43.94561" lon="1.9255">
        <ele>231.31453</ele>
        <time>2014-10-18T13:10:26Z</time>
      </trkpt>
      <trkpt lat="43.94561" lon="1.9255">
        <ele>231.31453</ele>
        <time>2014-10-18T13:10:31Z</time>
      </trkpt>
      <trkpt lat="43.94561" lon="1.9255">
        <ele>231.31453</ele>
        <time>2014-10-18T13:10:36Z</time>
      </trkpt>
      <trkpt lat="43.94561" lon="1.9255">
        <ele>231.31453</ele>
        <time>2014-10-18T13:10:41Z</time>
      </trkpt>
      <trkpt lat="43.94561" lon="1.9255">
        <ele>231.31453</ele>
        <time>2014-10-18T13:10:46Z</time>
      </trkpt>
      <trkpt lat="43.94561" lon="1.9255">
        <ele>231.31453</ele>
        <time>2014-10-18T13:10:51Z</time>
      </trkpt>
      <trkpt lat="43.94561" lon="1.9255">
        <ele>231.31453</ele>
        <time>2014-10-18T13:10:56Z</time>
      </trkpt>
      <trkpt lat="43.94561" lon="1.9255">
        <ele>231.31453</ele>
        <time>2014-10-18T13:11:01Z</time>
      </trkpt>
      <trkpt lat="43.94561" lon="1.9255">
        <ele>231.31453</ele>
        <time>2014-10-18T13:11:06Z</time>
      </trkpt>
      <trkpt lat="43.94561" lon="1.9255">
        <ele>231.31453</ele>
        <time>2014-10-18T13:11:11Z</time>
      </trkpt>
      <trkpt lat="43.94561" lon="1.9255">
        <ele>231.31453</ele>
        <time>2014-10-18T13:11:16Z</time>
      </trkpt>
      <trkpt lat="43.94561" lon="1.9255">
        <ele>231.31453</ele>
        <time>2014-10-18T13:11:21Z</time>
      </trkpt>
      <trkpt lat="43.94561" lon="1.9255">
        <ele>231.31453</ele>
        <time>2014-10-18T13:11:26Z</time>
      </trkpt>
      <trkpt lat="43.94561" lon="1.9255">
        <ele>231.31453</ele>
        <time>2014-10-18T13:11:31Z</time>
      </trkpt>
      <trkpt lat="43.94561" lon="1.9255">
        <ele>231.31453</ele>
        <time>2014-10-18T13:11:36Z</time>
      </trkpt>
      <trkpt lat="43.94561" lon="1.9255">
        <ele>231.31453</ele>
        <time>2014-10-18T13:11:41Z</time>
      </trkpt>
      <trkpt lat="43.94561" lon="1.9255">
        <ele>231.31453</ele>
        <time>2014-10-18T13:11:46Z</time>
      </trkpt>
      <trkpt lat="43.94561" lon="1.9255">
        <ele>231.31453</ele>
        <time>2014-10-18T13:11:51Z</time>
      </trkpt>
      <trkpt lat="43.94561" lon="1.9255">
        <ele>231.31453</ele>
        <time>2014-10-18T13:11:56Z</time>
      </trkpt>
      <trkpt lat="43.94561" lon="1.9255">
        <ele>231.31453</ele>
        <time>2014-10-18T13:12:01Z</time>
      </trkpt>
      <trkpt lat="43.94561" lon="1.9255">
        <ele>231.31453</ele>
        <time>2014-10-18T13:12:06Z</time>
      </trkpt>
      <trkpt lat="43.94561" lon="1.9255">
        <ele>231.31453</ele>
        <time>2014-10-18T13:12:11Z</time>
      </trkpt>
      <trkpt lat="43.94561" lon="1.9255">
        <ele>231.31453</ele>
        <time>2014-10-18T13:12:16Z</time>
      </trkpt>
      <trkpt lat="43.94561" lon="1.9255">
        <ele>231.31453</ele>
        <time>2014-10-18T13:12:21Z</time>
      </trkpt>
      <trkpt lat="43.94561" lon="1.9255">
        <ele>231.31453</ele>
        <time>2014-10-18T13:12:26Z</time>
      </trkpt>
      <trkpt lat="43.94561" lon="1.9255">
        <ele>231.31453</ele>
        <time>2014-10-18T13:12:31Z</time>
      </trkpt>
      <trkpt lat="43.94561" lon="1.9255">
        <ele>231.31453</ele>
        <time>2014-10-18T13:12:36Z</time>
      </trkpt>
      <trkpt lat="43.94561" lon="1.9255">
        <ele>231.31453</ele>
        <time>2014-10-18T13:12:41Z</time>
      </trkpt>
      <trkpt lat="43.94561" lon="1.9255">
        <ele>231.31453</ele>
        <time>2014-10-18T13:12:46Z</time>
      </trkpt>
      <trkpt lat="43.94561" lon="1.9255">
        <ele>231.31453</ele>
        <time>2014-10-18T13:12:51Z</time>
      </trkpt>
      <trkpt lat="43.94561" lon="1.9255">
        <ele>231.31453</ele>
        <time>2014-10-18T13:12:56Z</time>
      </trkpt>
      <trkpt lat="43.94561" lon="1.9255">
        <ele>231.31453</ele>
        <time>2014-10-18T13:13:01Z</time>
      </trkpt>
      <trkpt lat="43.94561" lon="1.9255">
        <ele>231.31453</ele>
        <time>2014-10-18T13:13:06Z</time>
      </trkpt>
      <trkpt lat="43.94561" lon="1.9255">
        <ele>231.31453</ele>
        <time>2014-10-18T13:13:11Z</time>
      </trkpt>
      <trkpt lat="43.94561" lon="1.9255">
        <ele>231.31453</ele>
        <time>2014-10-18T13:13:16Z</time>
      </trkpt>
      <trkpt lat="43.94561" lon="1.9255">
        <ele>231.31453</ele>
        <time>2014-10-18T13:13:21Z</time>
      </trkpt>
      <trkpt lat="43.94561" lon="1.9255">
        <ele>231.31453</ele>
        <time>2014-10-18T13:13:26Z</time>
      </trkpt>
      <trkpt lat="43.94561" lon="1.9255">
        <ele>231.31453</ele>
        <time>2014-10-18T13:13:31Z</time>
      </trkpt>
      <trkpt lat="43.94561" lon="1.9255">
        <ele>231.31453</ele>
        <time>2014-10-18T13:13:36Z</time>
      </trkpt>
      <trkpt lat="43.94561" lon="1.9255">
        <ele>231.31453</ele>
        <time>2014-10-18T13:13:41Z</time>
      </trkpt>
      <trkpt lat="43.94561" lon="1.9255">
        <ele>231.31453</ele>
        <time>2014-10-18T13:13:46Z</time>
      </trkpt>
      <trkpt lat="43.94561" lon="1.9255">
        <ele>231.31453</ele>
        <time>2014-10-18T13:13:51Z</time>
      </trkpt>
      <trkpt lat="43.94561" lon="1.9255">
        <ele>231.31453</ele>
        <time>2014-10-18T13:13:56Z</time>
      </trkpt>
      <trkpt lat="43.94561" lon="1.9255">
        <ele>231.31453</ele>
        <time>2014-10-18T13:14:01Z</time>
      </trkpt>
      <trkpt lat="43.94561" lon="1.9255">
        <ele>231.31453</ele>
        <time>2014-10-18T13:14:06Z</time>
      </trkpt>
      <trkpt lat="43.94561" lon="1.9255">
        <ele>231.31453</ele>
        <time>2014-10-18T13:14:11Z</time>
      </trkpt>
      <trkpt lat="43.94561" lon="1.9255">
        <ele>231.31453</ele>
        <time>2014-10-18T13:14:16Z</time>
      </trkpt>
      <trkpt lat="43.94561" lon="1.9255">
        <ele>231.31453</ele>
        <time>2014-10-18T13:14:21Z</time>
      </trkpt>
      <trkpt lat="43.94562" lon="1.92551">
        <ele>231.31453</ele>
        <time>2014-10-18T13:14:26Z</time>
      </trkpt>
      <trkpt lat="43.94562" lon="1.9255">
        <ele>231.31453</ele>
        <time>2014-10-18T13:14:31Z</time>
      </trkpt>
      <trkpt lat="43.94563" lon="1.92551">
        <ele>231.31453</ele>
        <time>2014-10-18T13:14:36Z</time>
      </trkpt>
      <trkpt lat="43.94563" lon="1.92551">
        <ele>231.31453</ele>
        <time>2014-10-18T13:14:41Z</time>
      </trkpt>
      <trkpt lat="43.94563" lon="1.92551">
        <ele>231.31453</ele>
        <time>2014-10-18T13:14:46Z</time>
      </trkpt>
      <trkpt lat="43.94563" lon="1.92551">
        <ele>231.31453</ele>
        <time>2014-10-18T13:14:51Z</time>
      </trkpt>
      <trkpt lat="43.94563" lon="1.92551">
        <ele>231.31453</ele>
        <time>2014-10-18T13:14:56Z</time>
      </trkpt>
      <trkpt lat="43.94563" lon="1.92551">
        <ele>231.31453</ele>
        <time>2014-10-18T13:15:01Z</time>
      </trkpt>
      <trkpt lat="43.94563" lon="1.92551">
        <ele>231.31453</ele>
        <time>2014-10-18T13:15:06Z</time>
      </trkpt>
      <trkpt lat="43.94563" lon="1.92551">
        <ele>231.31453</ele>
        <time>2014-10-18T13:15:11Z</time>
      </trkpt>
      <trkpt lat="43.94563" lon="1.92551">
        <ele>231.31453</ele>
        <time>2014-10-18T13:15:16Z</time>
      </trkpt>
      <trkpt lat="43.94562" lon="1.92551">
        <ele>231.31453</ele>
        <time>2014-10-18T13:15:21Z</time>
      </trkpt>
      <trkpt lat="43.94562" lon="1.92551">
        <ele>231.31453</ele>
        <time>2014-10-18T13:15:26Z</time>
      </trkpt>
      <trkpt lat="43.94562" lon="1.92551">
        <ele>231.31453</ele>
        <time>2014-10-18T13:15:31Z</time>
      </trkpt>
      <trkpt lat="43.94562" lon="1.92551">
        <ele>231.31453</ele>
        <time>2014-10-18T13:15:36Z</time>
      </trkpt>
      <trkpt lat="43.94562" lon="1.92551">
        <ele>231.31453</ele>
        <time>2014-10-18T13:15:41Z</time>
      </trkpt>
      <trkpt lat="43.94562" lon="1.92551">
        <ele>231.31453</ele>
        <time>2014-10-18T13:15:46Z</time>
      </trkpt>
      <trkpt lat="43.94562" lon="1.92551">
        <ele>231.31453</ele>
        <time>2014-10-18T13:15:51Z</time>
      </trkpt>
      <trkpt lat="43.94562" lon="1.92551">
        <ele>231.31453</ele>
        <time>2014-10-18T13:15:56Z</time>
      </trkpt>
      <trkpt lat="43.94562" lon="1.92551">
        <ele>231.31453</ele>
        <time>2014-10-18T13:16:01Z</time>
      </trkpt>
      <trkpt lat="43.94562" lon="1.92551">
        <ele>231.31453</ele>
        <time>2014-10-18T13:16:06Z</time>
      </trkpt>
      <trkpt lat="43.94562" lon="1.92551">
        <ele>231.31453</ele>
        <time>2014-10-18T13:16:11Z</time>
      </trkpt>
      <trkpt lat="43.94562" lon="1.92551">
        <ele>231.31453</ele>
        <time>2014-10-18T13:16:16Z</time>
      </trkpt>
      <trkpt lat="43.94562" lon="1.92551">
        <ele>231.31453</ele>
        <time>2014-10-18T13:16:21Z</time>
      </trkpt>
      <trkpt lat="43.94562" lon="1.92551">
        <ele>231.31453</ele>
        <time>2014-10-18T13:16:26Z</time>
      </trkpt>
      <trkpt lat="43.94562" lon="1.92551">
        <ele>231.31453</ele>
        <time>2014-10-18T13:16:31Z</time>
      </trkpt>
      <trkpt lat="43.94562" lon="1.92551">
        <ele>231.31453</ele>
        <time>2014-10-18T13:16:36Z</time>
      </trkpt>
      <trkpt lat="43.94562" lon="1.92551">
        <ele>231.31453</ele>
        <time>2014-10-18T13:16:41Z</time>
      </trkpt>
      <trkpt lat="43.94562" lon="1.92551">
        <ele>231.31453</ele>
        <time>2014-10-18T13:16:46Z</time>
      </trkpt>
      <trkpt lat="43.94562" lon="1.92551">
        <ele>231.31453</ele>
        <time>2014-10-18T13:16:51Z</time>
      </trkpt>
      <trkpt lat="43.94562" lon="1.92551">
        <ele>231.31453</ele>
        <time>2014-10-18T13:16:56Z</time>
      </trkpt>
      <trkpt lat="43.94562" lon="1.92551">
        <ele>231.31453</ele>
        <time>2014-10-18T13:17:01Z</time>
      </trkpt>
      <trkpt lat="43.94562" lon="1.92551">
        <ele>231.31453</ele>
        <time>2014-10-18T13:17:06Z</time>
      </trkpt>
      <trkpt lat="43.94562" lon="1.92551">
        <ele>231.31453</ele>
        <time>2014-10-18T13:17:11Z</time>
      </trkpt>
      <trkpt lat="43.94562" lon="1.92551">
        <ele>231.31453</ele>
        <time>2014-10-18T13:17:16Z</time>
      </trkpt>
      <trkpt lat="43.94562" lon="1.92551">
        <ele>231.31453</ele>
        <time>2014-10-18T13:17:21Z</time>
      </trkpt>
      <trkpt lat="43.94562" lon="1.92551">
        <ele>231.31453</ele>
        <time>2014-10-18T13:17:26Z</time>
      </trkpt>
      <trkpt lat="43.94562" lon="1.92551">
        <ele>231.31453</ele>
        <time>2014-10-18T13:17:31Z</time>
      </trkpt>
      <trkpt lat="43.94562" lon="1.92551">
        <ele>231.31453</ele>
        <time>2014-10-18T13:17:36Z</time>
      </trkpt>
      <trkpt lat="43.94562" lon="1.92551">
        <ele>231.31453</ele>
        <time>2014-10-18T13:17:41Z</time>
      </trkpt>
      <trkpt lat="43.94562" lon="1.92551">
        <ele>232.67545</ele>
        <time>2014-10-18T13:17:46Z</time>
      </trkpt>
      <trkpt lat="43.94562" lon="1.92551">
        <ele>232.67545</ele>
        <time>2014-10-18T13:17:51Z</time>
      </trkpt>
      <trkpt lat="43.94562" lon="1.92551">
        <ele>232.67545</ele>
        <time>2014-10-18T13:17:56Z</time>
      </trkpt>
      <trkpt lat="43.94562" lon="1.92551">
        <ele>232.67545</ele>
        <time>2014-10-18T13:18:01Z</time>
      </trkpt>
      <trkpt lat="43.94562" lon="1.92551">
        <ele>232.67545</ele>
        <time>2014-10-18T13:18:06Z</time>
      </trkpt>
      <trkpt lat="43.94562" lon="1.92551">
        <ele>232.67545</ele>
        <time>2014-10-18T13:18:11Z</time>
      </trkpt>
      <trkpt lat="43.94562" lon="1.92551">
        <ele>232.67545</ele>
        <time>2014-10-18T13:18:16Z</time>
      </trkpt>
      <trkpt lat="43.94562" lon="1.92551">
        <ele>232.67545</ele>
        <time>2014-10-18T13:18:21Z</time>
      </trkpt>
      <trkpt lat="43.94562" lon="1.92551">
        <ele>232.67545</ele>
        <time>2014-10-18T13:18:26Z</time>
      </trkpt>
      <trkpt lat="43.94562" lon="1.92551">
        <ele>232.67545</ele>
        <time>2014-10-18T13:18:31Z</time>
      </trkpt>
      <trkpt lat="43.94562" lon="1.92551">
        <ele>232.67545</ele>
        <time>2014-10-18T13:18:36Z</time>
      </trkpt>
      <trkpt lat="43.94562" lon="1.92551">
        <ele>232.67545</ele>
        <time>2014-10-18T13:18:41Z</time>
      </trkpt>
      <trkpt lat="43.94562" lon="1.92551">
        <ele>232.67545</ele>
        <time>2014-10-18T13:18:46Z</time>
      </trkpt>
      <trkpt lat="43.94562" lon="1.92551">
        <ele>232.67545</ele>
        <time>2014-10-18T13:18:51Z</time>
      </trkpt>
      <trkpt lat="43.94561" lon="1.92551">
        <ele>232.67545</ele>
        <time>2014-10-18T13:18:56Z</time>
      </trkpt>
      <trkpt lat="43.94561" lon="1.92551">
        <ele>232.67545</ele>
        <time>2014-10-18T13:19:01Z</time>
      </trkpt>
      <trkpt lat="43.94561" lon="1.92551">
        <ele>232.67545</ele>
        <time>2014-10-18T13:19:06Z</time>
      </trkpt>
      <trkpt lat="43.94561" lon="1.92551">
        <ele>232.67545</ele>
        <time>2014-10-18T13:19:11Z</time>
      </trkpt>
      <trkpt lat="43.94561" lon="1.92551">
        <ele>232.67545</ele>
        <time>2014-10-18T13:19:16Z</time>
      </trkpt>
      <trkpt lat="43.94561" lon="1.92551">
        <ele>232.67545</ele>
        <time>2014-10-18T13:19:21Z</time>
      </trkpt>
      <trkpt lat="43.94561" lon="1.92551">
        <ele>232.67545</ele>
        <time>2014-10-18T13:19:26Z</time>
      </trkpt>
      <trkpt lat="43.94561" lon="1.92551">
        <ele>232.67545</ele>
        <time>2014-10-18T13:19:31Z</time>
      </trkpt>
      <trkpt lat="43.94561" lon="1.92551">
        <ele>232.67545</ele>
        <time>2014-10-18T13:19:36Z</time>
      </trkpt>
      <trkpt lat="43.94561" lon="1.92551">
        <ele>232.67545</ele>
        <time>2014-10-18T13:19:41Z</time>
      </trkpt>
      <trkpt lat="43.94561" lon="1.92551">
        <ele>232.67545</ele>
        <time>2014-10-18T13:19:46Z</time>
      </trkpt>
      <trkpt lat="43.94561" lon="1.92551">
        <ele>232.67545</ele>
        <time>2014-10-18T13:19:51Z</time>
      </trkpt>
      <trkpt lat="43.94561" lon="1.92551">
        <ele>232.67545</ele>
        <time>2014-10-18T13:19:56Z</time>
      </trkpt>
      <trkpt lat="43.94561" lon="1.92551">
        <ele>232.67545</ele>
        <time>2014-10-18T13:20:01Z</time>
      </trkpt>
      <trkpt lat="43.94561" lon="1.92551">
        <ele>232.67545</ele>
        <time>2014-10-18T13:20:06Z</time>
      </trkpt>
      <trkpt lat="43.94561" lon="1.92551">
        <ele>232.67545</ele>
        <time>2014-10-18T13:20:11Z</time>
      </trkpt>
      <trkpt lat="43.94561" lon="1.92551">
        <ele>232.67545</ele>
        <time>2014-10-18T13:20:16Z</time>
      </trkpt>
      <trkpt lat="43.94561" lon="1.92551">
        <ele>232.67545</ele>
        <time>2014-10-18T13:20:21Z</time>
      </trkpt>
      <trkpt lat="43.94561" lon="1.92551">
        <ele>232.67545</ele>
        <time>2014-10-18T13:20:26Z</time>
      </trkpt>
      <trkpt lat="43.94561" lon="1.92551">
        <ele>232.67545</ele>
        <time>2014-10-18T13:20:31Z</time>
      </trkpt>
      <trkpt lat="43.94561" lon="1.92551">
        <ele>232.67545</ele>
        <time>2014-10-18T13:20:36Z</time>
      </trkpt>
      <trkpt lat="43.94561" lon="1.92551">
        <ele>232.67545</ele>
        <time>2014-10-18T13:20:41Z</time>
      </trkpt>
      <trkpt lat="43.94561" lon="1.92551">
        <ele>232.67545</ele>
        <time>2014-10-18T13:20:46Z</time>
      </trkpt>
      <trkpt lat="43.94561" lon="1.92551">
        <ele>232.67545</ele>
        <time>2014-10-18T13:20:51Z</time>
      </trkpt>
      <trkpt lat="43.94561" lon="1.92551">
        <ele>232.67545</ele>
        <time>2014-10-18T13:20:56Z</time>
      </trkpt>
      <trkpt lat="43.94561" lon="1.92551">
        <ele>232.67545</ele>
        <time>2014-10-18T13:21:01Z</time>
      </trkpt>
      <trkpt lat="43.94561" lon="1.92551">
        <ele>232.67545</ele>
        <time>2014-10-18T13:21:06Z</time>
      </trkpt>
      <trkpt lat="43.94561" lon="1.92551">
        <ele>232.67545</ele>
        <time>2014-10-18T13:21:11Z</time>
      </trkpt>
      <trkpt lat="43.94561" lon="1.92551">
        <ele>232.67545</ele>
        <time>2014-10-18T13:21:16Z</time>
      </trkpt>
      <trkpt lat="43.94561" lon="1.92551">
        <ele>232.67545</ele>
        <time>2014-10-18T13:21:21Z</time>
      </trkpt>
      <trkpt lat="43.94561" lon="1.92551">
        <ele>232.67545</ele>
        <time>2014-10-18T13:21:26Z</time>
      </trkpt>
      <trkpt lat="43.94561" lon="1.92551">
        <ele>232.67545</ele>
        <time>2014-10-18T13:21:31Z</time>
      </trkpt>
      <trkpt lat="43.94561" lon="1.92551">
        <ele>232.67545</ele>
        <time>2014-10-18T13:21:36Z</time>
      </trkpt>
      <trkpt lat="43.94561" lon="1.92551">
        <ele>232.67545</ele>
        <time>2014-10-18T13:21:41Z</time>
      </trkpt>
      <trkpt lat="43.94561" lon="1.92551">
        <ele>232.67545</ele>
        <time>2014-10-18T13:21:46Z</time>
      </trkpt>
      <trkpt lat="43.94561" lon="1.92551">
        <ele>232.67545</ele>
        <time>2014-10-18T13:21:51Z</time>
      </trkpt>
      <trkpt lat="43.94561" lon="1.92551">
        <ele>232.67545</ele>
        <time>2014-10-18T13:21:56Z</time>
      </trkpt>
      <trkpt lat="43.94561" lon="1.9255">
        <ele>232.67545</ele>
        <time>2014-10-18T13:22:01Z</time>
      </trkpt>
      <trkpt lat="43.9456" lon="1.9255">
        <ele>232.67545</ele>
        <time>2014-10-18T13:22:06Z</time>
      </trkpt>
      <trkpt lat="43.9456" lon="1.92551">
        <ele>232.67545</ele>
        <time>2014-10-18T13:22:11Z</time>
      </trkpt>
      <trkpt lat="43.94559" lon="1.92551">
        <ele>232.67545</ele>
        <time>2014-10-18T13:22:16Z</time>
      </trkpt>
      <trkpt lat="43.94559" lon="1.92551">
        <ele>232.67545</ele>
        <time>2014-10-18T13:22:21Z</time>
      </trkpt>
      <trkpt lat="43.94559" lon="1.92551">
        <ele>232.67545</ele>
        <time>2014-10-18T13:22:26Z</time>
      </trkpt>
      <trkpt lat="43.94559" lon="1.92551">
        <ele>232.67545</ele>
        <time>2014-10-18T13:22:31Z</time>
      </trkpt>
      <trkpt lat="43.94559" lon="1.92551">
        <ele>232.67545</ele>
        <time>2014-10-18T13:22:36Z</time>
      </trkpt>
      <trkpt lat="43.94559" lon="1.92551">
        <ele>232.67545</ele>
        <time>2014-10-18T13:22:41Z</time>
      </trkpt>
      <trkpt lat="43.94559" lon="1.92551">
        <ele>232.67545</ele>
        <time>2014-10-18T13:22:46Z</time>
      </trkpt>
      <trkpt lat="43.94559" lon="1.92551">
        <ele>232.67545</ele>
        <time>2014-10-18T13:22:51Z</time>
      </trkpt>
      <trkpt lat="43.94559" lon="1.92551">
        <ele>232.67545</ele>
        <time>2014-10-18T13:22:56Z</time>
      </trkpt>
      <trkpt lat="43.9456" lon="1.92551">
        <ele>232.67545</ele>
        <time>2014-10-18T13:23:01Z</time>
      </trkpt>
      <trkpt lat="43.94562" lon="1.92551">
        <ele>232.67545</ele>
        <time>2014-10-18T13:23:06Z</time>
      </trkpt>
      <trkpt lat="43.94561" lon="1.92553">
        <ele>232.67545</ele>
        <time>2014-10-18T13:23:11Z</time>
      </trkpt>
      <trkpt lat="43.9456" lon="1.92553">
        <ele>232.67545</ele>
        <time>2014-10-18T13:23:16Z</time>
      </trkpt>
      <trkpt lat="43.9456" lon="1.92553">
        <ele>232.67545</ele>
        <time>2014-10-18T13:23:21Z</time>
      </trkpt>
      <trkpt lat="43.9456" lon="1.92553">
        <ele>232.67545</ele>
        <time>2014-10-18T13:23:26Z</time>
      </trkpt>
      <trkpt lat="43.9456" lon="1.92553">
        <ele>232.67545</ele>
        <time>2014-10-18T13:23:31Z</time>
      </trkpt>
      <trkpt lat="43.9456" lon="1.92553">
        <ele>232.67545</ele>
        <time>2014-10-18T13:23:36Z</time>
      </trkpt>
      <trkpt lat="43.94561" lon="1.92553">
        <ele>232.67545</ele>
        <time>2014-10-18T13:23:41Z</time>
      </trkpt>
      <trkpt lat="43.94564" lon="1.92553">
        <ele>233.61314</ele>
        <time>2014-10-18T13:23:46Z</time>
      </trkpt>
      <trkpt lat="43.94564" lon="1.92553">
        <ele>233.61314</ele>
        <time>2014-10-18T13:23:51Z</time>
      </trkpt>
      <trkpt lat="43.94564" lon="1.92553">
        <ele>233.61314</ele>
        <time>2014-10-18T13:23:56Z</time>
      </trkpt>
      <trkpt lat="43.94564" lon="1.92553">
        <ele>233.61314</ele>
        <time>2014-10-18T13:24:01Z</time>
      </trkpt>
      <trkpt lat="43.94561" lon="1.92552">
        <ele>233.61314</ele>
        <time>2014-10-18T13:24:06Z</time>
      </trkpt>
      <trkpt lat="43.94561" lon="1.92553">
        <ele>233.61314</ele>
        <time>2014-10-18T13:24:11Z</time>
      </trkpt>
      <trkpt lat="43.94561" lon="1.92553">
        <ele>233.61314</ele>
        <time>2014-10-18T13:24:16Z</time>
      </trkpt>
      <trkpt lat="43.94561" lon="1.92553">
        <ele>233.61314</ele>
        <time>2014-10-18T13:24:21Z</time>
      </trkpt>
      <trkpt lat="43.94561" lon="1.92553">
        <ele>233.61314</ele>
        <time>2014-10-18T13:24:26Z</time>
      </trkpt>
      <trkpt lat="43.94561" lon="1.92553">
        <ele>233.61314</ele>
        <time>2014-10-18T13:24:31Z</time>
      </trkpt>
      <trkpt lat="43.9456" lon="1.92553">
        <ele>233.61314</ele>
        <time>2014-10-18T13:24:36Z</time>
      </trkpt>
      <trkpt lat="43.94561" lon="1.92553">
        <ele>233.61314</ele>
        <time>2014-10-18T13:24:41Z</time>
      </trkpt>
      <trkpt lat="43.94559" lon="1.92554">
        <ele>233.61314</ele>
        <time>2014-10-18T13:24:46Z</time>
      </trkpt>
      <trkpt lat="43.94559" lon="1.92554">
        <ele>233.61314</ele>
        <time>2014-10-18T13:24:51Z</time>
      </trkpt>
      <trkpt lat="43.94559" lon="1.92554">
        <ele>233.61314</ele>
        <time>2014-10-18T13:24:56Z</time>
      </trkpt>
      <trkpt lat="43.94559" lon="1.92554">
        <ele>233.61314</ele>
        <time>2014-10-18T13:25:01Z</time>
      </trkpt>
      <trkpt lat="43.9456" lon="1.92554">
        <ele>233.61314</ele>
        <time>2014-10-18T13:25:06Z</time>
      </trkpt>
      <trkpt lat="43.94561" lon="1.92552">
        <ele>232.96074</ele>
        <time>2014-10-18T13:25:11Z</time>
      </trkpt>
      <trkpt lat="43.9456" lon="1.92551">
        <ele>232.96074</ele>
        <time>2014-10-18T13:25:16Z</time>
      </trkpt>
      <trkpt lat="43.9456" lon="1.92551">
        <ele>232.96074</ele>
        <time>2014-10-18T13:25:21Z</time>
      </trkpt>
      <trkpt lat="43.9456" lon="1.92551">
        <ele>232.96074</ele>
        <time>2014-10-18T13:25:26Z</time>
      </trkpt>
      <trkpt lat="43.9456" lon="1.92551">
        <ele>232.96074</ele>
        <time>2014-10-18T13:25:31Z</time>
      </trkpt>
      <trkpt lat="43.9456" lon="1.92551">
        <ele>232.96074</ele>
        <time>2014-10-18T13:25:36Z</time>
      </trkpt>
      <trkpt lat="43.9456" lon="1.92551">
        <ele>232.96074</ele>
        <time>2014-10-18T13:25:41Z</time>
      </trkpt>
      <trkpt lat="43.9456" lon="1.92551">
        <ele>232.96074</ele>
        <time>2014-10-18T13:25:46Z</time>
      </trkpt>
      <trkpt lat="43.9456" lon="1.92551">
        <ele>232.96074</ele>
        <time>2014-10-18T13:25:51Z</time>
      </trkpt>
      <trkpt lat="43.9456" lon="1.92551">
        <ele>232.96074</ele>
        <time>2014-10-18T13:25:56Z</time>
      </trkpt>
      <trkpt lat="43.9456" lon="1.92551">
        <ele>232.96074</ele>
        <time>2014-10-18T13:26:01Z</time>
      </trkpt>
      <trkpt lat="43.9456" lon="1.92551">
        <ele>232.96074</ele>
        <time>2014-10-18T13:26:06Z</time>
      </trkpt>
      <trkpt lat="43.94561" lon="1.92551">
        <ele>232.96074</ele>
        <time>2014-10-18T13:26:11Z</time>
      </trkpt>
      <trkpt lat="43.94561" lon="1.92552">
        <ele>232.96074</ele>
        <time>2014-10-18T13:26:16Z</time>
      </trkpt>
      <trkpt lat="43.9456" lon="1.92552">
        <ele>232.96074</ele>
        <time>2014-10-18T13:26:21Z</time>
      </trkpt>
      <trkpt lat="43.9456" lon="1.92552">
        <ele>232.96074</ele>
        <time>2014-10-18T13:26:26Z</time>
      </trkpt>
      <trkpt lat="43.9456" lon="1.92552">
        <ele>232.96074</ele>
        <time>2014-10-18T13:26:31Z</time>
      </trkpt>
      <trkpt lat="43.9456" lon="1.92552">
        <ele>232.96074</ele>
        <time>2014-10-18T13:26:36Z</time>
      </trkpt>
      <trkpt lat="43.9456" lon="1.92552">
        <ele>232.96074</ele>
        <time>2014-10-18T13:26:41Z</time>
      </trkpt>
      <trkpt lat="43.9456" lon="1.92552">
        <ele>232.96074</ele>
        <time>2014-10-18T13:26:46Z</time>
      </trkpt>
      <trkpt lat="43.9456" lon="1.92552">
        <ele>232.96074</ele>
        <time>2014-10-18T13:26:51Z</time>
      </trkpt>
      <trkpt lat="43.9456" lon="1.92552">
        <ele>232.96074</ele>
        <time>2014-10-18T13:26:56Z</time>
      </trkpt>
      <trkpt lat="43.9456" lon="1.92552">
        <ele>232.96074</ele>
        <time>2014-10-18T13:27:01Z</time>
      </trkpt>
      <trkpt lat="43.9456" lon="1.92552">
        <ele>232.96074</ele>
        <time>2014-10-18T13:27:06Z</time>
      </trkpt>
      <trkpt lat="43.9456" lon="1.92552">
        <ele>232.96074</ele>
        <time>2014-10-18T13:27:11Z</time>
      </trkpt>
      <trkpt lat="43.9456" lon="1.92552">
        <ele>232.96074</ele>
        <time>2014-10-18T13:27:16Z</time>
      </trkpt>
      <trkpt lat="43.9456" lon="1.92552">
        <ele>232.96074</ele>
        <time>2014-10-18T13:27:21Z</time>
      </trkpt>
      <trkpt lat="43.9456" lon="1.92552">
        <ele>232.96074</ele>
        <time>2014-10-18T13:27:26Z</time>
      </trkpt>
      <trkpt lat="43.9456" lon="1.92552">
        <ele>232.96074</ele>
        <time>2014-10-18T13:27:31Z</time>
      </trkpt>
      <trkpt lat="43.9456" lon="1.92552">
        <ele>232.96074</ele>
        <time>2014-10-18T13:27:36Z</time>
      </trkpt>
      <trkpt lat="43.9456" lon="1.92552">
        <ele>232.96074</ele>
        <time>2014-10-18T13:27:41Z</time>
      </trkpt>
      <trkpt lat="43.9456" lon="1.92552">
        <ele>232.96074</ele>
        <time>2014-10-18T13:27:46Z</time>
      </trkpt>
      <trkpt lat="43.9456" lon="1.92552">
        <ele>232.96074</ele>
        <time>2014-10-18T13:27:51Z</time>
      </trkpt>
      <trkpt lat="43.9456" lon="1.92552">
        <ele>232.96074</ele>
        <time>2014-10-18T13:27:56Z</time>
      </trkpt>
      <trkpt lat="43.9456" lon="1.92552">
        <ele>232.96074</ele>
        <time>2014-10-18T13:28:01Z</time>
      </trkpt>
      <trkpt lat="43.9456" lon="1.92552">
        <ele>232.96074</ele>
        <time>2014-10-18T13:28:06Z</time>
      </trkpt>
      <trkpt lat="43.9456" lon="1.92552">
        <ele>232.96074</ele>
        <time>2014-10-18T13:28:11Z</time>
      </trkpt>
      <trkpt lat="43.9456" lon="1.92552">
        <ele>232.96074</ele>
        <time>2014-10-18T13:28:16Z</time>
      </trkpt>
      <trkpt lat="43.9456" lon="1.92552">
        <ele>232.96074</ele>
        <time>2014-10-18T13:28:21Z</time>
      </trkpt>
      <trkpt lat="43.9456" lon="1.92552">
        <ele>232.96074</ele>
        <time>2014-10-18T13:28:26Z</time>
      </trkpt>
      <trkpt lat="43.9456" lon="1.92552">
        <ele>232.96074</ele>
        <time>2014-10-18T13:28:31Z</time>
      </trkpt>
      <trkpt lat="43.9456" lon="1.92552">
        <ele>232.96074</ele>
        <time>2014-10-18T13:28:36Z</time>
      </trkpt>
      <trkpt lat="43.9456" lon="1.92552">
        <ele>232.96074</ele>
        <time>2014-10-18T13:28:41Z</time>
      </trkpt>
      <trkpt lat="43.9456" lon="1.92552">
        <ele>232.96074</ele>
        <time>2014-10-18T13:28:46Z</time>
      </trkpt>
      <trkpt lat="43.9456" lon="1.92552">
        <ele>232.96074</ele>
        <time>2014-10-18T13:28:51Z</time>
      </trkpt>
      <trkpt lat="43.9456" lon="1.92552">
        <ele>232.96074</ele>
        <time>2014-10-18T13:28:56Z</time>
      </trkpt>
      <trkpt lat="43.9456" lon="1.92552">
        <ele>232.96074</ele>
        <time>2014-10-18T13:29:01Z</time>
      </trkpt>
      <trkpt lat="43.9456" lon="1.92552">
        <ele>232.96074</ele>
        <time>2014-10-18T13:29:06Z</time>
      </trkpt>
      <trkpt lat="43.94561" lon="1.92551">
        <ele>232.96074</ele>
        <time>2014-10-18T13:29:11Z</time>
      </trkpt>
      <trkpt lat="43.94562" lon="1.92549">
        <ele>232.96074</ele>
        <time>2014-10-18T13:29:16Z</time>
      </trkpt>
      <trkpt lat="43.94561" lon="1.92548">
        <ele>232.96074</ele>
        <time>2014-10-18T13:29:21Z</time>
      </trkpt>
      <trkpt lat="43.94564" lon="1.92551">
        <ele>232.89835</ele>
        <time>2014-10-18T13:29:26Z</time>
      </trkpt>
      <trkpt lat="43.94565" lon="1.92555">
        <ele>232.89835</ele>
        <time>2014-10-18T13:29:31Z</time>
      </trkpt>
      <trkpt lat="43.94568" lon="1.92559">
        <ele>232.89835</ele>
        <time>2014-10-18T13:29:36Z</time>
      </trkpt>
      <trkpt lat="43.9457" lon="1.92563">
        <ele>232.31703</ele>
        <time>2014-10-18T13:29:41Z</time>
      </trkpt>
      <trkpt lat="43.9457" lon="1.92563">
        <ele>232.31703</ele>
        <time>2014-10-18T13:29:46Z</time>
      </trkpt>
      <trkpt lat="43.94572" lon="1.92564">
        <ele>232.31703</ele>
        <time>2014-10-18T13:29:51Z</time>
      </trkpt>
      <trkpt lat="43.94573" lon="1.92564">
        <ele>232.31703</ele>
        <time>2014-10-18T13:29:56Z</time>
      </trkpt>
      <trkpt lat="43.94576" lon="1.92566">
        <ele>232.31703</ele>
        <time>2014-10-18T13:30:01Z</time>
      </trkpt>
      <trkpt lat="43.94577" lon="1.92566">
        <ele>232.31703</ele>
        <time>2014-10-18T13:30:06Z</time>
      </trkpt>
      <trkpt lat="43.94582" lon="1.92568">
        <ele>232.07864</ele>
        <time>2014-10-18T13:30:11Z</time>
      </trkpt>
      <trkpt lat="43.94591" lon="1.92571">
        <ele>232.07864</ele>
        <time>2014-10-18T13:30:16Z</time>
      </trkpt>
      <trkpt lat="43.94596" lon="1.92579">
        <ele>231.8854</ele>
        <time>2014-10-18T13:30:21Z</time>
      </trkpt>
      <trkpt lat="43.94598" lon="1.92579">
        <ele>231.8854</ele>
        <time>2014-10-18T13:30:26Z</time>
      </trkpt>
      <trkpt lat="43.946" lon="1.92583">
        <ele>231.8854</ele>
        <time>2014-10-18T13:30:31Z</time>
      </trkpt>
      <trkpt lat="43.94607" lon="1.92585">
        <ele>231.47572</ele>
        <time>2014-10-18T13:30:36Z</time>
      </trkpt>
      <trkpt lat="43.94613" lon="1.92584">
        <ele>231.47572</ele>
        <time>2014-10-18T13:30:41Z</time>
      </trkpt>
      <trkpt lat="43.94617" lon="1.92584">
        <ele>230.39157</ele>
        <time>2014-10-18T13:30:46Z</time>
      </trkpt>
      <trkpt lat="43.94623" lon="1.9258">
        <ele>230.39157</ele>
        <time>2014-10-18T13:30:51Z</time>
      </trkpt>
      <trkpt lat="43.94626" lon="1.92576">
        <ele>229.6083</ele>
        <time>2014-10-18T13:30:56Z</time>
      </trkpt>
      <trkpt lat="43.9463" lon="1.92573">
        <ele>229.6083</ele>
        <time>2014-10-18T13:31:01Z</time>
      </trkpt>
      <trkpt lat="43.94638" lon="1.9257">
        <ele>229.1641</ele>
        <time>2014-10-18T13:31:06Z</time>
      </trkpt>
      <trkpt lat="43.94644" lon="1.92567">
        <ele>229.1641</ele>
        <time>2014-10-18T13:31:11Z</time>
      </trkpt>
      <trkpt lat="43.94644" lon="1.92567">
        <ele>229.1641</ele>
        <time>2014-10-18T13:31:16Z</time>
      </trkpt>
      <trkpt lat="43.94646" lon="1.92568">
        <ele>228.18535</ele>
        <time>2014-10-18T13:31:21Z</time>
      </trkpt>
      <trkpt lat="43.94654" lon="1.92569">
        <ele>228.18535</ele>
        <time>2014-10-18T13:31:26Z</time>
      </trkpt>
      <trkpt lat="43.94657" lon="1.92571">
        <ele>226.91615</ele>
        <time>2014-10-18T13:31:31Z</time>
      </trkpt>
      <trkpt lat="43.94659" lon="1.92575">
        <ele>226.91615</ele>
        <time>2014-10-18T13:31:36Z</time>
      </trkpt>
      <trkpt lat="43.94661" lon="1.92577">
        <ele>226.91615</ele>
        <time>2014-10-18T13:31:41Z</time>
      </trkpt>
      <trkpt lat="43.94665" lon="1.92576">
        <ele>226.27513</ele>
        <time>2014-10-18T13:31:46Z</time>
      </trkpt>
      <trkpt lat="43.94668" lon="1.92575">
        <ele>226.27513</ele>
        <time>2014-10-18T13:31:51Z</time>
      </trkpt>
      <trkpt lat="43.94669" lon="1.92576">
        <ele>226.27513</ele>
        <time>2014-10-18T13:31:56Z</time>
      </trkpt>
      <trkpt lat="43.94671" lon="1.92576">
        <ele>226.27513</ele>
        <time>2014-10-18T13:32:01Z</time>
      </trkpt>
      <trkpt lat="43.94673" lon="1.92577">
        <ele>226.27513</ele>
        <time>2014-10-18T13:32:06Z</time>
      </trkpt>
      <trkpt lat="43.94672" lon="1.92576">
        <ele>226.27513</ele>
        <time>2014-10-18T13:32:11Z</time>
      </trkpt>
      <trkpt lat="43.94673" lon="1.92576">
        <ele>225.09404</ele>
        <time>2014-10-18T13:32:16Z</time>
      </trkpt>
      <trkpt lat="43.94676" lon="1.92576">
        <ele>225.09404</ele>
        <time>2014-10-18T13:32:21Z</time>
      </trkpt>
      <trkpt lat="43.9468" lon="1.92576">
        <ele>225.09404</ele>
        <time>2014-10-18T13:32:26Z</time>
      </trkpt>
      <trkpt lat="43.94681" lon="1.92576">
        <ele>225.09404</ele>
        <time>2014-10-18T13:32:31Z</time>
      </trkpt>
      <trkpt lat="43.94681" lon="1.92576">
        <ele>225.09404</ele>
        <time>2014-10-18T13:32:36Z</time>
      </trkpt>
      <trkpt lat="43.94683" lon="1.92577">
        <ele>223.68977</ele>
        <time>2014-10-18T13:32:41Z</time>
      </trkpt>
      <trkpt lat="43.94691" lon="1.92578">
        <ele>223.68977</ele>
        <time>2014-10-18T13:32:46Z</time>
      </trkpt>
      <trkpt lat="43.94698" lon="1.92578">
        <ele>222.55826</ele>
        <time>2014-10-18T13:32:51Z</time>
      </trkpt>
      <trkpt lat="43.94704" lon="1.92579">
        <ele>222.55826</ele>
        <time>2014-10-18T13:32:56Z</time>
      </trkpt>
      <trkpt lat="43.9471" lon="1.92581">
        <ele>221.19261</ele>
        <time>2014-10-18T13:33:01Z</time>
      </trkpt>
      <trkpt lat="43.94715" lon="1.92586">
        <ele>221.19261</ele>
        <time>2014-10-18T13:33:06Z</time>
      </trkpt>
      <trkpt lat="43.94717" lon="1.9259">
        <ele>219.61372</ele>
        <time>2014-10-18T13:33:11Z</time>
      </trkpt>
      <trkpt lat="43.94722" lon="1.92592">
        <ele>219.61372</ele>
        <time>2014-10-18T13:33:16Z</time>
      </trkpt>
      <trkpt lat="43.94726" lon="1.92595">
        <ele>218.11528</ele>
        <time>2014-10-18T13:33:21Z</time>
      </trkpt>
      <trkpt lat="43.94723" lon="1.92598">
        <ele>218.11528</ele>
        <time>2014-10-18T13:33:26Z</time>
      </trkpt>
      <trkpt lat="43.94723" lon="1.92599">
        <ele>218.11528</ele>
        <time>2014-10-18T13:33:31Z</time>
      </trkpt>
      <trkpt lat="43.94728" lon="1.92602">
        <ele>216.07558</ele>
        <time>2014-10-18T13:33:36Z</time>
      </trkpt>
      <trkpt lat="43.94732" lon="1.92606">
        <ele>216.07558</ele>
        <time>2014-10-18T13:33:41Z</time>
      </trkpt>
      <trkpt lat="43.94732" lon="1.92607">
        <ele>216.07558</ele>
        <time>2014-10-18T13:33:46Z</time>
      </trkpt>
      <trkpt lat="43.94733" lon="1.92609">
        <ele>216.07558</ele>
        <time>2014-10-18T13:33:51Z</time>
      </trkpt>
      <trkpt lat="43.94734" lon="1.92609">
        <ele>216.07558</ele>
        <time>2014-10-18T13:33:56Z</time>
      </trkpt>
      <trkpt lat="43.94739" lon="1.92608">
        <ele>213.92879</ele>
        <time>2014-10-18T13:34:01Z</time>
      </trkpt>
      <trkpt lat="43.94746" lon="1.92607">
        <ele>213.92879</ele>
        <time>2014-10-18T13:34:06Z</time>
      </trkpt>
      <trkpt lat="43.94747" lon="1.92608">
        <ele>213.92879</ele>
        <time>2014-10-18T13:34:11Z</time>
      </trkpt>
      <trkpt lat="43.94751" lon="1.92609">
        <ele>212.03412</ele>
        <time>2014-10-18T13:34:16Z</time>
      </trkpt>
      <trkpt lat="43.9476" lon="1.92613">
        <ele>212.03412</ele>
        <time>2014-10-18T13:34:21Z</time>
      </trkpt>
      <trkpt lat="43.94767" lon="1.92616">
        <ele>209.75806</ele>
        <time>2014-10-18T13:34:26Z</time>
      </trkpt>
      <trkpt lat="43.94768" lon="1.92617">
        <ele>209.75806</ele>
        <time>2014-10-18T13:34:31Z</time>
      </trkpt>
      <trkpt lat="43.94773" lon="1.92622">
        <ele>209.75806</ele>
        <time>2014-10-18T13:34:36Z</time>
      </trkpt>
      <trkpt lat="43.94779" lon="1.92628">
        <ele>207.81157</ele>
        <time>2014-10-18T13:34:41Z</time>
      </trkpt>
      <trkpt lat="43.94782" lon="1.92635">
        <ele>207.81157</ele>
        <time>2014-10-18T13:34:46Z</time>
      </trkpt>
      <trkpt lat="43.94785" lon="1.92641">
        <ele>205.74268</ele>
        <time>2014-10-18T13:34:51Z</time>
      </trkpt>
      <trkpt lat="43.94789" lon="1.92645">
        <ele>205.74268</ele>
        <time>2014-10-18T13:34:56Z</time>
      </trkpt>
      <trkpt lat="43.94794" lon="1.92649">
        <ele>203.7669</ele>
        <time>2014-10-18T13:35:01Z</time>
      </trkpt>
      <trkpt lat="43.94799" lon="1.92654">
        <ele>203.7669</ele>
        <time>2014-10-18T13:35:06Z</time>
      </trkpt>
      <trkpt lat="43.94801" lon="1.92659">
        <ele>202.44385</ele>
        <time>2014-10-18T13:35:11Z</time>
      </trkpt>
      <trkpt lat="43.94802" lon="1.92664">
        <ele>202.44385</ele>
        <time>2014-10-18T13:35:16Z</time>
      </trkpt>
      <trkpt lat="43.94802" lon="1.92662">
        <ele>202.44385</ele>
        <time>2014-10-18T13:35:21Z</time>
      </trkpt>
      <trkpt lat="43.94803" lon="1.92662">
        <ele>202.44385</ele>
        <time>2014-10-18T13:35:26Z</time>
      </trkpt>
      <trkpt lat="43.94803" lon="1.92662">
        <ele>202.44385</ele>
        <time>2014-10-18T13:35:31Z</time>
      </trkpt>
      <trkpt lat="43.94803" lon="1.92661">
        <ele>202.44385</ele>
        <time>2014-10-18T13:35:36Z</time>
      </trkpt>
      <trkpt lat="43.94807" lon="1.92664">
        <ele>200.7624</ele>
        <time>2014-10-18T13:35:41Z</time>
      </trkpt>
      <trkpt lat="43.94808" lon="1.9267">
        <ele>200.7624</ele>
        <time>2014-10-18T13:35:46Z</time>
      </trkpt>
      <trkpt lat="43.9481" lon="1.92676">
        <ele>198.99721</ele>
        <time>2014-10-18T13:35:51Z</time>
      </trkpt>
      <trkpt lat="43.94812" lon="1.92682">
        <ele>198.99721</ele>
        <time>2014-10-18T13:35:56Z</time>
      </trkpt>
      <trkpt lat="43.94814" lon="1.92685">
        <ele>198.99721</ele>
        <time>2014-10-18T13:36:01Z</time>
      </trkpt>
      <trkpt lat="43.94816" lon="1.9269">
        <ele>197.70538</ele>
        <time>2014-10-18T13:36:06Z</time>
      </trkpt>
      <trkpt lat="43.94818" lon="1.92695">
        <ele>197.70538</ele>
        <time>2014-10-18T13:36:11Z</time>
      </trkpt>
      <trkpt lat="43.94819" lon="1.927">
        <ele>197.70538</ele>
        <time>2014-10-18T13:36:16Z</time>
      </trkpt>
      <trkpt lat="43.94825" lon="1.92704">
        <ele>196.29207</ele>
        <time>2014-10-18T13:36:21Z</time>
      </trkpt>
      <trkpt lat="43.94829" lon="1.92708">
        <ele>196.29207</ele>
        <time>2014-10-18T13:36:26Z</time>
      </trkpt>
      <trkpt lat="43.94831" lon="1.92714">
        <ele>194.9989</ele>
        <time>2014-10-18T13:36:31Z</time>
      </trkpt>
      <trkpt lat="43.94834" lon="1.92719">
        <ele>194.9989</ele>
        <time>2014-10-18T13:36:36Z</time>
      </trkpt>
      <trkpt lat="43.94838" lon="1.92726">
        <ele>193.73224</ele>
        <time>2014-10-18T13:36:41Z</time>
      </trkpt>
      <trkpt lat="43.94839" lon="1.92733">
        <ele>193.73224</ele>
        <time>2014-10-18T13:36:46Z</time>
      </trkpt>
      <trkpt lat="43.94842" lon="1.92737">
        <ele>192.8663</ele>
        <time>2014-10-18T13:36:51Z</time>
      </trkpt>
      <trkpt lat="43.9485" lon="1.92739">
        <ele>192.8663</ele>
        <time>2014-10-18T13:36:56Z</time>
      </trkpt>
      <trkpt lat="43.94855" lon="1.92744">
        <ele>191.79546</ele>
        <time>2014-10-18T13:37:01Z</time>
      </trkpt>
      <trkpt lat="43.94859" lon="1.92748">
        <ele>191.79546</ele>
        <time>2014-10-18T13:37:06Z</time>
      </trkpt>
      <trkpt lat="43.94862" lon="1.92755">
        <ele>190.69394</ele>
        <time>2014-10-18T13:37:11Z</time>
      </trkpt>
      <trkpt lat="43.94866" lon="1.9276">
        <ele>190.69394</ele>
        <time>2014-10-18T13:37:16Z</time>
      </trkpt>
      <trkpt lat="43.9487" lon="1.92766">
        <ele>189.6944</ele>
        <time>2014-10-18T13:37:21Z</time>
      </trkpt>
      <trkpt lat="43.94874" lon="1.92771">
        <ele>189.6944</ele>
        <time>2014-10-18T13:37:26Z</time>
      </trkpt>
      <trkpt lat="43.94881" lon="1.92774">
        <ele>188.90492</ele>
        <time>2014-10-18T13:37:31Z</time>
      </trkpt>
      <trkpt lat="43.94887" lon="1.92778">
        <ele>188.90492</ele>
        <time>2014-10-18T13:37:36Z</time>
      </trkpt>
      <trkpt lat="43.94888" lon="1.92783">
        <ele>188.28087</ele>
        <time>2014-10-18T13:37:41Z</time>
      </trkpt>
      <trkpt lat="43.94892" lon="1.92782">
        <ele>188.28087</ele>
        <time>2014-10-18T13:37:46Z</time>
      </trkpt>
      <trkpt lat="43.94893" lon="1.92781">
        <ele>188.28087</ele>
        <time>2014-10-18T13:37:51Z</time>
      </trkpt>
      <trkpt lat="43.94899" lon="1.92779">
        <ele>187.4633</ele>
        <time>2014-10-18T13:37:56Z</time>
      </trkpt>
      <trkpt lat="43.94904" lon="1.92775">
        <ele>187.4633</ele>
        <time>2014-10-18T13:38:01Z</time>
      </trkpt>
      <trkpt lat="43.94908" lon="1.92774">
        <ele>186.94153</ele>
        <time>2014-10-18T13:38:06Z</time>
      </trkpt>
      <trkpt lat="43.94908" lon="1.92775">
        <ele>186.94153</ele>
        <time>2014-10-18T13:38:11Z</time>
      </trkpt>
      <trkpt lat="43.94911" lon="1.9278">
        <ele>186.94153</ele>
        <time>2014-10-18T13:38:16Z</time>
      </trkpt>
      <trkpt lat="43.94917" lon="1.92782">
        <ele>185.69809</ele>
        <time>2014-10-18T13:38:21Z</time>
      </trkpt>
      <trkpt lat="43.94924" lon="1.92786">
        <ele>185.69809</ele>
        <time>2014-10-18T13:38:26Z</time>
      </trkpt>
      <trkpt lat="43.94928" lon="1.92789">
        <ele>185.343</ele>
        <time>2014-10-18T13:38:31Z</time>
      </trkpt>
      <trkpt lat="43.94931" lon="1.92793">
        <ele>185.343</ele>
        <time>2014-10-18T13:38:36Z</time>
      </trkpt>
      <trkpt lat="43.94935" lon="1.92795">
        <ele>185.343</ele>
        <time>2014-10-18T13:38:41Z</time>
      </trkpt>
      <trkpt lat="43.94939" lon="1.92799">
        <ele>185.39116</ele>
        <time>2014-10-18T13:38:46Z</time>
      </trkpt>
      <trkpt lat="43.94945" lon="1.92801">
        <ele>185.39116</ele>
        <time>2014-10-18T13:38:51Z</time>
      </trkpt>
      <trkpt lat="43.94949" lon="1.92803">
        <ele>185.80981</ele>
        <time>2014-10-18T13:38:56Z</time>
      </trkpt>
      <trkpt lat="43.94952" lon="1.92806">
        <ele>185.80981</ele>
        <time>2014-10-18T13:39:01Z</time>
      </trkpt>
      <trkpt lat="43.94955" lon="1.92809">
        <ele>185.80981</ele>
        <time>2014-10-18T13:39:06Z</time>
      </trkpt>
      <trkpt lat="43.94959" lon="1.92813">
        <ele>186.2217</ele>
        <time>2014-10-18T13:39:11Z</time>
      </trkpt>
      <trkpt lat="43.94965" lon="1.92812">
        <ele>186.2217</ele>
        <time>2014-10-18T13:39:16Z</time>
      </trkpt>
      <trkpt lat="43.9497" lon="1.9281">
        <ele>187.0699</ele>
        <time>2014-10-18T13:39:21Z</time>
      </trkpt>
      <trkpt lat="43.94972" lon="1.92808">
        <ele>187.0699</ele>
        <time>2014-10-18T13:39:26Z</time>
      </trkpt>
      <trkpt lat="43.94977" lon="1.92804">
        <ele>187.0699</ele>
        <time>2014-10-18T13:39:31Z</time>
      </trkpt>
      <trkpt lat="43.94982" lon="1.92803">
        <ele>188.24487</ele>
        <time>2014-10-18T13:39:36Z</time>
      </trkpt>
      <trkpt lat="43.94986" lon="1.92801">
        <ele>188.24487</ele>
        <time>2014-10-18T13:39:41Z</time>
      </trkpt>
      <trkpt lat="43.94991" lon="1.92795">
        <ele>189.83163</ele>
        <time>2014-10-18T13:39:46Z</time>
      </trkpt>
      <trkpt lat="43.94993" lon="1.92794">
        <ele>189.83163</ele>
        <time>2014-10-18T13:39:51Z</time>
      </trkpt>
      <trkpt lat="43.94996" lon="1.92793">
        <ele>189.83163</ele>
        <time>2014-10-18T13:39:56Z</time>
      </trkpt>
      <trkpt lat="43.95" lon="1.92788">
        <ele>191.41779</ele>
        <time>2014-10-18T13:40:01Z</time>
      </trkpt>
      <trkpt lat="43.95005" lon="1.92786">
        <ele>191.41779</ele>
        <time>2014-10-18T13:40:06Z</time>
      </trkpt>
      <trkpt lat="43.9501" lon="1.92783">
        <ele>192.95277</ele>
        <time>2014-10-18T13:40:11Z</time>
      </trkpt>
      <trkpt lat="43.95015" lon="1.92783">
        <ele>192.95277</ele>
        <time>2014-10-18T13:40:16Z</time>
      </trkpt>
      <trkpt lat="43.95019" lon="1.92778">
        <ele>194.4188</ele>
        <time>2014-10-18T13:40:21Z</time>
      </trkpt>
      <trkpt lat="43.95024" lon="1.92769">
        <ele>194.4188</ele>
        <time>2014-10-18T13:40:26Z</time>
      </trkpt>
      <trkpt lat="43.95028" lon="1.92764">
        <ele>196.059</ele>
        <time>2014-10-18T13:40:31Z</time>
      </trkpt>
      <trkpt lat="43.95032" lon="1.9276">
        <ele>196.059</ele>
        <time>2014-10-18T13:40:36Z</time>
      </trkpt>
      <trkpt lat="43.95037" lon="1.92755">
        <ele>197.89659</ele>
        <time>2014-10-18T13:40:41Z</time>
      </trkpt>
      <trkpt lat="43.95041" lon="1.92752">
        <ele>197.89659</ele>
        <time>2014-10-18T13:40:46Z</time>
      </trkpt>
      <trkpt lat="43.95045" lon="1.92747">
        <ele>199.72197</ele>
        <time>2014-10-18T13:40:51Z</time>
      </trkpt>
      <trkpt lat="43.95048" lon="1.92743">
        <ele>199.72197</ele>
        <time>2014-10-18T13:40:56Z</time>
      </trkpt>
      <trkpt lat="43.9505" lon="1.92739">
        <ele>199.72197</ele>
        <time>2014-10-18T13:41:01Z</time>
      </trkpt>
      <trkpt lat="43.95054" lon="1.92737">
        <ele>201.70145</ele>
        <time>2014-10-18T13:41:06Z</time>
      </trkpt>
      <trkpt lat="43.95056" lon="1.92737">
        <ele>201.70145</ele>
        <time>2014-10-18T13:41:11Z</time>
      </trkpt>
      <trkpt lat="43.95058" lon="1.92733">
        <ele>201.70145</ele>
        <time>2014-10-18T13:41:16Z</time>
      </trkpt>
      <trkpt lat="43.95059" lon="1.92735">
        <ele>201.70145</ele>
        <time>2014-10-18T13:41:21Z</time>
      </trkpt>
      <trkpt lat="43.95061" lon="1.92737">
        <ele>203.23943</ele>
        <time>2014-10-18T13:41:26Z</time>
      </trkpt>
      <trkpt lat="43.95062" lon="1.92738">
        <ele>203.23943</ele>
        <time>2014-10-18T13:41:31Z</time>
      </trkpt>
      <trkpt lat="43.95062" lon="1.92739">
        <ele>203.23943</ele>
        <time>2014-10-18T13:41:36Z</time>
      </trkpt>
      <trkpt lat="43.95062" lon="1.9274">
        <ele>203.23943</ele>
        <time>2014-10-18T13:41:41Z</time>
      </trkpt>
      <trkpt lat="43.95063" lon="1.9274">
        <ele>203.23943</ele>
        <time>2014-10-18T13:41:46Z</time>
      </trkpt>
      <trkpt lat="43.95065" lon="1.92746">
        <ele>203.23943</ele>
        <time>2014-10-18T13:41:51Z</time>
      </trkpt>
      <trkpt lat="43.95065" lon="1.92754">
        <ele>205.32741</ele>
        <time>2014-10-18T13:41:56Z</time>
      </trkpt>
      <trkpt lat="43.95067" lon="1.92762">
        <ele>205.32741</ele>
        <time>2014-10-18T13:42:01Z</time>
      </trkpt>
      <trkpt lat="43.95068" lon="1.92769">
        <ele>207.67221</ele>
        <time>2014-10-18T13:42:06Z</time>
      </trkpt>
      <trkpt lat="43.9507" lon="1.92777">
        <ele>207.67221</ele>
        <time>2014-10-18T13:42:11Z</time>
      </trkpt>
      <trkpt lat="43.95073" lon="1.92783">
        <ele>209.19458</ele>
        <time>2014-10-18T13:42:16Z</time>
      </trkpt>
      <trkpt lat="43.95075" lon="1.92789">
        <ele>209.19458</ele>
        <time>2014-10-18T13:42:21Z</time>
      </trkpt>
      <trkpt lat="43.9508" lon="1.92795">
        <ele>210.8137</ele>
        <time>2014-10-18T13:42:26Z</time>
      </trkpt>
      <trkpt lat="43.95082" lon="1.92803">
        <ele>210.8137</ele>
        <time>2014-10-18T13:42:31Z</time>
      </trkpt>
      <trkpt lat="43.95081" lon="1.92809">
        <ele>211.16188</ele>
        <time>2014-10-18T13:42:36Z</time>
      </trkpt>
      <trkpt lat="43.95081" lon="1.92815">
        <ele>211.16188</ele>
        <time>2014-10-18T13:42:41Z</time>
      </trkpt>
      <trkpt lat="43.95082" lon="1.92821">
        <ele>211.16188</ele>
        <time>2014-10-18T13:42:46Z</time>
      </trkpt>
      <trkpt lat="43.95086" lon="1.92826">
        <ele>211.12286</ele>
        <time>2014-10-18T13:42:51Z</time>
      </trkpt>
      <trkpt lat="43.95086" lon="1.92832">
        <ele>211.12286</ele>
        <time>2014-10-18T13:42:56Z</time>
      </trkpt>
      <trkpt lat="43.95088" lon="1.92838">
        <ele>210.32065</ele>
        <time>2014-10-18T13:43:01Z</time>
      </trkpt>
      <trkpt lat="43.95091" lon="1.92846">
        <ele>210.32065</ele>
        <time>2014-10-18T13:43:06Z</time>
      </trkpt>
      <trkpt lat="43.95095" lon="1.92852">
        <ele>209.31703</ele>
        <time>2014-10-18T13:43:11Z</time>
      </trkpt>
      <trkpt lat="43.95097" lon="1.92859">
        <ele>209.31703</ele>
        <time>2014-10-18T13:43:16Z</time>
      </trkpt>
      <trkpt lat="43.951" lon="1.92866">
        <ele>208.25862</ele>
        <time>2014-10-18T13:43:21Z</time>
      </trkpt>
      <trkpt lat="43.95104" lon="1.92873">
        <ele>208.25862</ele>
        <time>2014-10-18T13:43:26Z</time>
      </trkpt>
      <trkpt lat="43.95107" lon="1.92882">
        <ele>207.0221</ele>
        <time>2014-10-18T13:43:31Z</time>
      </trkpt>
      <trkpt lat="43.95108" lon="1.9289">
        <ele>207.0221</ele>
        <time>2014-10-18T13:43:36Z</time>
      </trkpt>
      <trkpt lat="43.9511" lon="1.92898">
        <ele>205.8253</ele>
        <time>2014-10-18T13:43:41Z</time>
      </trkpt>
      <trkpt lat="43.95113" lon="1.92906">
        <ele>205.8253</ele>
        <time>2014-10-18T13:43:46Z</time>
      </trkpt>
      <trkpt lat="43.95115" lon="1.92913">
        <ele>204.5098</ele>
        <time>2014-10-18T13:43:51Z</time>
      </trkpt>
      <trkpt lat="43.95117" lon="1.92921">
        <ele>204.5098</ele>
        <time>2014-10-18T13:43:56Z</time>
      </trkpt>
      <trkpt lat="43.95121" lon="1.92928">
        <ele>203.10211</ele>
        <time>2014-10-18T13:44:01Z</time>
      </trkpt>
      <trkpt lat="43.95123" lon="1.92936">
        <ele>203.10211</ele>
        <time>2014-10-18T13:44:06Z</time>
      </trkpt>
      <trkpt lat="43.95126" lon="1.92944">
        <ele>201.90097</ele>
        <time>2014-10-18T13:44:11Z</time>
      </trkpt>
      <trkpt lat="43.95128" lon="1.92951">
        <ele>201.90097</ele>
        <time>2014-10-18T13:44:16Z</time>
      </trkpt>
      <trkpt lat="43.95132" lon="1.92958">
        <ele>200.4765</ele>
        <time>2014-10-18T13:44:21Z</time>
      </trkpt>
      <trkpt lat="43.95134" lon="1.92965">
        <ele>200.4765</ele>
        <time>2014-10-18T13:44:26Z</time>
      </trkpt>
      <trkpt lat="43.95139" lon="1.92972">
        <ele>198.87779</ele>
        <time>2014-10-18T13:44:31Z</time>
      </trkpt>
      <trkpt lat="43.95142" lon="1.92979">
        <ele>198.87779</ele>
        <time>2014-10-18T13:44:36Z</time>
      </trkpt>
      <trkpt lat="43.95143" lon="1.92987">
        <ele>197.82819</ele>
        <time>2014-10-18T13:44:41Z</time>
      </trkpt>
      <trkpt lat="43.95144" lon="1.92993">
        <ele>197.82819</ele>
        <time>2014-10-18T13:44:46Z</time>
      </trkpt>
      <trkpt lat="43.95147" lon="1.93">
        <ele>197.04521</ele>
        <time>2014-10-18T13:44:51Z</time>
      </trkpt>
      <trkpt lat="43.9515" lon="1.93008">
        <ele>197.04521</ele>
        <time>2014-10-18T13:44:56Z</time>
      </trkpt>
      <trkpt lat="43.95151" lon="1.93017">
        <ele>195.68994</ele>
        <time>2014-10-18T13:45:01Z</time>
      </trkpt>
      <trkpt lat="43.95152" lon="1.93025">
        <ele>195.68994</ele>
        <time>2014-10-18T13:45:06Z</time>
      </trkpt>
      <trkpt lat="43.95154" lon="1.93033">
        <ele>194.1108</ele>
        <time>2014-10-18T13:45:11Z</time>
      </trkpt>
      <trkpt lat="43.95154" lon="1.93041">
        <ele>194.1108</ele>
        <time>2014-10-18T13:45:16Z</time>
      </trkpt>
      <trkpt lat="43.95153" lon="1.93049">
        <ele>192.38615</ele>
        <time>2014-10-18T13:45:21Z</time>
      </trkpt>
      <trkpt lat="43.95158" lon="1.93055">
        <ele>192.38615</ele>
        <time>2014-10-18T13:45:26Z</time>
      </trkpt>
      <trkpt lat="43.95162" lon="1.93062">
        <ele>190.60347</ele>
        <time>2014-10-18T13:45:31Z</time>
      </trkpt>
      <trkpt lat="43.95164" lon="1.9307">
        <ele>190.60347</ele>
        <time>2014-10-18T13:45:36Z</time>
      </trkpt>
      <trkpt lat="43.95166" lon="1.93078">
        <ele>188.94473</ele>
        <time>2014-10-18T13:45:41Z</time>
      </trkpt>
      <trkpt lat="43.95169" lon="1.93086">
        <ele>188.94473</ele>
        <time>2014-10-18T13:45:46Z</time>
      </trkpt>
      <trkpt lat="43.95171" lon="1.93093">
        <ele>187.18912</ele>
        <time>2014-10-18T13:45:51Z</time>
      </trkpt>
      <trkpt lat="43.95173" lon="1.93095">
        <ele>187.18912</ele>
        <time>2014-10-18T13:45:56Z</time>
      </trkpt>
      <trkpt lat="43.95176" lon="1.93098">
        <ele>187.18912</ele>
        <time>2014-10-18T13:46:01Z</time>
      </trkpt>
      <trkpt lat="43.95179" lon="1.93102">
        <ele>184.84396</ele>
        <time>2014-10-18T13:46:06Z</time>
      </trkpt>
      <trkpt lat="43.95184" lon="1.93108">
        <ele>184.84396</ele>
        <time>2014-10-18T13:46:11Z</time>
      </trkpt>
      <trkpt lat="43.95191" lon="1.93114">
        <ele>182.53523</ele>
        <time>2014-10-18T13:46:16Z</time>
      </trkpt>
      <trkpt lat="43.95198" lon="1.93119">
        <ele>182.53523</ele>
        <time>2014-10-18T13:46:21Z</time>
      </trkpt>
      <trkpt lat="43.95205" lon="1.93123">
        <ele>180.59772</ele>
        <time>2014-10-18T13:46:26Z</time>
      </trkpt>
      <trkpt lat="43.95212" lon="1.93128">
        <ele>180.59772</ele>
        <time>2014-10-18T13:46:31Z</time>
      </trkpt>
      <trkpt lat="43.95218" lon="1.93131">
        <ele>179.18198</ele>
        <time>2014-10-18T13:46:36Z</time>
      </trkpt>
      <trkpt lat="43.95223" lon="1.93137">
        <ele>179.18198</ele>
        <time>2014-10-18T13:46:41Z</time>
      </trkpt>
      <trkpt lat="43.95227" lon="1.93143">
        <ele>177.86389</ele>
        <time>2014-10-18T13:46:46Z</time>
      </trkpt>
      <trkpt lat="43.95233" lon="1.93146">
        <ele>177.86389</ele>
        <time>2014-10-18T13:46:51Z</time>
      </trkpt>
      <trkpt lat="43.95238" lon="1.93151">
        <ele>176.71129</ele>
        <time>2014-10-18T13:46:56Z</time>
      </trkpt>
      <trkpt lat="43.95243" lon="1.93155">
        <ele>176.71129</ele>
        <time>2014-10-18T13:47:01Z</time>
      </trkpt>
      <trkpt lat="43.95246" lon="1.93163">
        <ele>175.5847</ele>
        <time>2014-10-18T13:47:06Z</time>
      </trkpt>
      <trkpt lat="43.95251" lon="1.93167">
        <ele>175.5847</ele>
        <time>2014-10-18T13:47:11Z</time>
      </trkpt>
      <trkpt lat="43.95258" lon="1.93171">
        <ele>174.71497</ele>
        <time>2014-10-18T13:47:16Z</time>
      </trkpt>
      <trkpt lat="43.95265" lon="1.93175">
        <ele>174.71497</ele>
        <time>2014-10-18T13:47:21Z</time>
      </trkpt>
      <trkpt lat="43.95269" lon="1.9318">
        <ele>174.15666</ele>
        <time>2014-10-18T13:47:26Z</time>
      </trkpt>
      <trkpt lat="43.95274" lon="1.93184">
        <ele>174.15666</ele>
        <time>2014-10-18T13:47:31Z</time>
      </trkpt>
      <trkpt lat="43.95278" lon="1.9319">
        <ele>173.54144</ele>
        <time>2014-10-18T13:47:36Z</time>
      </trkpt>
      <trkpt lat="43.95281" lon="1.93196">
        <ele>173.54144</ele>
        <time>2014-10-18T13:47:41Z</time>
      </trkpt>
      <trkpt lat="43.95283" lon="1.93204">
        <ele>172.8307</ele>
        <time>2014-10-18T13:47:46Z</time>
      </trkpt>
      <trkpt lat="43.95286" lon="1.93207">
        <ele>172.8307</ele>
        <time>2014-10-18T13:47:51Z</time>
      </trkpt>
      <trkpt lat="43.95294" lon="1.93213">
        <ele>172.37799</ele>
        <time>2014-10-18T13:47:56Z</time>
      </trkpt>
      <trkpt lat="43.953" lon="1.93218">
        <ele>172.37799</ele>
        <time>2014-10-18T13:48:01Z</time>
      </trkpt>
      <trkpt lat="43.95305" lon="1.93222">
        <ele>172.43799</ele>
        <time>2014-10-18T13:48:06Z</time>
      </trkpt>
      <trkpt lat="43.95311" lon="1.93226">
        <ele>172.43799</ele>
        <time>2014-10-18T13:48:11Z</time>
      </trkpt>
      <trkpt lat="43.95318" lon="1.9323">
        <ele>172.45256</ele>
        <time>2014-10-18T13:48:16Z</time>
      </trkpt>
      <trkpt lat="43.95324" lon="1.93233">
        <ele>172.45256</ele>
        <time>2014-10-18T13:48:21Z</time>
      </trkpt>
      <trkpt lat="43.95331" lon="1.93235">
        <ele>172.58194</ele>
        <time>2014-10-18T13:48:26Z</time>
      </trkpt>
      <trkpt lat="43.95337" lon="1.93237">
        <ele>172.58194</ele>
        <time>2014-10-18T13:48:31Z</time>
      </trkpt>
      <trkpt lat="43.95342" lon="1.93239">
        <ele>172.85896</ele>
        <time>2014-10-18T13:48:36Z</time>
      </trkpt>
      <trkpt lat="43.95348" lon="1.93241">
        <ele>172.85896</ele>
        <time>2014-10-18T13:48:41Z</time>
      </trkpt>
      <trkpt lat="43.95354" lon="1.93241">
        <ele>173.60178</ele>
        <time>2014-10-18T13:48:46Z</time>
      </trkpt>
      <trkpt lat="43.95361" lon="1.93242">
        <ele>173.60178</ele>
        <time>2014-10-18T13:48:51Z</time>
      </trkpt>
      <trkpt lat="43.95367" lon="1.93243">
        <ele>174.98854</ele>
        <time>2014-10-18T13:48:56Z</time>
      </trkpt>
      <trkpt lat="43.95373" lon="1.93243">
        <ele>174.98854</ele>
        <time>2014-10-18T13:49:01Z</time>
      </trkpt>
      <trkpt lat="43.95379" lon="1.93245">
        <ele>176.54842</ele>
        <time>2014-10-18T13:49:06Z</time>
      </trkpt>
      <trkpt lat="43.95384" lon="1.93245">
        <ele>176.54842</ele>
        <time>2014-10-18T13:49:11Z</time>
      </trkpt>
      <trkpt lat="43.95389" lon="1.93246">
        <ele>178.16171</ele>
        <time>2014-10-18T13:49:16Z</time>
      </trkpt>
      <trkpt lat="43.95395" lon="1.93249">
        <ele>178.16171</ele>
        <time>2014-10-18T13:49:21Z</time>
      </trkpt>
      <trkpt lat="43.954" lon="1.93251">
        <ele>179.93356</ele>
        <time>2014-10-18T13:49:26Z</time>
      </trkpt>
      <trkpt lat="43.95405" lon="1.93252">
        <ele>179.93356</ele>
        <time>2014-10-18T13:49:31Z</time>
      </trkpt>
      <trkpt lat="43.95412" lon="1.9325">
        <ele>182.06186</ele>
        <time>2014-10-18T13:49:36Z</time>
      </trkpt>
      <trkpt lat="43.95416" lon="1.93255">
        <ele>182.06186</ele>
        <time>2014-10-18T13:49:41Z</time>
      </trkpt>
      <trkpt lat="43.95422" lon="1.93255">
        <ele>184.22458</ele>
        <time>2014-10-18T13:49:46Z</time>
      </trkpt>
      <trkpt lat="43.95428" lon="1.93256">
        <ele>184.22458</ele>
        <time>2014-10-18T13:49:51Z</time>
      </trkpt>
      <trkpt lat="43.95434" lon="1.93258">
        <ele>186.64217</ele>
        <time>2014-10-18T13:49:56Z</time>
      </trkpt>
      <trkpt lat="43.95441" lon="1.93257">
        <ele>186.64217</ele>
        <time>2014-10-18T13:50:01Z</time>
      </trkpt>
      <trkpt lat="43.95446" lon="1.93264">
        <ele>188.71123</ele>
        <time>2014-10-18T13:50:06Z</time>
      </trkpt>
      <trkpt lat="43.9545" lon="1.93273">
        <ele>188.71123</ele>
        <time>2014-10-18T13:50:11Z</time>
      </trkpt>
      <trkpt lat="43.95455" lon="1.93278">
        <ele>190.19078</ele>
        <time>2014-10-18T13:50:16Z</time>
      </trkpt>
      <trkpt lat="43.95461" lon="1.93282">
        <ele>190.19078</ele>
        <time>2014-10-18T13:50:21Z</time>
      </trkpt>
      <trkpt lat="43.95468" lon="1.93285">
        <ele>191.63756</ele>
        <time>2014-10-18T13:50:26Z</time>
      </trkpt>
      <trkpt lat="43.95474" lon="1.93289">
        <ele>191.63756</ele>
        <time>2014-10-18T13:50:31Z</time>
      </trkpt>
      <trkpt lat="43.95479" lon="1.93294">
        <ele>193.03436</ele>
        <time>2014-10-18T13:50:36Z</time>
      </trkpt>
      <trkpt lat="43.95485" lon="1.93299">
        <ele>193.03436</ele>
        <time>2014-10-18T13:50:41Z</time>
      </trkpt>
      <trkpt lat="43.9549" lon="1.93303">
        <ele>194.53851</ele>
        <time>2014-10-18T13:50:46Z</time>
      </trkpt>
      <trkpt lat="43.95496" lon="1.93307">
        <ele>194.53851</ele>
        <time>2014-10-18T13:50:51Z</time>
      </trkpt>
      <trkpt lat="43.95501" lon="1.93313">
        <ele>195.94969</ele>
        <time>2014-10-18T13:50:56Z</time>
      </trkpt>
      <trkpt lat="43.95505" lon="1.93319">
        <ele>195.94969</ele>
        <time>2014-10-18T13:51:01Z</time>
      </trkpt>
      <trkpt lat="43.9551" lon="1.93324">
        <ele>197.37096</ele>
        <time>2014-10-18T13:51:06Z</time>
      </trkpt>
      <trkpt lat="43.95513" lon="1.93328">
        <ele>197.37096</ele>
        <time>2014-10-18T13:51:11Z</time>
      </trkpt>
      <trkpt lat="43.95519" lon="1.93332">
        <ele>198.73938</ele>
        <time>2014-10-18T13:51:16Z</time>
      </trkpt>
      <trkpt lat="43.95526" lon="1.93336">
        <ele>198.73938</ele>
        <time>2014-10-18T13:51:21Z</time>
      </trkpt>
      <trkpt lat="43.95532" lon="1.9334">
        <ele>200.09782</ele>
        <time>2014-10-18T13:51:26Z</time>
      </trkpt>
      <trkpt lat="43.95539" lon="1.93345">
        <ele>200.09782</ele>
        <time>2014-10-18T13:51:31Z</time>
      </trkpt>
      <trkpt lat="43.95543" lon="1.9335">
        <ele>201.22678</ele>
        <time>2014-10-18T13:51:36Z</time>
      </trkpt>
      <trkpt lat="43.95548" lon="1.93354">
        <ele>201.22678</ele>
        <time>2014-10-18T13:51:41Z</time>
      </trkpt>
      <trkpt lat="43.95552" lon="1.93358">
        <ele>202.03896</ele>
        <time>2014-10-18T13:51:46Z</time>
      </trkpt>
      <trkpt lat="43.95558" lon="1.93361">
        <ele>202.03896</ele>
        <time>2014-10-18T13:51:51Z</time>
      </trkpt>
      <trkpt lat="43.95565" lon="1.93363">
        <ele>203.17506</ele>
        <time>2014-10-18T13:51:56Z</time>
      </trkpt>
      <trkpt lat="43.95571" lon="1.93366">
        <ele>203.17506</ele>
        <time>2014-10-18T13:52:01Z</time>
      </trkpt>
      <trkpt lat="43.95577" lon="1.93369">
        <ele>204.2192</ele>
        <time>2014-10-18T13:52:06Z</time>
      </trkpt>
      <trkpt lat="43.95583" lon="1.93372">
        <ele>204.2192</ele>
        <time>2014-10-18T13:52:11Z</time>
      </trkpt>
      <trkpt lat="43.95589" lon="1.93374">
        <ele>205.11786</ele>
        <time>2014-10-18T13:52:16Z</time>
      </trkpt>
      <trkpt lat="43.95596" lon="1.93377">
        <ele>205.11786</ele>
        <time>2014-10-18T13:52:21Z</time>
      </trkpt>
      <trkpt lat="43.95604" lon="1.93378">
        <ele>205.70676</ele>
        <time>2014-10-18T13:52:26Z</time>
      </trkpt>
      <trkpt lat="43.95612" lon="1.93377">
        <ele>205.70676</ele>
        <time>2014-10-18T13:52:31Z</time>
      </trkpt>
      <trkpt lat="43.9562" lon="1.93378">
        <ele>206.43993</ele>
        <time>2014-10-18T13:52:36Z</time>
      </trkpt>
      <trkpt lat="43.95626" lon="1.93376">
        <ele>206.43993</ele>
        <time>2014-10-18T13:52:41Z</time>
      </trkpt>
      <trkpt lat="43.95631" lon="1.93376">
        <ele>207.30542</ele>
        <time>2014-10-18T13:52:46Z</time>
      </trkpt>
      <trkpt lat="43.95636" lon="1.93373">
        <ele>207.30542</ele>
        <time>2014-10-18T13:52:51Z</time>
      </trkpt>
      <trkpt lat="43.9564" lon="1.9337">
        <ele>208.56578</ele>
        <time>2014-10-18T13:52:56Z</time>
      </trkpt>
      <trkpt lat="43.95646" lon="1.93366">
        <ele>208.56578</ele>
        <time>2014-10-18T13:53:01Z</time>
      </trkpt>
      <trkpt lat="43.95653" lon="1.93363">
        <ele>208.99329</ele>
        <time>2014-10-18T13:53:06Z</time>
      </trkpt>
      <trkpt lat="43.95658" lon="1.93361">
        <ele>208.99329</ele>
        <time>2014-10-18T13:53:11Z</time>
      </trkpt>
      <trkpt lat="43.95662" lon="1.93358">
        <ele>209.71544</ele>
        <time>2014-10-18T13:53:16Z</time>
      </trkpt>
      <trkpt lat="43.95666" lon="1.93353">
        <ele>209.71544</ele>
        <time>2014-10-18T13:53:21Z</time>
      </trkpt>
      <trkpt lat="43.95668" lon="1.93347">
        <ele>211.70412</ele>
        <time>2014-10-18T13:53:26Z</time>
      </trkpt>
      <trkpt lat="43.9567" lon="1.93341">
        <ele>211.70412</ele>
        <time>2014-10-18T13:53:31Z</time>
      </trkpt>
      <trkpt lat="43.95676" lon="1.93338">
        <ele>212.65712</ele>
        <time>2014-10-18T13:53:36Z</time>
      </trkpt>
      <trkpt lat="43.95683" lon="1.93335">
        <ele>212.65712</ele>
        <time>2014-10-18T13:53:41Z</time>
      </trkpt>
      <trkpt lat="43.9569" lon="1.93334">
        <ele>213.42746</ele>
        <time>2014-10-18T13:53:46Z</time>
      </trkpt>
      <trkpt lat="43.95697" lon="1.93336">
        <ele>213.42746</ele>
        <time>2014-10-18T13:53:51Z</time>
      </trkpt>
      <trkpt lat="43.95698" lon="1.93338">
        <ele>213.42746</ele>
        <time>2014-10-18T13:53:56Z</time>
      </trkpt>
      <trkpt lat="43.95699" lon="1.93342">
        <ele>214.5755</ele>
        <time>2014-10-18T13:54:01Z</time>
      </trkpt>
      <trkpt lat="43.957" lon="1.93353">
        <ele>214.5755</ele>
        <time>2014-10-18T13:54:06Z</time>
      </trkpt>
      <trkpt lat="43.95702" lon="1.93362">
        <ele>215.50986</ele>
        <time>2014-10-18T13:54:11Z</time>
      </trkpt>
      <trkpt lat="43.95707" lon="1.93372">
        <ele>217.36938</ele>
        <time>2014-10-18T13:54:16Z</time>
      </trkpt>
      <trkpt lat="43.95706" lon="1.93378">
        <ele>217.36938</ele>
        <time>2014-10-18T13:54:21Z</time>
      </trkpt>
      <trkpt lat="43.95707" lon="1.9339">
        <ele>219.39096</ele>
        <time>2014-10-18T13:54:26Z</time>
      </trkpt>
      <trkpt lat="43.95709" lon="1.93395">
        <ele>219.39096</ele>
        <time>2014-10-18T13:54:31Z</time>
      </trkpt>
      <trkpt lat="43.9571" lon="1.93388">
        <ele>221.34273</ele>
        <time>2014-10-18T13:54:36Z</time>
      </trkpt>
      <trkpt lat="43.9571" lon="1.93379">
        <ele>221.34273</ele>
        <time>2014-10-18T13:54:41Z</time>
      </trkpt>
      <trkpt lat="43.95713" lon="1.93371">
        <ele>223.71631</ele>
        <time>2014-10-18T13:54:46Z</time>
      </trkpt>
      <trkpt lat="43.95714" lon="1.93366">
        <ele>223.71631</ele>
        <time>2014-10-18T13:54:51Z</time>
      </trkpt>
      <trkpt lat="43.95713" lon="1.9336">
        <ele>223.71631</ele>
        <time>2014-10-18T13:54:56Z</time>
      </trkpt>
      <trkpt lat="43.95713" lon="1.93354">
        <ele>225.5106</ele>
        <time>2014-10-18T13:55:01Z</time>
      </trkpt>
      <trkpt lat="43.95712" lon="1.93346">
        <ele>225.5106</ele>
        <time>2014-10-18T13:55:06Z</time>
      </trkpt>
      <trkpt lat="43.95713" lon="1.93334">
        <ele>227.35619</ele>
        <time>2014-10-18T13:55:11Z</time>
      </trkpt>
      <trkpt lat="43.95713" lon="1.93323">
        <ele>227.35619</ele>
        <time>2014-10-18T13:55:16Z</time>
      </trkpt>
      <trkpt lat="43.95712" lon="1.93313">
        <ele>228.7132</ele>
        <time>2014-10-18T13:55:21Z</time>
      </trkpt>
      <trkpt lat="43.95712" lon="1.93306">
        <ele>228.7132</ele>
        <time>2014-10-18T13:55:26Z</time>
      </trkpt>
      <trkpt lat="43.95711" lon="1.933">
        <ele>229.41437</ele>
        <time>2014-10-18T13:55:31Z</time>
      </trkpt>
      <trkpt lat="43.9571" lon="1.93294">
        <ele>229.41437</ele>
        <time>2014-10-18T13:55:36Z</time>
      </trkpt>
      <trkpt lat="43.95708" lon="1.93287">
        <ele>229.92635</ele>
        <time>2014-10-18T13:55:41Z</time>
      </trkpt>
      <trkpt lat="43.95705" lon="1.9328">
        <ele>229.92635</ele>
        <time>2014-10-18T13:55:46Z</time>
      </trkpt>
      <trkpt lat="43.95702" lon="1.93274">
        <ele>230.42271</ele>
        <time>2014-10-18T13:55:51Z</time>
      </trkpt>
      <trkpt lat="43.95698" lon="1.93275">
        <ele>230.42271</ele>
        <time>2014-10-18T13:55:56Z</time>
      </trkpt>
      <trkpt lat="43.95695" lon="1.93276">
        <ele>230.42271</ele>
        <time>2014-10-18T13:56:01Z</time>
      </trkpt>
      <trkpt lat="43.95691" lon="1.93276">
        <ele>230.17093</ele>
        <time>2014-10-18T13:56:06Z</time>
      </trkpt>
      <trkpt lat="43.95687" lon="1.93278">
        <ele>230.17093</ele>
        <time>2014-10-18T13:56:11Z</time>
      </trkpt>
      <trkpt lat="43.95684" lon="1.93286">
        <ele>230.19496</ele>
        <time>2014-10-18T13:56:16Z</time>
      </trkpt>
      <trkpt lat="43.95684" lon="1.93296">
        <ele>230.19496</ele>
        <time>2014-10-18T13:56:21Z</time>
      </trkpt>
      <trkpt lat="43.95686" lon="1.93301">
        <ele>229.88643</ele>
        <time>2014-10-18T13:56:26Z</time>
      </trkpt>
      <trkpt lat="43.95688" lon="1.93306">
        <ele>229.88643</ele>
        <time>2014-10-18T13:56:31Z</time>
      </trkpt>
      <trkpt lat="43.95686" lon="1.93309">
        <ele>229.9079</ele>
        <time>2014-10-18T13:56:36Z</time>
      </trkpt>
      <trkpt lat="43.95687" lon="1.93299">
        <ele>229.92935</ele>
        <time>2014-10-18T13:56:41Z</time>
      </trkpt>
      <trkpt lat="43.95682" lon="1.93296">
        <ele>229.95082</ele>
        <time>2014-10-18T13:56:46Z</time>
      </trkpt>
      <trkpt lat="43.95682" lon="1.93285">
        <ele>229.95082</ele>
        <time>2014-10-18T13:56:51Z</time>
      </trkpt>
      <trkpt lat="43.95681" lon="1.93278">
        <ele>230.78134</ele>
        <time>2014-10-18T13:56:56Z</time>
      </trkpt>
      <trkpt lat="43.95679" lon="1.93275">
        <ele>230.78134</ele>
        <time>2014-10-18T13:57:01Z</time>
      </trkpt>
      <trkpt lat="43.95678" lon="1.93274">
        <ele>230.78134</ele>
        <time>2014-10-18T13:57:06Z</time>
      </trkpt>
      <trkpt lat="43.95678" lon="1.93273">
        <ele>230.78134</ele>
        <time>2014-10-18T13:57:11Z</time>
      </trkpt>
      <trkpt lat="43.95677" lon="1.93272">
        <ele>230.78134</ele>
        <time>2014-10-18T13:57:16Z</time>
      </trkpt>
      <trkpt lat="43.95677" lon="1.93271">
        <ele>230.78134</ele>
        <time>2014-10-18T13:57:21Z</time>
      </trkpt>
      <trkpt lat="43.95677" lon="1.93271">
        <ele>230.78134</ele>
        <time>2014-10-18T13:57:26Z</time>
      </trkpt>
      <trkpt lat="43.95677" lon="1.93271">
        <ele>230.78134</ele>
        <time>2014-10-18T13:57:31Z</time>
      </trkpt>
      <trkpt lat="43.95677" lon="1.93271">
        <ele>230.78134</ele>
        <time>2014-10-18T13:57:36Z</time>
      </trkpt>
      <trkpt lat="43.95677" lon="1.93271">
        <ele>230.78134</ele>
        <time>2014-10-18T13:57:41Z</time>
      </trkpt>
      <trkpt lat="43.95677" lon="1.93271">
        <ele>230.78134</ele>
        <time>2014-10-18T13:57:46Z</time>
      </trkpt>
      <trkpt lat="43.95677" lon="1.93274">
        <ele>230.78134</ele>
        <time>2014-10-18T13:57:51Z</time>
      </trkpt>
      <trkpt lat="43.95677" lon="1.93272">
        <ele>231.57295</ele>
        <time>2014-10-18T13:57:56Z</time>
      </trkpt>
      <trkpt lat="43.95677" lon="1.93272">
        <ele>231.57295</ele>
        <time>2014-10-18T13:58:01Z</time>
      </trkpt>
      <trkpt lat="43.95678" lon="1.93272">
        <ele>231.57295</ele>
        <time>2014-10-18T13:58:06Z</time>
      </trkpt>
      <trkpt lat="43.95678" lon="1.93272">
        <ele>231.57295</ele>
        <time>2014-10-18T13:58:11Z</time>
      </trkpt>
      <trkpt lat="43.95678" lon="1.93272">
        <ele>231.57295</ele>
        <time>2014-10-18T13:58:16Z</time>
      </trkpt>
      <trkpt lat="43.95678" lon="1.93271">
        <ele>231.57295</ele>
        <time>2014-10-18T13:58:21Z</time>
      </trkpt>
      <trkpt lat="43.95684" lon="1.93269">
        <ele>231.57295</ele>
        <time>2014-10-18T13:58:26Z</time>
      </trkpt>
      <trkpt lat="43.95686" lon="1.93268">
        <ele>232.08421</ele>
        <time>2014-10-18T13:58:31Z</time>
      </trkpt>
      <trkpt lat="43.95691" lon="1.93267">
        <ele>232.08421</ele>
        <time>2014-10-18T13:58:36Z</time>
      </trkpt>
      <trkpt lat="43.95694" lon="1.93267">
        <ele>232.08421</ele>
        <time>2014-10-18T13:58:41Z</time>
      </trkpt>
      <trkpt lat="43.95696" lon="1.93264">
        <ele>232.29399</ele>
        <time>2014-10-18T13:58:46Z</time>
      </trkpt>
      <trkpt lat="43.95696" lon="1.93255">
        <ele>232.29399</ele>
        <time>2014-10-18T13:58:51Z</time>
      </trkpt>
      <trkpt lat="43.95699" lon="1.93246">
        <ele>232.44296</ele>
        <time>2014-10-18T13:58:56Z</time>
      </trkpt>
      <trkpt lat="43.95701" lon="1.93239">
        <ele>232.44296</ele>
        <time>2014-10-18T13:59:01Z</time>
      </trkpt>
      <trkpt lat="43.95703" lon="1.93233">
        <ele>232.55252</ele>
        <time>2014-10-18T13:59:06Z</time>
      </trkpt>
      <trkpt lat="43.95706" lon="1.93227">
        <ele>232.55252</ele>
        <time>2014-10-18T13:59:11Z</time>
      </trkpt>
      <trkpt lat="43.95708" lon="1.93221">
        <ele>232.49849</ele>
        <time>2014-10-18T13:59:16Z</time>
      </trkpt>
      <trkpt lat="43.9571" lon="1.93213">
        <ele>232.49849</ele>
        <time>2014-10-18T13:59:21Z</time>
      </trkpt>
      <trkpt lat="43.9571" lon="1.93206">
        <ele>232.1951</ele>
        <time>2014-10-18T13:59:26Z</time>
      </trkpt>
      <trkpt lat="43.95711" lon="1.93196">
        <ele>232.1951</ele>
        <time>2014-10-18T13:59:31Z</time>
      </trkpt>
      <trkpt lat="43.95712" lon="1.93189">
        <ele>232.55789</ele>
        <time>2014-10-18T13:59:36Z</time>
      </trkpt>
      <trkpt lat="43.95716" lon="1.93184">
        <ele>232.55789</ele>
        <time>2014-10-18T13:59:41Z</time>
      </trkpt>
      <trkpt lat="43.95716" lon="1.93179">
        <ele>232.55789</ele>
        <time>2014-10-18T13:59:46Z</time>
      </trkpt>
      <trkpt lat="43.95716" lon="1.9318">
        <ele>232.55789</ele>
        <time>2014-10-18T13:59:51Z</time>
      </trkpt>
      <trkpt lat="43.95715" lon="1.93178">
        <ele>232.97775</ele>
        <time>2014-10-18T13:59:56Z</time>
      </trkpt>
      <trkpt lat="43.95715" lon="1.93177">
        <ele>232.97775</ele>
        <time>2014-10-18T14:00:01Z</time>
      </trkpt>
      <trkpt lat="43.95716" lon="1.93178">
        <ele>232.97775</ele>
        <time>2014-10-18T14:00:06Z</time>
      </trkpt>
      <trkpt lat="43.95716" lon="1.93178">
        <ele>232.97775</ele>
        <time>2014-10-18T14:00:11Z</time>
      </trkpt>
      <trkpt lat="43.95716" lon="1.93178">
        <ele>232.97775</ele>
        <time>2014-10-18T14:00:16Z</time>
      </trkpt>
      <trkpt lat="43.95716" lon="1.93178">
        <ele>232.97775</ele>
        <time>2014-10-18T14:00:21Z</time>
      </trkpt>
      <trkpt lat="43.95715" lon="1.93177">
        <ele>232.97775</ele>
        <time>2014-10-18T14:00:26Z</time>
      </trkpt>
      <trkpt lat="43.95716" lon="1.93177">
        <ele>232.97775</ele>
        <time>2014-10-18T14:00:31Z</time>
      </trkpt>
      <trkpt lat="43.95718" lon="1.93176">
        <ele>232.97775</ele>
        <time>2014-10-18T14:00:36Z</time>
      </trkpt>
      <trkpt lat="43.95718" lon="1.93176">
        <ele>232.97775</ele>
        <time>2014-10-18T14:00:41Z</time>
      </trkpt>
      <trkpt lat="43.95718" lon="1.93176">
        <ele>232.97775</ele>
        <time>2014-10-18T14:00:46Z</time>
      </trkpt>
      <trkpt lat="43.95718" lon="1.93176">
        <ele>232.97775</ele>
        <time>2014-10-18T14:00:51Z</time>
      </trkpt>
      <trkpt lat="43.95718" lon="1.93176">
        <ele>232.97775</ele>
        <time>2014-10-18T14:00:56Z</time>
      </trkpt>
      <trkpt lat="43.95718" lon="1.93176">
        <ele>232.97775</ele>
        <time>2014-10-18T14:01:01Z</time>
      </trkpt>
      <trkpt lat="43.95718" lon="1.93176">
        <ele>232.97775</ele>
        <time>2014-10-18T14:01:06Z</time>
      </trkpt>
      <trkpt lat="43.95718" lon="1.93176">
        <ele>232.97775</ele>
        <time>2014-10-18T14:01:11Z</time>
      </trkpt>
      <trkpt lat="43.95718" lon="1.93176">
        <ele>232.97775</ele>
        <time>2014-10-18T14:01:16Z</time>
      </trkpt>
      <trkpt lat="43.95718" lon="1.93176">
        <ele>232.97775</ele>
        <time>2014-10-18T14:01:21Z</time>
      </trkpt>
      <trkpt lat="43.95718" lon="1.93176">
        <ele>232.97775</ele>
        <time>2014-10-18T14:01:26Z</time>
      </trkpt>
      <trkpt lat="43.95718" lon="1.93176">
        <ele>232.97775</ele>
        <time>2014-10-18T14:01:31Z</time>
      </trkpt>
      <trkpt lat="43.95718" lon="1.93176">
        <ele>232.97775</ele>
        <time>2014-10-18T14:01:36Z</time>
      </trkpt>
      <trkpt lat="43.95718" lon="1.93176">
        <ele>232.97775</ele>
        <time>2014-10-18T14:01:41Z</time>
      </trkpt>
      <trkpt lat="43.95717" lon="1.93176">
        <ele>232.97775</ele>
        <time>2014-10-18T14:01:46Z</time>
      </trkpt>
      <trkpt lat="43.95717" lon="1.93177">
        <ele>232.97775</ele>
        <time>2014-10-18T14:01:51Z</time>
      </trkpt>
      <trkpt lat="43.95717" lon="1.93177">
        <ele>232.97775</ele>
        <time>2014-10-18T14:01:56Z</time>
      </trkpt>
      <trkpt lat="43.95717" lon="1.93177">
        <ele>232.97775</ele>
        <time>2014-10-18T14:02:01Z</time>
      </trkpt>
      <trkpt lat="43.95717" lon="1.93177">
        <ele>232.97775</ele>
        <time>2014-10-18T14:02:06Z</time>
      </trkpt>
      <trkpt lat="43.95717" lon="1.93177">
        <ele>232.97775</ele>
        <time>2014-10-18T14:02:11Z</time>
      </trkpt>
      <trkpt lat="43.95717" lon="1.93177">
        <ele>232.97775</ele>
        <time>2014-10-18T14:02:16Z</time>
      </trkpt>
      <trkpt lat="43.95717" lon="1.93177">
        <ele>232.97775</ele>
        <time>2014-10-18T14:02:21Z</time>
      </trkpt>
      <trkpt lat="43.95717" lon="1.93177">
        <ele>232.97775</ele>
        <time>2014-10-18T14:02:26Z</time>
      </trkpt>
      <trkpt lat="43.95717" lon="1.93177">
        <ele>232.97775</ele>
        <time>2014-10-18T14:02:31Z</time>
      </trkpt>
      <trkpt lat="43.95717" lon="1.93177">
        <ele>232.97775</ele>
        <time>2014-10-18T14:02:36Z</time>
      </trkpt>
      <trkpt lat="43.95717" lon="1.93177">
        <ele>232.97775</ele>
        <time>2014-10-18T14:02:41Z</time>
      </trkpt>
      <trkpt lat="43.95717" lon="1.93177">
        <ele>232.97775</ele>
        <time>2014-10-18T14:02:46Z</time>
      </trkpt>
      <trkpt lat="43.95717" lon="1.93177">
        <ele>232.97775</ele>
        <time>2014-10-18T14:02:51Z</time>
      </trkpt>
      <trkpt lat="43.95717" lon="1.93177">
        <ele>232.97775</ele>
        <time>2014-10-18T14:02:56Z</time>
      </trkpt>
      <trkpt lat="43.95717" lon="1.93177">
        <ele>232.97775</ele>
        <time>2014-10-18T14:03:01Z</time>
      </trkpt>
      <trkpt lat="43.95717" lon="1.93177">
        <ele>232.97775</ele>
        <time>2014-10-18T14:03:06Z</time>
      </trkpt>
      <trkpt lat="43.95717" lon="1.93177">
        <ele>232.97775</ele>
        <time>2014-10-18T14:03:11Z</time>
      </trkpt>
      <trkpt lat="43.95717" lon="1.93177">
        <ele>232.97775</ele>
        <time>2014-10-18T14:03:16Z</time>
      </trkpt>
      <trkpt lat="43.95717" lon="1.93177">
        <ele>232.97775</ele>
        <time>2014-10-18T14:03:21Z</time>
      </trkpt>
      <trkpt lat="43.95717" lon="1.93177">
        <ele>232.97775</ele>
        <time>2014-10-18T14:03:26Z</time>
      </trkpt>
      <trkpt lat="43.95717" lon="1.93177">
        <ele>232.97775</ele>
        <time>2014-10-18T14:03:31Z</time>
      </trkpt>
      <trkpt lat="43.95717" lon="1.93177">
        <ele>232.97775</ele>
        <time>2014-10-18T14:03:36Z</time>
      </trkpt>
      <trkpt lat="43.95717" lon="1.93177">
        <ele>232.97775</ele>
        <time>2014-10-18T14:03:41Z</time>
      </trkpt>
      <trkpt lat="43.95717" lon="1.93177">
        <ele>232.97775</ele>
        <time>2014-10-18T14:03:46Z</time>
      </trkpt>
      <trkpt lat="43.95717" lon="1.93177">
        <ele>232.97775</ele>
        <time>2014-10-18T14:03:51Z</time>
      </trkpt>
      <trkpt lat="43.95717" lon="1.93177">
        <ele>232.97775</ele>
        <time>2014-10-18T14:03:56Z</time>
      </trkpt>
      <trkpt lat="43.95717" lon="1.93177">
        <ele>232.97775</ele>
        <time>2014-10-18T14:04:01Z</time>
      </trkpt>
      <trkpt lat="43.95717" lon="1.93177">
        <ele>232.97775</ele>
        <time>2014-10-18T14:04:06Z</time>
      </trkpt>
      <trkpt lat="43.95717" lon="1.93177">
        <ele>232.97775</ele>
        <time>2014-10-18T14:04:11Z</time>
      </trkpt>
      <trkpt lat="43.95717" lon="1.93177">
        <ele>232.97775</ele>
        <time>2014-10-18T14:04:16Z</time>
      </trkpt>
      <trkpt lat="43.95717" lon="1.93177">
        <ele>232.97775</ele>
        <time>2014-10-18T14:04:21Z</time>
      </trkpt>
      <trkpt lat="43.95717" lon="1.93177">
        <ele>232.97775</ele>
        <time>2014-10-18T14:04:26Z</time>
      </trkpt>
      <trkpt lat="43.95717" lon="1.93177">
        <ele>232.97775</ele>
        <time>2014-10-18T14:04:31Z</time>
      </trkpt>
      <trkpt lat="43.95717" lon="1.93177">
        <ele>232.97775</ele>
        <time>2014-10-18T14:04:36Z</time>
      </trkpt>
      <trkpt lat="43.95717" lon="1.93177">
        <ele>232.97775</ele>
        <time>2014-10-18T14:04:41Z</time>
      </trkpt>
      <trkpt lat="43.95717" lon="1.93177">
        <ele>232.97775</ele>
        <time>2014-10-18T14:04:46Z</time>
      </trkpt>
      <trkpt lat="43.95717" lon="1.93177">
        <ele>232.97775</ele>
        <time>2014-10-18T14:04:51Z</time>
      </trkpt>
      <trkpt lat="43.95717" lon="1.93177">
        <ele>232.97775</ele>
        <time>2014-10-18T14:04:56Z</time>
      </trkpt>
      <trkpt lat="43.95717" lon="1.93177">
        <ele>232.97775</ele>
        <time>2014-10-18T14:05:01Z</time>
      </trkpt>
      <trkpt lat="43.95717" lon="1.93177">
        <ele>232.97775</ele>
        <time>2014-10-18T14:05:06Z</time>
      </trkpt>
      <trkpt lat="43.95717" lon="1.93177">
        <ele>232.97775</ele>
        <time>2014-10-18T14:05:11Z</time>
      </trkpt>
      <trkpt lat="43.95717" lon="1.93177">
        <ele>232.97775</ele>
        <time>2014-10-18T14:05:16Z</time>
      </trkpt>
      <trkpt lat="43.95717" lon="1.93177">
        <ele>232.97775</ele>
        <time>2014-10-18T14:05:21Z</time>
      </trkpt>
      <trkpt lat="43.95717" lon="1.93177">
        <ele>232.97775</ele>
        <time>2014-10-18T14:05:26Z</time>
      </trkpt>
      <trkpt lat="43.95717" lon="1.93177">
        <ele>232.97775</ele>
        <time>2014-10-18T14:05:31Z</time>
      </trkpt>
      <trkpt lat="43.95717" lon="1.93177">
        <ele>232.97775</ele>
        <time>2014-10-18T14:05:36Z</time>
      </trkpt>
      <trkpt lat="43.95717" lon="1.93177">
        <ele>232.97775</ele>
        <time>2014-10-18T14:05:41Z</time>
      </trkpt>
      <trkpt lat="43.95717" lon="1.93177">
        <ele>232.97775</ele>
        <time>2014-10-18T14:05:46Z</time>
      </trkpt>
      <trkpt lat="43.95717" lon="1.93177">
        <ele>232.97775</ele>
        <time>2014-10-18T14:05:51Z</time>
      </trkpt>
      <trkpt lat="43.95717" lon="1.93177">
        <ele>232.97775</ele>
        <time>2014-10-18T14:05:56Z</time>
      </trkpt>
      <trkpt lat="43.95717" lon="1.93177">
        <ele>232.97775</ele>
        <time>2014-10-18T14:06:01Z</time>
      </trkpt>
      <trkpt lat="43.95717" lon="1.93177">
        <ele>232.97775</ele>
        <time>2014-10-18T14:06:06Z</time>
      </trkpt>
      <trkpt lat="43.95717" lon="1.93177">
        <ele>232.97775</ele>
        <time>2014-10-18T14:06:11Z</time>
      </trkpt>
      <trkpt lat="43.95717" lon="1.93177">
        <ele>232.97775</ele>
        <time>2014-10-18T14:06:16Z</time>
      </trkpt>
      <trkpt lat="43.95717" lon="1.93177">
        <ele>232.97775</ele>
        <time>2014-10-18T14:06:21Z</time>
      </trkpt>
      <trkpt lat="43.95717" lon="1.93177">
        <ele>232.97775</ele>
        <time>2014-10-18T14:06:26Z</time>
      </trkpt>
      <trkpt lat="43.95717" lon="1.93177">
        <ele>232.97775</ele>
        <time>2014-10-18T14:06:31Z</time>
      </trkpt>
      <trkpt lat="43.95717" lon="1.93176">
        <ele>232.97775</ele>
        <time>2014-10-18T14:06:36Z</time>
      </trkpt>
      <trkpt lat="43.95717" lon="1.93176">
        <ele>232.97775</ele>
        <time>2014-10-18T14:06:41Z</time>
      </trkpt>
      <trkpt lat="43.95717" lon="1.93176">
        <ele>232.97775</ele>
        <time>2014-10-18T14:06:46Z</time>
      </trkpt>
      <trkpt lat="43.95717" lon="1.93176">
        <ele>232.97775</ele>
        <time>2014-10-18T14:06:51Z</time>
      </trkpt>
      <trkpt lat="43.95717" lon="1.93176">
        <ele>232.97775</ele>
        <time>2014-10-18T14:06:56Z</time>
      </trkpt>
      <trkpt lat="43.95717" lon="1.93176">
        <ele>232.97775</ele>
        <time>2014-10-18T14:07:01Z</time>
      </trkpt>
      <trkpt lat="43.95717" lon="1.93176">
        <ele>232.97775</ele>
        <time>2014-10-18T14:07:06Z</time>
      </trkpt>
      <trkpt lat="43.95717" lon="1.93176">
        <ele>232.97775</ele>
        <time>2014-10-18T14:07:11Z</time>
      </trkpt>
      <trkpt lat="43.95717" lon="1.93176">
        <ele>232.97775</ele>
        <time>2014-10-18T14:07:16Z</time>
      </trkpt>
      <trkpt lat="43.95717" lon="1.93176">
        <ele>232.97775</ele>
        <time>2014-10-18T14:07:21Z</time>
      </trkpt>
      <trkpt lat="43.95717" lon="1.93176">
        <ele>232.97775</ele>
        <time>2014-10-18T14:07:26Z</time>
      </trkpt>
      <trkpt lat="43.95717" lon="1.93176">
        <ele>232.97775</ele>
        <time>2014-10-18T14:07:31Z</time>
      </trkpt>
      <trkpt lat="43.95717" lon="1.93176">
        <ele>232.97775</ele>
        <time>2014-10-18T14:07:36Z</time>
      </trkpt>
      <trkpt lat="43.95717" lon="1.93176">
        <ele>232.97775</ele>
        <time>2014-10-18T14:07:41Z</time>
      </trkpt>
      <trkpt lat="43.95717" lon="1.93176">
        <ele>232.97775</ele>
        <time>2014-10-18T14:07:46Z</time>
      </trkpt>
      <trkpt lat="43.95717" lon="1.93176">
        <ele>232.97775</ele>
        <time>2014-10-18T14:07:51Z</time>
      </trkpt>
      <trkpt lat="43.95717" lon="1.93176">
        <ele>232.97775</ele>
        <time>2014-10-18T14:07:56Z</time>
      </trkpt>
      <trkpt lat="43.95717" lon="1.93176">
        <ele>232.97775</ele>
        <time>2014-10-18T14:08:01Z</time>
      </trkpt>
      <trkpt lat="43.95717" lon="1.93176">
        <ele>232.97775</ele>
        <time>2014-10-18T14:08:06Z</time>
      </trkpt>
      <trkpt lat="43.95717" lon="1.93176">
        <ele>232.97775</ele>
        <time>2014-10-18T14:08:11Z</time>
      </trkpt>
      <trkpt lat="43.95717" lon="1.93176">
        <ele>232.97775</ele>
        <time>2014-10-18T14:08:16Z</time>
      </trkpt>
      <trkpt lat="43.95717" lon="1.93176">
        <ele>232.97775</ele>
        <time>2014-10-18T14:08:21Z</time>
      </trkpt>
      <trkpt lat="43.95717" lon="1.93176">
        <ele>232.97775</ele>
        <time>2014-10-18T14:08:26Z</time>
      </trkpt>
      <trkpt lat="43.95717" lon="1.93176">
        <ele>232.97775</ele>
        <time>2014-10-18T14:08:31Z</time>
      </trkpt>
      <trkpt lat="43.95717" lon="1.93176">
        <ele>232.97775</ele>
        <time>2014-10-18T14:08:36Z</time>
      </trkpt>
      <trkpt lat="43.95717" lon="1.93176">
        <ele>232.97775</ele>
        <time>2014-10-18T14:08:41Z</time>
      </trkpt>
      <trkpt lat="43.95717" lon="1.93176">
        <ele>232.97775</ele>
        <time>2014-10-18T14:08:46Z</time>
      </trkpt>
      <trkpt lat="43.95717" lon="1.93176">
        <ele>232.97775</ele>
        <time>2014-10-18T14:08:51Z</time>
      </trkpt>
      <trkpt lat="43.95717" lon="1.93176">
        <ele>232.97775</ele>
        <time>2014-10-18T14:08:56Z</time>
      </trkpt>
      <trkpt lat="43.95717" lon="1.93176">
        <ele>232.97775</ele>
        <time>2014-10-18T14:09:01Z</time>
      </trkpt>
      <trkpt lat="43.95717" lon="1.93176">
        <ele>232.97775</ele>
        <time>2014-10-18T14:09:06Z</time>
      </trkpt>
      <trkpt lat="43.95717" lon="1.93176">
        <ele>232.97775</ele>
        <time>2014-10-18T14:09:11Z</time>
      </trkpt>
      <trkpt lat="43.95717" lon="1.93176">
        <ele>232.97775</ele>
        <time>2014-10-18T14:09:16Z</time>
      </trkpt>
      <trkpt lat="43.95717" lon="1.93176">
        <ele>232.97775</ele>
        <time>2014-10-18T14:09:21Z</time>
      </trkpt>
      <trkpt lat="43.95717" lon="1.93176">
        <ele>232.97775</ele>
        <time>2014-10-18T14:09:26Z</time>
      </trkpt>
      <trkpt lat="43.95717" lon="1.93176">
        <ele>232.97775</ele>
        <time>2014-10-18T14:09:31Z</time>
      </trkpt>
      <trkpt lat="43.95717" lon="1.93176">
        <ele>232.97775</ele>
        <time>2014-10-18T14:09:36Z</time>
      </trkpt>
      <trkpt lat="43.95717" lon="1.93176">
        <ele>232.97775</ele>
        <time>2014-10-18T14:09:41Z</time>
      </trkpt>
      <trkpt lat="43.95717" lon="1.93176">
        <ele>232.97775</ele>
        <time>2014-10-18T14:09:46Z</time>
      </trkpt>
      <trkpt lat="43.95717" lon="1.93176">
        <ele>232.97775</ele>
        <time>2014-10-18T14:09:51Z</time>
      </trkpt>
      <trkpt lat="43.95717" lon="1.93176">
        <ele>232.97775</ele>
        <time>2014-10-18T14:09:56Z</time>
      </trkpt>
      <trkpt lat="43.95717" lon="1.93177">
        <ele>232.97775</ele>
        <time>2014-10-18T14:10:01Z</time>
      </trkpt>
      <trkpt lat="43.9572" lon="1.9318">
        <ele>232.97658</ele>
        <time>2014-10-18T14:10:06Z</time>
      </trkpt>
      <trkpt lat="43.95719" lon="1.93178">
        <ele>232.97658</ele>
        <time>2014-10-18T14:10:11Z</time>
      </trkpt>
      <trkpt lat="43.95719" lon="1.93174">
        <ele>232.97658</ele>
        <time>2014-10-18T14:10:16Z</time>
      </trkpt>
      <trkpt lat="43.9572" lon="1.93168">
        <ele>232.83307</ele>
        <time>2014-10-18T14:10:21Z</time>
      </trkpt>
      <trkpt lat="43.95721" lon="1.93161">
        <ele>232.83307</ele>
        <time>2014-10-18T14:10:26Z</time>
      </trkpt>
      <trkpt lat="43.95722" lon="1.93154">
        <ele>233.1661</ele>
        <time>2014-10-18T14:10:31Z</time>
      </trkpt>
      <trkpt lat="43.95724" lon="1.93146">
        <ele>233.1661</ele>
        <time>2014-10-18T14:10:36Z</time>
      </trkpt>
      <trkpt lat="43.95725" lon="1.93139">
        <ele>233.16426</ele>
        <time>2014-10-18T14:10:41Z</time>
      </trkpt>
      <trkpt lat="43.9573" lon="1.93134">
        <ele>233.16426</ele>
        <time>2014-10-18T14:10:46Z</time>
      </trkpt>
      <trkpt lat="43.95734" lon="1.93128">
        <ele>232.2639</ele>
        <time>2014-10-18T14:10:51Z</time>
      </trkpt>
      <trkpt lat="43.95737" lon="1.93123">
        <ele>232.2639</ele>
        <time>2014-10-18T14:10:56Z</time>
      </trkpt>
      <trkpt lat="43.95738" lon="1.93117">
        <ele>231.37201</ele>
        <time>2014-10-18T14:11:01Z</time>
      </trkpt>
      <trkpt lat="43.95739" lon="1.93116">
        <ele>231.37201</ele>
        <time>2014-10-18T14:11:06Z</time>
      </trkpt>
      <trkpt lat="43.95742" lon="1.9311">
        <ele>231.37201</ele>
        <time>2014-10-18T14:11:11Z</time>
      </trkpt>
      <trkpt lat="43.95747" lon="1.93105">
        <ele>230.20476</ele>
        <time>2014-10-18T14:11:16Z</time>
      </trkpt>
      <trkpt lat="43.95753" lon="1.931">
        <ele>230.20476</ele>
        <time>2014-10-18T14:11:21Z</time>
      </trkpt>
      <trkpt lat="43.95757" lon="1.93092">
        <ele>228.31252</ele>
        <time>2014-10-18T14:11:26Z</time>
      </trkpt>
      <trkpt lat="43.95762" lon="1.93085">
        <ele>228.31252</ele>
        <time>2014-10-18T14:11:31Z</time>
      </trkpt>
      <trkpt lat="43.95763" lon="1.93081">
        <ele>226.62086</ele>
        <time>2014-10-18T14:11:36Z</time>
      </trkpt>
      <trkpt lat="43.95766" lon="1.93078">
        <ele>226.62086</ele>
        <time>2014-10-18T14:11:41Z</time>
      </trkpt>
      <trkpt lat="43.95772" lon="1.93073">
        <ele>225.00676</ele>
        <time>2014-10-18T14:11:46Z</time>
      </trkpt>
      <trkpt lat="43.95778" lon="1.93071">
        <ele>225.00676</ele>
        <time>2014-10-18T14:11:51Z</time>
      </trkpt>
      <trkpt lat="43.95785" lon="1.93072">
        <ele>222.7218</ele>
        <time>2014-10-18T14:11:56Z</time>
      </trkpt>
      <trkpt lat="43.95792" lon="1.93071">
        <ele>222.7218</ele>
        <time>2014-10-18T14:12:01Z</time>
      </trkpt>
      <trkpt lat="43.95797" lon="1.93066">
        <ele>220.08305</ele>
        <time>2014-10-18T14:12:06Z</time>
      </trkpt>
      <trkpt lat="43.95799" lon="1.9306">
        <ele>220.08305</ele>
        <time>2014-10-18T14:12:11Z</time>
      </trkpt>
      <trkpt lat="43.95803" lon="1.93054">
        <ele>217.8175</ele>
        <time>2014-10-18T14:12:16Z</time>
      </trkpt>
      <trkpt lat="43.95804" lon="1.93047">
        <ele>217.8175</ele>
        <time>2014-10-18T14:12:21Z</time>
      </trkpt>
      <trkpt lat="43.95805" lon="1.93041">
        <ele>216.02107</ele>
        <time>2014-10-18T14:12:26Z</time>
      </trkpt>
      <trkpt lat="43.95807" lon="1.93032">
        <ele>216.02107</ele>
        <time>2014-10-18T14:12:31Z</time>
      </trkpt>
      <trkpt lat="43.95808" lon="1.93021">
        <ele>214.95409</ele>
        <time>2014-10-18T14:12:36Z</time>
      </trkpt>
      <trkpt lat="43.95809" lon="1.93012">
        <ele>214.95409</ele>
        <time>2014-10-18T14:12:41Z</time>
      </trkpt>
      <trkpt lat="43.95808" lon="1.93001">
        <ele>214.78345</ele>
        <time>2014-10-18T14:12:46Z</time>
      </trkpt>
      <trkpt lat="43.9581" lon="1.92994">
        <ele>214.78345</ele>
        <time>2014-10-18T14:12:51Z</time>
      </trkpt>
      <trkpt lat="43.95818" lon="1.92995">
        <ele>212.98067</ele>
        <time>2014-10-18T14:12:56Z</time>
      </trkpt>
      <trkpt lat="43.95823" lon="1.92995">
        <ele>212.98067</ele>
        <time>2014-10-18T14:13:01Z</time>
      </trkpt>
      <trkpt lat="43.95826" lon="1.92994">
        <ele>212.98067</ele>
        <time>2014-10-18T14:13:06Z</time>
      </trkpt>
      <trkpt lat="43.95829" lon="1.92985">
        <ele>210.86781</ele>
        <time>2014-10-18T14:13:11Z</time>
      </trkpt>
      <trkpt lat="43.95833" lon="1.92974">
        <ele>210.86781</ele>
        <time>2014-10-18T14:13:16Z</time>
      </trkpt>
      <trkpt lat="43.95833" lon="1.92966">
        <ele>209.43994</ele>
        <time>2014-10-18T14:13:21Z</time>
      </trkpt>
      <trkpt lat="43.95834" lon="1.92957">
        <ele>209.43994</ele>
        <time>2014-10-18T14:13:26Z</time>
      </trkpt>
      <trkpt lat="43.95839" lon="1.92947">
        <ele>208.69463</ele>
        <time>2014-10-18T14:13:31Z</time>
      </trkpt>
      <trkpt lat="43.95842" lon="1.92936">
        <ele>208.69463</ele>
        <time>2014-10-18T14:13:36Z</time>
      </trkpt>
      <trkpt lat="43.95846" lon="1.92928">
        <ele>208.39693</ele>
        <time>2014-10-18T14:13:41Z</time>
      </trkpt>
      <trkpt lat="43.95847" lon="1.92921">
        <ele>208.39693</ele>
        <time>2014-10-18T14:13:46Z</time>
      </trkpt>
      <trkpt lat="43.95851" lon="1.92915">
        <ele>206.46867</ele>
        <time>2014-10-18T14:13:51Z</time>
      </trkpt>
      <trkpt lat="43.95854" lon="1.92913">
        <ele>206.46867</ele>
        <time>2014-10-18T14:13:56Z</time>
      </trkpt>
      <trkpt lat="43.95855" lon="1.92916">
        <ele>206.46867</ele>
        <time>2014-10-18T14:14:01Z</time>
      </trkpt>
      <trkpt lat="43.95859" lon="1.92917">
        <ele>204.0872</ele>
        <time>2014-10-18T14:14:06Z</time>
      </trkpt>
      <trkpt lat="43.95859" lon="1.92918">
        <ele>204.0872</ele>
        <time>2014-10-18T14:14:11Z</time>
      </trkpt>
      <trkpt lat="43.95859" lon="1.9292">
        <ele>204.0872</ele>
        <time>2014-10-18T14:14:16Z</time>
      </trkpt>
      <trkpt lat="43.9586" lon="1.92919">
        <ele>204.0872</ele>
        <time>2014-10-18T14:14:21Z</time>
      </trkpt>
      <trkpt lat="43.9586" lon="1.9292">
        <ele>204.0872</ele>
        <time>2014-10-18T14:14:26Z</time>
      </trkpt>
      <trkpt lat="43.95859" lon="1.9292">
        <ele>204.0872</ele>
        <time>2014-10-18T14:14:31Z</time>
      </trkpt>
      <trkpt lat="43.95858" lon="1.92921">
        <ele>204.0872</ele>
        <time>2014-10-18T14:14:36Z</time>
      </trkpt>
      <trkpt lat="43.95858" lon="1.92921">
        <ele>204.0872</ele>
        <time>2014-10-18T14:14:41Z</time>
      </trkpt>
      <trkpt lat="43.95858" lon="1.92921">
        <ele>204.0872</ele>
        <time>2014-10-18T14:14:46Z</time>
      </trkpt>
      <trkpt lat="43.95858" lon="1.92921">
        <ele>204.0872</ele>
        <time>2014-10-18T14:14:51Z</time>
      </trkpt>
      <trkpt lat="43.95858" lon="1.92921">
        <ele>204.0872</ele>
        <time>2014-10-18T14:14:56Z</time>
      </trkpt>
      <trkpt lat="43.95858" lon="1.9292">
        <ele>204.0872</ele>
        <time>2014-10-18T14:15:01Z</time>
      </trkpt>
      <trkpt lat="43.95858" lon="1.9292">
        <ele>204.0872</ele>
        <time>2014-10-18T14:15:06Z</time>
      </trkpt>
      <trkpt lat="43.95858" lon="1.9292">
        <ele>204.0872</ele>
        <time>2014-10-18T14:15:11Z</time>
      </trkpt>
      <trkpt lat="43.95858" lon="1.92921">
        <ele>204.0872</ele>
        <time>2014-10-18T14:15:16Z</time>
      </trkpt>
      <trkpt lat="43.95858" lon="1.92921">
        <ele>204.0872</ele>
        <time>2014-10-18T14:15:21Z</time>
      </trkpt>
      <trkpt lat="43.95857" lon="1.9292">
        <ele>204.0872</ele>
        <time>2014-10-18T14:15:26Z</time>
      </trkpt>
      <trkpt lat="43.95858" lon="1.92921">
        <ele>204.0872</ele>
        <time>2014-10-18T14:15:31Z</time>
      </trkpt>
      <trkpt lat="43.95858" lon="1.92919">
        <ele>202.12823</ele>
        <time>2014-10-18T14:15:36Z</time>
      </trkpt>
      <trkpt lat="43.95858" lon="1.92919">
        <ele>202.12823</ele>
        <time>2014-10-18T14:15:41Z</time>
      </trkpt>
      <trkpt lat="43.95858" lon="1.92919">
        <ele>202.12823</ele>
        <time>2014-10-18T14:15:46Z</time>
      </trkpt>
      <trkpt lat="43.95858" lon="1.92918">
        <ele>202.12823</ele>
        <time>2014-10-18T14:15:51Z</time>
      </trkpt>
      <trkpt lat="43.9586" lon="1.92919">
        <ele>202.12823</ele>
        <time>2014-10-18T14:15:56Z</time>
      </trkpt>
      <trkpt lat="43.95858" lon="1.92922">
        <ele>202.12823</ele>
        <time>2014-10-18T14:16:01Z</time>
      </trkpt>
      <trkpt lat="43.95859" lon="1.9292">
        <ele>202.12823</ele>
        <time>2014-10-18T14:16:06Z</time>
      </trkpt>
      <trkpt lat="43.95859" lon="1.92921">
        <ele>202.12823</ele>
        <time>2014-10-18T14:16:11Z</time>
      </trkpt>
      <trkpt lat="43.95859" lon="1.92921">
        <ele>202.12823</ele>
        <time>2014-10-18T14:16:16Z</time>
      </trkpt>
      <trkpt lat="43.95859" lon="1.92921">
        <ele>202.12823</ele>
        <time>2014-10-18T14:16:21Z</time>
      </trkpt>
      <trkpt lat="43.95859" lon="1.92921">
        <ele>202.12823</ele>
        <time>2014-10-18T14:16:26Z</time>
      </trkpt>
      <trkpt lat="43.95859" lon="1.92921">
        <ele>202.12823</ele>
        <time>2014-10-18T14:16:31Z</time>
      </trkpt>
      <trkpt lat="43.9586" lon="1.92921">
        <ele>202.12823</ele>
        <time>2014-10-18T14:16:36Z</time>
      </trkpt>
      <trkpt lat="43.9586" lon="1.92923">
        <ele>200.34985</ele>
        <time>2014-10-18T14:16:41Z</time>
      </trkpt>
      <trkpt lat="43.95861" lon="1.92924">
        <ele>200.34985</ele>
        <time>2014-10-18T14:16:46Z</time>
      </trkpt>
      <trkpt lat="43.95861" lon="1.92924">
        <ele>200.34985</ele>
        <time>2014-10-18T14:16:51Z</time>
      </trkpt>
      <trkpt lat="43.95861" lon="1.92924">
        <ele>200.34985</ele>
        <time>2014-10-18T14:16:56Z</time>
      </trkpt>
      <trkpt lat="43.95861" lon="1.92924">
        <ele>200.34985</ele>
        <time>2014-10-18T14:17:01Z</time>
      </trkpt>
      <trkpt lat="43.95861" lon="1.92924">
        <ele>200.34985</ele>
        <time>2014-10-18T14:17:06Z</time>
      </trkpt>
      <trkpt lat="43.95861" lon="1.92924">
        <ele>200.34985</ele>
        <time>2014-10-18T14:17:11Z</time>
      </trkpt>
      <trkpt lat="43.95861" lon="1.92924">
        <ele>200.34985</ele>
        <time>2014-10-18T14:17:16Z</time>
      </trkpt>
      <trkpt lat="43.95861" lon="1.92924">
        <ele>200.34985</ele>
        <time>2014-10-18T14:17:21Z</time>
      </trkpt>
      <trkpt lat="43.9586" lon="1.92924">
        <ele>200.34985</ele>
        <time>2014-10-18T14:17:26Z</time>
      </trkpt>
      <trkpt lat="43.9586" lon="1.92924">
        <ele>200.34985</ele>
        <time>2014-10-18T14:17:31Z</time>
      </trkpt>
      <trkpt lat="43.9586" lon="1.92924">
        <ele>200.34985</ele>
        <time>2014-10-18T14:17:36Z</time>
      </trkpt>
      <trkpt lat="43.95859" lon="1.92922">
        <ele>200.34985</ele>
        <time>2014-10-18T14:17:41Z</time>
      </trkpt>
      <trkpt lat="43.95859" lon="1.92922">
        <ele>200.34985</ele>
        <time>2014-10-18T14:17:46Z</time>
      </trkpt>
      <trkpt lat="43.95859" lon="1.92922">
        <ele>200.34985</ele>
        <time>2014-10-18T14:17:51Z</time>
      </trkpt>
      <trkpt lat="43.95859" lon="1.92922">
        <ele>200.34985</ele>
        <time>2014-10-18T14:17:56Z</time>
      </trkpt>
      <trkpt lat="43.9586" lon="1.92919">
        <ele>200.34985</ele>
        <time>2014-10-18T14:18:01Z</time>
      </trkpt>
      <trkpt lat="43.9586" lon="1.92919">
        <ele>200.34985</ele>
        <time>2014-10-18T14:18:06Z</time>
      </trkpt>
      <trkpt lat="43.9586" lon="1.92919">
        <ele>200.34985</ele>
        <time>2014-10-18T14:18:11Z</time>
      </trkpt>
      <trkpt lat="43.95859" lon="1.92919">
        <ele>200.34985</ele>
        <time>2014-10-18T14:18:16Z</time>
      </trkpt>
      <trkpt lat="43.95859" lon="1.92919">
        <ele>200.34985</ele>
        <time>2014-10-18T14:18:21Z</time>
      </trkpt>
      <trkpt lat="43.95859" lon="1.92918">
        <ele>200.34985</ele>
        <time>2014-10-18T14:18:26Z</time>
      </trkpt>
      <trkpt lat="43.9586" lon="1.92918">
        <ele>198.52715</ele>
        <time>2014-10-18T14:18:31Z</time>
      </trkpt>
      <trkpt lat="43.9586" lon="1.92918">
        <ele>198.52715</ele>
        <time>2014-10-18T14:18:36Z</time>
      </trkpt>
      <trkpt lat="43.9586" lon="1.92918">
        <ele>198.52715</ele>
        <time>2014-10-18T14:18:41Z</time>
      </trkpt>
      <trkpt lat="43.9586" lon="1.92918">
        <ele>198.52715</ele>
        <time>2014-10-18T14:18:46Z</time>
      </trkpt>
      <trkpt lat="43.9586" lon="1.92918">
        <ele>198.52715</ele>
        <time>2014-10-18T14:18:51Z</time>
      </trkpt>
      <trkpt lat="43.9586" lon="1.92918">
        <ele>198.52715</ele>
        <time>2014-10-18T14:18:56Z</time>
      </trkpt>
      <trkpt lat="43.95858" lon="1.92916">
        <ele>198.52715</ele>
        <time>2014-10-18T14:19:01Z</time>
      </trkpt>
      <trkpt lat="43.95858" lon="1.92916">
        <ele>198.52715</ele>
        <time>2014-10-18T14:19:06Z</time>
      </trkpt>
      <trkpt lat="43.95859" lon="1.92917">
        <ele>198.52715</ele>
        <time>2014-10-18T14:19:11Z</time>
      </trkpt>
      <trkpt lat="43.95859" lon="1.92917">
        <ele>198.52715</ele>
        <time>2014-10-18T14:19:16Z</time>
      </trkpt>
      <trkpt lat="43.95859" lon="1.92917">
        <ele>198.52715</ele>
        <time>2014-10-18T14:19:21Z</time>
      </trkpt>
      <trkpt lat="43.95859" lon="1.92917">
        <ele>198.52715</ele>
        <time>2014-10-18T14:19:26Z</time>
      </trkpt>
      <trkpt lat="43.9586" lon="1.92917">
        <ele>198.52715</ele>
        <time>2014-10-18T14:19:31Z</time>
      </trkpt>
      <trkpt lat="43.95859" lon="1.92917">
        <ele>198.52715</ele>
        <time>2014-10-18T14:19:36Z</time>
      </trkpt>
      <trkpt lat="43.95859" lon="1.92917">
        <ele>198.52715</ele>
        <time>2014-10-18T14:19:41Z</time>
      </trkpt>
      <trkpt lat="43.95859" lon="1.92917">
        <ele>198.52715</ele>
        <time>2014-10-18T14:19:46Z</time>
      </trkpt>
      <trkpt lat="43.95859" lon="1.92917">
        <ele>198.52715</ele>
        <time>2014-10-18T14:19:51Z</time>
      </trkpt>
      <trkpt lat="43.9586" lon="1.92917">
        <ele>198.52715</ele>
        <time>2014-10-18T14:19:56Z</time>
      </trkpt>
      <trkpt lat="43.95861" lon="1.92915">
        <ele>198.52715</ele>
        <time>2014-10-18T14:20:01Z</time>
      </trkpt>
      <trkpt lat="43.9586" lon="1.92914">
        <ele>198.52715</ele>
        <time>2014-10-18T14:20:06Z</time>
      </trkpt>
      <trkpt lat="43.95858" lon="1.92913">
        <ele>197.73434</ele>
        <time>2014-10-18T14:20:11Z</time>
      </trkpt>
      <trkpt lat="43.95859" lon="1.92913">
        <ele>197.73434</ele>
        <time>2014-10-18T14:20:16Z</time>
      </trkpt>
      <trkpt lat="43.95862" lon="1.9291">
        <ele>197.73434</ele>
        <time>2014-10-18T14:20:21Z</time>
      </trkpt>
      <trkpt lat="43.95864" lon="1.92905">
        <ele>197.73434</ele>
        <time>2014-10-18T14:20:26Z</time>
      </trkpt>
      <trkpt lat="43.95867" lon="1.92899">
        <ele>197.68105</ele>
        <time>2014-10-18T14:20:31Z</time>
      </trkpt>
      <trkpt lat="43.9587" lon="1.92893">
        <ele>197.68105</ele>
        <time>2014-10-18T14:20:36Z</time>
      </trkpt>
      <trkpt lat="43.95873" lon="1.92887">
        <ele>197.28897</ele>
        <time>2014-10-18T14:20:41Z</time>
      </trkpt>
      <trkpt lat="43.95873" lon="1.92883">
        <ele>197.28897</ele>
        <time>2014-10-18T14:20:46Z</time>
      </trkpt>
      <trkpt lat="43.95873" lon="1.92883">
        <ele>197.28897</ele>
        <time>2014-10-18T14:20:51Z</time>
      </trkpt>
      <trkpt lat="43.95873" lon="1.92884">
        <ele>197.28897</ele>
        <time>2014-10-18T14:20:56Z</time>
      </trkpt>
      <trkpt lat="43.95873" lon="1.92884">
        <ele>197.28897</ele>
        <time>2014-10-18T14:21:01Z</time>
      </trkpt>
      <trkpt lat="43.95873" lon="1.92884">
        <ele>197.28897</ele>
        <time>2014-10-18T14:21:06Z</time>
      </trkpt>
      <trkpt lat="43.95873" lon="1.92884">
        <ele>197.28897</ele>
        <time>2014-10-18T14:21:11Z</time>
      </trkpt>
      <trkpt lat="43.95874" lon="1.92884">
        <ele>197.28897</ele>
        <time>2014-10-18T14:21:16Z</time>
      </trkpt>
      <trkpt lat="43.95873" lon="1.92884">
        <ele>197.28897</ele>
        <time>2014-10-18T14:21:21Z</time>
      </trkpt>
      <trkpt lat="43.95872" lon="1.92885">
        <ele>197.28897</ele>
        <time>2014-10-18T14:21:26Z</time>
      </trkpt>
      <trkpt lat="43.95872" lon="1.92885">
        <ele>197.28897</ele>
        <time>2014-10-18T14:21:31Z</time>
      </trkpt>
      <trkpt lat="43.95872" lon="1.92884">
        <ele>197.28897</ele>
        <time>2014-10-18T14:21:36Z</time>
      </trkpt>
      <trkpt lat="43.95872" lon="1.92881">
        <ele>196.9865</ele>
        <time>2014-10-18T14:21:41Z</time>
      </trkpt>
      <trkpt lat="43.95875" lon="1.92871">
        <ele>196.9865</ele>
        <time>2014-10-18T14:21:46Z</time>
      </trkpt>
      <trkpt lat="43.95879" lon="1.92862">
        <ele>196.8243</ele>
        <time>2014-10-18T14:21:51Z</time>
      </trkpt>
      <trkpt lat="43.95883" lon="1.92854">
        <ele>196.8243</ele>
        <time>2014-10-18T14:21:56Z</time>
      </trkpt>
      <trkpt lat="43.95885" lon="1.92847">
        <ele>196.7047</ele>
        <time>2014-10-18T14:22:01Z</time>
      </trkpt>
      <trkpt lat="43.95887" lon="1.92844">
        <ele>196.7047</ele>
        <time>2014-10-18T14:22:06Z</time>
      </trkpt>
      <trkpt lat="43.95887" lon="1.92839">
        <ele>196.7047</ele>
        <time>2014-10-18T14:22:11Z</time>
      </trkpt>
      <trkpt lat="43.9589" lon="1.92832">
        <ele>195.83078</ele>
        <time>2014-10-18T14:22:16Z</time>
      </trkpt>
      <trkpt lat="43.95892" lon="1.9283">
        <ele>195.83078</ele>
        <time>2014-10-18T14:22:21Z</time>
      </trkpt>
      <trkpt lat="43.95894" lon="1.92822">
        <ele>195.83078</ele>
        <time>2014-10-18T14:22:26Z</time>
      </trkpt>
      <trkpt lat="43.95897" lon="1.92815">
        <ele>195.3973</ele>
        <time>2014-10-18T14:22:31Z</time>
      </trkpt>
      <trkpt lat="43.95899" lon="1.92808">
        <ele>195.3973</ele>
        <time>2014-10-18T14:22:36Z</time>
      </trkpt>
      <trkpt lat="43.95901" lon="1.928">
        <ele>194.9967</ele>
        <time>2014-10-18T14:22:41Z</time>
      </trkpt>
      <trkpt lat="43.95903" lon="1.92794">
        <ele>194.9967</ele>
        <time>2014-10-18T14:22:46Z</time>
      </trkpt>
      <trkpt lat="43.95903" lon="1.92788">
        <ele>194.9967</ele>
        <time>2014-10-18T14:22:51Z</time>
      </trkpt>
      <trkpt lat="43.95904" lon="1.92782">
        <ele>195.11592</ele>
        <time>2014-10-18T14:22:56Z</time>
      </trkpt>
      <trkpt lat="43.95906" lon="1.92779">
        <ele>195.11592</ele>
        <time>2014-10-18T14:23:01Z</time>
      </trkpt>
      <trkpt lat="43.95908" lon="1.92775">
        <ele>195.11592</ele>
        <time>2014-10-18T14:23:06Z</time>
      </trkpt>
      <trkpt lat="43.95912" lon="1.9277">
        <ele>194.51843</ele>
        <time>2014-10-18T14:23:11Z</time>
      </trkpt>
      <trkpt lat="43.95915" lon="1.92764">
        <ele>194.51843</ele>
        <time>2014-10-18T14:23:16Z</time>
      </trkpt>
      <trkpt lat="43.95918" lon="1.92758">
        <ele>194.12126</ele>
        <time>2014-10-18T14:23:21Z</time>
      </trkpt>
      <trkpt lat="43.95919" lon="1.92751">
        <ele>194.12126</ele>
        <time>2014-10-18T14:23:26Z</time>
      </trkpt>
      <trkpt lat="43.95922" lon="1.92745">
        <ele>193.46207</ele>
        <time>2014-10-18T14:23:31Z</time>
      </trkpt>
      <trkpt lat="43.95924" lon="1.92739">
        <ele>193.46207</ele>
        <time>2014-10-18T14:23:36Z</time>
      </trkpt>
      <trkpt lat="43.95926" lon="1.92734">
        <ele>193.04985</ele>
        <time>2014-10-18T14:23:41Z</time>
      </trkpt>
      <trkpt lat="43.95926" lon="1.92732">
        <ele>193.04985</ele>
        <time>2014-10-18T14:23:46Z</time>
      </trkpt>
      <trkpt lat="43.95928" lon="1.92725">
        <ele>193.04985</ele>
        <time>2014-10-18T14:23:51Z</time>
      </trkpt>
      <trkpt lat="43.95931" lon="1.92718">
        <ele>192.707</ele>
        <time>2014-10-18T14:23:56Z</time>
      </trkpt>
      <trkpt lat="43.95934" lon="1.92711">
        <ele>192.707</ele>
        <time>2014-10-18T14:24:01Z</time>
      </trkpt>
      <trkpt lat="43.95937" lon="1.92705">
        <ele>192.5137</ele>
        <time>2014-10-18T14:24:06Z</time>
      </trkpt>
      <trkpt lat="43.95939" lon="1.92698">
        <ele>192.5137</ele>
        <time>2014-10-18T14:24:11Z</time>
      </trkpt>
      <trkpt lat="43.95941" lon="1.92692">
        <ele>192.52934</ele>
        <time>2014-10-18T14:24:16Z</time>
      </trkpt>
      <trkpt lat="43.95943" lon="1.92685">
        <ele>192.52934</ele>
        <time>2014-10-18T14:24:21Z</time>
      </trkpt>
      <trkpt lat="43.95945" lon="1.92678">
        <ele>192.13106</ele>
        <time>2014-10-18T14:24:26Z</time>
      </trkpt>
      <trkpt lat="43.95947" lon="1.92674">
        <ele>192.13106</ele>
        <time>2014-10-18T14:24:31Z</time>
      </trkpt>
      <trkpt lat="43.95947" lon="1.92669">
        <ele>192.13106</ele>
        <time>2014-10-18T14:24:36Z</time>
      </trkpt>
      <trkpt lat="43.95947" lon="1.92663">
        <ele>191.59311</ele>
        <time>2014-10-18T14:24:41Z</time>
      </trkpt>
      <trkpt lat="43.95946" lon="1.92655">
        <ele>191.59311</ele>
        <time>2014-10-18T14:24:46Z</time>
      </trkpt>
      <trkpt lat="43.95946" lon="1.92645">
        <ele>191.5879</ele>
        <time>2014-10-18T14:24:51Z</time>
      </trkpt>
      <trkpt lat="43.95945" lon="1.92636">
        <ele>191.5879</ele>
        <time>2014-10-18T14:24:56Z</time>
      </trkpt>
      <trkpt lat="43.95946" lon="1.92629">
        <ele>191.78586</ele>
        <time>2014-10-18T14:25:01Z</time>
      </trkpt>
      <trkpt lat="43.95945" lon="1.92622">
        <ele>191.78586</ele>
        <time>2014-10-18T14:25:06Z</time>
      </trkpt>
      <trkpt lat="43.95944" lon="1.92615">
        <ele>191.89539</ele>
        <time>2014-10-18T14:25:11Z</time>
      </trkpt>
      <trkpt lat="43.95945" lon="1.92608">
        <ele>191.89539</ele>
        <time>2014-10-18T14:25:16Z</time>
      </trkpt>
      <trkpt lat="43.95945" lon="1.92601">
        <ele>192.00688</ele>
        <time>2014-10-18T14:25:21Z</time>
      </trkpt>
      <trkpt lat="43.95945" lon="1.92594">
        <ele>192.00688</ele>
        <time>2014-10-18T14:25:26Z</time>
      </trkpt>
      <trkpt lat="43.95946" lon="1.92588">
        <ele>192.49231</ele>
        <time>2014-10-18T14:25:31Z</time>
      </trkpt>
      <trkpt lat="43.95947" lon="1.92581">
        <ele>192.49231</ele>
        <time>2014-10-18T14:25:36Z</time>
      </trkpt>
      <trkpt lat="43.95947" lon="1.92574">
        <ele>192.6577</ele>
        <time>2014-10-18T14:25:41Z</time>
      </trkpt>
      <trkpt lat="43.95949" lon="1.92568">
        <ele>192.6577</ele>
        <time>2014-10-18T14:25:46Z</time>
      </trkpt>
      <trkpt lat="43.9595" lon="1.92561">
        <ele>192.61034</ele>
        <time>2014-10-18T14:25:51Z</time>
      </trkpt>
      <trkpt lat="43.9595" lon="1.92554">
        <ele>192.61034</ele>
        <time>2014-10-18T14:25:56Z</time>
      </trkpt>
      <trkpt lat="43.95952" lon="1.92547">
        <ele>192.23413</ele>
        <time>2014-10-18T14:26:01Z</time>
      </trkpt>
      <trkpt lat="43.95954" lon="1.9254">
        <ele>192.23413</ele>
        <time>2014-10-18T14:26:06Z</time>
      </trkpt>
      <trkpt lat="43.95956" lon="1.92533">
        <ele>191.8836</ele>
        <time>2014-10-18T14:26:11Z</time>
      </trkpt>
      <trkpt lat="43.95957" lon="1.92527">
        <ele>191.8836</ele>
        <time>2014-10-18T14:26:16Z</time>
      </trkpt>
      <trkpt lat="43.95957" lon="1.9252">
        <ele>190.92165</ele>
        <time>2014-10-18T14:26:21Z</time>
      </trkpt>
      <trkpt lat="43.95958" lon="1.92514">
        <ele>190.92165</ele>
        <time>2014-10-18T14:26:26Z</time>
      </trkpt>
      <trkpt lat="43.95957" lon="1.92504">
        <ele>190.58994</ele>
        <time>2014-10-18T14:26:31Z</time>
      </trkpt>
      <trkpt lat="43.95958" lon="1.92496">
        <ele>190.58994</ele>
        <time>2014-10-18T14:26:36Z</time>
      </trkpt>
      <trkpt lat="43.95959" lon="1.92488">
        <ele>190.2358</ele>
        <time>2014-10-18T14:26:41Z</time>
      </trkpt>
      <trkpt lat="43.95958" lon="1.92479">
        <ele>190.2358</ele>
        <time>2014-10-18T14:26:46Z</time>
      </trkpt>
      <trkpt lat="43.95959" lon="1.92473">
        <ele>189.96075</ele>
        <time>2014-10-18T14:26:51Z</time>
      </trkpt>
      <trkpt lat="43.95961" lon="1.92467">
        <ele>189.96075</ele>
        <time>2014-10-18T14:26:56Z</time>
      </trkpt>
      <trkpt lat="43.95963" lon="1.92462">
        <ele>189.42636</ele>
        <time>2014-10-18T14:27:01Z</time>
      </trkpt>
      <trkpt lat="43.95964" lon="1.92456">
        <ele>189.42636</ele>
        <time>2014-10-18T14:27:06Z</time>
      </trkpt>
      <trkpt lat="43.95965" lon="1.92451">
        <ele>189.42636</ele>
        <time>2014-10-18T14:27:11Z</time>
      </trkpt>
      <trkpt lat="43.95966" lon="1.92444">
        <ele>189.28534</ele>
        <time>2014-10-18T14:27:16Z</time>
      </trkpt>
      <trkpt lat="43.95965" lon="1.92437">
        <ele>189.28534</ele>
        <time>2014-10-18T14:27:21Z</time>
      </trkpt>
      <trkpt lat="43.95965" lon="1.92429">
        <ele>189.52168</ele>
        <time>2014-10-18T14:27:26Z</time>
      </trkpt>
      <trkpt lat="43.95964" lon="1.92421">
        <ele>189.52168</ele>
        <time>2014-10-18T14:27:31Z</time>
      </trkpt>
      <trkpt lat="43.95964" lon="1.92414">
        <ele>189.8746</ele>
        <time>2014-10-18T14:27:36Z</time>
      </trkpt>
      <trkpt lat="43.95964" lon="1.92407">
        <ele>189.8746</ele>
        <time>2014-10-18T14:27:41Z</time>
      </trkpt>
      <trkpt lat="43.95965" lon="1.92401">
        <ele>189.84276</ele>
        <time>2014-10-18T14:27:46Z</time>
      </trkpt>
      <trkpt lat="43.95965" lon="1.92394">
        <ele>189.84276</ele>
        <time>2014-10-18T14:27:51Z</time>
      </trkpt>
      <trkpt lat="43.95963" lon="1.92389">
        <ele>189.6689</ele>
        <time>2014-10-18T14:27:56Z</time>
      </trkpt>
      <trkpt lat="43.95962" lon="1.92383">
        <ele>189.6689</ele>
        <time>2014-10-18T14:28:01Z</time>
      </trkpt>
      <trkpt lat="43.95966" lon="1.9238">
        <ele>189.6689</ele>
        <time>2014-10-18T14:28:06Z</time>
      </trkpt>
      <trkpt lat="43.95968" lon="1.92374">
        <ele>189.13165</ele>
        <time>2014-10-18T14:28:11Z</time>
      </trkpt>
      <trkpt lat="43.9597" lon="1.92368">
        <ele>189.13165</ele>
        <time>2014-10-18T14:28:16Z</time>
      </trkpt>
      <trkpt lat="43.95973" lon="1.92362">
        <ele>188.84842</ele>
        <time>2014-10-18T14:28:21Z</time>
      </trkpt>
      <trkpt lat="43.95973" lon="1.9236">
        <ele>188.84842</ele>
        <time>2014-10-18T14:28:26Z</time>
      </trkpt>
      <trkpt lat="43.95976" lon="1.92353">
        <ele>188.84842</ele>
        <time>2014-10-18T14:28:31Z</time>
      </trkpt>
      <trkpt lat="43.9598" lon="1.92346">
        <ele>188.30971</ele>
        <time>2014-10-18T14:28:36Z</time>
      </trkpt>
      <trkpt lat="43.95983" lon="1.92342">
        <ele>188.30971</ele>
        <time>2014-10-18T14:28:41Z</time>
      </trkpt>
      <trkpt lat="43.95983" lon="1.9234">
        <ele>188.30971</ele>
        <time>2014-10-18T14:28:46Z</time>
      </trkpt>
      <trkpt lat="43.95983" lon="1.92339">
        <ele>188.30971</ele>
        <time>2014-10-18T14:28:51Z</time>
      </trkpt>
      <trkpt lat="43.95983" lon="1.92339">
        <ele>188.30971</ele>
        <time>2014-10-18T14:28:56Z</time>
      </trkpt>
      <trkpt lat="43.95986" lon="1.92335">
        <ele>187.53421</ele>
        <time>2014-10-18T14:29:01Z</time>
      </trkpt>
      <trkpt lat="43.95988" lon="1.92331">
        <ele>187.53421</ele>
        <time>2014-10-18T14:29:06Z</time>
      </trkpt>
      <trkpt lat="43.95989" lon="1.92327">
        <ele>187.53421</ele>
        <time>2014-10-18T14:29:11Z</time>
      </trkpt>
      <trkpt lat="43.95991" lon="1.92321">
        <ele>186.79938</ele>
        <time>2014-10-18T14:29:16Z</time>
      </trkpt>
      <trkpt lat="43.95992" lon="1.92314">
        <ele>186.79938</ele>
        <time>2014-10-18T14:29:21Z</time>
      </trkpt>
      <trkpt lat="43.95994" lon="1.92306">
        <ele>185.94424</ele>
        <time>2014-10-18T14:29:26Z</time>
      </trkpt>
      <trkpt lat="43.95996" lon="1.92298">
        <ele>185.94424</ele>
        <time>2014-10-18T14:29:31Z</time>
      </trkpt>
      <trkpt lat="43.95996" lon="1.92291">
        <ele>185.4109</ele>
        <time>2014-10-18T14:29:36Z</time>
      </trkpt>
      <trkpt lat="43.95996" lon="1.92284">
        <ele>185.4109</ele>
        <time>2014-10-18T14:29:41Z</time>
      </trkpt>
      <trkpt lat="43.95996" lon="1.92277">
        <ele>185.06047</ele>
        <time>2014-10-18T14:29:46Z</time>
      </trkpt>
      <trkpt lat="43.95996" lon="1.9227">
        <ele>185.06047</ele>
        <time>2014-10-18T14:29:51Z</time>
      </trkpt>
      <trkpt lat="43.95996" lon="1.92264">
        <ele>184.69174</ele>
        <time>2014-10-18T14:29:56Z</time>
      </trkpt>
      <trkpt lat="43.95996" lon="1.92257">
        <ele>184.69174</ele>
        <time>2014-10-18T14:30:01Z</time>
      </trkpt>
      <trkpt lat="43.95997" lon="1.9225">
        <ele>184.93977</ele>
        <time>2014-10-18T14:30:06Z</time>
      </trkpt>
      <trkpt lat="43.95997" lon="1.92243">
        <ele>184.93977</ele>
        <time>2014-10-18T14:30:11Z</time>
      </trkpt>
      <trkpt lat="43.95996" lon="1.92234">
        <ele>185.58426</ele>
        <time>2014-10-18T14:30:16Z</time>
      </trkpt>
      <trkpt lat="43.95997" lon="1.92226">
        <ele>185.58426</ele>
        <time>2014-10-18T14:30:21Z</time>
      </trkpt>
      <trkpt lat="43.95997" lon="1.92219">
        <ele>186.39117</ele>
        <time>2014-10-18T14:30:26Z</time>
      </trkpt>
      <trkpt lat="43.95997" lon="1.9221">
        <ele>186.39117</ele>
        <time>2014-10-18T14:30:31Z</time>
      </trkpt>
      <trkpt lat="43.95996" lon="1.92201">
        <ele>187.33061</ele>
        <time>2014-10-18T14:30:36Z</time>
      </trkpt>
      <trkpt lat="43.95994" lon="1.92193">
        <ele>187.33061</ele>
        <time>2014-10-18T14:30:41Z</time>
      </trkpt>
      <trkpt lat="43.95993" lon="1.92184">
        <ele>188.47542</ele>
        <time>2014-10-18T14:30:46Z</time>
      </trkpt>
      <trkpt lat="43.95993" lon="1.92177">
        <ele>188.47542</ele>
        <time>2014-10-18T14:30:51Z</time>
      </trkpt>
      <trkpt lat="43.95992" lon="1.92169">
        <ele>189.69077</ele>
        <time>2014-10-18T14:30:56Z</time>
      </trkpt>
      <trkpt lat="43.95993" lon="1.92162">
        <ele>189.69077</ele>
        <time>2014-10-18T14:31:01Z</time>
      </trkpt>
      <trkpt lat="43.95992" lon="1.92156">
        <ele>190.33286</ele>
        <time>2014-10-18T14:31:06Z</time>
      </trkpt>
      <trkpt lat="43.95991" lon="1.9215">
        <ele>190.33286</ele>
        <time>2014-10-18T14:31:11Z</time>
      </trkpt>
      <trkpt lat="43.9599" lon="1.92144">
        <ele>190.33286</ele>
        <time>2014-10-18T14:31:16Z</time>
      </trkpt>
      <trkpt lat="43.95989" lon="1.92137">
        <ele>190.6859</ele>
        <time>2014-10-18T14:31:21Z</time>
      </trkpt>
      <trkpt lat="43.95988" lon="1.9213">
        <ele>190.6859</ele>
        <time>2014-10-18T14:31:26Z</time>
      </trkpt>
      <trkpt lat="43.95987" lon="1.92123">
        <ele>190.8844</ele>
        <time>2014-10-18T14:31:31Z</time>
      </trkpt>
      <trkpt lat="43.95985" lon="1.92117">
        <ele>190.8844</ele>
        <time>2014-10-18T14:31:36Z</time>
      </trkpt>
      <trkpt lat="43.95983" lon="1.9211">
        <ele>191.31293</ele>
        <time>2014-10-18T14:31:41Z</time>
      </trkpt>
      <trkpt lat="43.95981" lon="1.92103">
        <ele>191.31293</ele>
        <time>2014-10-18T14:31:46Z</time>
      </trkpt>
      <trkpt lat="43.95978" lon="1.92097">
        <ele>191.6787</ele>
        <time>2014-10-18T14:31:51Z</time>
      </trkpt>
      <trkpt lat="43.95976" lon="1.92091">
        <ele>191.6787</ele>
        <time>2014-10-18T14:31:56Z</time>
      </trkpt>
      <trkpt lat="43.95973" lon="1.92084">
        <ele>191.81155</ele>
        <time>2014-10-18T14:32:01Z</time>
      </trkpt>
      <trkpt lat="43.95971" lon="1.92076">
        <ele>191.81155</ele>
        <time>2014-10-18T14:32:06Z</time>
      </trkpt>
      <trkpt lat="43.9597" lon="1.9207">
        <ele>191.62665</ele>
        <time>2014-10-18T14:32:11Z</time>
      </trkpt>
      <trkpt lat="43.95967" lon="1.92065">
        <ele>191.62665</ele>
        <time>2014-10-18T14:32:16Z</time>
      </trkpt>
      <trkpt lat="43.95967" lon="1.92063">
        <ele>191.62665</ele>
        <time>2014-10-18T14:32:21Z</time>
      </trkpt>
      <trkpt lat="43.95966" lon="1.9206">
        <ele>191.62665</ele>
        <time>2014-10-18T14:32:26Z</time>
      </trkpt>
      <trkpt lat="43.95964" lon="1.92054">
        <ele>191.68042</ele>
        <time>2014-10-18T14:32:31Z</time>
      </trkpt>
      <trkpt lat="43.95962" lon="1.92047">
        <ele>191.68042</ele>
        <time>2014-10-18T14:32:36Z</time>
      </trkpt>
      <trkpt lat="43.95959" lon="1.92038">
        <ele>191.92575</ele>
        <time>2014-10-18T14:32:41Z</time>
      </trkpt>
      <trkpt lat="43.95956" lon="1.9203">
        <ele>191.92575</ele>
        <time>2014-10-18T14:32:46Z</time>
      </trkpt>
      <trkpt lat="43.95954" lon="1.92022">
        <ele>192.56354</ele>
        <time>2014-10-18T14:32:51Z</time>
      </trkpt>
      <trkpt lat="43.95952" lon="1.92013">
        <ele>192.56354</ele>
        <time>2014-10-18T14:32:56Z</time>
      </trkpt>
      <trkpt lat="43.95949" lon="1.92006">
        <ele>193.05833</ele>
        <time>2014-10-18T14:33:01Z</time>
      </trkpt>
      <trkpt lat="43.95947" lon="1.91999">
        <ele>193.05833</ele>
        <time>2014-10-18T14:33:06Z</time>
      </trkpt>
      <trkpt lat="43.95944" lon="1.91993">
        <ele>193.47649</ele>
        <time>2014-10-18T14:33:11Z</time>
      </trkpt>
      <trkpt lat="43.95945" lon="1.91987">
        <ele>193.47649</ele>
        <time>2014-10-18T14:33:16Z</time>
      </trkpt>
      <trkpt lat="43.9595" lon="1.91985">
        <ele>193.93744</ele>
        <time>2014-10-18T14:33:21Z</time>
      </trkpt>
      <trkpt lat="43.95955" lon="1.91983">
        <ele>193.93744</ele>
        <time>2014-10-18T14:33:26Z</time>
      </trkpt>
      <trkpt lat="43.95958" lon="1.91982">
        <ele>193.93744</ele>
        <time>2014-10-18T14:33:31Z</time>
      </trkpt>
      <trkpt lat="43.95964" lon="1.91979">
        <ele>193.77356</ele>
        <time>2014-10-18T14:33:36Z</time>
      </trkpt>
      <trkpt lat="43.95971" lon="1.91977">
        <ele>193.77356</ele>
        <time>2014-10-18T14:33:41Z</time>
      </trkpt>
      <trkpt lat="43.95979" lon="1.91975">
        <ele>193.62189</ele>
        <time>2014-10-18T14:33:46Z</time>
      </trkpt>
      <trkpt lat="43.95987" lon="1.91974">
        <ele>193.62189</ele>
        <time>2014-10-18T14:33:51Z</time>
      </trkpt>
      <trkpt lat="43.95995" lon="1.91972">
        <ele>193.46736</ele>
        <time>2014-10-18T14:33:56Z</time>
      </trkpt>
      <trkpt lat="43.96002" lon="1.91971">
        <ele>193.46736</ele>
        <time>2014-10-18T14:34:01Z</time>
      </trkpt>
      <trkpt lat="43.96007" lon="1.91971">
        <ele>193.35379</ele>
        <time>2014-10-18T14:34:06Z</time>
      </trkpt>
      <trkpt lat="43.96011" lon="1.91969">
        <ele>193.35379</ele>
        <time>2014-10-18T14:34:11Z</time>
      </trkpt>
      <trkpt lat="43.96014" lon="1.9197">
        <ele>193.35379</ele>
        <time>2014-10-18T14:34:16Z</time>
      </trkpt>
      <trkpt lat="43.96021" lon="1.91972">
        <ele>193.29285</ele>
        <time>2014-10-18T14:34:21Z</time>
      </trkpt>
      <trkpt lat="43.96027" lon="1.91976">
        <ele>193.29285</ele>
        <time>2014-10-18T14:34:26Z</time>
      </trkpt>
      <trkpt lat="43.96032" lon="1.91979">
        <ele>193.29526</ele>
        <time>2014-10-18T14:34:31Z</time>
      </trkpt>
      <trkpt lat="43.96036" lon="1.91981">
        <ele>193.29526</ele>
        <time>2014-10-18T14:34:36Z</time>
      </trkpt>
      <trkpt lat="43.96039" lon="1.91982">
        <ele>193.29526</ele>
        <time>2014-10-18T14:34:41Z</time>
      </trkpt>
      <trkpt lat="43.96044" lon="1.91983">
        <ele>194.23546</ele>
        <time>2014-10-18T14:34:46Z</time>
      </trkpt>
      <trkpt lat="43.96049" lon="1.91983">
        <ele>194.23546</ele>
        <time>2014-10-18T14:34:51Z</time>
      </trkpt>
      <trkpt lat="43.96054" lon="1.91984">
        <ele>194.38477</ele>
        <time>2014-10-18T14:34:56Z</time>
      </trkpt>
      <trkpt lat="43.96061" lon="1.91982">
        <ele>194.38477</ele>
        <time>2014-10-18T14:35:01Z</time>
      </trkpt>
      <trkpt lat="43.96068" lon="1.91981">
        <ele>195.17</ele>
        <time>2014-10-18T14:35:06Z</time>
      </trkpt>
      <trkpt lat="43.96074" lon="1.91981">
        <ele>195.17</ele>
        <time>2014-10-18T14:35:11Z</time>
      </trkpt>
      <trkpt lat="43.96079" lon="1.91981">
        <ele>195.60571</ele>
        <time>2014-10-18T14:35:16Z</time>
      </trkpt>
      <trkpt lat="43.96084" lon="1.9198">
        <ele>195.60571</ele>
        <time>2014-10-18T14:35:21Z</time>
      </trkpt>
      <trkpt lat="43.9609" lon="1.91979">
        <ele>195.86066</ele>
        <time>2014-10-18T14:35:26Z</time>
      </trkpt>
      <trkpt lat="43.96096" lon="1.91978">
        <ele>195.86066</ele>
        <time>2014-10-18T14:35:31Z</time>
      </trkpt>
      <trkpt lat="43.96102" lon="1.91977">
        <ele>196.50967</ele>
        <time>2014-10-18T14:35:36Z</time>
      </trkpt>
      <trkpt lat="43.96104" lon="1.91977">
        <ele>196.50967</ele>
        <time>2014-10-18T14:35:41Z</time>
      </trkpt>
      <trkpt lat="43.96111" lon="1.91977">
        <ele>196.50967</ele>
        <time>2014-10-18T14:35:46Z</time>
      </trkpt>
      <trkpt lat="43.96112" lon="1.91976">
        <ele>196.2253</ele>
        <time>2014-10-18T14:35:51Z</time>
      </trkpt>
      <trkpt lat="43.96117" lon="1.91975">
        <ele>196.2253</ele>
        <time>2014-10-18T14:35:56Z</time>
      </trkpt>
      <trkpt lat="43.96122" lon="1.91975">
        <ele>195.98509</ele>
        <time>2014-10-18T14:36:01Z</time>
      </trkpt>
      <trkpt lat="43.96129" lon="1.91977">
        <ele>195.98509</ele>
        <time>2014-10-18T14:36:06Z</time>
      </trkpt>
      <trkpt lat="43.96136" lon="1.91979">
        <ele>194.93661</ele>
        <time>2014-10-18T14:36:11Z</time>
      </trkpt>
      <trkpt lat="43.96143" lon="1.91978">
        <ele>194.93661</ele>
        <time>2014-10-18T14:36:16Z</time>
      </trkpt>
      <trkpt lat="43.9615" lon="1.91979">
        <ele>194.45396</ele>
        <time>2014-10-18T14:36:21Z</time>
      </trkpt>
      <trkpt lat="43.96157" lon="1.91979">
        <ele>194.45396</ele>
        <time>2014-10-18T14:36:26Z</time>
      </trkpt>
      <trkpt lat="43.96164" lon="1.91984">
        <ele>193.56061</ele>
        <time>2014-10-18T14:36:31Z</time>
      </trkpt>
      <trkpt lat="43.96169" lon="1.91989">
        <ele>193.56061</ele>
        <time>2014-10-18T14:36:36Z</time>
      </trkpt>
      <trkpt lat="43.96174" lon="1.91992">
        <ele>193.09666</ele>
        <time>2014-10-18T14:36:41Z</time>
      </trkpt>
      <trkpt lat="43.9618" lon="1.91992">
        <ele>193.09666</ele>
        <time>2014-10-18T14:36:46Z</time>
      </trkpt>
      <trkpt lat="43.96186" lon="1.91991">
        <ele>193.07555</ele>
        <time>2014-10-18T14:36:51Z</time>
      </trkpt>
      <trkpt lat="43.9619" lon="1.91994">
        <ele>193.07555</ele>
        <time>2014-10-18T14:36:56Z</time>
      </trkpt>
      <trkpt lat="43.96194" lon="1.91994">
        <ele>193.07555</ele>
        <time>2014-10-18T14:37:01Z</time>
      </trkpt>
      <trkpt lat="43.96201" lon="1.91992">
        <ele>192.9752</ele>
        <time>2014-10-18T14:37:06Z</time>
      </trkpt>
      <trkpt lat="43.96209" lon="1.91991">
        <ele>192.9752</ele>
        <time>2014-10-18T14:37:11Z</time>
      </trkpt>
      <trkpt lat="43.96215" lon="1.91993">
        <ele>193.0904</ele>
        <time>2014-10-18T14:37:16Z</time>
      </trkpt>
      <trkpt lat="43.96222" lon="1.91993">
        <ele>193.0904</ele>
        <time>2014-10-18T14:37:21Z</time>
      </trkpt>
      <trkpt lat="43.96227" lon="1.91994">
        <ele>193.23242</ele>
        <time>2014-10-18T14:37:26Z</time>
      </trkpt>
      <trkpt lat="43.9623" lon="1.91998">
        <ele>193.23242</ele>
        <time>2014-10-18T14:37:31Z</time>
      </trkpt>
      <trkpt lat="43.96229" lon="1.92">
        <ele>193.23242</ele>
        <time>2014-10-18T14:37:36Z</time>
      </trkpt>
      <trkpt lat="43.96232" lon="1.92001">
        <ele>193.23242</ele>
        <time>2014-10-18T14:37:41Z</time>
      </trkpt>
      <trkpt lat="43.96243" lon="1.91997">
        <ele>193.57224</ele>
        <time>2014-10-18T14:37:46Z</time>
      </trkpt>
      <trkpt lat="43.96249" lon="1.92001">
        <ele>193.57224</ele>
        <time>2014-10-18T14:37:51Z</time>
      </trkpt>
      <trkpt lat="43.96255" lon="1.92006">
        <ele>193.59038</ele>
        <time>2014-10-18T14:37:56Z</time>
      </trkpt>
      <trkpt lat="43.96259" lon="1.92005">
        <ele>193.59038</ele>
        <time>2014-10-18T14:38:01Z</time>
      </trkpt>
      <trkpt lat="43.96262" lon="1.92006">
        <ele>193.59038</ele>
        <time>2014-10-18T14:38:06Z</time>
      </trkpt>
      <trkpt lat="43.96268" lon="1.92005">
        <ele>194.04578</ele>
        <time>2014-10-18T14:38:11Z</time>
      </trkpt>
      <trkpt lat="43.96273" lon="1.92007">
        <ele>194.04578</ele>
        <time>2014-10-18T14:38:16Z</time>
      </trkpt>
      <trkpt lat="43.96277" lon="1.92011">
        <ele>194.71806</ele>
        <time>2014-10-18T14:38:21Z</time>
      </trkpt>
      <trkpt lat="43.96284" lon="1.92004">
        <ele>194.71806</ele>
        <time>2014-10-18T14:38:26Z</time>
      </trkpt>
      <trkpt lat="43.96289" lon="1.92009">
        <ele>196.36803</ele>
        <time>2014-10-18T14:38:31Z</time>
      </trkpt>
      <trkpt lat="43.96294" lon="1.92012">
        <ele>196.36803</ele>
        <time>2014-10-18T14:38:36Z</time>
      </trkpt>
      <trkpt lat="43.96298" lon="1.92018">
        <ele>197.88199</ele>
        <time>2014-10-18T14:38:41Z</time>
      </trkpt>
      <trkpt lat="43.96303" lon="1.92022">
        <ele>197.88199</ele>
        <time>2014-10-18T14:38:46Z</time>
      </trkpt>
      <trkpt lat="43.96307" lon="1.92028">
        <ele>199.12202</ele>
        <time>2014-10-18T14:38:51Z</time>
      </trkpt>
      <trkpt lat="43.96313" lon="1.92031">
        <ele>199.12202</ele>
        <time>2014-10-18T14:38:56Z</time>
      </trkpt>
      <trkpt lat="43.96317" lon="1.92034">
        <ele>200.63838</ele>
        <time>2014-10-18T14:39:01Z</time>
      </trkpt>
      <trkpt lat="43.96322" lon="1.92035">
        <ele>200.63838</ele>
        <time>2014-10-18T14:39:06Z</time>
      </trkpt>
      <trkpt lat="43.96327" lon="1.92037">
        <ele>201.96027</ele>
        <time>2014-10-18T14:39:11Z</time>
      </trkpt>
      <trkpt lat="43.96331" lon="1.9204">
        <ele>201.96027</ele>
        <time>2014-10-18T14:39:16Z</time>
      </trkpt>
      <trkpt lat="43.96334" lon="1.92046">
        <ele>202.88257</ele>
        <time>2014-10-18T14:39:21Z</time>
      </trkpt>
      <trkpt lat="43.96337" lon="1.92049">
        <ele>202.88257</ele>
        <time>2014-10-18T14:39:26Z</time>
      </trkpt>
      <trkpt lat="43.96341" lon="1.9205">
        <ele>202.88257</ele>
        <time>2014-10-18T14:39:31Z</time>
      </trkpt>
      <trkpt lat="43.96345" lon="1.92054">
        <ele>203.44702</ele>
        <time>2014-10-18T14:39:36Z</time>
      </trkpt>
      <trkpt lat="43.96347" lon="1.92059">
        <ele>203.44702</ele>
        <time>2014-10-18T14:39:41Z</time>
      </trkpt>
      <trkpt lat="43.9635" lon="1.92061">
        <ele>203.44702</ele>
        <time>2014-10-18T14:39:46Z</time>
      </trkpt>
      <trkpt lat="43.96355" lon="1.92059">
        <ele>204.73097</ele>
        <time>2014-10-18T14:39:51Z</time>
      </trkpt>
      <trkpt lat="43.96358" lon="1.92058">
        <ele>204.73097</ele>
        <time>2014-10-18T14:39:56Z</time>
      </trkpt>
      <trkpt lat="43.96363" lon="1.92059">
        <ele>204.73097</ele>
        <time>2014-10-18T14:40:01Z</time>
      </trkpt>
      <trkpt lat="43.96364" lon="1.92054">
        <ele>204.86278</ele>
        <time>2014-10-18T14:40:06Z</time>
      </trkpt>
      <trkpt lat="43.96367" lon="1.92043">
        <ele>204.86278</ele>
        <time>2014-10-18T14:40:11Z</time>
      </trkpt>
      <trkpt lat="43.96371" lon="1.92035">
        <ele>205.51265</ele>
        <time>2014-10-18T14:40:16Z</time>
      </trkpt>
      <trkpt lat="43.96375" lon="1.92025">
        <ele>205.51265</ele>
        <time>2014-10-18T14:40:21Z</time>
      </trkpt>
      <trkpt lat="43.96378" lon="1.92016">
        <ele>206.38208</ele>
        <time>2014-10-18T14:40:26Z</time>
      </trkpt>
      <trkpt lat="43.96379" lon="1.92009">
        <ele>206.38208</ele>
        <time>2014-10-18T14:40:31Z</time>
      </trkpt>
      <trkpt lat="43.96382" lon="1.92002">
        <ele>207.79915</ele>
        <time>2014-10-18T14:40:36Z</time>
      </trkpt>
      <trkpt lat="43.96386" lon="1.91995">
        <ele>207.79915</ele>
        <time>2014-10-18T14:40:41Z</time>
      </trkpt>
      <trkpt lat="43.96391" lon="1.91991">
        <ele>208.98555</ele>
        <time>2014-10-18T14:40:46Z</time>
      </trkpt>
      <trkpt lat="43.96393" lon="1.91997">
        <ele>208.98555</ele>
        <time>2014-10-18T14:40:51Z</time>
      </trkpt>
      <trkpt lat="43.96396" lon="1.92005">
        <ele>209.75407</ele>
        <time>2014-10-18T14:40:56Z</time>
      </trkpt>
      <trkpt lat="43.96398" lon="1.92012">
        <ele>209.75407</ele>
        <time>2014-10-18T14:41:01Z</time>
      </trkpt>
      <trkpt lat="43.96402" lon="1.92019">
        <ele>211.17183</ele>
        <time>2014-10-18T14:41:06Z</time>
      </trkpt>
      <trkpt lat="43.96404" lon="1.92027">
        <ele>211.17183</ele>
        <time>2014-10-18T14:41:11Z</time>
      </trkpt>
      <trkpt lat="43.96406" lon="1.92034">
        <ele>212.65497</ele>
        <time>2014-10-18T14:41:16Z</time>
      </trkpt>
      <trkpt lat="43.96408" lon="1.9204">
        <ele>212.65497</ele>
        <time>2014-10-18T14:41:21Z</time>
      </trkpt>
      <trkpt lat="43.96409" lon="1.92048">
        <ele>213.79211</ele>
        <time>2014-10-18T14:41:26Z</time>
      </trkpt>
      <trkpt lat="43.96409" lon="1.92055">
        <ele>213.79211</ele>
        <time>2014-10-18T14:41:31Z</time>
      </trkpt>
      <trkpt lat="43.96411" lon="1.92059">
        <ele>213.79211</ele>
        <time>2014-10-18T14:41:36Z</time>
      </trkpt>
      <trkpt lat="43.96416" lon="1.92063">
        <ele>214.89488</ele>
        <time>2014-10-18T14:41:41Z</time>
      </trkpt>
      <trkpt lat="43.96419" lon="1.92065">
        <ele>214.89488</ele>
        <time>2014-10-18T14:41:46Z</time>
      </trkpt>
      <trkpt lat="43.96422" lon="1.92063">
        <ele>214.89488</ele>
        <time>2014-10-18T14:41:51Z</time>
      </trkpt>
      <trkpt lat="43.96425" lon="1.92057">
        <ele>215.47395</ele>
        <time>2014-10-18T14:41:56Z</time>
      </trkpt>
      <trkpt lat="43.96427" lon="1.9205">
        <ele>215.47395</ele>
        <time>2014-10-18T14:42:01Z</time>
      </trkpt>
      <trkpt lat="43.96428" lon="1.92044">
        <ele>217.23915</ele>
        <time>2014-10-18T14:42:06Z</time>
      </trkpt>
      <trkpt lat="43.9643" lon="1.92039">
        <ele>217.23915</ele>
        <time>2014-10-18T14:42:11Z</time>
      </trkpt>
      <trkpt lat="43.96431" lon="1.92033">
        <ele>217.23915</ele>
        <time>2014-10-18T14:42:16Z</time>
      </trkpt>
      <trkpt lat="43.96433" lon="1.92028">
        <ele>218.42807</ele>
        <time>2014-10-18T14:42:21Z</time>
      </trkpt>
      <trkpt lat="43.96434" lon="1.92023">
        <ele>218.42807</ele>
        <time>2014-10-18T14:42:26Z</time>
      </trkpt>
      <trkpt lat="43.96435" lon="1.92021">
        <ele>218.42807</ele>
        <time>2014-10-18T14:42:31Z</time>
      </trkpt>
      <trkpt lat="43.96438" lon="1.92017">
        <ele>220.33492</ele>
        <time>2014-10-18T14:42:36Z</time>
      </trkpt>
      <trkpt lat="43.96439" lon="1.92014">
        <ele>220.33492</ele>
        <time>2014-10-18T14:42:41Z</time>
      </trkpt>
      <trkpt lat="43.96441" lon="1.92012">
        <ele>220.33492</ele>
        <time>2014-10-18T14:42:46Z</time>
      </trkpt>
      <trkpt lat="43.96443" lon="1.9201">
        <ele>220.33492</ele>
        <time>2014-10-18T14:42:51Z</time>
      </trkpt>
      <trkpt lat="43.96443" lon="1.92011">
        <ele>220.33492</ele>
        <time>2014-10-18T14:42:56Z</time>
      </trkpt>
      <trkpt lat="43.96444" lon="1.92012">
        <ele>220.33492</ele>
        <time>2014-10-18T14:43:01Z</time>
      </trkpt>
      <trkpt lat="43.96444" lon="1.92012">
        <ele>220.33492</ele>
        <time>2014-10-18T14:43:06Z</time>
      </trkpt>
      <trkpt lat="43.96444" lon="1.92012">
        <ele>220.33492</ele>
        <time>2014-10-18T14:43:11Z</time>
      </trkpt>
      <trkpt lat="43.96446" lon="1.92012">
        <ele>221.83669</ele>
        <time>2014-10-18T14:43:16Z</time>
      </trkpt>
      <trkpt lat="43.96447" lon="1.92011">
        <ele>221.83669</ele>
        <time>2014-10-18T14:43:21Z</time>
      </trkpt>
      <trkpt lat="43.96447" lon="1.92011">
        <ele>221.83669</ele>
        <time>2014-10-18T14:43:26Z</time>
      </trkpt>
      <trkpt lat="43.96448" lon="1.9201">
        <ele>221.83669</ele>
        <time>2014-10-18T14:43:31Z</time>
      </trkpt>
      <trkpt lat="43.96448" lon="1.9201">
        <ele>221.83669</ele>
        <time>2014-10-18T14:43:36Z</time>
      </trkpt>
      <trkpt lat="43.96448" lon="1.9201">
        <ele>221.83669</ele>
        <time>2014-10-18T14:43:41Z</time>
      </trkpt>
      <trkpt lat="43.96448" lon="1.9201">
        <ele>221.83669</ele>
        <time>2014-10-18T14:43:46Z</time>
      </trkpt>
      <trkpt lat="43.96448" lon="1.9201">
        <ele>221.83669</ele>
        <time>2014-10-18T14:43:51Z</time>
      </trkpt>
      <trkpt lat="43.96448" lon="1.9201">
        <ele>221.83669</ele>
        <time>2014-10-18T14:43:56Z</time>
      </trkpt>
      <trkpt lat="43.9645" lon="1.92012">
        <ele>221.83669</ele>
        <time>2014-10-18T14:44:01Z</time>
      </trkpt>
      <trkpt lat="43.9645" lon="1.92014">
        <ele>221.83669</ele>
        <time>2014-10-18T14:44:06Z</time>
      </trkpt>
      <trkpt lat="43.96451" lon="1.92014">
        <ele>221.83669</ele>
        <time>2014-10-18T14:44:11Z</time>
      </trkpt>
      <trkpt lat="43.96451" lon="1.92014">
        <ele>221.83669</ele>
        <time>2014-10-18T14:44:16Z</time>
      </trkpt>
      <trkpt lat="43.96451" lon="1.92014">
        <ele>221.83669</ele>
        <time>2014-10-18T14:44:21Z</time>
      </trkpt>
      <trkpt lat="43.96451" lon="1.92014">
        <ele>221.83669</ele>
        <time>2014-10-18T14:44:26Z</time>
      </trkpt>
      <trkpt lat="43.96451" lon="1.92014">
        <ele>221.83669</ele>
        <time>2014-10-18T14:44:31Z</time>
      </trkpt>
      <trkpt lat="43.96451" lon="1.92014">
        <ele>221.83669</ele>
        <time>2014-10-18T14:44:36Z</time>
      </trkpt>
      <trkpt lat="43.96451" lon="1.92014">
        <ele>221.83669</ele>
        <time>2014-10-18T14:44:41Z</time>
      </trkpt>
      <trkpt lat="43.96451" lon="1.92014">
        <ele>221.83669</ele>
        <time>2014-10-18T14:44:46Z</time>
      </trkpt>
      <trkpt lat="43.96451" lon="1.92014">
        <ele>221.83669</ele>
        <time>2014-10-18T14:44:51Z</time>
      </trkpt>
      <trkpt lat="43.96451" lon="1.92014">
        <ele>221.83669</ele>
        <time>2014-10-18T14:44:56Z</time>
      </trkpt>
      <trkpt lat="43.96451" lon="1.92014">
        <ele>221.83669</ele>
        <time>2014-10-18T14:45:01Z</time>
      </trkpt>
      <trkpt lat="43.96451" lon="1.92014">
        <ele>221.83669</ele>
        <time>2014-10-18T14:45:06Z</time>
      </trkpt>
      <trkpt lat="43.96451" lon="1.92014">
        <ele>221.83669</ele>
        <time>2014-10-18T14:45:11Z</time>
      </trkpt>
      <trkpt lat="43.96451" lon="1.92014">
        <ele>221.83669</ele>
        <time>2014-10-18T14:45:16Z</time>
      </trkpt>
      <trkpt lat="43.96451" lon="1.92014">
        <ele>221.83669</ele>
        <time>2014-10-18T14:45:21Z</time>
      </trkpt>
      <trkpt lat="43.96451" lon="1.92014">
        <ele>221.83669</ele>
        <time>2014-10-18T14:45:26Z</time>
      </trkpt>
      <trkpt lat="43.96451" lon="1.92014">
        <ele>221.83669</ele>
        <time>2014-10-18T14:45:31Z</time>
      </trkpt>
      <trkpt lat="43.96451" lon="1.92014">
        <ele>221.83669</ele>
        <time>2014-10-18T14:45:36Z</time>
      </trkpt>
      <trkpt lat="43.96451" lon="1.92014">
        <ele>221.83669</ele>
        <time>2014-10-18T14:45:41Z</time>
      </trkpt>
      <trkpt lat="43.96451" lon="1.92014">
        <ele>221.83669</ele>
        <time>2014-10-18T14:45:46Z</time>
      </trkpt>
      <trkpt lat="43.96451" lon="1.92014">
        <ele>221.83669</ele>
        <time>2014-10-18T14:45:51Z</time>
      </trkpt>
      <trkpt lat="43.96451" lon="1.92014">
        <ele>221.83669</ele>
        <time>2014-10-18T14:45:56Z</time>
      </trkpt>
      <trkpt lat="43.96451" lon="1.92014">
        <ele>221.83669</ele>
        <time>2014-10-18T14:46:01Z</time>
      </trkpt>
      <trkpt lat="43.96451" lon="1.92014">
        <ele>221.83669</ele>
        <time>2014-10-18T14:46:06Z</time>
      </trkpt>
      <trkpt lat="43.96451" lon="1.92014">
        <ele>221.83669</ele>
        <time>2014-10-18T14:46:11Z</time>
      </trkpt>
      <trkpt lat="43.96451" lon="1.92014">
        <ele>221.83669</ele>
        <time>2014-10-18T14:46:16Z</time>
      </trkpt>
      <trkpt lat="43.96451" lon="1.92014">
        <ele>221.83669</ele>
        <time>2014-10-18T14:46:21Z</time>
      </trkpt>
      <trkpt lat="43.96451" lon="1.92014">
        <ele>221.83669</ele>
        <time>2014-10-18T14:46:26Z</time>
      </trkpt>
      <trkpt lat="43.96451" lon="1.92014">
        <ele>221.83669</ele>
        <time>2014-10-18T14:46:31Z</time>
      </trkpt>
      <trkpt lat="43.96451" lon="1.92014">
        <ele>221.83669</ele>
        <time>2014-10-18T14:46:36Z</time>
      </trkpt>
      <trkpt lat="43.96451" lon="1.92014">
        <ele>221.83669</ele>
        <time>2014-10-18T14:46:41Z</time>
      </trkpt>
      <trkpt lat="43.96451" lon="1.92014">
        <ele>221.83669</ele>
        <time>2014-10-18T14:46:46Z</time>
      </trkpt>
      <trkpt lat="43.96451" lon="1.92014">
        <ele>221.83669</ele>
        <time>2014-10-18T14:46:51Z</time>
      </trkpt>
      <trkpt lat="43.96451" lon="1.92014">
        <ele>221.83669</ele>
        <time>2014-10-18T14:46:56Z</time>
      </trkpt>
      <trkpt lat="43.96451" lon="1.92014">
        <ele>221.83669</ele>
        <time>2014-10-18T14:47:01Z</time>
      </trkpt>
      <trkpt lat="43.96451" lon="1.92014">
        <ele>221.83669</ele>
        <time>2014-10-18T14:47:06Z</time>
      </trkpt>
      <trkpt lat="43.9645" lon="1.92014">
        <ele>221.83669</ele>
        <time>2014-10-18T14:47:11Z</time>
      </trkpt>
      <trkpt lat="43.9645" lon="1.92014">
        <ele>221.83669</ele>
        <time>2014-10-18T14:47:16Z</time>
      </trkpt>
      <trkpt lat="43.9645" lon="1.92014">
        <ele>221.83669</ele>
        <time>2014-10-18T14:47:21Z</time>
      </trkpt>
      <trkpt lat="43.9645" lon="1.92014">
        <ele>221.83669</ele>
        <time>2014-10-18T14:47:26Z</time>
      </trkpt>
      <trkpt lat="43.9645" lon="1.92014">
        <ele>221.83669</ele>
        <time>2014-10-18T14:47:31Z</time>
      </trkpt>
      <trkpt lat="43.9645" lon="1.92014">
        <ele>221.83669</ele>
        <time>2014-10-18T14:47:36Z</time>
      </trkpt>
      <trkpt lat="43.9645" lon="1.92014">
        <ele>221.83669</ele>
        <time>2014-10-18T14:47:41Z</time>
      </trkpt>
      <trkpt lat="43.9645" lon="1.92014">
        <ele>221.83669</ele>
        <time>2014-10-18T14:47:46Z</time>
      </trkpt>
      <trkpt lat="43.9645" lon="1.92014">
        <ele>221.83669</ele>
        <time>2014-10-18T14:47:51Z</time>
      </trkpt>
      <trkpt lat="43.9645" lon="1.92014">
        <ele>221.83669</ele>
        <time>2014-10-18T14:47:56Z</time>
      </trkpt>
      <trkpt lat="43.9645" lon="1.92014">
        <ele>221.83669</ele>
        <time>2014-10-18T14:48:01Z</time>
      </trkpt>
      <trkpt lat="43.9645" lon="1.92014">
        <ele>221.83669</ele>
        <time>2014-10-18T14:48:06Z</time>
      </trkpt>
      <trkpt lat="43.9645" lon="1.92014">
        <ele>221.83669</ele>
        <time>2014-10-18T14:48:11Z</time>
      </trkpt>
      <trkpt lat="43.9645" lon="1.92014">
        <ele>221.83669</ele>
        <time>2014-10-18T14:48:16Z</time>
      </trkpt>
      <trkpt lat="43.9645" lon="1.92014">
        <ele>221.83669</ele>
        <time>2014-10-18T14:48:21Z</time>
      </trkpt>
      <trkpt lat="43.9645" lon="1.92014">
        <ele>221.83669</ele>
        <time>2014-10-18T14:48:26Z</time>
      </trkpt>
      <trkpt lat="43.9645" lon="1.92014">
        <ele>221.83669</ele>
        <time>2014-10-18T14:48:31Z</time>
      </trkpt>
      <trkpt lat="43.9645" lon="1.92014">
        <ele>221.83669</ele>
        <time>2014-10-18T14:48:36Z</time>
      </trkpt>
      <trkpt lat="43.9645" lon="1.92014">
        <ele>221.83669</ele>
        <time>2014-10-18T14:48:41Z</time>
      </trkpt>
      <trkpt lat="43.9645" lon="1.92014">
        <ele>221.83669</ele>
        <time>2014-10-18T14:48:46Z</time>
      </trkpt>
      <trkpt lat="43.9645" lon="1.92014">
        <ele>221.83669</ele>
        <time>2014-10-18T14:48:51Z</time>
      </trkpt>
      <trkpt lat="43.9645" lon="1.92014">
        <ele>221.83669</ele>
        <time>2014-10-18T14:48:56Z</time>
      </trkpt>
      <trkpt lat="43.9645" lon="1.92014">
        <ele>221.83669</ele>
        <time>2014-10-18T14:49:01Z</time>
      </trkpt>
      <trkpt lat="43.9645" lon="1.92014">
        <ele>221.83669</ele>
        <time>2014-10-18T14:49:06Z</time>
      </trkpt>
      <trkpt lat="43.9645" lon="1.92014">
        <ele>221.83669</ele>
        <time>2014-10-18T14:49:11Z</time>
      </trkpt>
      <trkpt lat="43.9645" lon="1.92014">
        <ele>221.83669</ele>
        <time>2014-10-18T14:49:16Z</time>
      </trkpt>
      <trkpt lat="43.9645" lon="1.92014">
        <ele>221.83669</ele>
        <time>2014-10-18T14:49:21Z</time>
      </trkpt>
      <trkpt lat="43.96449" lon="1.92013">
        <ele>221.83669</ele>
        <time>2014-10-18T14:49:26Z</time>
      </trkpt>
      <trkpt lat="43.96448" lon="1.92014">
        <ele>224.18546</ele>
        <time>2014-10-18T14:49:31Z</time>
      </trkpt>
      <trkpt lat="43.96447" lon="1.92014">
        <ele>224.18546</ele>
        <time>2014-10-18T14:49:36Z</time>
      </trkpt>
      <trkpt lat="43.96447" lon="1.92014">
        <ele>224.18546</ele>
        <time>2014-10-18T14:49:41Z</time>
      </trkpt>
      <trkpt lat="43.96447" lon="1.92014">
        <ele>224.18546</ele>
        <time>2014-10-18T14:49:46Z</time>
      </trkpt>
      <trkpt lat="43.96447" lon="1.92014">
        <ele>224.18546</ele>
        <time>2014-10-18T14:49:51Z</time>
      </trkpt>
      <trkpt lat="43.96447" lon="1.92012">
        <ele>224.18546</ele>
        <time>2014-10-18T14:49:56Z</time>
      </trkpt>
      <trkpt lat="43.96451" lon="1.92006">
        <ele>224.18546</ele>
        <time>2014-10-18T14:50:01Z</time>
      </trkpt>
      <trkpt lat="43.96457" lon="1.92003">
        <ele>226.60794</ele>
        <time>2014-10-18T14:50:06Z</time>
      </trkpt>
      <trkpt lat="43.96464" lon="1.92004">
        <ele>226.60794</ele>
        <time>2014-10-18T14:50:11Z</time>
      </trkpt>
      <trkpt lat="43.9647" lon="1.92005">
        <ele>228.43076</ele>
        <time>2014-10-18T14:50:16Z</time>
      </trkpt>
      <trkpt lat="43.96475" lon="1.92007">
        <ele>228.43076</ele>
        <time>2014-10-18T14:50:21Z</time>
      </trkpt>
      <trkpt lat="43.96482" lon="1.92009">
        <ele>230.21352</ele>
        <time>2014-10-18T14:50:26Z</time>
      </trkpt>
      <trkpt lat="43.96488" lon="1.92009">
        <ele>230.21352</ele>
        <time>2014-10-18T14:50:31Z</time>
      </trkpt>
      <trkpt lat="43.96494" lon="1.92013">
        <ele>231.85521</ele>
        <time>2014-10-18T14:50:36Z</time>
      </trkpt>
      <trkpt lat="43.965" lon="1.92017">
        <ele>231.85521</ele>
        <time>2014-10-18T14:50:41Z</time>
      </trkpt>
      <trkpt lat="43.96506" lon="1.92019">
        <ele>233.43568</ele>
        <time>2014-10-18T14:50:46Z</time>
      </trkpt>
      <trkpt lat="43.96512" lon="1.9202">
        <ele>233.43568</ele>
        <time>2014-10-18T14:50:51Z</time>
      </trkpt>
      <trkpt lat="43.9652" lon="1.92018">
        <ele>235.25981</ele>
        <time>2014-10-18T14:50:56Z</time>
      </trkpt>
      <trkpt lat="43.96525" lon="1.92022">
        <ele>235.25981</ele>
        <time>2014-10-18T14:51:01Z</time>
      </trkpt>
      <trkpt lat="43.96522" lon="1.92027">
        <ele>235.77924</ele>
        <time>2014-10-18T14:51:06Z</time>
      </trkpt>
      <trkpt lat="43.96529" lon="1.92026">
        <ele>235.77924</ele>
        <time>2014-10-18T14:51:11Z</time>
      </trkpt>
      <trkpt lat="43.96533" lon="1.92024">
        <ele>236.22914</ele>
        <time>2014-10-18T14:51:16Z</time>
      </trkpt>
      <trkpt lat="43.96538" lon="1.92022">
        <ele>236.22914</ele>
        <time>2014-10-18T14:51:21Z</time>
      </trkpt>
      <trkpt lat="43.96546" lon="1.9202">
        <ele>236.31319</ele>
        <time>2014-10-18T14:51:26Z</time>
      </trkpt>
      <trkpt lat="43.96555" lon="1.92016">
        <ele>236.78107</ele>
        <time>2014-10-18T14:51:31Z</time>
      </trkpt>
      <trkpt lat="43.96563" lon="1.92019">
        <ele>236.78107</ele>
        <time>2014-10-18T14:51:36Z</time>
      </trkpt>
      <trkpt lat="43.96571" lon="1.9202">
        <ele>237.10146</ele>
        <time>2014-10-18T14:51:41Z</time>
      </trkpt>
      <trkpt lat="43.96578" lon="1.92018">
        <ele>237.10146</ele>
        <time>2014-10-18T14:51:46Z</time>
      </trkpt>
      <trkpt lat="43.96585" lon="1.92019">
        <ele>237.31575</ele>
        <time>2014-10-18T14:51:51Z</time>
      </trkpt>
      <trkpt lat="43.96591" lon="1.92018">
        <ele>237.31575</ele>
        <time>2014-10-18T14:51:56Z</time>
      </trkpt>
      <trkpt lat="43.96597" lon="1.92018">
        <ele>237.96703</ele>
        <time>2014-10-18T14:52:01Z</time>
      </trkpt>
      <trkpt lat="43.96603" lon="1.9202">
        <ele>237.96703</ele>
        <time>2014-10-18T14:52:06Z</time>
      </trkpt>
      <trkpt lat="43.96608" lon="1.92023">
        <ele>238.75029</ele>
        <time>2014-10-18T14:52:11Z</time>
      </trkpt>
      <trkpt lat="43.96614" lon="1.92025">
        <ele>238.75029</ele>
        <time>2014-10-18T14:52:16Z</time>
      </trkpt>
      <trkpt lat="43.96619" lon="1.92026">
        <ele>239.0079</ele>
        <time>2014-10-18T14:52:21Z</time>
      </trkpt>
      <trkpt lat="43.96624" lon="1.92026">
        <ele>239.0079</ele>
        <time>2014-10-18T14:52:26Z</time>
      </trkpt>
      <trkpt lat="43.9663" lon="1.92026">
        <ele>239.21286</ele>
        <time>2014-10-18T14:52:31Z</time>
      </trkpt>
      <trkpt lat="43.96635" lon="1.92028">
        <ele>239.21286</ele>
        <time>2014-10-18T14:52:36Z</time>
      </trkpt>
      <trkpt lat="43.96641" lon="1.92028">
        <ele>239.44333</ele>
        <time>2014-10-18T14:52:41Z</time>
      </trkpt>
      <trkpt lat="43.96647" lon="1.92029">
        <ele>239.44333</ele>
        <time>2014-10-18T14:52:46Z</time>
      </trkpt>
      <trkpt lat="43.9665" lon="1.92032">
        <ele>239.46901</ele>
        <time>2014-10-18T14:52:51Z</time>
      </trkpt>
      <trkpt lat="43.96655" lon="1.92029">
        <ele>239.46901</ele>
        <time>2014-10-18T14:52:56Z</time>
      </trkpt>
      <trkpt lat="43.9666" lon="1.92026">
        <ele>239.2933</ele>
        <time>2014-10-18T14:53:01Z</time>
      </trkpt>
      <trkpt lat="43.96665" lon="1.92023">
        <ele>239.2933</ele>
        <time>2014-10-18T14:53:06Z</time>
      </trkpt>
      <trkpt lat="43.96671" lon="1.92021">
        <ele>238.77577</ele>
        <time>2014-10-18T14:53:11Z</time>
      </trkpt>
      <trkpt lat="43.96676" lon="1.92018">
        <ele>238.77577</ele>
        <time>2014-10-18T14:53:16Z</time>
      </trkpt>
      <trkpt lat="43.96679" lon="1.92018">
        <ele>238.77577</ele>
        <time>2014-10-18T14:53:21Z</time>
      </trkpt>
      <trkpt lat="43.96685" lon="1.92017">
        <ele>237.87373</ele>
        <time>2014-10-18T14:53:26Z</time>
      </trkpt>
      <trkpt lat="43.96691" lon="1.92016">
        <ele>237.87373</ele>
        <time>2014-10-18T14:53:31Z</time>
      </trkpt>
      <trkpt lat="43.96697" lon="1.92014">
        <ele>237.38452</ele>
        <time>2014-10-18T14:53:36Z</time>
      </trkpt>
      <trkpt lat="43.96703" lon="1.92012">
        <ele>237.38452</ele>
        <time>2014-10-18T14:53:41Z</time>
      </trkpt>
      <trkpt lat="43.96709" lon="1.92009">
        <ele>237.09456</ele>
        <time>2014-10-18T14:53:46Z</time>
      </trkpt>
      <trkpt lat="43.96714" lon="1.92007">
        <ele>237.09456</ele>
        <time>2014-10-18T14:53:51Z</time>
      </trkpt>
      <trkpt lat="43.96719" lon="1.92006">
        <ele>236.21452</ele>
        <time>2014-10-18T14:53:56Z</time>
      </trkpt>
      <trkpt lat="43.96721" lon="1.92005">
        <ele>236.21452</ele>
        <time>2014-10-18T14:54:01Z</time>
      </trkpt>
      <trkpt lat="43.96728" lon="1.92005">
        <ele>236.21452</ele>
        <time>2014-10-18T14:54:06Z</time>
      </trkpt>
      <trkpt lat="43.96734" lon="1.92003">
        <ele>235.3693</ele>
        <time>2014-10-18T14:54:11Z</time>
      </trkpt>
      <trkpt lat="43.9674" lon="1.92">
        <ele>235.3693</ele>
        <time>2014-10-18T14:54:16Z</time>
      </trkpt>
      <trkpt lat="43.96746" lon="1.91997">
        <ele>234.67653</ele>
        <time>2014-10-18T14:54:21Z</time>
      </trkpt>
      <trkpt lat="43.9675" lon="1.91996">
        <ele>234.67653</ele>
        <time>2014-10-18T14:54:26Z</time>
      </trkpt>
      <trkpt lat="43.96756" lon="1.91992">
        <ele>234.14389</ele>
        <time>2014-10-18T14:54:31Z</time>
      </trkpt>
      <trkpt lat="43.96763" lon="1.9199">
        <ele>234.14389</ele>
        <time>2014-10-18T14:54:36Z</time>
      </trkpt>
      <trkpt lat="43.9677" lon="1.91988">
        <ele>233.60498</ele>
        <time>2014-10-18T14:54:41Z</time>
      </trkpt>
      <trkpt lat="43.96777" lon="1.91987">
        <ele>233.60498</ele>
        <time>2014-10-18T14:54:46Z</time>
      </trkpt>
      <trkpt lat="43.96784" lon="1.91986">
        <ele>233.38112</ele>
        <time>2014-10-18T14:54:51Z</time>
      </trkpt>
      <trkpt lat="43.96789" lon="1.91988">
        <ele>233.38112</ele>
        <time>2014-10-18T14:54:56Z</time>
      </trkpt>
      <trkpt lat="43.96794" lon="1.9199">
        <ele>233.39438</ele>
        <time>2014-10-18T14:55:01Z</time>
      </trkpt>
      <trkpt lat="43.96799" lon="1.91991">
        <ele>233.39438</ele>
        <time>2014-10-18T14:55:06Z</time>
      </trkpt>
      <trkpt lat="43.96803" lon="1.91994">
        <ele>232.73593</ele>
        <time>2014-10-18T14:55:11Z</time>
      </trkpt>
      <trkpt lat="43.96807" lon="1.91996">
        <ele>232.73593</ele>
        <time>2014-10-18T14:55:16Z</time>
      </trkpt>
      <trkpt lat="43.96811" lon="1.91998">
        <ele>232.73593</ele>
        <time>2014-10-18T14:55:21Z</time>
      </trkpt>
      <trkpt lat="43.96816" lon="1.91999">
        <ele>232.32368</ele>
        <time>2014-10-18T14:55:26Z</time>
      </trkpt>
      <trkpt lat="43.9682" lon="1.92002">
        <ele>232.32368</ele>
        <time>2014-10-18T14:55:31Z</time>
      </trkpt>
      <trkpt lat="43.96826" lon="1.92002">
        <ele>232.31555</ele>
        <time>2014-10-18T14:55:36Z</time>
      </trkpt>
      <trkpt lat="43.96832" lon="1.92002">
        <ele>232.31555</ele>
        <time>2014-10-18T14:55:41Z</time>
      </trkpt>
      <trkpt lat="43.96837" lon="1.92005">
        <ele>232.20813</ele>
        <time>2014-10-18T14:55:46Z</time>
      </trkpt>
      <trkpt lat="43.96844" lon="1.92006">
        <ele>232.20813</ele>
        <time>2014-10-18T14:55:51Z</time>
      </trkpt>
      <trkpt lat="43.96851" lon="1.92008">
        <ele>232.5728</ele>
        <time>2014-10-18T14:55:56Z</time>
      </trkpt>
      <trkpt lat="43.96857" lon="1.9201">
        <ele>232.5728</ele>
        <time>2014-10-18T14:56:01Z</time>
      </trkpt>
      <trkpt lat="43.96863" lon="1.92013">
        <ele>233.6349</ele>
        <time>2014-10-18T14:56:06Z</time>
      </trkpt>
      <trkpt lat="43.96869" lon="1.92015">
        <ele>233.6349</ele>
        <time>2014-10-18T14:56:11Z</time>
      </trkpt>
      <trkpt lat="43.96875" lon="1.92017">
        <ele>235.06793</ele>
        <time>2014-10-18T14:56:16Z</time>
      </trkpt>
      <trkpt lat="43.96881" lon="1.92017">
        <ele>235.06793</ele>
        <time>2014-10-18T14:56:21Z</time>
      </trkpt>
      <trkpt lat="43.96888" lon="1.92017">
        <ele>237.34651</ele>
        <time>2014-10-18T14:56:26Z</time>
      </trkpt>
      <trkpt lat="43.96894" lon="1.92017">
        <ele>237.34651</ele>
        <time>2014-10-18T14:56:31Z</time>
      </trkpt>
      <trkpt lat="43.969" lon="1.92018">
        <ele>239.9568</ele>
        <time>2014-10-18T14:56:36Z</time>
      </trkpt>
      <trkpt lat="43.96902" lon="1.92022">
        <ele>239.9568</ele>
        <time>2014-10-18T14:56:41Z</time>
      </trkpt>
      <trkpt lat="43.96906" lon="1.92025">
        <ele>239.9568</ele>
        <time>2014-10-18T14:56:46Z</time>
      </trkpt>
      <trkpt lat="43.9691" lon="1.92029">
        <ele>241.67235</ele>
        <time>2014-10-18T14:56:51Z</time>
      </trkpt>
      <trkpt lat="43.96913" lon="1.92033">
        <ele>241.67235</ele>
        <time>2014-10-18T14:56:56Z</time>
      </trkpt>
      <trkpt lat="43.96917" lon="1.9204">
        <ele>242.75716</ele>
        <time>2014-10-18T14:57:01Z</time>
      </trkpt>
      <trkpt lat="43.96921" lon="1.9205">
        <ele>242.75716</ele>
        <time>2014-10-18T14:57:06Z</time>
      </trkpt>
      <trkpt lat="43.96924" lon="1.92057">
        <ele>243.86108</ele>
        <time>2014-10-18T14:57:11Z</time>
      </trkpt>
      <trkpt lat="43.96928" lon="1.92063">
        <ele>243.86108</ele>
        <time>2014-10-18T14:57:16Z</time>
      </trkpt>
      <trkpt lat="43.96933" lon="1.92068">
        <ele>244.6351</ele>
        <time>2014-10-18T14:57:21Z</time>
      </trkpt>
      <trkpt lat="43.96937" lon="1.92073">
        <ele>244.6351</ele>
        <time>2014-10-18T14:57:26Z</time>
      </trkpt>
      <trkpt lat="43.96941" lon="1.92078">
        <ele>245.57812</ele>
        <time>2014-10-18T14:57:31Z</time>
      </trkpt>
      <trkpt lat="43.96946" lon="1.92085">
        <ele>245.57812</ele>
        <time>2014-10-18T14:57:36Z</time>
      </trkpt>
      <trkpt lat="43.9695" lon="1.9209">
        <ele>246.44583</ele>
        <time>2014-10-18T14:57:41Z</time>
      </trkpt>
      <trkpt lat="43.96954" lon="1.92095">
        <ele>246.44583</ele>
        <time>2014-10-18T14:57:46Z</time>
      </trkpt>
      <trkpt lat="43.96959" lon="1.92102">
        <ele>247.4732</ele>
        <time>2014-10-18T14:57:51Z</time>
      </trkpt>
      <trkpt lat="43.96964" lon="1.92106">
        <ele>247.4732</ele>
        <time>2014-10-18T14:57:56Z</time>
      </trkpt>
      <trkpt lat="43.96968" lon="1.92111">
        <ele>248.51727</ele>
        <time>2014-10-18T14:58:01Z</time>
      </trkpt>
      <trkpt lat="43.96972" lon="1.92117">
        <ele>248.51727</ele>
        <time>2014-10-18T14:58:06Z</time>
      </trkpt>
      <trkpt lat="43.96975" lon="1.92123">
        <ele>249.40227</ele>
        <time>2014-10-18T14:58:11Z</time>
      </trkpt>
      <trkpt lat="43.96979" lon="1.92128">
        <ele>249.40227</ele>
        <time>2014-10-18T14:58:16Z</time>
      </trkpt>
      <trkpt lat="43.96984" lon="1.92134">
        <ele>250.18199</ele>
        <time>2014-10-18T14:58:21Z</time>
      </trkpt>
      <trkpt lat="43.96987" lon="1.92141">
        <ele>250.18199</ele>
        <time>2014-10-18T14:58:26Z</time>
      </trkpt>
      <trkpt lat="43.9699" lon="1.92148">
        <ele>250.70482</ele>
        <time>2014-10-18T14:58:31Z</time>
      </trkpt>
      <trkpt lat="43.96994" lon="1.92155">
        <ele>250.70482</ele>
        <time>2014-10-18T14:58:36Z</time>
      </trkpt>
      <trkpt lat="43.96999" lon="1.92157">
        <ele>251.53719</ele>
        <time>2014-10-18T14:58:41Z</time>
      </trkpt>
      <trkpt lat="43.97003" lon="1.92155">
        <ele>251.53719</ele>
        <time>2014-10-18T14:58:46Z</time>
      </trkpt>
      <trkpt lat="43.97006" lon="1.92154">
        <ele>251.53719</ele>
        <time>2014-10-18T14:58:51Z</time>
      </trkpt>
      <trkpt lat="43.97007" lon="1.92149">
        <ele>252.42484</ele>
        <time>2014-10-18T14:58:56Z</time>
      </trkpt>
      <trkpt lat="43.97008" lon="1.92149">
        <ele>252.42484</ele>
        <time>2014-10-18T14:59:01Z</time>
      </trkpt>
      <trkpt lat="43.97008" lon="1.92149">
        <ele>252.42484</ele>
        <time>2014-10-18T14:59:06Z</time>
      </trkpt>
      <trkpt lat="43.9701" lon="1.92145">
        <ele>252.42484</ele>
        <time>2014-10-18T14:59:11Z</time>
      </trkpt>
      <trkpt lat="43.97013" lon="1.92141">
        <ele>253.33383</ele>
        <time>2014-10-18T14:59:16Z</time>
      </trkpt>
      <trkpt lat="43.97016" lon="1.92138">
        <ele>253.33383</ele>
        <time>2014-10-18T14:59:21Z</time>
      </trkpt>
      <trkpt lat="43.9702" lon="1.92134">
        <ele>253.33383</ele>
        <time>2014-10-18T14:59:26Z</time>
      </trkpt>
      <trkpt lat="43.97024" lon="1.9213">
        <ele>254.1318</ele>
        <time>2014-10-18T14:59:31Z</time>
      </trkpt>
      <trkpt lat="43.97028" lon="1.92126">
        <ele>254.1318</ele>
        <time>2014-10-18T14:59:36Z</time>
      </trkpt>
      <trkpt lat="43.97031" lon="1.92121">
        <ele>254.94144</ele>
        <time>2014-10-18T14:59:41Z</time>
      </trkpt>
      <trkpt lat="43.97037" lon="1.92117">
        <ele>254.94144</ele>
        <time>2014-10-18T14:59:46Z</time>
      </trkpt>
      <trkpt lat="43.9704" lon="1.92111">
        <ele>255.61699</ele>
        <time>2014-10-18T14:59:51Z</time>
      </trkpt>
      <trkpt lat="43.97043" lon="1.92104">
        <ele>255.61699</ele>
        <time>2014-10-18T14:59:56Z</time>
      </trkpt>
      <trkpt lat="43.97048" lon="1.921">
        <ele>255.98059</ele>
        <time>2014-10-18T15:00:01Z</time>
      </trkpt>
      <trkpt lat="43.97052" lon="1.92097">
        <ele>255.98059</ele>
        <time>2014-10-18T15:00:06Z</time>
      </trkpt>
      <trkpt lat="43.97056" lon="1.92096">
        <ele>255.98059</ele>
        <time>2014-10-18T15:00:11Z</time>
      </trkpt>
      <trkpt lat="43.97062" lon="1.92095">
        <ele>256.25745</ele>
        <time>2014-10-18T15:00:16Z</time>
      </trkpt>
      <trkpt lat="43.97068" lon="1.92096">
        <ele>256.25745</ele>
        <time>2014-10-18T15:00:21Z</time>
      </trkpt>
      <trkpt lat="43.97075" lon="1.92096">
        <ele>256.51233</ele>
        <time>2014-10-18T15:00:26Z</time>
      </trkpt>
      <trkpt lat="43.9708" lon="1.92097">
        <ele>256.51233</ele>
        <time>2014-10-18T15:00:31Z</time>
      </trkpt>
      <trkpt lat="43.97086" lon="1.92095">
        <ele>256.32983</ele>
        <time>2014-10-18T15:00:36Z</time>
      </trkpt>
      <trkpt lat="43.97091" lon="1.92092">
        <ele>256.32983</ele>
        <time>2014-10-18T15:00:41Z</time>
      </trkpt>
      <trkpt lat="43.97097" lon="1.92091">
        <ele>256.50793</ele>
        <time>2014-10-18T15:00:46Z</time>
      </trkpt>
      <trkpt lat="43.97103" lon="1.92089">
        <ele>256.50793</ele>
        <time>2014-10-18T15:00:51Z</time>
      </trkpt>
      <trkpt lat="43.97109" lon="1.92085">
        <ele>256.89157</ele>
        <time>2014-10-18T15:00:56Z</time>
      </trkpt>
      <trkpt lat="43.97113" lon="1.92077">
        <ele>256.89157</ele>
        <time>2014-10-18T15:01:01Z</time>
      </trkpt>
      <trkpt lat="43.97117" lon="1.92074">
        <ele>257.1203</ele>
        <time>2014-10-18T15:01:06Z</time>
      </trkpt>
      <trkpt lat="43.97121" lon="1.92072">
        <ele>257.1203</ele>
        <time>2014-10-18T15:01:11Z</time>
      </trkpt>
      <trkpt lat="43.97124" lon="1.9207">
        <ele>257.1203</ele>
        <time>2014-10-18T15:01:16Z</time>
      </trkpt>
      <trkpt lat="43.97128" lon="1.92065">
        <ele>256.9038</ele>
        <time>2014-10-18T15:01:21Z</time>
      </trkpt>
      <trkpt lat="43.97132" lon="1.92057">
        <ele>256.9038</ele>
        <time>2014-10-18T15:01:26Z</time>
      </trkpt>
      <trkpt lat="43.97136" lon="1.92051">
        <ele>256.6661</ele>
        <time>2014-10-18T15:01:31Z</time>
      </trkpt>
      <trkpt lat="43.9714" lon="1.92045">
        <ele>256.6661</ele>
        <time>2014-10-18T15:01:36Z</time>
      </trkpt>
      <trkpt lat="43.97146" lon="1.92042">
        <ele>256.3678</ele>
        <time>2014-10-18T15:01:41Z</time>
      </trkpt>
      <trkpt lat="43.97149" lon="1.92037">
        <ele>256.3678</ele>
        <time>2014-10-18T15:01:46Z</time>
      </trkpt>
      <trkpt lat="43.97152" lon="1.92032">
        <ele>255.81395</ele>
        <time>2014-10-18T15:01:51Z</time>
      </trkpt>
      <trkpt lat="43.97155" lon="1.9203">
        <ele>255.81395</ele>
        <time>2014-10-18T15:01:56Z</time>
      </trkpt>
      <trkpt lat="43.97156" lon="1.92026">
        <ele>255.81395</ele>
        <time>2014-10-18T15:02:01Z</time>
      </trkpt>
      <trkpt lat="43.97159" lon="1.92022">
        <ele>255.30025</ele>
        <time>2014-10-18T15:02:06Z</time>
      </trkpt>
      <trkpt lat="43.97164" lon="1.92016">
        <ele>255.30025</ele>
        <time>2014-10-18T15:02:11Z</time>
      </trkpt>
      <trkpt lat="43.97168" lon="1.92008">
        <ele>254.52406</ele>
        <time>2014-10-18T15:02:16Z</time>
      </trkpt>
      <trkpt lat="43.97172" lon="1.91999">
        <ele>254.52406</ele>
        <time>2014-10-18T15:02:21Z</time>
      </trkpt>
      <trkpt lat="43.97177" lon="1.91993">
        <ele>253.73892</ele>
        <time>2014-10-18T15:02:26Z</time>
      </trkpt>
      <trkpt lat="43.97181" lon="1.91986">
        <ele>253.73892</ele>
        <time>2014-10-18T15:02:31Z</time>
      </trkpt>
      <trkpt lat="43.97186" lon="1.91981">
        <ele>252.68971</ele>
        <time>2014-10-18T15:02:36Z</time>
      </trkpt>
      <trkpt lat="43.9719" lon="1.91975">
        <ele>252.68971</ele>
        <time>2014-10-18T15:02:41Z</time>
      </trkpt>
      <trkpt lat="43.97193" lon="1.91969">
        <ele>251.97661</ele>
        <time>2014-10-18T15:02:46Z</time>
      </trkpt>
      <trkpt lat="43.97196" lon="1.91962">
        <ele>251.97661</ele>
        <time>2014-10-18T15:02:51Z</time>
      </trkpt>
      <trkpt lat="43.97199" lon="1.91953">
        <ele>251.49176</ele>
        <time>2014-10-18T15:02:56Z</time>
      </trkpt>
      <trkpt lat="43.97202" lon="1.91947">
        <ele>251.49176</ele>
        <time>2014-10-18T15:03:01Z</time>
      </trkpt>
      <trkpt lat="43.97205" lon="1.9194">
        <ele>250.63017</ele>
        <time>2014-10-18T15:03:06Z</time>
      </trkpt>
      <trkpt lat="43.97208" lon="1.91934">
        <ele>250.63017</ele>
        <time>2014-10-18T15:03:11Z</time>
      </trkpt>
      <trkpt lat="43.9721" lon="1.91928">
        <ele>249.66812</ele>
        <time>2014-10-18T15:03:16Z</time>
      </trkpt>
      <trkpt lat="43.97213" lon="1.91921">
        <ele>249.66812</ele>
        <time>2014-10-18T15:03:21Z</time>
      </trkpt>
      <trkpt lat="43.97215" lon="1.91913">
        <ele>248.94823</ele>
        <time>2014-10-18T15:03:26Z</time>
      </trkpt>
      <trkpt lat="43.97216" lon="1.91911">
        <ele>248.94823</ele>
        <time>2014-10-18T15:03:31Z</time>
      </trkpt>
      <trkpt lat="43.97217" lon="1.91912">
        <ele>248.94823</ele>
        <time>2014-10-18T15:03:36Z</time>
      </trkpt>
      <trkpt lat="43.97223" lon="1.91914">
        <ele>248.22519</ele>
        <time>2014-10-18T15:03:41Z</time>
      </trkpt>
      <trkpt lat="43.97225" lon="1.91915">
        <ele>248.22519</ele>
        <time>2014-10-18T15:03:46Z</time>
      </trkpt>
      <trkpt lat="43.97224" lon="1.91913">
        <ele>248.22519</ele>
        <time>2014-10-18T15:03:51Z</time>
      </trkpt>
      <trkpt lat="43.97222" lon="1.91911">
        <ele>248.22519</ele>
        <time>2014-10-18T15:03:56Z</time>
      </trkpt>
      <trkpt lat="43.97222" lon="1.91913">
        <ele>248.22519</ele>
        <time>2014-10-18T15:04:01Z</time>
      </trkpt>
      <trkpt lat="43.97222" lon="1.91914">
        <ele>247.40134</ele>
        <time>2014-10-18T15:04:06Z</time>
      </trkpt>
      <trkpt lat="43.97227" lon="1.91919">
        <ele>247.40134</ele>
        <time>2014-10-18T15:04:11Z</time>
      </trkpt>
      <trkpt lat="43.97232" lon="1.91923">
        <ele>246.40077</ele>
        <time>2014-10-18T15:04:16Z</time>
      </trkpt>
      <trkpt lat="43.97237" lon="1.91928">
        <ele>246.40077</ele>
        <time>2014-10-18T15:04:21Z</time>
      </trkpt>
      <trkpt lat="43.97241" lon="1.91932">
        <ele>245.64359</ele>
        <time>2014-10-18T15:04:26Z</time>
      </trkpt>
      <trkpt lat="43.97245" lon="1.91936">
        <ele>245.64359</ele>
        <time>2014-10-18T15:04:31Z</time>
      </trkpt>
      <trkpt lat="43.97248" lon="1.91942">
        <ele>244.495</ele>
        <time>2014-10-18T15:04:36Z</time>
      </trkpt>
      <trkpt lat="43.97252" lon="1.91947">
        <ele>244.495</ele>
        <time>2014-10-18T15:04:41Z</time>
      </trkpt>
      <trkpt lat="43.97256" lon="1.91952">
        <ele>243.65048</ele>
        <time>2014-10-18T15:04:46Z</time>
      </trkpt>
      <trkpt lat="43.97261" lon="1.91957">
        <ele>243.65048</ele>
        <time>2014-10-18T15:04:51Z</time>
      </trkpt>
      <trkpt lat="43.97265" lon="1.91964">
        <ele>242.65823</ele>
        <time>2014-10-18T15:04:56Z</time>
      </trkpt>
      <trkpt lat="43.97268" lon="1.91969">
        <ele>242.65823</ele>
        <time>2014-10-18T15:05:01Z</time>
      </trkpt>
      <trkpt lat="43.97272" lon="1.91974">
        <ele>241.47462</ele>
        <time>2014-10-18T15:05:06Z</time>
      </trkpt>
      <trkpt lat="43.97276" lon="1.91978">
        <ele>241.47462</ele>
        <time>2014-10-18T15:05:11Z</time>
      </trkpt>
      <trkpt lat="43.97279" lon="1.91984">
        <ele>239.90114</ele>
        <time>2014-10-18T15:05:16Z</time>
      </trkpt>
      <trkpt lat="43.97283" lon="1.91988">
        <ele>239.90114</ele>
        <time>2014-10-18T15:05:21Z</time>
      </trkpt>
      <trkpt lat="43.97288" lon="1.91994">
        <ele>238.85008</ele>
        <time>2014-10-18T15:05:26Z</time>
      </trkpt>
      <trkpt lat="43.97293" lon="1.91999">
        <ele>238.85008</ele>
        <time>2014-10-18T15:05:31Z</time>
      </trkpt>
      <trkpt lat="43.97299" lon="1.92002">
        <ele>238.2861</ele>
        <time>2014-10-18T15:05:36Z</time>
      </trkpt>
      <trkpt lat="43.97304" lon="1.92006">
        <ele>238.2861</ele>
        <time>2014-10-18T15:05:41Z</time>
      </trkpt>
      <trkpt lat="43.97308" lon="1.92011">
        <ele>237.64172</ele>
        <time>2014-10-18T15:05:46Z</time>
      </trkpt>
      <trkpt lat="43.97313" lon="1.92017">
        <ele>237.64172</ele>
        <time>2014-10-18T15:05:51Z</time>
      </trkpt>
      <trkpt lat="43.97319" lon="1.92021">
        <ele>237.1263</ele>
        <time>2014-10-18T15:05:56Z</time>
      </trkpt>
      <trkpt lat="43.97323" lon="1.92026">
        <ele>237.1263</ele>
        <time>2014-10-18T15:06:01Z</time>
      </trkpt>
      <trkpt lat="43.97328" lon="1.92031">
        <ele>236.73152</ele>
        <time>2014-10-18T15:06:06Z</time>
      </trkpt>
      <trkpt lat="43.97332" lon="1.92036">
        <ele>236.73152</ele>
        <time>2014-10-18T15:06:11Z</time>
      </trkpt>
      <trkpt lat="43.97337" lon="1.92041">
        <ele>236.30518</ele>
        <time>2014-10-18T15:06:16Z</time>
      </trkpt>
      <trkpt lat="43.97341" lon="1.92045">
        <ele>236.30518</ele>
        <time>2014-10-18T15:06:21Z</time>
      </trkpt>
      <trkpt lat="43.97346" lon="1.9205">
        <ele>235.74945</ele>
        <time>2014-10-18T15:06:26Z</time>
      </trkpt>
      <trkpt lat="43.97351" lon="1.92054">
        <ele>235.74945</ele>
        <time>2014-10-18T15:06:31Z</time>
      </trkpt>
      <trkpt lat="43.97356" lon="1.92058">
        <ele>235.29105</ele>
        <time>2014-10-18T15:06:36Z</time>
      </trkpt>
      <trkpt lat="43.9736" lon="1.92063">
        <ele>235.29105</ele>
        <time>2014-10-18T15:06:41Z</time>
      </trkpt>
      <trkpt lat="43.97363" lon="1.92069">
        <ele>234.47672</ele>
        <time>2014-10-18T15:06:46Z</time>
      </trkpt>
      <trkpt lat="43.97368" lon="1.92074">
        <ele>234.47672</ele>
        <time>2014-10-18T15:06:51Z</time>
      </trkpt>
      <trkpt lat="43.97373" lon="1.92079">
        <ele>233.9827</ele>
        <time>2014-10-18T15:06:56Z</time>
      </trkpt>
      <trkpt lat="43.97376" lon="1.92085">
        <ele>233.9827</ele>
        <time>2014-10-18T15:07:01Z</time>
      </trkpt>
      <trkpt lat="43.97381" lon="1.92091">
        <ele>233.5987</ele>
        <time>2014-10-18T15:07:06Z</time>
      </trkpt>
      <trkpt lat="43.97385" lon="1.92096">
        <ele>233.5987</ele>
        <time>2014-10-18T15:07:11Z</time>
      </trkpt>
      <trkpt lat="43.97391" lon="1.92101">
        <ele>233.15833</ele>
        <time>2014-10-18T15:07:16Z</time>
      </trkpt>
      <trkpt lat="43.97394" lon="1.92107">
        <ele>233.15833</ele>
        <time>2014-10-18T15:07:21Z</time>
      </trkpt>
      <trkpt lat="43.97396" lon="1.92112">
        <ele>232.32016</ele>
        <time>2014-10-18T15:07:26Z</time>
      </trkpt>
      <trkpt lat="43.97397" lon="1.92118">
        <ele>232.32016</ele>
        <time>2014-10-18T15:07:31Z</time>
      </trkpt>
      <trkpt lat="43.974" lon="1.92123">
        <ele>231.0283</ele>
        <time>2014-10-18T15:07:36Z</time>
      </trkpt>
      <trkpt lat="43.97403" lon="1.92128">
        <ele>231.0283</ele>
        <time>2014-10-18T15:07:41Z</time>
      </trkpt>
      <trkpt lat="43.97408" lon="1.92132">
        <ele>229.8951</ele>
        <time>2014-10-18T15:07:46Z</time>
      </trkpt>
      <trkpt lat="43.97414" lon="1.92138">
        <ele>229.8951</ele>
        <time>2014-10-18T15:07:51Z</time>
      </trkpt>
      <trkpt lat="43.9742" lon="1.92142">
        <ele>229.37207</ele>
        <time>2014-10-18T15:07:56Z</time>
      </trkpt>
      <trkpt lat="43.97425" lon="1.92145">
        <ele>229.37207</ele>
        <time>2014-10-18T15:08:01Z</time>
      </trkpt>
      <trkpt lat="43.97429" lon="1.92149">
        <ele>228.85263</ele>
        <time>2014-10-18T15:08:06Z</time>
      </trkpt>
      <trkpt lat="43.97432" lon="1.92154">
        <ele>228.85263</ele>
        <time>2014-10-18T15:08:11Z</time>
      </trkpt>
      <trkpt lat="43.97433" lon="1.92161">
        <ele>228.42317</ele>
        <time>2014-10-18T15:08:16Z</time>
      </trkpt>
      <trkpt lat="43.97435" lon="1.92168">
        <ele>228.42317</ele>
        <time>2014-10-18T15:08:21Z</time>
      </trkpt>
      <trkpt lat="43.97441" lon="1.92174">
        <ele>228.22107</ele>
        <time>2014-10-18T15:08:26Z</time>
      </trkpt>
      <trkpt lat="43.97446" lon="1.92178">
        <ele>228.22107</ele>
        <time>2014-10-18T15:08:31Z</time>
      </trkpt>
      <trkpt lat="43.97449" lon="1.9218">
        <ele>227.7965</ele>
        <time>2014-10-18T15:08:36Z</time>
      </trkpt>
      <trkpt lat="43.97455" lon="1.92182">
        <ele>227.7965</ele>
        <time>2014-10-18T15:08:41Z</time>
      </trkpt>
      <trkpt lat="43.9746" lon="1.9219">
        <ele>227.19434</ele>
        <time>2014-10-18T15:08:46Z</time>
      </trkpt>
      <trkpt lat="43.97464" lon="1.92196">
        <ele>227.19434</ele>
        <time>2014-10-18T15:08:51Z</time>
      </trkpt>
      <trkpt lat="43.97469" lon="1.92203">
        <ele>227.10521</ele>
        <time>2014-10-18T15:08:56Z</time>
      </trkpt>
      <trkpt lat="43.97474" lon="1.92208">
        <ele>227.10521</ele>
        <time>2014-10-18T15:09:01Z</time>
      </trkpt>
      <trkpt lat="43.97479" lon="1.92212">
        <ele>226.94254</ele>
        <time>2014-10-18T15:09:06Z</time>
      </trkpt>
      <trkpt lat="43.97484" lon="1.92217">
        <ele>226.94254</ele>
        <time>2014-10-18T15:09:11Z</time>
      </trkpt>
      <trkpt lat="43.97489" lon="1.92221">
        <ele>226.3215</ele>
        <time>2014-10-18T15:09:16Z</time>
      </trkpt>
      <trkpt lat="43.97493" lon="1.92227">
        <ele>226.3215</ele>
        <time>2014-10-18T15:09:21Z</time>
      </trkpt>
      <trkpt lat="43.97498" lon="1.92232">
        <ele>225.47772</ele>
        <time>2014-10-18T15:09:26Z</time>
      </trkpt>
      <trkpt lat="43.97502" lon="1.92239">
        <ele>225.47772</ele>
        <time>2014-10-18T15:09:31Z</time>
      </trkpt>
      <trkpt lat="43.97507" lon="1.92244">
        <ele>224.558</ele>
        <time>2014-10-18T15:09:36Z</time>
      </trkpt>
      <trkpt lat="43.97512" lon="1.92249">
        <ele>224.558</ele>
        <time>2014-10-18T15:09:41Z</time>
      </trkpt>
      <trkpt lat="43.97517" lon="1.92252">
        <ele>223.46797</ele>
        <time>2014-10-18T15:09:46Z</time>
      </trkpt>
      <trkpt lat="43.97523" lon="1.92253">
        <ele>223.46797</ele>
        <time>2014-10-18T15:09:51Z</time>
      </trkpt>
      <trkpt lat="43.97528" lon="1.92249">
        <ele>222.03423</ele>
        <time>2014-10-18T15:09:56Z</time>
      </trkpt>
      <trkpt lat="43.9753" lon="1.9224">
        <ele>222.03423</ele>
        <time>2014-10-18T15:10:01Z</time>
      </trkpt>
      <trkpt lat="43.97533" lon="1.92234">
        <ele>221.03369</ele>
        <time>2014-10-18T15:10:06Z</time>
      </trkpt>
      <trkpt lat="43.97535" lon="1.92228">
        <ele>221.03369</ele>
        <time>2014-10-18T15:10:11Z</time>
      </trkpt>
      <trkpt lat="43.97537" lon="1.9222">
        <ele>219.78712</ele>
        <time>2014-10-18T15:10:16Z</time>
      </trkpt>
      <trkpt lat="43.9754" lon="1.92212">
        <ele>219.78712</ele>
        <time>2014-10-18T15:10:21Z</time>
      </trkpt>
      <trkpt lat="43.97545" lon="1.92206">
        <ele>218.89078</ele>
        <time>2014-10-18T15:10:26Z</time>
      </trkpt>
      <trkpt lat="43.97547" lon="1.92198">
        <ele>218.89078</ele>
        <time>2014-10-18T15:10:31Z</time>
      </trkpt>
      <trkpt lat="43.97549" lon="1.92193">
        <ele>218.2764</ele>
        <time>2014-10-18T15:10:36Z</time>
      </trkpt>
      <trkpt lat="43.97552" lon="1.92186">
        <ele>218.2764</ele>
        <time>2014-10-18T15:10:41Z</time>
      </trkpt>
      <trkpt lat="43.97556" lon="1.92179">
        <ele>217.95198</ele>
        <time>2014-10-18T15:10:46Z</time>
      </trkpt>
      <trkpt lat="43.97559" lon="1.92171">
        <ele>217.95198</ele>
        <time>2014-10-18T15:10:51Z</time>
      </trkpt>
      <trkpt lat="43.97564" lon="1.92167">
        <ele>217.65028</ele>
        <time>2014-10-18T15:10:56Z</time>
      </trkpt>
      <trkpt lat="43.97568" lon="1.92161">
        <ele>217.65028</ele>
        <time>2014-10-18T15:11:01Z</time>
      </trkpt>
      <trkpt lat="43.97573" lon="1.92155">
        <ele>217.97386</ele>
        <time>2014-10-18T15:11:06Z</time>
      </trkpt>
      <trkpt lat="43.97578" lon="1.92148">
        <ele>217.97386</ele>
        <time>2014-10-18T15:11:11Z</time>
      </trkpt>
      <trkpt lat="43.97583" lon="1.92138">
        <ele>218.38397</ele>
        <time>2014-10-18T15:11:16Z</time>
      </trkpt>
      <trkpt lat="43.97589" lon="1.9213">
        <ele>218.38397</ele>
        <time>2014-10-18T15:11:21Z</time>
      </trkpt>
      <trkpt lat="43.97595" lon="1.92126">
        <ele>218.88559</ele>
        <time>2014-10-18T15:11:26Z</time>
      </trkpt>
      <trkpt lat="43.97597" lon="1.92121">
        <ele>218.88559</ele>
        <time>2014-10-18T15:11:31Z</time>
      </trkpt>
      <trkpt lat="43.976" lon="1.92116">
        <ele>219.2669</ele>
        <time>2014-10-18T15:11:36Z</time>
      </trkpt>
      <trkpt lat="43.97605" lon="1.92111">
        <ele>219.2669</ele>
        <time>2014-10-18T15:11:41Z</time>
      </trkpt>
      <trkpt lat="43.9761" lon="1.92106">
        <ele>219.37524</ele>
        <time>2014-10-18T15:11:46Z</time>
      </trkpt>
      <trkpt lat="43.97613" lon="1.92097">
        <ele>219.37524</ele>
        <time>2014-10-18T15:11:51Z</time>
      </trkpt>
      <trkpt lat="43.97617" lon="1.92089">
        <ele>219.34372</ele>
        <time>2014-10-18T15:11:56Z</time>
      </trkpt>
      <trkpt lat="43.9762" lon="1.92082">
        <ele>219.34372</ele>
        <time>2014-10-18T15:12:01Z</time>
      </trkpt>
      <trkpt lat="43.97625" lon="1.92076">
        <ele>219.72844</ele>
        <time>2014-10-18T15:12:06Z</time>
      </trkpt>
      <trkpt lat="43.97625" lon="1.92074">
        <ele>219.72844</ele>
        <time>2014-10-18T15:12:11Z</time>
      </trkpt>
      <trkpt lat="43.97623" lon="1.92076">
        <ele>219.72844</ele>
        <time>2014-10-18T15:12:16Z</time>
      </trkpt>
      <trkpt lat="43.97622" lon="1.92076">
        <ele>219.72844</ele>
        <time>2014-10-18T15:12:21Z</time>
      </trkpt>
      <trkpt lat="43.97621" lon="1.92081">
        <ele>219.72844</ele>
        <time>2014-10-18T15:12:26Z</time>
      </trkpt>
      <trkpt lat="43.97619" lon="1.92084">
        <ele>219.94826</ele>
        <time>2014-10-18T15:12:31Z</time>
      </trkpt>
      <trkpt lat="43.97619" lon="1.92084">
        <ele>219.94826</ele>
        <time>2014-10-18T15:12:36Z</time>
      </trkpt>
      <trkpt lat="43.97617" lon="1.92084">
        <ele>219.94826</ele>
        <time>2014-10-18T15:12:41Z</time>
      </trkpt>
      <trkpt lat="43.97617" lon="1.92084">
        <ele>219.94826</ele>
        <time>2014-10-18T15:12:46Z</time>
      </trkpt>
      <trkpt lat="43.97619" lon="1.92082">
        <ele>219.94826</ele>
        <time>2014-10-18T15:12:51Z</time>
      </trkpt>
      <trkpt lat="43.97621" lon="1.9208">
        <ele>219.94826</ele>
        <time>2014-10-18T15:12:56Z</time>
      </trkpt>
      <trkpt lat="43.97624" lon="1.92074">
        <ele>220.41637</ele>
        <time>2014-10-18T15:13:01Z</time>
      </trkpt>
      <trkpt lat="43.97627" lon="1.92067">
        <ele>220.41637</ele>
        <time>2014-10-18T15:13:06Z</time>
      </trkpt>
      <trkpt lat="43.9763" lon="1.92063">
        <ele>220.36201</ele>
        <time>2014-10-18T15:13:11Z</time>
      </trkpt>
      <trkpt lat="43.97634" lon="1.92057">
        <ele>220.36201</ele>
        <time>2014-10-18T15:13:16Z</time>
      </trkpt>
      <trkpt lat="43.97637" lon="1.9205">
        <ele>220.41287</ele>
        <time>2014-10-18T15:13:21Z</time>
      </trkpt>
      <trkpt lat="43.97641" lon="1.92042">
        <ele>220.41287</ele>
        <time>2014-10-18T15:13:26Z</time>
      </trkpt>
      <trkpt lat="43.97645" lon="1.92034">
        <ele>220.57376</ele>
        <time>2014-10-18T15:13:31Z</time>
      </trkpt>
      <trkpt lat="43.9765" lon="1.92027">
        <ele>220.57376</ele>
        <time>2014-10-18T15:13:36Z</time>
      </trkpt>
      <trkpt lat="43.97654" lon="1.92019">
        <ele>220.34451</ele>
        <time>2014-10-18T15:13:41Z</time>
      </trkpt>
      <trkpt lat="43.97658" lon="1.92013">
        <ele>220.34451</ele>
        <time>2014-10-18T15:13:46Z</time>
      </trkpt>
      <trkpt lat="43.97662" lon="1.92006">
        <ele>220.44453</ele>
        <time>2014-10-18T15:13:51Z</time>
      </trkpt>
      <trkpt lat="43.97667" lon="1.92003">
        <ele>220.44453</ele>
        <time>2014-10-18T15:13:56Z</time>
      </trkpt>
      <trkpt lat="43.97671" lon="1.91996">
        <ele>220.53078</ele>
        <time>2014-10-18T15:14:01Z</time>
      </trkpt>
      <trkpt lat="43.97676" lon="1.9199">
        <ele>220.53078</ele>
        <time>2014-10-18T15:14:06Z</time>
      </trkpt>
      <trkpt lat="43.97681" lon="1.91983">
        <ele>220.86191</ele>
        <time>2014-10-18T15:14:11Z</time>
      </trkpt>
      <trkpt lat="43.97685" lon="1.91977">
        <ele>220.86191</ele>
        <time>2014-10-18T15:14:16Z</time>
      </trkpt>
      <trkpt lat="43.97688" lon="1.91972">
        <ele>221.20137</ele>
        <time>2014-10-18T15:14:21Z</time>
      </trkpt>
      <trkpt lat="43.97692" lon="1.91968">
        <ele>221.20137</ele>
        <time>2014-10-18T15:14:26Z</time>
      </trkpt>
      <trkpt lat="43.97697" lon="1.91962">
        <ele>221.89209</ele>
        <time>2014-10-18T15:14:31Z</time>
      </trkpt>
      <trkpt lat="43.97702" lon="1.91957">
        <ele>221.89209</ele>
        <time>2014-10-18T15:14:36Z</time>
      </trkpt>
      <trkpt lat="43.97707" lon="1.9195">
        <ele>222.47264</ele>
        <time>2014-10-18T15:14:41Z</time>
      </trkpt>
      <trkpt lat="43.97712" lon="1.91945">
        <ele>222.47264</ele>
        <time>2014-10-18T15:14:46Z</time>
      </trkpt>
      <trkpt lat="43.97716" lon="1.91939">
        <ele>222.96263</ele>
        <time>2014-10-18T15:14:51Z</time>
      </trkpt>
      <trkpt lat="43.97723" lon="1.91935">
        <ele>222.96263</ele>
        <time>2014-10-18T15:14:56Z</time>
      </trkpt>
      <trkpt lat="43.97728" lon="1.91931">
        <ele>222.99144</ele>
        <time>2014-10-18T15:15:01Z</time>
      </trkpt>
      <trkpt lat="43.97732" lon="1.91925">
        <ele>222.99144</ele>
        <time>2014-10-18T15:15:06Z</time>
      </trkpt>
      <trkpt lat="43.97737" lon="1.91921">
        <ele>222.9376</ele>
        <time>2014-10-18T15:15:11Z</time>
      </trkpt>
      <trkpt lat="43.9774" lon="1.91915">
        <ele>222.9376</ele>
        <time>2014-10-18T15:15:16Z</time>
      </trkpt>
      <trkpt lat="43.97744" lon="1.91909">
        <ele>222.87831</ele>
        <time>2014-10-18T15:15:21Z</time>
      </trkpt>
      <trkpt lat="43.97749" lon="1.91904">
        <ele>222.87831</ele>
        <time>2014-10-18T15:15:26Z</time>
      </trkpt>
      <trkpt lat="43.97756" lon="1.91902">
        <ele>223.08694</ele>
        <time>2014-10-18T15:15:31Z</time>
      </trkpt>
      <trkpt lat="43.97761" lon="1.91897">
        <ele>223.08694</ele>
        <time>2014-10-18T15:15:36Z</time>
      </trkpt>
      <trkpt lat="43.97766" lon="1.91893">
        <ele>223.62878</ele>
        <time>2014-10-18T15:15:41Z</time>
      </trkpt>
      <trkpt lat="43.97769" lon="1.91893">
        <ele>223.62878</ele>
        <time>2014-10-18T15:15:46Z</time>
      </trkpt>
      <trkpt lat="43.97773" lon="1.91888">
        <ele>223.62878</ele>
        <time>2014-10-18T15:15:51Z</time>
      </trkpt>
      <trkpt lat="43.97778" lon="1.91882">
        <ele>224.03018</ele>
        <time>2014-10-18T15:15:56Z</time>
      </trkpt>
      <trkpt lat="43.97784" lon="1.91877">
        <ele>224.03018</ele>
        <time>2014-10-18T15:16:01Z</time>
      </trkpt>
      <trkpt lat="43.97789" lon="1.91872">
        <ele>224.45807</ele>
        <time>2014-10-18T15:16:06Z</time>
      </trkpt>
      <trkpt lat="43.97794" lon="1.91867">
        <ele>224.45807</ele>
        <time>2014-10-18T15:16:11Z</time>
      </trkpt>
      <trkpt lat="43.97799" lon="1.91862">
        <ele>224.76443</ele>
        <time>2014-10-18T15:16:16Z</time>
      </trkpt>
      <trkpt lat="43.97805" lon="1.91857">
        <ele>224.76443</ele>
        <time>2014-10-18T15:16:21Z</time>
      </trkpt>
      <trkpt lat="43.97811" lon="1.91852">
        <ele>225.34578</ele>
        <time>2014-10-18T15:16:26Z</time>
      </trkpt>
      <trkpt lat="43.97817" lon="1.91847">
        <ele>225.34578</ele>
        <time>2014-10-18T15:16:31Z</time>
      </trkpt>
      <trkpt lat="43.97823" lon="1.91842">
        <ele>225.77615</ele>
        <time>2014-10-18T15:16:36Z</time>
      </trkpt>
      <trkpt lat="43.9783" lon="1.91842">
        <ele>225.77615</ele>
        <time>2014-10-18T15:16:41Z</time>
      </trkpt>
      <trkpt lat="43.97837" lon="1.91841">
        <ele>226.26665</ele>
        <time>2014-10-18T15:16:46Z</time>
      </trkpt>
      <trkpt lat="43.97844" lon="1.9184">
        <ele>226.26665</ele>
        <time>2014-10-18T15:16:51Z</time>
      </trkpt>
      <trkpt lat="43.97851" lon="1.91836">
        <ele>226.76779</ele>
        <time>2014-10-18T15:16:56Z</time>
      </trkpt>
      <trkpt lat="43.97858" lon="1.91833">
        <ele>226.76779</ele>
        <time>2014-10-18T15:17:01Z</time>
      </trkpt>
      <trkpt lat="43.97864" lon="1.91829">
        <ele>227.33463</ele>
        <time>2014-10-18T15:17:06Z</time>
      </trkpt>
      <trkpt lat="43.97869" lon="1.91823">
        <ele>227.33463</ele>
        <time>2014-10-18T15:17:11Z</time>
      </trkpt>
      <trkpt lat="43.97874" lon="1.91817">
        <ele>227.52808</ele>
        <time>2014-10-18T15:17:16Z</time>
      </trkpt>
      <trkpt lat="43.9788" lon="1.91812">
        <ele>227.52808</ele>
        <time>2014-10-18T15:17:21Z</time>
      </trkpt>
      <trkpt lat="43.97885" lon="1.9181">
        <ele>227.47563</ele>
        <time>2014-10-18T15:17:26Z</time>
      </trkpt>
      <trkpt lat="43.97889" lon="1.91805">
        <ele>227.47563</ele>
        <time>2014-10-18T15:17:31Z</time>
      </trkpt>
      <trkpt lat="43.97895" lon="1.91801">
        <ele>227.15208</ele>
        <time>2014-10-18T15:17:36Z</time>
      </trkpt>
      <trkpt lat="43.979" lon="1.91797">
        <ele>227.15208</ele>
        <time>2014-10-18T15:17:41Z</time>
      </trkpt>
      <trkpt lat="43.97907" lon="1.91794">
        <ele>227.05368</ele>
        <time>2014-10-18T15:17:46Z</time>
      </trkpt>
      <trkpt lat="43.97913" lon="1.91791">
        <ele>227.05368</ele>
        <time>2014-10-18T15:17:51Z</time>
      </trkpt>
      <trkpt lat="43.97919" lon="1.9179">
        <ele>226.34265</ele>
        <time>2014-10-18T15:17:56Z</time>
      </trkpt>
      <trkpt lat="43.97926" lon="1.91788">
        <ele>226.34265</ele>
        <time>2014-10-18T15:18:01Z</time>
      </trkpt>
      <trkpt lat="43.97933" lon="1.91787">
        <ele>225.31094</ele>
        <time>2014-10-18T15:18:06Z</time>
      </trkpt>
      <trkpt lat="43.97939" lon="1.91785">
        <ele>225.31094</ele>
        <time>2014-10-18T15:18:11Z</time>
      </trkpt>
      <trkpt lat="43.97947" lon="1.91784">
        <ele>224.47498</ele>
        <time>2014-10-18T15:18:16Z</time>
      </trkpt>
      <trkpt lat="43.97953" lon="1.91778">
        <ele>224.47498</ele>
        <time>2014-10-18T15:18:21Z</time>
      </trkpt>
      <trkpt lat="43.97957" lon="1.91771">
        <ele>223.92365</ele>
        <time>2014-10-18T15:18:26Z</time>
      </trkpt>
      <trkpt lat="43.97962" lon="1.91765">
        <ele>223.92365</ele>
        <time>2014-10-18T15:18:31Z</time>
      </trkpt>
      <trkpt lat="43.97968" lon="1.91762">
        <ele>223.17648</ele>
        <time>2014-10-18T15:18:36Z</time>
      </trkpt>
      <trkpt lat="43.97973" lon="1.91757">
        <ele>223.17648</ele>
        <time>2014-10-18T15:18:41Z</time>
      </trkpt>
      <trkpt lat="43.97975" lon="1.91747">
        <ele>221.99063</ele>
        <time>2014-10-18T15:18:46Z</time>
      </trkpt>
      <trkpt lat="43.97979" lon="1.91742">
        <ele>221.99063</ele>
        <time>2014-10-18T15:18:51Z</time>
      </trkpt>
      <trkpt lat="43.97985" lon="1.91738">
        <ele>220.66112</ele>
        <time>2014-10-18T15:18:56Z</time>
      </trkpt>
      <trkpt lat="43.97989" lon="1.9173">
        <ele>220.66112</ele>
        <time>2014-10-18T15:19:01Z</time>
      </trkpt>
      <trkpt lat="43.97993" lon="1.91724">
        <ele>219.72108</ele>
        <time>2014-10-18T15:19:06Z</time>
      </trkpt>
      <trkpt lat="43.97996" lon="1.91717">
        <ele>219.72108</ele>
        <time>2014-10-18T15:19:11Z</time>
      </trkpt>
      <trkpt lat="43.98001" lon="1.91713">
        <ele>218.39525</ele>
        <time>2014-10-18T15:19:16Z</time>
      </trkpt>
      <trkpt lat="43.98006" lon="1.91712">
        <ele>218.39525</ele>
        <time>2014-10-18T15:19:21Z</time>
      </trkpt>
      <trkpt lat="43.98008" lon="1.91711">
        <ele>218.39525</ele>
        <time>2014-10-18T15:19:26Z</time>
      </trkpt>
      <trkpt lat="43.98013" lon="1.91708">
        <ele>217.20564</ele>
        <time>2014-10-18T15:19:31Z</time>
      </trkpt>
      <trkpt lat="43.98019" lon="1.91707">
        <ele>217.20564</ele>
        <time>2014-10-18T15:19:36Z</time>
      </trkpt>
      <trkpt lat="43.98026" lon="1.91706">
        <ele>215.98709</ele>
        <time>2014-10-18T15:19:41Z</time>
      </trkpt>
      <trkpt lat="43.98033" lon="1.91703">
        <ele>215.98709</ele>
        <time>2014-10-18T15:19:46Z</time>
      </trkpt>
      <trkpt lat="43.98039" lon="1.917">
        <ele>214.31274</ele>
        <time>2014-10-18T15:19:51Z</time>
      </trkpt>
      <trkpt lat="43.98045" lon="1.91694">
        <ele>214.31274</ele>
        <time>2014-10-18T15:19:56Z</time>
      </trkpt>
      <trkpt lat="43.98052" lon="1.91692">
        <ele>212.27832</ele>
        <time>2014-10-18T15:20:01Z</time>
      </trkpt>
      <trkpt lat="43.98057" lon="1.91687">
        <ele>212.27832</ele>
        <time>2014-10-18T15:20:06Z</time>
      </trkpt>
      <trkpt lat="43.98062" lon="1.91679">
        <ele>210.1176</ele>
        <time>2014-10-18T15:20:11Z</time>
      </trkpt>
      <trkpt lat="43.98065" lon="1.9167">
        <ele>210.1176</ele>
        <time>2014-10-18T15:20:16Z</time>
      </trkpt>
      <trkpt lat="43.98069" lon="1.91663">
        <ele>207.97539</ele>
        <time>2014-10-18T15:20:21Z</time>
      </trkpt>
      <trkpt lat="43.98074" lon="1.91658">
        <ele>207.97539</ele>
        <time>2014-10-18T15:20:26Z</time>
      </trkpt>
      <trkpt lat="43.98076" lon="1.91653">
        <ele>205.42368</ele>
        <time>2014-10-18T15:20:31Z</time>
      </trkpt>
      <trkpt lat="43.98078" lon="1.91647">
        <ele>205.42368</ele>
        <time>2014-10-18T15:20:36Z</time>
      </trkpt>
      <trkpt lat="43.9808" lon="1.9164">
        <ele>202.96046</ele>
        <time>2014-10-18T15:20:41Z</time>
      </trkpt>
      <trkpt lat="43.98082" lon="1.91632">
        <ele>202.96046</ele>
        <time>2014-10-18T15:20:46Z</time>
      </trkpt>
      <trkpt lat="43.98085" lon="1.91624">
        <ele>200.52802</ele>
        <time>2014-10-18T15:20:51Z</time>
      </trkpt>
      <trkpt lat="43.98089" lon="1.91617">
        <ele>200.52802</ele>
        <time>2014-10-18T15:20:56Z</time>
      </trkpt>
      <trkpt lat="43.98092" lon="1.91608">
        <ele>198.44728</ele>
        <time>2014-10-18T15:21:01Z</time>
      </trkpt>
      <trkpt lat="43.98094" lon="1.91599">
        <ele>198.44728</ele>
        <time>2014-10-18T15:21:06Z</time>
      </trkpt>
      <trkpt lat="43.98096" lon="1.91592">
        <ele>195.97697</ele>
        <time>2014-10-18T15:21:11Z</time>
      </trkpt>
      <trkpt lat="43.98098" lon="1.91585">
        <ele>195.97697</ele>
        <time>2014-10-18T15:21:16Z</time>
      </trkpt>
      <trkpt lat="43.981" lon="1.91577">
        <ele>193.64174</ele>
        <time>2014-10-18T15:21:21Z</time>
      </trkpt>
      <trkpt lat="43.98103" lon="1.91571">
        <ele>193.64174</ele>
        <time>2014-10-18T15:21:26Z</time>
      </trkpt>
      <trkpt lat="43.98103" lon="1.91564">
        <ele>191.61009</ele>
        <time>2014-10-18T15:21:31Z</time>
      </trkpt>
      <trkpt lat="43.98102" lon="1.91555">
        <ele>191.61009</ele>
        <time>2014-10-18T15:21:36Z</time>
      </trkpt>
      <trkpt lat="43.98101" lon="1.91546">
        <ele>189.84985</ele>
        <time>2014-10-18T15:21:41Z</time>
      </trkpt>
      <trkpt lat="43.98102" lon="1.91536">
        <ele>189.84985</ele>
        <time>2014-10-18T15:21:46Z</time>
      </trkpt>
      <trkpt lat="43.98101" lon="1.91525">
        <ele>188.24382</ele>
        <time>2014-10-18T15:21:51Z</time>
      </trkpt>
      <trkpt lat="43.98101" lon="1.91516">
        <ele>188.24382</ele>
        <time>2014-10-18T15:21:56Z</time>
      </trkpt>
      <trkpt lat="43.98101" lon="1.91505">
        <ele>187.3025</ele>
        <time>2014-10-18T15:22:01Z</time>
      </trkpt>
      <trkpt lat="43.98103" lon="1.91499">
        <ele>187.3025</ele>
        <time>2014-10-18T15:22:06Z</time>
      </trkpt>
      <trkpt lat="43.98106" lon="1.9149">
        <ele>186.35843</ele>
        <time>2014-10-18T15:22:11Z</time>
      </trkpt>
      <trkpt lat="43.98109" lon="1.91482">
        <ele>186.35843</ele>
        <time>2014-10-18T15:22:16Z</time>
      </trkpt>
      <trkpt lat="43.9811" lon="1.91474">
        <ele>185.42711</ele>
        <time>2014-10-18T15:22:21Z</time>
      </trkpt>
      <trkpt lat="43.98112" lon="1.91466">
        <ele>185.42711</ele>
        <time>2014-10-18T15:22:26Z</time>
      </trkpt>
      <trkpt lat="43.98115" lon="1.91458">
        <ele>184.19128</ele>
        <time>2014-10-18T15:22:31Z</time>
      </trkpt>
      <trkpt lat="43.98117" lon="1.91448">
        <ele>184.19128</ele>
        <time>2014-10-18T15:22:36Z</time>
      </trkpt>
      <trkpt lat="43.98121" lon="1.9144">
        <ele>183.9574</ele>
        <time>2014-10-18T15:22:41Z</time>
      </trkpt>
      <trkpt lat="43.98125" lon="1.91432">
        <ele>183.9574</ele>
        <time>2014-10-18T15:22:46Z</time>
      </trkpt>
      <trkpt lat="43.98127" lon="1.91423">
        <ele>183.75687</ele>
        <time>2014-10-18T15:22:51Z</time>
      </trkpt>
      <trkpt lat="43.98127" lon="1.91416">
        <ele>183.75687</ele>
        <time>2014-10-18T15:22:56Z</time>
      </trkpt>
      <trkpt lat="43.98128" lon="1.91407">
        <ele>184.47908</ele>
        <time>2014-10-18T15:23:01Z</time>
      </trkpt>
      <trkpt lat="43.9813" lon="1.91397">
        <ele>184.47908</ele>
        <time>2014-10-18T15:23:06Z</time>
      </trkpt>
      <trkpt lat="43.98131" lon="1.91389">
        <ele>185.28813</ele>
        <time>2014-10-18T15:23:11Z</time>
      </trkpt>
      <trkpt lat="43.98131" lon="1.9138">
        <ele>185.28813</ele>
        <time>2014-10-18T15:23:16Z</time>
      </trkpt>
      <trkpt lat="43.98131" lon="1.91372">
        <ele>186.0721</ele>
        <time>2014-10-18T15:23:21Z</time>
      </trkpt>
      <trkpt lat="43.98133" lon="1.91364">
        <ele>186.0721</ele>
        <time>2014-10-18T15:23:26Z</time>
      </trkpt>
      <trkpt lat="43.98135" lon="1.91357">
        <ele>186.45354</ele>
        <time>2014-10-18T15:23:31Z</time>
      </trkpt>
      <trkpt lat="43.98135" lon="1.91351">
        <ele>186.45354</ele>
        <time>2014-10-18T15:23:36Z</time>
      </trkpt>
      <trkpt lat="43.98136" lon="1.91343">
        <ele>186.58813</ele>
        <time>2014-10-18T15:23:41Z</time>
      </trkpt>
      <trkpt lat="43.98135" lon="1.91334">
        <ele>186.58813</ele>
        <time>2014-10-18T15:23:46Z</time>
      </trkpt>
      <trkpt lat="43.98137" lon="1.91326">
        <ele>186.50558</ele>
        <time>2014-10-18T15:23:51Z</time>
      </trkpt>
      <trkpt lat="43.98139" lon="1.91317">
        <ele>186.50558</ele>
        <time>2014-10-18T15:23:56Z</time>
      </trkpt>
      <trkpt lat="43.98139" lon="1.91308">
        <ele>186.85365</ele>
        <time>2014-10-18T15:24:01Z</time>
      </trkpt>
      <trkpt lat="43.98138" lon="1.91299">
        <ele>186.85365</ele>
        <time>2014-10-18T15:24:06Z</time>
      </trkpt>
      <trkpt lat="43.98137" lon="1.9129">
        <ele>187.04958</ele>
        <time>2014-10-18T15:24:11Z</time>
      </trkpt>
      <trkpt lat="43.98136" lon="1.91281">
        <ele>187.04958</ele>
        <time>2014-10-18T15:24:16Z</time>
      </trkpt>
      <trkpt lat="43.98137" lon="1.91272">
        <ele>187.37532</ele>
        <time>2014-10-18T15:24:21Z</time>
      </trkpt>
      <trkpt lat="43.98139" lon="1.91264">
        <ele>187.37532</ele>
        <time>2014-10-18T15:24:26Z</time>
      </trkpt>
      <trkpt lat="43.98142" lon="1.91256">
        <ele>187.65941</ele>
        <time>2014-10-18T15:24:31Z</time>
      </trkpt>
      <trkpt lat="43.98145" lon="1.91248">
        <ele>187.65941</ele>
        <time>2014-10-18T15:24:36Z</time>
      </trkpt>
      <trkpt lat="43.98148" lon="1.91241">
        <ele>187.29637</ele>
        <time>2014-10-18T15:24:41Z</time>
      </trkpt>
      <trkpt lat="43.98153" lon="1.91236">
        <ele>187.29637</ele>
        <time>2014-10-18T15:24:46Z</time>
      </trkpt>
      <trkpt lat="43.98159" lon="1.91231">
        <ele>187.1682</ele>
        <time>2014-10-18T15:24:51Z</time>
      </trkpt>
      <trkpt lat="43.98166" lon="1.91227">
        <ele>187.1682</ele>
        <time>2014-10-18T15:24:56Z</time>
      </trkpt>
      <trkpt lat="43.98173" lon="1.91224">
        <ele>186.75119</ele>
        <time>2014-10-18T15:25:01Z</time>
      </trkpt>
      <trkpt lat="43.98181" lon="1.91223">
        <ele>186.75119</ele>
        <time>2014-10-18T15:25:06Z</time>
      </trkpt>
      <trkpt lat="43.98186" lon="1.91216">
        <ele>186.65625</ele>
        <time>2014-10-18T15:25:11Z</time>
      </trkpt>
      <trkpt lat="43.98191" lon="1.9121">
        <ele>186.65625</ele>
        <time>2014-10-18T15:25:16Z</time>
      </trkpt>
      <trkpt lat="43.98196" lon="1.91206">
        <ele>186.84323</ele>
        <time>2014-10-18T15:25:21Z</time>
      </trkpt>
      <trkpt lat="43.98201" lon="1.91201">
        <ele>186.84323</ele>
        <time>2014-10-18T15:25:26Z</time>
      </trkpt>
      <trkpt lat="43.98207" lon="1.91196">
        <ele>187.43277</ele>
        <time>2014-10-18T15:25:31Z</time>
      </trkpt>
      <trkpt lat="43.98212" lon="1.91191">
        <ele>187.43277</ele>
        <time>2014-10-18T15:25:36Z</time>
      </trkpt>
      <trkpt lat="43.98217" lon="1.91187">
        <ele>188.75168</ele>
        <time>2014-10-18T15:25:41Z</time>
      </trkpt>
      <trkpt lat="43.9822" lon="1.91181">
        <ele>188.75168</ele>
        <time>2014-10-18T15:25:46Z</time>
      </trkpt>
      <trkpt lat="43.98225" lon="1.91177">
        <ele>189.51558</ele>
        <time>2014-10-18T15:25:51Z</time>
      </trkpt>
      <trkpt lat="43.9823" lon="1.91172">
        <ele>189.51558</ele>
        <time>2014-10-18T15:25:56Z</time>
      </trkpt>
      <trkpt lat="43.98235" lon="1.91166">
        <ele>189.53041</ele>
        <time>2014-10-18T15:26:01Z</time>
      </trkpt>
      <trkpt lat="43.98236" lon="1.91158">
        <ele>189.53041</ele>
        <time>2014-10-18T15:26:06Z</time>
      </trkpt>
      <trkpt lat="43.9824" lon="1.91153">
        <ele>189.36794</ele>
        <time>2014-10-18T15:26:11Z</time>
      </trkpt>
      <trkpt lat="43.98245" lon="1.91149">
        <ele>189.36794</ele>
        <time>2014-10-18T15:26:16Z</time>
      </trkpt>
      <trkpt lat="43.98251" lon="1.91146">
        <ele>189.77467</ele>
        <time>2014-10-18T15:26:21Z</time>
      </trkpt>
      <trkpt lat="43.98258" lon="1.91144">
        <ele>189.77467</ele>
        <time>2014-10-18T15:26:26Z</time>
      </trkpt>
      <trkpt lat="43.98265" lon="1.91145">
        <ele>190.70576</ele>
        <time>2014-10-18T15:26:31Z</time>
      </trkpt>
      <trkpt lat="43.98271" lon="1.91141">
        <ele>190.70576</ele>
        <time>2014-10-18T15:26:36Z</time>
      </trkpt>
      <trkpt lat="43.98275" lon="1.91139">
        <ele>192.27686</ele>
        <time>2014-10-18T15:26:41Z</time>
      </trkpt>
      <trkpt lat="43.98281" lon="1.91137">
        <ele>192.27686</ele>
        <time>2014-10-18T15:26:46Z</time>
      </trkpt>
      <trkpt lat="43.98295" lon="1.91132">
        <ele>194.52126</ele>
        <time>2014-10-18T15:26:56Z</time>
      </trkpt>
      <trkpt lat="43.98301" lon="1.91129">
        <ele>194.52126</ele>
        <time>2014-10-18T15:27:01Z</time>
      </trkpt>
      <trkpt lat="43.98303" lon="1.91124">
        <ele>196.38727</ele>
        <time>2014-10-18T15:27:06Z</time>
      </trkpt>
      <trkpt lat="43.98305" lon="1.91122">
        <ele>196.38727</ele>
        <time>2014-10-18T15:27:11Z</time>
      </trkpt>
    </trkseg>
  </trk>
</gpx>